# Wetter Temperatur Luftdruck Luftfeuchtigkeit Sichtweite Windgeschwindigkeit Windrichtung Zeit
1 Clouds 15 1009 82 10000 5.66 350 11:50 22.04.2021
2 Clouds 15 1009 82 10000 6.69 360 11:26 22.04.2021
3 Clouds 15 1009 82 10000 5.66 20 10:47 22.04.2021
4 Clouds 15 1009 82 10000 5.14 20 10:29 22.04.2021
5 Clouds 15 1009 77 10000 6.17 10 09:59 22.04.2021
6 Clouds 15 1008 77 10000 6.69 10 09:34 22.04.2021
7 Clouds 15 1008 82 10000 7.2 10 08:48 22.04.2021
8 Clouds 15 1008 82 10000 7.2 10 08:23 22.04.2021
9 Clear 15 1008 82 10000 7.2 360 07:49 22.04.2021
10 Clouds 16 1008 72 10000 8.23 360 07:30 22.04.2021
11 Clear 16 1008 77 10000 7.2 340 06:43 22.04.2021
12 Clouds 17 1008 72 10000 6.69 350 05:54 22.04.2021
13 Clouds 17 1008 72 10000 8.75 350 05:20 22.04.2021
14 Clouds 18 1009 55 10000 5.14 350 02:24 22.04.2021
15 Clouds 14 1009 77 10000 3.6 360 23:55 21.04.2021
16 Clouds 13 1009 82 10000 4.12 30 23:37 21.04.2021
17 Clouds 12 1008 87 10000 2.57 30 22:59 21.04.2021
18 Clouds 11 1008 93 10000 3.09 10 22:38 21.04.2021
19 Clouds 11 1008 93 10000 3.09 10 22:18 21.04.2021
20 Clouds 10 1008 93 10000 3.09 30 21:41 21.04.2021
21 Clouds 10 1008 93 10000 3.09 30 21:41 21.04.2021
22 Clouds 10 1008 93 10000 3.09 30 21:19 21.04.2021
23 Clouds 11 1008 93 10000 1.54 10 20:31 21.04.2021
24 Clouds 11 1007 93 10000 1.54 30 19:49 21.04.2021
25 Clouds 10 1007 93 10000 1.54 10 19:27 21.04.2021
26 Clouds 10 1007 93 10000 1.54 60 18:52 21.04.2021
27 Clouds 10 1007 93 10000 1.54 60 18:52 21.04.2021
28 Rain 10 1007 93 10000 1.54 20 18:34 21.04.2021
29 Clouds 11 1007 94 9000 1.03 350 17:59 21.04.2021
30 Clouds 12 1006 88 10000 2.57 170 17:40 21.04.2021
31 Clear 12 1006 88 10000 2.57 170 17:22 21.04.2021
32 Clouds 12 1006 94 10000 3.6 200 16:40 21.04.2021
33 Clouds 13 1006 88 10000 5.66 200 15:52 21.04.2021
34 Clouds 13 1006 88 10000 5.66 200 15:25 21.04.2021
35 Clouds 13 1006 88 10000 6.17 200 14:45 21.04.2021
36 Clouds 13 1006 88 10000 6.69 190 14:27 21.04.2021
37 Clouds 13 1006 88 10000 7.2 200 13:50 21.04.2021
38 Clouds 13 1005 82 10000 6.69 190 13:22 21.04.2021
39 Clouds 13 1005 82 10000 6.69 190 12:47 21.04.2021
40 Clouds 13 1005 88 10000 6.69 190 12:23 21.04.2021
41 Clouds 13 1004 88 10000 6.17 180 11:46 21.04.2021
42 Clouds 13 1004 88 10000 6.17 180 11:23 21.04.2021
43 Clouds 14 1003 82 10000 6.69 180 10:40 21.04.2021
44 Clouds 14 1002 82 10000 6.69 190 09:57 21.04.2021
45 Clouds 14 1002 82 10000 5.66 190 09:26 21.04.2021
46 Clouds 14 1001 82 10000 6.69 180 08:50 21.04.2021
47 Clouds 14 1001 82 10000 7.2 180 08:24 21.04.2021
48 Clouds 14 1001 82 10000 7.2 180 07:54 21.04.2021
49 Clouds 15 1000 82 10000 6.69 190 07:28 21.04.2021
50 Clouds 16 1000 67 10000 7.72 160 06:22 21.04.2021
51 Clouds 17 1001 67 10000 6.17 190 02:28 21.04.2021
52 Clouds 15 1001 94 10000 5.14 210 00:20 21.04.2021
53 Clouds 15 1002 94 10000 1.54 20 23:40 20.04.2021
54 Clouds 14 1002 94 10000 3.09 30 22:49 20.04.2021
55 Clouds 14 1001 100 10000 2.06 360 22:24 20.04.2021
56 Clouds 14 1001 100 10000 2.06 20 21:57 20.04.2021
57 Clouds 13 1001 100 10000 1.03 110 21:39 20.04.2021
58 Clouds 14 1001 100 10000 1.03 110 21:21 20.04.2021
59 Clouds 14 1002 100 10000 0.51 30 20:39 20.04.2021
60 Clouds 14 1002 100 10000 0.51 30 20:20 20.04.2021
61 Clouds 14 1002 100 10000 1.03 40 19:47 20.04.2021
62 Clouds 13 1003 100 10000 2.06 40 19:29 20.04.2021
63 Clouds 13 1003 100 10000 1.03 30 18:46 20.04.2021
64 Clouds 13 1003 100 10000 0.51 340 18:28 20.04.2021
65 Clouds 13 1004 100 10000 0.51 40 17:41 20.04.2021
66 Clouds 14 1004 100 10000 0.51 360 16:53 20.04.2021
67 Clouds 14 1005 94 10000 0.51 180 16:34 20.04.2021
68 Clouds 13 1005 100 10000 1.03 20 15:40 20.04.2021
69 Clouds 14 1005 100 10000 1.03 20 15:19 20.04.2021
70 Drizzle 13 1006 94 10000 2.06 40 14:45 20.04.2021
71 Clouds 13 1006 94 10000 1.54 30 14:22 20.04.2021
72 Clouds 13 1007 94 10000 1.54 40 13:28 20.04.2021
73 Clouds 14 1008 94 10000 1.03 360 12:55 20.04.2021
74 Clouds 14 1008 88 10000 0.51 70 12:27 20.04.2021
75 Clouds 14 1009 94 10000 2.57 360 11:46 20.04.2021
76 Drizzle 14 1009 82 10000 3.09 20 11:25 20.04.2021
77 Drizzle 14 1009 82 10000 2.57 50 10:48 20.04.2021
78 Drizzle 14 1010 88 10000 3.6 40 10:24 20.04.2021
79 Clouds 14 1010 82 10000 5.14 10 09:50 20.04.2021
80 Clouds 15 1010 72 10000 5.14 10 09:18 20.04.2021
81 Clouds 15 1010 72 10000 5.14 10 08:42 20.04.2021
82 Clouds 15 1010 72 10000 4.63 10 07:58 20.04.2021
83 Clouds 15 1011 72 10000 6.17 10 07:31 20.04.2021
84 Clouds 15 1012 77 10000 5.66 10 05:42 20.04.2021
85 Clouds 15 1012 77 10000 6.17 20 04:57 20.04.2021
86 Clouds 15 1013 82 10000 5.66 350 03:41 20.04.2021
87 Rain 15 1016 88 9000 7.2 20 00:51 20.04.2021
88 Clouds 15 1016 82 10000 8.23 20 23:53 19.04.2021
89 Clouds 15 1016 82 10000 8.75 10 23:29 19.04.2021
90 Clouds 15 1016 77 10000 7.2 10 22:39 19.04.2021
91 Clouds 15 1016 77 10000 7.2 10 22:19 19.04.2021
92 Clouds 15 1015 82 10000 8.23 10 21:38 19.04.2021
93 Clouds 15 1015 82 10000 8.23 10 21:20 19.04.2021
94 Clouds 15 1015 82 10000 8.23 10 21:20 19.04.2021
95 Clouds 15 1015 77 10000 8.23 360 20:41 19.04.2021
96 Clouds 15 1015 77 10000 8.23 360 20:20 19.04.2021
97 Clouds 15 1015 77 10000 8.23 360 19:46 19.04.2021
98 Clouds 15 1015 77 10000 7.2 10 19:25 19.04.2021
99 Clouds 15 1015 77 10000 8.23 10 18:49 19.04.2021
100 Clouds 15 1015 77 10000 8.75 10 18:24 19.04.2021
101 Clouds 15 1015 82 10000 9.26 10 17:58 19.04.2021
102 Clouds 15 1015 82 10000 8.75 360 17:39 19.04.2021
103 Clouds 15 1015 82 10000 8.75 360 17:20 19.04.2021
104 Clouds 15 1016 77 10000 9.77 360 16:41 19.04.2021
105 Clouds 15 1016 77 10000 9.77 360 16:21 19.04.2021
106 Clouds 15 1016 77 10000 10.8 360 15:40 19.04.2021
107 Clouds 15 1016 77 10000 10.8 360 15:22 19.04.2021
108 Clouds 15 1016 77 10000 10.8 360 14:38 19.04.2021
109 Clouds 15 1016 77 10000 10.8 360 14:19 19.04.2021
110 Clouds 16 1016 77 10000 10.29 360 13:44 19.04.2021
111 Clouds 16 1016 82 10000 10.8 360 13:25 19.04.2021
112 Clouds 15 1016 82 10000 10.29 360 12:43 19.04.2021
113 Clouds 15 1016 82 10000 10.29 360 12:43 19.04.2021
114 Clouds 15 1015 82 10000 10.29 10 12:23 19.04.2021
115 Clouds 15 1015 82 10000 8.23 10 11:54 19.04.2021
116 Clouds 15 1015 82 10000 8.23 360 11:26 19.04.2021
117 Clouds 15 1015 82 10000 8.23 360 10:47 19.04.2021
118 Clouds 15 1015 82 10000 7.72 360 10:25 19.04.2021
119 Clouds 15 1015 82 10000 6.17 350 09:50 19.04.2021
120 Clouds 16 1015 77 10000 6.69 350 09:30 19.04.2021
121 Clouds 16 1015 77 10000 6.69 350 09:30 19.04.2021
122 Clouds 16 1015 72 10000 6.17 340 08:59 19.04.2021
123 Clouds 16 1014 67 10000 6.17 330 08:28 19.04.2021
124 Clouds 16 1014 72 10000 7.72 340 07:48 19.04.2021
125 Clouds 16 1014 72 10000 7.2 360 07:19 19.04.2021
126 Clouds 17 1014 72 10000 8.23 360 06:36 19.04.2021
127 Clouds 18 1015 59 10000 7.2 350 02:36 19.04.2021
128 Rain 18 1015 55 10000 8.23 350 01:27 19.04.2021
129 Clouds 16 1015 63 10000 6.17 350 23:56 18.04.2021
130 Clouds 16 1015 63 10000 5.66 350 23:18 18.04.2021
131 Clouds 15 1014 67 10000 7.2 340 22:48 18.04.2021
132 Clouds 15 1014 67 10000 6.17 350 22:29 18.04.2021
133 Clouds 14 1013 72 10000 6.69 350 21:41 18.04.2021
134 Clouds 14 1013 72 10000 6.69 350 21:20 18.04.2021
135 Clouds 14 1013 72 10000 6.17 350 20:40 18.04.2021
136 Clear 14 1013 72 10000 6.17 350 20:20 18.04.2021
137 Clear 14 1013 72 10000 6.69 340 19:49 18.04.2021
138 Clear 14 1012 72 10000 7.2 350 19:29 18.04.2021
139 Clear 15 1012 63 10000 7.2 340 18:54 18.04.2021
140 Clear 15 1012 63 10000 6.69 340 18:31 18.04.2021
141 Clear 15 1012 63 10000 8.23 340 17:55 18.04.2021
142 Rain 15 1012 67 10000 7.2 340 17:37 18.04.2021
143 Rain 15 1012 67 10000 7.2 340 17:18 18.04.2021
144 Clear 15 1012 67 10000 6.69 360 16:41 18.04.2021
145 Clear 15 1012 67 10000 7.72 350 15:59 18.04.2021
146 Clear 15 1012 63 10000 8.23 340 15:38 18.04.2021
147 Clear 15 1012 63 10000 8.23 340 15:18 18.04.2021
148 Clear 15 1012 63 10000 6.69 340 14:41 18.04.2021
149 Clear 15 1012 63 10000 6.69 340 14:19 18.04.2021
150 Clear 15 1012 63 10000 6.69 340 13:49 18.04.2021
151 Clear 15 1012 63 10000 6.69 340 13:49 18.04.2021
152 Clear 15 1012 67 10000 6.69 350 13:29 18.04.2021
153 Clear 14 1013 72 10000 4.12 30 12:38 18.04.2021
154 Clear 14 1012 72 10000 5.14 20 11:59 18.04.2021
155 Clear 14 1012 72 10000 5.14 20 11:40 18.04.2021
156 Clear 14 1012 72 10000 5.14 20 11:20 18.04.2021
157 Clear 14 1012 72 10000 5.66 20 10:44 18.04.2021
158 Clear 14 1013 77 10000 6.17 10 10:19 18.04.2021
159 Clear 13 1012 63 10000 6.69 10 09:39 18.04.2021
160 Rain 13 1012 63 10000 6.69 10 09:21 18.04.2021
161 Clear 13 1012 58 10000 6.69 10 08:46 18.04.2021
162 Clear 14 1012 58 10000 7.2 10 08:26 18.04.2021
163 Clear 15 1012 59 10000 8.23 360 07:40 18.04.2021
164 Clear 16 1012 55 10000 7.72 350 06:54 18.04.2021
165 Clear 17 1012 55 10000 8.75 10 05:26 18.04.2021
166 Clear 17 1012 55 10000 8.75 10 04:44 18.04.2021
167 Clear 17 1013 48 10000 5.66 10 02:23 18.04.2021
168 Clouds 16 1013 55 10000 1.03 30 00:58 18.04.2021
169 Clouds 14 1013 63 10000 3.09 360 23:57 17.04.2021
170 Clouds 13 1013 77 10000 4.12 360 23:24 17.04.2021
171 Clouds 13 1013 82 10000 4.12 360 22:44 17.04.2021
172 Clouds 13 1013 76 10000 3.6 10 22:22 17.04.2021
173 Clouds 12 1012 76 10000 3.09 20 21:43 17.04.2021
174 Clouds 11 1012 87 10000 3.6 20 21:22 17.04.2021
175 Clouds 11 1011 87 10000 4.63 30 20:37 17.04.2021
176 Clouds 11 1011 87 10000 4.63 30 20:19 17.04.2021
177 Clouds 11 1011 82 10000 3.6 30 19:39 17.04.2021
178 Clouds 11 1011 82 10000 3.6 30 19:19 17.04.2021
179 Clouds 11 1011 82 10000 3.6 40 18:46 17.04.2021
180 Clouds 11 1011 76 10000 4.12 10 18:21 17.04.2021
181 Clouds 11 1012 76 10000 3.6 10 17:41 17.04.2021
182 Clouds 11 1012 76 10000 5.14 10 16:56 17.04.2021
183 Clouds 11 1013 76 10000 4.12 20 16:34 17.04.2021
184 Clouds 11 1013 76 10000 4.63 20 15:58 17.04.2021
185 Clouds 10 1013 81 10000 3.6 20 15:19 17.04.2021
186 Clouds 9 1012 87 10000 4.12 10 14:42 17.04.2021
187 Clouds 9 1013 87 10000 3.09 40 14:19 17.04.2021
188 Clouds 9 1013 82 10000 2.57 40 13:41 17.04.2021
189 Clouds 10 1013 82 10000 3.09 30 12:47 17.04.2021
190 Clouds 10 1013 82 10000 3.09 40 12:22 17.04.2021
191 Clouds 10 1013 82 10000 1.54 60 11:50 17.04.2021
192 Clouds 10 1013 82 10000 1.03 350 11:31 17.04.2021
193 Clouds 10 1013 76 10000 1.54 30 10:48 17.04.2021
194 Clouds 11 1013 76 10000 1.54 80 10:29 17.04.2021
195 Clouds 11 1013 71 10000 2.57 160 09:44 17.04.2021
196 Clouds 12 1012 67 10000 3.6 170 08:42 17.04.2021
197 Clouds 12 1012 71 10000 4.63 160 08:24 17.04.2021
198 Clouds 12 1011 71 10000 6.69 160 07:20 17.04.2021
199 Clouds 14 1011 67 10000 9.77 190 03:57 17.04.2021
200 Clouds 14 1011 72 10000 11.32 190 03:38 17.04.2021
201 Clouds 13 1010 76 10000 10.8 200 00:49 17.04.2021
202 Clouds 13 1010 76 10000 11.32 190 00:29 17.04.2021
203 Clouds 12 1010 71 10000 10.8 190 23:52 16.04.2021
204 Clouds 12 1010 76 10000 11.83 200 23:29 16.04.2021
205 Clouds 12 1009 76 10000 11.83 190 22:51 16.04.2021
206 Clouds 12 1008 76 10000 9.77 200 22:22 16.04.2021
207 Clouds 12 1008 82 10000 8.75 200 21:51 16.04.2021
208 Clouds 11 1007 76 10000 7.2 180 21:30 16.04.2021
209 Clouds 11 1007 71 10000 7.2 180 20:50 16.04.2021
210 Clouds 11 1007 76 10000 8.23 170 20:27 16.04.2021
211 Clouds 11 1007 76 10000 8.75 180 19:55 16.04.2021
212 Clouds 11 1006 76 10000 9.26 190 19:30 16.04.2021
213 Clouds 11 1006 87 10000 9.26 170 18:43 16.04.2021
214 Clouds 11 1005 94 8000 8.75 150 18:20 16.04.2021
215 Clouds 12 1004 94 10000 8.75 150 17:45 16.04.2021
216 Clouds 12 1004 88 10000 8.75 170 17:19 16.04.2021
217 Clouds 13 1004 88 10000 11.83 170 16:43 16.04.2021
218 Clouds 13 1004 94 10000 10.8 190 16:24 16.04.2021
219 Clouds 15 1003 63 10000 6.17 240 15:48 16.04.2021
220 Clouds 15 1003 77 10000 1.03 10 15:21 16.04.2021
221 Clouds 16 1002 72 10000 4.63 350 14:42 16.04.2021
222 Clouds 16 1002 72 10000 4.63 350 14:19 16.04.2021
223 Clouds 16 1002 72 10000 5.14 340 13:46 16.04.2021
224 Clouds 16 1002 72 10000 6.17 340 13:20 16.04.2021
225 Clouds 16 1002 72 10000 5.66 340 12:48 16.04.2021
226 Clouds 16 1002 77 10000 5.14 320 12:29 16.04.2021
227 Clouds 16 1002 72 10000 5.66 330 11:54 16.04.2021
228 Clouds 16 1002 72 10000 6.17 340 11:27 16.04.2021
229 Clouds 16 1002 77 10000 7.2 340 10:56 16.04.2021
230 Clouds 16 1003 72 10000 6.69 340 10:35 16.04.2021
231 Clouds 17 1003 68 10000 7.2 340 09:53 16.04.2021
232 Clouds 17 1003 68 10000 6.17 340 09:25 16.04.2021
233 Clouds 17 1003 68 10000 6.17 340 09:25 16.04.2021
234 Clouds 16 1002 77 10000 7.2 350 08:55 16.04.2021
235 Clear 17 1002 72 10000 8.23 350 08:36 16.04.2021
236 Clouds 17 1002 72 10000 8.23 350 08:18 16.04.2021
237 Clouds 17 1002 72 10000 9.77 350 07:35 16.04.2021
238 Clouds 17 1002 72 10000 9.77 350 07:35 16.04.2021
239 Clouds 17 1001 68 10000 8.75 350 06:58 16.04.2021
240 Clouds 18 1002 68 10000 9.26 340 05:34 16.04.2021
241 Clear 19 1002 60 10000 8.75 340 04:20 16.04.2021
242 Clouds 18 1004 68 10000 7.72 350 00:55 16.04.2021
243 Clear 18 1004 63 10000 7.72 350 00:37 16.04.2021
244 Clear 18 1004 63 10000 7.72 350 00:18 16.04.2021
245 Clear 18 1004 63 10000 8.23 360 23:37 15.04.2021
246 Clear 17 1004 59 10000 6.69 340 22:54 15.04.2021
247 Clear 16 1004 63 10000 5.66 350 22:35 15.04.2021
248 Clear 16 1003 67 10000 7.72 350 21:59 15.04.2021
249 Clear 15 1003 67 10000 5.14 340 21:41 15.04.2021
250 Clear 15 1003 67 10000 5.14 340 21:20 15.04.2021
251 Clear 15 1003 72 10000 6.17 340 20:42 15.04.2021
252 Clear 15 1003 72 10000 5.14 330 20:21 15.04.2021
253 Clear 15 1003 72 10000 4.63 330 19:44 15.04.2021
254 Clear 15 1003 72 10000 4.63 340 19:24 15.04.2021
255 Clear 14 1003 88 10000 4.63 10 18:42 15.04.2021
256 Clear 14 1003 88 10000 4.63 10 18:21 15.04.2021
257 Clear 14 1003 88 10000 2.57 20 17:55 15.04.2021
258 Clear 14 1003 88 10000 2.57 20 17:55 15.04.2021
259 Clear 14 1003 88 10000 3.09 30 17:36 15.04.2021
260 Clear 14 1003 94 10000 2.57 30 16:57 15.04.2021
261 Clear 14 1003 94 10000 2.57 30 16:57 15.04.2021
262 Clear 14 1003 88 10000 4.12 30 16:39 15.04.2021
263 Clear 14 1003 88 10000 4.12 30 16:20 15.04.2021
264 Clear 14 1003 88 10000 4.63 20 15:44 15.04.2021
265 Clear 14 1003 88 10000 4.63 20 15:25 15.04.2021
266 Clear 14 1003 88 10000 4.63 20 15:25 15.04.2021
267 Clouds 14 1003 88 10000 5.14 20 14:40 15.04.2021
268 Clouds 14 1003 88 10000 5.14 20 14:22 15.04.2021
269 Clouds 14 1003 88 10000 5.14 20 13:42 15.04.2021
270 Clouds 14 1003 88 10000 5.14 20 13:18 15.04.2021
271 Clouds 15 1003 88 10000 5.14 20 12:40 15.04.2021
272 Clouds 15 1003 88 10000 5.14 20 12:40 15.04.2021
273 Clouds 15 1003 88 10000 5.14 20 12:21 15.04.2021
274 Clouds 15 1003 88 10000 5.14 20 12:21 15.04.2021
275 Clouds 15 1002 82 10000 5.14 20 11:45 15.04.2021
276 Clouds 15 1002 82 10000 5.14 20 11:23 15.04.2021
277 Clouds 15 1002 82 10000 5.66 360 10:50 15.04.2021
278 Clouds 15 1002 82 10000 5.66 10 10:27 15.04.2021
279 Clouds 15 1002 82 10000 5.66 10 09:48 15.04.2021
280 Clouds 15 1002 82 10000 7.2 360 09:23 15.04.2021
281 Clouds 16 1002 77 10000 6.17 350 08:47 15.04.2021
282 Clouds 15 1002 77 10000 6.69 360 08:21 15.04.2021
283 Clouds 16 1001 72 10000 6.17 330 07:24 15.04.2021
284 Clouds 16 1001 67 10000 7.2 330 06:40 15.04.2021
285 Clouds 16 1001 67 10000 7.2 330 06:21 15.04.2021
286 Clouds 16 1001 67 10000 7.72 350 04:51 15.04.2021
287 Clouds 16 1003 67 10000 7.2 360 01:24 15.04.2021
288 Clouds 16 1004 67 10000 6.69 340 23:42 14.04.2021
289 Clouds 15 1004 67 10000 6.69 340 23:22 14.04.2021
290 Clouds 15 1004 72 10000 7.2 350 22:46 14.04.2021
291 Clouds 15 1004 77 10000 5.14 360 22:25 14.04.2021
292 Clouds 13 1004 88 10000 6.17 30 21:49 14.04.2021
293 Clouds 13 1004 82 10000 5.14 30 21:31 14.04.2021
294 Clouds 14 1004 88 10000 7.72 360 20:56 14.04.2021
295 Clouds 13 1004 82 10000 6.17 10 20:34 14.04.2021
296 Clouds 13 1004 82 10000 6.17 10 20:34 14.04.2021
297 Clouds 12 1004 88 10000 4.63 30 19:54 14.04.2021
298 Clouds 12 1004 82 10000 5.66 20 19:21 14.04.2021
299 Clouds 12 1004 88 10000 4.63 20 18:57 14.04.2021
300 Clouds 12 1004 88 10000 4.63 30 18:22 14.04.2021
301 Clouds 12 1004 88 10000 4.63 30 18:22 14.04.2021
302 Clouds 12 1005 88 10000 5.14 20 17:59 14.04.2021
303 Clouds 12 1005 82 10000 4.63 20 17:28 14.04.2021
304 Clouds 12 1005 88 10000 4.63 350 16:54 14.04.2021
305 Clear 11 1005 93 10000 3.6 30 16:28 14.04.2021
306 Clear 11 1006 87 10000 3.6 30 15:47 14.04.2021
307 Clear 10 1006 93 10000 4.63 10 15:28 14.04.2021
308 Clear 10 1006 87 10000 3.6 10 14:56 14.04.2021
309 Clear 10 1006 93 10000 3.6 30 14:37 14.04.2021
310 Clear 10 1006 93 10000 3.6 30 14:18 14.04.2021
311 Clear 10 1006 93 10000 3.09 30 13:44 14.04.2021
312 Clear 10 1006 93 10000 2.06 40 12:41 14.04.2021
313 Clear 10 1006 93 10000 2.06 40 12:18 14.04.2021
314 Clear 11 1006 87 10000 1.54 40 11:39 14.04.2021
315 Clear 11 1006 87 10000 1.54 40 11:39 14.04.2021
316 Clear 11 1006 87 10000 1.54 40 11:19 14.04.2021
317 Clear 11 1005 87 10000 1.54 30 10:33 14.04.2021
318 Clear 12 1006 82 10000 1.54 150 09:43 14.04.2021
319 Clear 13 1005 77 10000 1.54 150 09:23 14.04.2021
320 Clear 13 1005 77 10000 2.57 150 08:48 14.04.2021
321 Clear 13 1005 82 10000 3.6 140 08:23 14.04.2021
322 Clouds 14 1004 77 10000 4.63 170 07:28 14.04.2021
323 Clouds 15 1004 77 10000 5.14 160 06:28 14.04.2021
324 Clouds 15 1004 77 10000 6.69 170 05:24 14.04.2021
325 Clouds 16 1004 67 10000 3.6 170 02:24 14.04.2021
326 Clouds 15 1003 72 10000 2.06 290 00:50 14.04.2021
327 Clouds 14 1003 82 10000 1.54 340 00:27 14.04.2021
328 Clouds 14 1003 88 10000 2.57 10 23:31 13.04.2021
329 Clouds 13 1002 88 10000 3.6 20 22:44 13.04.2021
330 Clouds 12 1002 88 10000 4.12 10 22:20 13.04.2021
331 Clouds 12 1002 88 10000 3.09 20 21:48 13.04.2021
332 Clouds 12 1002 88 10000 3.09 30 21:30 13.04.2021
333 Clouds 12 1002 88 10000 2.06 60 20:48 13.04.2021
334 Clouds 12 1002 82 10000 1.54 300 20:24 13.04.2021
335 Clouds 13 1002 77 10000 5.14 330 19:57 13.04.2021
336 Clouds 13 1002 77 10000 3.09 350 19:25 13.04.2021
337 Clouds 14 1002 77 10000 4.12 360 18:48 13.04.2021
338 Clouds 14 1002 72 10000 3.6 350 18:30 13.04.2021
339 Clouds 14 1002 72 10000 3.6 350 18:30 13.04.2021
340 Clouds 14 1003 72 10000 3.09 330 17:40 13.04.2021
341 Clouds 14 1003 72 10000 3.09 330 17:21 13.04.2021
342 Clouds 14 1003 72 10000 4.12 320 16:45 13.04.2021
343 Clouds 14 1003 67 10000 3.6 320 16:26 13.04.2021
344 Clouds 14 1003 77 10000 2.57 310 15:55 13.04.2021
345 Clouds 14 1003 72 10000 3.6 340 15:37 13.04.2021
346 Clouds 14 1003 72 10000 3.6 340 14:58 13.04.2021
347 Clear 15 1003 72 10000 4.63 340 14:24 13.04.2021
348 Clear 15 1002 72 10000 5.14 340 13:53 13.04.2021
349 Clouds 15 1002 72 10000 6.69 340 13:27 13.04.2021
350 Clouds 15 1003 72 10000 6.17 340 12:59 13.04.2021
351 Clouds 15 1003 72 10000 7.2 350 12:41 13.04.2021
352 Clouds 15 1003 72 10000 7.2 350 12:22 13.04.2021
353 Clear 14 1002 72 10000 7.2 10 11:36 13.04.2021
354 Clear 14 1002 72 10000 8.75 350 10:57 13.04.2021
355 Clear 14 1002 72 10000 8.75 350 10:57 13.04.2021
356 Clear 14 1003 77 10000 5.14 340 10:39 13.04.2021
357 Clear 14 1003 77 10000 5.14 340 10:18 13.04.2021
358 Clouds 14 1002 77 10000 7.72 340 09:42 13.04.2021
359 Clouds 14 1002 77 10000 7.72 340 09:18 13.04.2021
360 Clear 14 1002 77 10000 8.75 350 08:42 13.04.2021
361 Clouds 14 1002 77 10000 8.75 350 08:21 13.04.2021
362 Clouds 14 1003 77 10000 6.17 350 07:37 13.04.2021
363 Clouds 14 1003 77 10000 6.17 350 07:19 13.04.2021
364 Clouds 16 1003 77 10000 5.14 310 06:18 13.04.2021
365 Clouds 19 1003 68 10000 11.83 340 02:52 13.04.2021
366 Clouds 19 1004 73 10000 9.77 340 01:28 13.04.2021
367 Clouds 18 1005 77 10000 7.72 350 23:49 12.04.2021
368 Clouds 18 1005 77 10000 9.26 350 23:29 12.04.2021
369 Clouds 17 1005 77 10000 9.77 350 22:43 12.04.2021
370 Clouds 17 1005 88 10000 8.75 350 22:25 12.04.2021
371 Clouds 17 1005 82 10000 8.23 340 21:47 12.04.2021
372 Clouds 17 1005 88 10000 9.26 350 21:23 12.04.2021
373 Clouds 17 1005 88 10000 9.26 340 20:45 12.04.2021
374 Clouds 17 1005 88 9000 10.29 350 20:26 12.04.2021
375 Clouds 17 1005 82 10000 10.8 350 19:58 12.04.2021
376 Clouds 18 1005 82 10000 9.77 350 19:38 12.04.2021
377 Clouds 18 1005 82 10000 9.77 350 19:19 12.04.2021
378 Clouds 18 1005 82 10000 10.8 360 18:46 12.04.2021
379 Clouds 18 1005 82 10000 10.29 360 18:27 12.04.2021
380 Clouds 18 1006 82 10000 10.8 350 17:45 12.04.2021
381 Clouds 18 1006 82 10000 10.8 360 17:24 12.04.2021
382 Clouds 18 1006 82 10000 9.77 350 16:49 12.04.2021
383 Clouds 18 1007 88 10000 9.77 360 16:28 12.04.2021
384 Clouds 18 1007 88 10000 9.77 360 16:28 12.04.2021
385 Clouds 18 1007 88 10000 7.72 350 15:54 12.04.2021
386 Clouds 18 1007 88 10000 8.23 360 15:33 12.04.2021
387 Clouds 18 1007 88 10000 7.72 360 14:55 12.04.2021
388 Clouds 18 1008 88 10000 7.72 360 14:36 12.04.2021
389 Clouds 18 1008 82 10000 6.69 20 13:53 12.04.2021
390 Clouds 18 1008 82 10000 6.69 20 13:31 12.04.2021
391 Clouds 18 1008 82 10000 6.69 20 12:56 12.04.2021
392 Clouds 18 1008 82 10000 6.17 20 12:36 12.04.2021
393 Clouds 18 1008 82 10000 6.17 20 12:18 12.04.2021
394 Clouds 18 1008 77 10000 5.66 20 11:25 12.04.2021
395 Clouds 17 1008 77 10000 5.66 30 10:49 12.04.2021
396 Clear 17 1008 72 10000 5.66 20 10:27 12.04.2021
397 Clear 17 1008 72 10000 5.66 20 09:51 12.04.2021
398 Clear 17 1008 77 10000 6.17 20 09:23 12.04.2021
399 Clear 18 1008 72 10000 5.66 360 08:40 12.04.2021
400 Clouds 18 1008 72 10000 7.2 360 07:42 12.04.2021
401 Clouds 18 1008 72 10000 7.2 360 07:22 12.04.2021
402 Clouds 19 1009 60 10000 6.69 360 06:27 12.04.2021
403 Clouds 20 1009 60 10000 6.17 360 05:42 12.04.2021
404 Clouds 20 1010 73 10000 8.75 360 01:40 12.04.2021
405 Clouds 19 1011 77 10000 8.23 360 00:26 12.04.2021
406 Clouds 18 1011 77 10000 7.72 360 23:49 11.04.2021
407 Clouds 18 1011 77 10000 6.69 10 23:31 11.04.2021
408 Clouds 17 1011 82 10000 5.14 20 22:48 11.04.2021
409 Clouds 16 1011 88 10000 6.17 20 22:26 11.04.2021
410 Clouds 16 1011 88 10000 5.14 20 21:52 11.04.2021
411 Clouds 16 1011 88 10000 6.69 20 21:31 11.04.2021
412 Clouds 16 1011 88 10000 7.72 10 20:59 11.04.2021
413 Clouds 16 1011 88 10000 6.17 20 20:39 11.04.2021
414 Clouds 16 1011 88 10000 6.17 20 20:20 11.04.2021
415 Clouds 16 1010 88 10000 6.17 10 19:40 11.04.2021
416 Clouds 16 1010 88 10000 6.17 10 19:19 11.04.2021
417 Clouds 16 1010 88 10000 6.17 10 19:19 11.04.2021
418 Clouds 16 1011 88 10000 5.66 10 18:47 11.04.2021
419 Clouds 16 1011 82 10000 5.14 20 18:26 11.04.2021
420 Clouds 16 1010 82 10000 5.14 20 17:50 11.04.2021
421 Clouds 16 1010 88 10000 5.66 10 17:30 11.04.2021
422 Clouds 16 1010 88 10000 5.66 10 17:30 11.04.2021
423 Clouds 16 1010 88 10000 5.66 10 17:30 11.04.2021
424 Clouds 16 1011 88 10000 5.14 10 16:59 11.04.2021
425 Clouds 16 1011 88 10000 6.69 350 16:40 11.04.2021
426 Clouds 16 1011 88 10000 6.69 350 16:20 11.04.2021
427 Clouds 17 1011 82 10000 6.17 340 15:42 11.04.2021
428 Clouds 17 1011 82 10000 6.17 340 15:22 11.04.2021
429 Clouds 17 1011 77 10000 6.69 340 14:49 11.04.2021
430 Clouds 17 1011 77 10000 7.2 340 14:19 11.04.2021
431 Clouds 17 1011 82 10000 7.2 340 13:40 11.04.2021
432 Clouds 17 1011 82 10000 7.2 340 13:22 11.04.2021
433 Clouds 17 1011 82 10000 6.69 350 12:26 11.04.2021
434 Clouds 17 1010 82 10000 6.69 350 11:56 11.04.2021
435 Clouds 17 1010 82 10000 7.72 360 11:38 11.04.2021
436 Clouds 17 1010 82 10000 7.72 360 11:19 11.04.2021
437 Clouds 17 1009 82 10000 6.69 360 10:40 11.04.2021
438 Clouds 17 1009 82 10000 6.69 360 10:20 11.04.2021
439 Clouds 17 1009 82 10000 7.2 350 09:43 11.04.2021
440 Clouds 17 1009 82 10000 8.23 20 09:25 11.04.2021
441 Clouds 17 1008 82 10000 7.2 350 08:39 11.04.2021
442 Clouds 18 1008 77 10000 6.17 340 07:38 11.04.2021
443 Clouds 18 1008 77 10000 6.17 340 07:19 11.04.2021
444 Clouds 19 1008 68 10000 7.72 340 05:47 11.04.2021
445 Clouds 19 1007 64 10000 8.23 350 05:22 11.04.2021
446 Clouds 19 1007 68 10000 9.26 350 04:35 11.04.2021
447 Clouds 19 1007 68 10000 9.26 350 04:35 11.04.2021
448 Clouds 19 1007 73 10000 9.77 360 03:35 11.04.2021
449 Clouds 19 1007 73 10000 9.26 360 00:51 11.04.2021
450 Clouds 19 1007 77 10000 8.23 360 00:25 11.04.2021
451 Clouds 18 1007 77 10000 7.2 350 23:44 10.04.2021
452 Clouds 18 1006 88 10000 7.2 350 22:55 10.04.2021
453 Clouds 18 1006 82 10000 7.2 350 22:28 10.04.2021
454 Clouds 17 1005 88 10000 7.72 350 21:53 10.04.2021
455 Clouds 18 1005 82 10000 8.23 340 21:24 10.04.2021
456 Clouds 17 1004 82 10000 9.26 350 20:55 10.04.2021
457 Clouds 18 1004 82 10000 10.8 360 20:34 10.04.2021
458 Clouds 17 1003 88 10000 9.77 360 19:58 10.04.2021
459 Clouds 18 1003 82 10000 8.23 350 19:40 10.04.2021
460 Rain 18 1003 82 10000 8.23 350 19:21 10.04.2021
461 Clouds 18 1003 82 10000 8.75 350 18:41 10.04.2021
462 Clouds 18 1003 82 10000 8.75 350 18:23 10.04.2021
463 Clouds 17 1003 88 10000 9.26 360 17:35 10.04.2021
464 Clouds 17 1003 88 10000 7.72 20 16:37 10.04.2021
465 Clouds 17 1003 88 10000 7.72 20 16:19 10.04.2021
466 Clouds 17 1003 88 10000 7.72 360 15:43 10.04.2021
467 Clouds 17 1003 94 10000 9.77 350 14:52 10.04.2021
468 Clouds 17 1002 94 6000 10.8 10 14:30 10.04.2021
469 Haze 17 1001 94 5000 12.35 10 13:54 10.04.2021
470 Clouds 17 1001 94 6000 11.32 360 13:34 10.04.2021
471 Clouds 17 1001 88 10000 8.75 10 12:39 10.04.2021
472 Clouds 17 1001 88 10000 8.75 10 12:18 10.04.2021
473 Clouds 17 1001 88 8000 8.75 360 11:44 10.04.2021
474 Clouds 18 1001 73 10000 9.77 10 11:20 10.04.2021
475 Clouds 19 1001 68 10000 10.29 10 10:44 10.04.2021
476 Clouds 19 1001 68 10000 9.77 20 10:26 10.04.2021
477 Clouds 19 1001 68 10000 10.29 10 09:37 10.04.2021
478 Clouds 19 1001 68 10000 10.29 10 09:18 10.04.2021
479 Clouds 18 1001 72 10000 9.26 10 08:33 10.04.2021
480 Clouds 18 1001 77 10000 9.26 10 07:55 10.04.2021
481 Clouds 18 1001 88 10000 8.75 10 07:25 10.04.2021
482 Clouds 18 1002 73 10000 10.29 10 06:27 10.04.2021
483 Clouds 19 1003 68 10000 10.8 10 04:49 10.04.2021
484 Clouds 19 1003 73 10000 7.72 20 03:19 10.04.2021
485 Clouds 18 1005 72 10000 7.72 30 02:42 10.04.2021
486 Clouds 17 1005 77 10000 7.72 20 01:27 10.04.2021
487 Clouds 18 1006 72 10000 7.72 20 00:31 10.04.2021
488 Clouds 17 1006 72 10000 7.2 20 23:50 09.04.2021
489 Clouds 16 1006 72 10000 6.17 30 23:27 09.04.2021
490 Clouds 15 1007 72 10000 6.69 20 22:47 09.04.2021
491 Clouds 15 1007 77 10000 6.69 20 22:28 09.04.2021
492 Clouds 14 1007 88 10000 6.17 20 21:40 09.04.2021
493 Clouds 14 1007 88 10000 6.17 20 21:20 09.04.2021
494 Rain 14 1008 88 10000 6.17 20 20:46 09.04.2021
495 Rain 14 1008 88 10000 4.63 20 20:23 09.04.2021
496 Clouds 15 1009 82 10000 6.69 10 19:58 09.04.2021
497 Clouds 15 1009 88 10000 6.17 10 19:39 09.04.2021
498 Rain 15 1009 88 10000 6.17 10 19:21 09.04.2021
499 Clouds 16 1009 88 10000 6.17 360 18:41 09.04.2021
500 Clouds 16 1009 88 10000 6.17 360 18:23 09.04.2021
501 Clouds 16 1009 77 10000 7.2 350 17:44 09.04.2021
502 Clouds 16 1010 77 10000 6.69 360 17:25 09.04.2021
503 Rain 16 1010 77 10000 5.14 30 16:41 09.04.2021
504 Clouds 16 1010 77 10000 5.14 30 16:20 09.04.2021
505 Rain 16 1011 82 10000 4.63 350 15:42 09.04.2021
506 Rain 15 1011 82 10000 4.63 350 15:23 09.04.2021
507 Rain 16 1011 82 10000 4.63 10 14:46 09.04.2021
508 Clouds 15 1011 88 10000 4.63 360 14:19 09.04.2021
509 Clouds 15 1012 88 10000 2.57 20 13:43 09.04.2021
510 Clouds 16 1012 82 10000 1.54 40 13:22 09.04.2021
511 Clouds 15 1012 82 10000 1.54 30 12:47 09.04.2021
512 Clouds 16 1012 77 10000 3.09 50 11:52 09.04.2021
513 Clouds 16 1012 77 10000 2.57 30 11:27 09.04.2021
514 Rain 16 1012 77 10000 2.57 20 10:53 09.04.2021
515 Clouds 16 1012 82 10000 4.12 10 10:34 09.04.2021
516 Clouds 17 1012 77 10000 4.12 20 09:55 09.04.2021
517 Clouds 17 1013 77 10000 4.63 20 09:27 09.04.2021
518 Clouds 17 1012 77 10000 4.63 20 08:54 09.04.2021
519 Clouds 17 1012 77 10000 6.69 10 08:23 09.04.2021
520 Clouds 18 1013 72 10000 7.2 360 07:21 09.04.2021
521 Clouds 18 1013 72 10000 7.2 10 06:21 09.04.2021
522 Clouds 18 1014 77 10000 7.2 360 03:54 09.04.2021
523 Clouds 17 1015 88 10000 6.17 360 03:30 09.04.2021
524 Clouds 17 1016 77 10000 6.69 10 00:38 09.04.2021
525 Clouds 17 1016 77 10000 6.69 10 00:20 09.04.2021
526 Clouds 16 1016 82 10000 7.2 10 23:30 08.04.2021
527 Clouds 16 1016 82 10000 7.2 10 22:47 08.04.2021
528 Clouds 16 1016 82 10000 6.69 10 22:27 08.04.2021
529 Clouds 15 1016 82 10000 7.2 10 21:58 08.04.2021
530 Clouds 15 1016 82 10000 5.66 20 21:40 08.04.2021
531 Clouds 15 1016 82 10000 5.66 20 21:21 08.04.2021
532 Clouds 15 1016 82 10000 5.66 20 20:54 08.04.2021
533 Clouds 15 1016 88 10000 4.12 20 20:34 08.04.2021
534 Clouds 15 1016 82 10000 5.14 20 19:57 08.04.2021
535 Clouds 14 1016 82 10000 5.66 20 19:24 08.04.2021
536 Clouds 15 1016 88 10000 5.14 20 18:56 08.04.2021
537 Clouds 14 1016 82 10000 4.63 20 18:24 08.04.2021
538 Clouds 15 1017 82 10000 3.6 20 17:55 08.04.2021
539 Clouds 14 1017 88 10000 4.63 10 17:27 08.04.2021
540 Clouds 14 1017 82 10000 5.14 20 16:57 08.04.2021
541 Clouds 14 1017 94 10000 5.14 360 16:36 08.04.2021
542 Clouds 15 1018 88 10000 5.14 10 15:56 08.04.2021
543 Clouds 15 1018 88 10000 2.57 40 15:37 08.04.2021
544 Clouds 15 1018 88 10000 2.57 40 15:19 08.04.2021
545 Clouds 14 1018 82 10000 3.6 30 14:40 08.04.2021
546 Clouds 14 1018 82 10000 3.6 30 14:40 08.04.2021
547 Clouds 14 1018 82 10000 3.6 30 14:20 08.04.2021
548 Clouds 14 1018 88 10000 2.57 30 13:44 08.04.2021
549 Clear 14 1018 82 10000 2.57 50 13:23 08.04.2021
550 Clear 14 1018 88 10000 2.57 20 12:53 08.04.2021
551 Clear 14 1018 88 10000 3.6 10 12:32 08.04.2021
552 Clear 14 1018 82 10000 3.6 10 11:56 08.04.2021
553 Clear 15 1018 82 10000 4.63 10 11:25 08.04.2021
554 Clear 15 1018 82 10000 4.63 10 10:51 08.04.2021
555 Clear 16 1017 72 10000 4.63 10 10:25 08.04.2021
556 Clear 16 1017 72 10000 4.63 10 09:44 08.04.2021
557 Clear 16 1017 77 10000 4.12 20 09:25 08.04.2021
558 Clear 17 1017 72 10000 4.63 10 08:40 08.04.2021
559 Clear 17 1017 72 10000 4.63 10 08:22 08.04.2021
560 Clear 17 1017 72 10000 6.17 10 07:43 08.04.2021
561 Clear 19 1017 64 10000 6.69 360 05:45 08.04.2021
562 Clouds 20 1018 68 10000 6.17 360 01:25 08.04.2021
563 Clouds 19 1018 68 10000 6.17 10 00:30 08.04.2021
564 Clouds 17 1018 72 10000 6.69 20 23:47 07.04.2021
565 Clouds 16 1018 77 10000 6.17 20 23:25 07.04.2021
566 Clouds 16 1018 77 10000 5.14 30 22:56 07.04.2021
567 Clouds 15 1018 82 10000 4.63 30 22:38 07.04.2021
568 Clouds 15 1018 82 10000 4.63 30 22:19 07.04.2021
569 Clouds 12 1018 94 10000 4.63 20 21:34 07.04.2021
570 Clear 12 1017 88 10000 5.14 350 20:52 07.04.2021
571 Clear 12 1017 94 10000 5.66 360 20:28 07.04.2021
572 Clear 12 1018 94 10000 3.09 350 19:52 07.04.2021
573 Clear 12 1018 94 10000 4.12 10 19:33 07.04.2021
574 Clear 12 1018 94 10000 4.12 30 18:57 07.04.2021
575 Clear 12 1018 94 10000 3.09 30 18:39 07.04.2021
576 Clear 12 1018 94 10000 3.09 30 18:18 07.04.2021
577 Clear 10 1018 93 10000 2.06 10 17:43 07.04.2021
578 Clear 11 1018 93 10000 2.06 30 17:24 07.04.2021
579 Clear 11 1018 100 9000 1.03 20 16:45 07.04.2021
580 Clear 11 1019 100 10000 0.51 80 16:21 07.04.2021
581 Clear 12 1019 100 10000 0.51 50 15:53 07.04.2021
582 Clear 12 1019 94 9000 0.51 20 15:25 07.04.2021
583 Clear 12 1019 94 10000 1.03 40 14:43 07.04.2021
584 Clear 12 1019 94 10000 1.03 70 14:20 07.04.2021
585 Clear 12 1019 94 10000 1.54 30 13:39 07.04.2021
586 Clear 12 1019 94 10000 1.54 30 13:20 07.04.2021
587 Clear 11 1020 94 10000 1.54 80 12:43 07.04.2021
588 Clear 12 1020 94 10000 1.54 80 12:18 07.04.2021
589 Clear 12 1020 94 10000 0.51 60 11:43 07.04.2021
590 Clear 12 1020 94 10000 1.54 10 11:22 07.04.2021
591 Clear 13 1020 88 10000 1.03 70 10:47 07.04.2021
592 Clear 14 1020 94 10000 2.06 210 09:47 07.04.2021
593 Clear 14 1020 88 10000 4.63 220 09:28 07.04.2021
594 Clouds 15 1019 94 10000 5.66 220 08:52 07.04.2021
595 Clouds 15 1019 94 10000 6.69 220 08:31 07.04.2021
596 Clear 16 1019 94 10000 5.14 210 07:52 07.04.2021
597 Clear 16 1019 88 10000 5.14 180 07:28 07.04.2021
598 Clear 17 1019 82 10000 6.17 160 06:42 07.04.2021
599 Clear 17 1019 82 10000 7.72 160 05:42 07.04.2021
600 Clear 18 1021 88 10000 5.66 190 01:52 07.04.2021
601 Clear 15 1021 88 10000 4.63 200 23:48 06.04.2021
602 Clear 14 1021 82 10000 0.51 170 23:22 06.04.2021
603 Clear 14 1020 88 10000 1.03 10 22:57 06.04.2021
604 Clear 13 1020 88 10000 1.54 30 22:21 06.04.2021
605 Clear 12 1019 94 10000 1.54 30 21:55 06.04.2021
606 Clear 11 1019 93 10000 2.06 70 21:37 06.04.2021
607 Clouds 11 1019 93 10000 2.06 70 21:18 06.04.2021
608 Clouds 11 1018 93 10000 1.54 30 20:41 06.04.2021
609 Clear 11 1018 93 10000 1.54 30 20:20 06.04.2021
610 Clear 11 1018 93 10000 2.06 20 19:44 06.04.2021
611 Clear 11 1018 100 10000 3.09 30 19:25 06.04.2021
612 Clear 11 1018 100 10000 1.03 20 18:45 06.04.2021
613 Clear 12 1018 94 10000 2.06 40 18:22 06.04.2021
614 Clear 12 1018 100 10000 2.06 40 17:45 06.04.2021
615 Clear 11 1018 94 10000 1.54 30 17:20 06.04.2021
616 Clear 12 1018 94 10000 1.54 30 16:49 06.04.2021
617 Clear 12 1018 94 10000 2.06 30 16:30 06.04.2021
618 Clear 12 1018 94 10000 1.54 30 15:28 06.04.2021
619 Clear 12 1018 94 10000 3.09 30 14:51 06.04.2021
620 Clear 12 1018 94 10000 2.06 30 14:32 06.04.2021
621 Clear 12 1018 94 10000 1.54 20 13:59 06.04.2021
622 Clear 13 1018 88 10000 1.54 20 13:39 06.04.2021
623 Clear 13 1018 88 10000 1.54 20 13:20 06.04.2021
624 Clear 14 1018 88 10000 2.06 30 12:38 06.04.2021
625 Clear 14 1018 88 10000 2.06 30 12:19 06.04.2021
626 Clear 14 1018 94 10000 2.57 10 11:48 06.04.2021
627 Clear 14 1018 82 10000 3.09 20 11:20 06.04.2021
628 Clear 14 1018 82 10000 2.57 30 10:46 06.04.2021
629 Clear 14 1017 88 9000 1.03 320 10:24 06.04.2021
630 Clear 14 1017 94 9000 1.03 240 09:47 06.04.2021
631 Clear 15 1017 88 9000 1.54 190 09:26 06.04.2021
632 Clear 15 1016 88 10000 1.54 210 08:38 06.04.2021
633 Clouds 16 1016 88 9000 1.54 230 07:57 06.04.2021
634 Clouds 17 1016 77 10000 2.06 200 06:55 06.04.2021
635 Clouds 18 1017 82 10000 4.12 190 05:22 06.04.2021
636 Clouds 18 1018 82 8000 4.12 190 01:57 06.04.2021
637 Clouds 17 1018 88 8000 3.09 190 00:44 06.04.2021
638 Clouds 17 1018 88 7000 2.57 190 00:21 06.04.2021
639 Clouds 16 1018 88 7000 3.6 190 23:42 05.04.2021
640 Clouds 15 1018 94 7000 2.57 200 23:19 05.04.2021
641 Clouds 15 1017 94 7000 1.54 210 22:45 05.04.2021
642 Clouds 15 1017 94 7000 2.06 210 22:24 05.04.2021
643 Clouds 15 1017 94 7000 2.06 220 21:40 05.04.2021
644 Clouds 15 1017 94 7000 2.06 220 21:20 05.04.2021
645 Clouds 15 1017 94 8000 3.09 220 20:42 05.04.2021
646 Clouds 15 1017 94 8000 3.09 220 20:23 05.04.2021
647 Clouds 15 1016 94 7000 3.09 200 19:40 05.04.2021
648 Clouds 15 1016 94 7000 3.09 200 19:20 05.04.2021
649 Clouds 15 1016 94 7000 2.06 200 18:48 05.04.2021
650 Clouds 15 1016 94 8000 3.6 210 18:30 05.04.2021
651 Clouds 15 1016 94 8000 4.63 220 17:55 05.04.2021
652 Clouds 15 1016 94 8000 4.63 220 17:36 05.04.2021
653 Clouds 15 1016 94 8000 4.63 220 17:18 05.04.2021
654 Clouds 15 1016 82 10000 1.03 70 16:39 05.04.2021
655 Clouds 15 1016 82 10000 1.03 70 16:19 05.04.2021
656 Clouds 15 1017 88 10000 1.54 220 15:48 05.04.2021
657 Clouds 15 1016 88 9000 3.6 220 15:27 05.04.2021
658 Clouds 16 1016 94 9000 6.69 220 14:36 05.04.2021
659 Clouds 16 1016 88 10000 5.14 240 13:59 05.04.2021
660 Clouds 17 1015 88 10000 4.63 10 13:31 05.04.2021
661 Clouds 17 1015 82 10000 4.63 20 12:48 05.04.2021
662 Clouds 17 1015 88 10000 5.14 30 12:26 05.04.2021
663 Clouds 17 1015 88 10000 6.69 10 11:53 05.04.2021
664 Clouds 17 1015 88 10000 6.17 20 11:32 05.04.2021
665 Clouds 17 1014 88 10000 6.69 20 10:57 05.04.2021
666 Clouds 17 1014 88 10000 6.17 30 10:37 05.04.2021
667 Clouds 18 1014 77 10000 6.17 30 09:56 05.04.2021
668 Clouds 18 1013 82 10000 8.75 360 09:37 05.04.2021
669 Clouds 18 1013 82 10000 8.75 360 09:19 05.04.2021
670 Clouds 18 1012 77 10000 8.75 20 08:40 05.04.2021
671 Clouds 18 1012 77 10000 8.75 20 08:19 05.04.2021
672 Clouds 18 1012 77 10000 7.72 10 07:34 05.04.2021
673 Clouds 18 1012 77 10000 13.38 10 04:23 05.04.2021
674 Clouds 19 1014 73 10000 10.29 360 01:34 05.04.2021
675 Clouds 19 1014 73 10000 9.77 360 00:24 05.04.2021
676 Clouds 18 1013 77 10000 8.23 350 23:38 04.04.2021
677 Clouds 18 1013 77 10000 8.23 350 23:18 04.04.2021
678 Clouds 17 1014 82 10000 7.2 350 22:49 04.04.2021
679 Clouds 17 1014 82 10000 6.69 340 22:26 04.04.2021
680 Clouds 17 1014 77 10000 6.17 350 21:23 04.04.2021
681 Clouds 17 1014 77 10000 7.72 360 20:54 04.04.2021
682 Clouds 17 1014 82 10000 6.69 350 20:25 04.04.2021
683 Clouds 17 1014 82 10000 8.75 350 19:43 04.04.2021
684 Clouds 17 1013 88 10000 9.77 320 19:22 04.04.2021
685 Clouds 17 1013 88 10000 9.77 320 19:22 04.04.2021
686 Clouds 17 1013 82 10000 9.26 340 18:57 04.04.2021
687 Clouds 17 1013 82 10000 11.32 340 18:38 04.04.2021
688 Clouds 17 1013 82 10000 11.32 340 18:20 04.04.2021
689 Clouds 17 1014 82 10000 9.77 10 17:37 04.04.2021
690 Clouds 17 1014 82 10000 9.77 10 17:37 04.04.2021
691 Clouds 17 1014 82 10000 9.77 10 17:18 04.04.2021
692 Clouds 16 1015 88 10000 8.23 350 16:41 04.04.2021
693 Clouds 16 1015 82 10000 10.8 360 15:58 04.04.2021
694 Clouds 16 1015 82 10000 8.75 360 15:33 04.04.2021
695 Clouds 16 1015 82 10000 9.26 10 14:43 04.04.2021
696 Clouds 16 1015 82 10000 10.29 360 14:25 04.04.2021
697 Clouds 16 1015 82 10000 11.32 10 13:29 04.04.2021
698 Clouds 16 1015 82 10000 11.32 10 12:53 04.04.2021
699 Clouds 16 1014 82 10000 10.29 20 12:32 04.04.2021
700 Clear 16 1014 82 10000 10.8 10 11:52 04.04.2021
701 Clear 16 1014 77 10000 9.77 20 11:31 04.04.2021
702 Clear 16 1014 77 10000 9.77 20 10:56 04.04.2021
703 Clear 16 1014 77 10000 10.29 360 10:32 04.04.2021
704 Clear 15 1014 72 10000 10.8 360 09:52 04.04.2021
705 Clouds 16 1014 67 10000 11.83 360 09:24 04.04.2021
706 Clear 16 1013 67 10000 10.8 10 08:50 04.04.2021
707 Clear 16 1012 67 10000 11.32 360 08:32 04.04.2021
708 Clear 16 1012 67 10000 11.32 360 08:32 04.04.2021
709 Clear 16 1012 63 10000 13.38 350 07:24 04.04.2021
710 Rain 17 1013 63 10000 14.92 360 06:36 04.04.2021
711 Clouds 17 1014 63 10000 15.43 360 04:56 04.04.2021
712 Rain 17 1016 68 10000 12.35 360 01:28 04.04.2021
713 Clouds 16 1017 72 10000 10.8 360 00:19 04.04.2021
714 Clouds 16 1017 72 10000 12.35 360 23:47 03.04.2021
715 Clouds 16 1017 72 10000 12.35 360 23:23 03.04.2021
716 Clouds 16 1017 72 10000 13.89 360 22:50 03.04.2021
717 Clouds 16 1016 72 10000 14.4 360 22:21 03.04.2021
718 Clouds 16 1016 72 10000 14.4 360 22:21 03.04.2021
719 Clouds 15 1016 72 10000 13.89 360 21:47 03.04.2021
720 Clouds 15 1016 72 10000 11.83 10 21:23 03.04.2021
721 Clouds 15 1017 72 10000 10.8 20 20:49 03.04.2021
722 Clouds 15 1017 72 10000 10.8 20 20:49 03.04.2021
723 Clouds 15 1017 72 10000 10.29 20 20:27 03.04.2021
724 Clouds 15 1017 77 10000 12.35 10 19:50 03.04.2021
725 Clouds 15 1016 77 10000 11.83 10 19:25 03.04.2021
726 Clouds 15 1017 77 10000 10.8 10 18:51 03.04.2021
727 Clouds 15 1017 77 10000 11.83 10 18:32 03.04.2021
728 Rain 15 1017 77 10000 10.29 360 17:53 03.04.2021
729 Clouds 15 1017 77 10000 10.29 360 17:25 03.04.2021
730 Clouds 15 1017 77 10000 10.29 360 16:51 03.04.2021
731 Clouds 15 1018 77 10000 9.77 360 16:25 03.04.2021
732 Clouds 15 1018 77 10000 10.8 360 15:51 03.04.2021
733 Clouds 15 1018 77 10000 10.29 360 15:30 03.04.2021
734 Clouds 15 1018 77 10000 10.29 360 15:30 03.04.2021
735 Clouds 15 1018 82 10000 9.77 360 14:44 03.04.2021
736 Clouds 15 1018 82 10000 8.75 10 14:25 03.04.2021
737 Clouds 15 1018 82 10000 8.23 20 13:54 03.04.2021
738 Clouds 15 1019 82 10000 7.72 20 13:29 03.04.2021
739 Clouds 15 1019 77 10000 8.75 20 12:57 03.04.2021
740 Clouds 15 1019 77 10000 7.72 20 12:32 03.04.2021
741 Clouds 15 1019 77 10000 8.23 10 11:40 03.04.2021
742 Clouds 15 1019 77 10000 8.23 10 11:19 03.04.2021
743 Clouds 15 1020 77 10000 8.23 360 10:45 03.04.2021
744 Clouds 14 1019 77 10000 9.77 360 10:25 03.04.2021
745 Clouds 14 1019 77 10000 8.75 350 09:29 03.04.2021
746 Clouds 15 1019 67 10000 8.23 350 08:59 03.04.2021
747 Clouds 14 1019 72 10000 9.26 360 08:32 03.04.2021
748 Clouds 15 1019 55 10000 8.75 360 07:30 03.04.2021
749 Clouds 15 1020 59 10000 8.75 350 06:53 03.04.2021
750 Clouds 16 1021 48 10000 6.69 340 03:54 03.04.2021
751 Clouds 17 1022 55 10000 4.63 320 02:55 03.04.2021
752 Clouds 16 1022 51 10000 3.6 10 02:28 03.04.2021
753 Clouds 16 1023 59 10000 2.06 360 00:32 03.04.2021
754 Clouds 15 1024 59 10000 1.54 340 23:59 02.04.2021
755 Clouds 14 1023 67 10000 1.54 10 23:30 02.04.2021
756 Clouds 14 1023 67 10000 2.06 130 22:56 02.04.2021
757 Clouds 14 1023 62 10000 4.12 150 22:38 02.04.2021
758 Clouds 12 1023 67 10000 4.63 160 21:59 02.04.2021
759 Rain 11 1023 67 10000 4.12 130 21:40 02.04.2021
760 Rain 11 1023 67 10000 4.12 130 21:18 02.04.2021
761 Clouds 11 1022 67 10000 5.66 160 20:39 02.04.2021
762 Clouds 12 1022 67 10000 5.66 160 20:20 02.04.2021
763 Rain 11 1022 67 10000 6.69 160 19:41 02.04.2021
764 Clouds 12 1022 67 10000 6.69 160 19:22 02.04.2021
765 Rain 12 1022 67 10000 7.2 160 18:46 02.04.2021
766 Clouds 12 1022 67 10000 7.72 160 18:28 02.04.2021
767 Clouds 12 1021 67 10000 8.23 160 17:55 02.04.2021
768 Clouds 12 1021 58 10000 8.23 180 17:25 02.04.2021
769 Clouds 12 1021 62 10000 8.23 160 16:24 02.04.2021
770 Clouds 12 1021 58 10000 8.75 170 15:43 02.04.2021
771 Clouds 12 1021 58 10000 9.77 170 15:20 02.04.2021
772 Clouds 12 1020 67 10000 9.77 170 14:33 02.04.2021
773 Clouds 12 1020 67 10000 9.26 180 13:50 02.04.2021
774 Clouds 12 1020 67 10000 10.29 180 13:28 02.04.2021
775 Clouds 13 1020 67 10000 9.77 180 12:55 02.04.2021
776 Rain 12 1020 77 10000 9.26 180 12:21 02.04.2021
777 Rain 13 1019 72 10000 10.29 180 11:59 02.04.2021
778 Rain 13 1019 72 10000 10.29 180 11:38 02.04.2021
779 Rain 13 1019 72 10000 10.29 180 11:18 02.04.2021
780 Rain 12 1018 72 10000 10.29 180 10:42 02.04.2021
781 Clouds 12 1018 72 10000 10.29 180 10:20 02.04.2021
782 Rain 12 1017 88 10000 10.8 180 09:39 02.04.2021
783 Rain 12 1017 88 10000 10.8 180 09:20 02.04.2021
784 Clouds 12 1016 88 10000 10.8 180 08:45 02.04.2021
785 Clouds 12 1016 82 10000 12.35 180 08:25 02.04.2021
786 Clouds 14 1014 100 2500 10.8 180 07:20 02.04.2021
787 Rain 15 1011 88 10000 2.57 30 06:31 02.04.2021
788 Rain 15 1010 77 10000 8.75 10 03:25 02.04.2021
789 Rain 15 1011 77 10000 10.29 20 01:31 02.04.2021
790 Rain 15 1011 72 10000 9.77 20 00:38 02.04.2021
791 Clouds 15 1011 72 10000 8.23 20 23:43 01.04.2021
792 Clouds 14 1011 72 10000 10.8 20 23:25 01.04.2021
793 Rain 12 1011 76 10000 10.29 20 22:22 01.04.2021
794 Rain 12 1012 76 10000 8.75 30 21:59 01.04.2021
795 Clouds 12 1012 76 10000 9.26 20 21:40 01.04.2021
796 Clouds 11 1012 76 10000 9.26 20 21:20 01.04.2021
797 Clouds 11 1012 76 10000 8.75 20 20:39 01.04.2021
798 Clouds 11 1012 76 10000 8.75 20 20:21 01.04.2021
799 Clouds 10 1012 81 10000 8.23 30 19:40 01.04.2021
800 Clouds 9 1012 87 10000 7.72 30 18:54 01.04.2021
801 Clouds 9 1013 81 10000 6.17 20 18:36 01.04.2021
802 Clear 8 1013 81 10000 6.17 20 18:18 01.04.2021
803 Clear 8 1014 81 10000 4.12 20 17:39 01.04.2021
804 Clear 8 1014 81 10000 4.12 20 17:20 01.04.2021
805 Clear 8 1014 87 10000 4.63 10 16:44 01.04.2021
806 Clear 8 1015 87 10000 3.6 30 15:57 01.04.2021
807 Clear 8 1015 93 10000 2.57 40 15:24 01.04.2021
808 Clear 7 1015 93 10000 2.57 40 14:55 01.04.2021
809 Clear 7 1015 87 10000 2.06 40 14:37 01.04.2021
810 Clear 7 1015 87 10000 2.06 40 14:19 01.04.2021
811 Clear 8 1016 87 10000 2.06 40 13:32 01.04.2021
812 Clear 9 1016 81 10000 1.54 50 12:58 01.04.2021
813 Clear 8 1016 76 10000 1.54 40 12:39 01.04.2021
814 Clear 8 1016 76 10000 1.54 40 12:39 01.04.2021
815 Clear 8 1016 76 10000 1.54 40 12:20 01.04.2021
816 Rain 9 1017 76 10000 1.54 50 11:43 01.04.2021
817 Clear 10 1016 62 10000 1.54 120 11:19 01.04.2021
818 Clear 11 1016 62 10000 2.06 140 10:46 01.04.2021
819 Clear 11 1016 58 10000 4.12 140 10:27 01.04.2021
820 Clear 12 1016 58 10000 6.69 150 09:32 01.04.2021
821 Clouds 12 1016 58 10000 7.72 150 08:58 01.04.2021
822 Rain 12 1015 62 10000 7.72 160 08:32 01.04.2021
823 Rain 13 1015 58 10000 9.26 170 07:22 01.04.2021
824 Rain 14 1015 55 10000 9.77 170 06:57 01.04.2021
825 Clouds 14 1015 55 10000 10.29 170 06:24 01.04.2021
826 Rain 14 1016 67 10000 12.35 170 03:23 01.04.2021
827 Rain 14 1015 63 10000 12.35 180 00:28 01.04.2021
828 Rain 13 1015 72 10000 12.35 170 23:44 31.03.2021
829 Rain 13 1014 82 10000 12.86 170 22:56 31.03.2021
830 Rain 13 1014 88 10000 12.86 170 22:38 31.03.2021
831 Clouds 13 1014 88 10000 12.86 170 22:19 31.03.2021
832 Rain 13 1013 88 10000 12.35 180 21:43 31.03.2021
833 Clouds 13 1013 94 10000 12.35 170 21:19 31.03.2021
834 Clouds 13 1013 94 10000 12.35 170 21:19 31.03.2021
835 Rain 13 1013 88 10000 12.35 170 20:41 31.03.2021
836 Rain 13 1013 88 10000 12.35 170 20:22 31.03.2021
837 Rain 13 1012 94 10000 12.86 180 19:43 31.03.2021
838 Rain 13 1012 88 10000 12.86 180 19:21 31.03.2021
839 Rain 13 1011 82 10000 13.38 180 18:57 31.03.2021
840 Rain 13 1011 88 10000 12.86 180 18:38 31.03.2021
841 Rain 13 1011 88 10000 12.86 180 17:44 31.03.2021
842 Rain 13 1011 88 10000 12.86 180 17:44 31.03.2021
843 Clouds 13 1010 88 10000 12.35 180 17:25 31.03.2021
844 Clouds 13 1010 88 10000 12.35 170 16:55 31.03.2021
845 Rain 13 1010 88 10000 12.35 180 16:36 31.03.2021
846 Rain 13 1010 94 10000 11.32 180 15:58 31.03.2021
847 Clouds 14 1010 94 8000 12.86 170 15:40 31.03.2021
848 Clouds 14 1010 94 8000 12.86 170 15:18 31.03.2021
849 Mist 14 1009 100 3300 11.83 170 14:41 31.03.2021
850 Mist 13 1009 100 3300 11.83 170 14:18 31.03.2021
851 Mist 14 1010 100 1300 10.29 190 13:24 31.03.2021
852 Clouds 14 1010 94 9000 9.77 180 12:41 31.03.2021
853 Clouds 14 1010 94 9000 9.77 180 12:19 31.03.2021
854 Mist 14 1009 100 3300 11.32 200 11:39 31.03.2021
855 Mist 14 1009 100 3300 11.32 200 11:20 31.03.2021
856 Clouds 14 1008 100 1300 10.29 200 10:46 31.03.2021
857 Clouds 14 1008 100 1300 10.29 200 10:46 31.03.2021
858 Mist 14 1008 100 2300 8.75 200 10:24 31.03.2021
859 Clouds 14 1008 94 9000 8.23 180 09:37 31.03.2021
860 Clouds 14 1007 94 9000 7.72 180 08:51 31.03.2021
861 Clouds 15 1007 94 10000 8.23 180 08:32 31.03.2021
862 Clouds 15 1006 94 10000 8.23 180 07:43 31.03.2021
863 Clouds 15 1006 100 10000 6.17 190 06:36 31.03.2021
864 Clouds 19 1007 94 10000 3.6 160 03:46 31.03.2021
865 Clouds 17 1009 88 10000 4.12 30 00:55 31.03.2021
866 Rain 17 1009 88 10000 4.12 20 00:27 31.03.2021
867 Rain 16 1009 94 10000 5.14 360 23:59 30.03.2021
868 Clouds 16 1009 94 10000 2.57 30 23:29 30.03.2021
869 Clouds 17 1010 94 10000 3.6 10 22:56 30.03.2021
870 Clouds 17 1010 94 10000 2.06 360 22:38 30.03.2021
871 Clouds 17 1010 94 10000 2.06 360 22:20 30.03.2021
872 Drizzle 17 1010 94 10000 2.57 60 21:42 30.03.2021
873 Drizzle 17 1010 94 10000 2.57 60 21:19 30.03.2021
874 Rain 17 1011 94 10000 3.09 10 20:51 30.03.2021
875 Drizzle 17 1011 100 10000 2.57 20 20:27 30.03.2021
876 Clouds 17 1011 100 10000 3.09 360 19:50 30.03.2021
877 Clouds 17 1010 94 8000 2.57 360 19:23 30.03.2021
878 Clouds 17 1010 88 10000 6.17 10 18:36 30.03.2021
879 Clouds 17 1010 88 10000 4.63 10 17:52 30.03.2021
880 Clouds 17 1010 88 10000 5.66 20 17:32 30.03.2021
881 Clouds 17 1010 94 10000 6.17 10 16:48 30.03.2021
882 Clouds 17 1011 94 10000 5.66 10 16:28 30.03.2021
883 Clouds 17 1011 94 10000 8.23 10 15:43 30.03.2021
884 Clouds 17 1011 94 10000 5.14 20 15:20 30.03.2021
885 Clouds 17 1011 94 10000 2.57 20 14:48 30.03.2021
886 Clouds 17 1012 100 10000 3.09 360 14:21 30.03.2021
887 Clouds 17 1012 100 10000 3.09 360 14:21 30.03.2021
888 Clouds 17 1012 94 10000 2.57 20 13:54 30.03.2021
889 Clouds 17 1012 94 10000 1.54 350 13:36 30.03.2021
890 Rain 16 1012 100 10000 3.09 10 12:44 30.03.2021
891 Clouds 16 1012 100 10000 1.03 360 12:26 30.03.2021
892 Clouds 16 1012 100 10000 1.03 350 11:50 30.03.2021
893 Clouds 16 1012 94 9000 2.06 360 11:21 30.03.2021
894 Clouds 16 1012 94 10000 3.09 20 10:43 30.03.2021
895 Mist 16 1012 94 5000 2.57 10 10:20 30.03.2021
896 Clouds 16 1012 94 10000 2.06 30 09:43 30.03.2021
897 Clouds 16 1012 94 10000 1.03 170 09:24 30.03.2021
898 Clouds 15 1012 100 10000 3.09 160 08:51 30.03.2021
899 Clouds 16 1011 94 10000 3.09 160 08:32 30.03.2021
900 Clouds 16 1011 94 10000 2.57 200 07:50 30.03.2021
901 Clouds 16 1012 94 10000 2.06 180 07:21 30.03.2021
902 Clouds 16 1013 94 10000 2.06 230 05:25 30.03.2021
903 Clouds 16 1013 94 10000 2.06 180 04:45 30.03.2021
904 Clouds 16 1014 94 9000 5.14 190 00:26 30.03.2021
905 Mist 17 1014 94 5000 5.66 200 23:29 29.03.2021
906 Clouds 17 1014 94 10000 4.12 230 22:43 29.03.2021
907 Clouds 16 1014 100 10000 2.06 360 21:59 29.03.2021
908 Clouds 16 1014 100 10000 2.57 10 21:38 29.03.2021
909 Clouds 16 1013 94 10000 2.57 10 20:59 29.03.2021
910 Clouds 16 1014 94 10000 2.57 350 20:38 29.03.2021
911 Clouds 16 1014 94 10000 2.57 350 20:20 29.03.2021
912 Clouds 16 1013 94 10000 4.12 10 19:45 29.03.2021
913 Clouds 16 1014 94 10000 5.14 20 19:18 29.03.2021
914 Clouds 16 1013 88 10000 5.14 20 18:40 29.03.2021
915 Clouds 16 1013 88 10000 5.14 20 18:20 29.03.2021
916 Clouds 16 1014 88 10000 4.63 20 17:45 29.03.2021
917 Clouds 16 1014 88 10000 5.14 20 16:59 29.03.2021
918 Clouds 16 1014 88 10000 5.66 40 16:35 29.03.2021
919 Clouds 16 1015 88 10000 5.14 30 15:52 29.03.2021
920 Clouds 16 1014 88 10000 5.14 30 15:34 29.03.2021
921 Clouds 16 1014 88 10000 4.12 40 14:55 29.03.2021
922 Clouds 16 1014 88 10000 5.14 40 14:34 29.03.2021
923 Clouds 16 1014 88 10000 6.17 10 13:52 29.03.2021
924 Clouds 16 1015 88 10000 5.66 20 13:26 29.03.2021
925 Clouds 16 1015 88 10000 6.17 10 12:50 29.03.2021
926 Clouds 16 1014 88 10000 7.2 10 12:21 29.03.2021
927 Clouds 16 1014 88 10000 6.17 20 11:40 29.03.2021
928 Clouds 16 1014 88 10000 6.17 20 11:22 29.03.2021
929 Clouds 16 1014 94 10000 7.2 360 10:36 29.03.2021
930 Clouds 16 1014 94 10000 7.72 10 09:48 29.03.2021
931 Clouds 17 1013 88 10000 7.72 20 08:59 29.03.2021
932 Clouds 17 1013 88 10000 6.69 360 08:28 29.03.2021
933 Clouds 18 1013 88 10000 8.23 10 07:41 29.03.2021
934 Clouds 18 1013 94 10000 6.69 10 06:42 29.03.2021
935 Mist 18 1014 100 5000 7.72 10 04:22 29.03.2021
936 Clouds 17 1015 88 10000 9.26 360 01:58 29.03.2021
937 Clouds 17 1015 94 10000 8.23 20 00:23 29.03.2021
938 Clouds 17 1015 94 6000 8.23 10 23:51 28.03.2021
939 Clouds 17 1014 94 10000 8.75 360 23:20 28.03.2021
940 Clouds 16 1014 94 10000 8.75 10 22:42 28.03.2021
941 Clouds 16 1014 94 10000 8.75 10 22:21 28.03.2021
942 Clouds 17 1014 94 10000 8.75 10 21:45 28.03.2021
943 Clouds 17 1014 94 9000 7.72 10 21:23 28.03.2021
944 Clouds 17 1014 100 10000 7.2 360 20:50 28.03.2021
945 Clouds 16 1013 100 7000 9.26 10 20:32 28.03.2021
946 Mist 16 1014 100 5000 8.23 360 19:46 28.03.2021
947 Clouds 16 1014 100 6000 8.23 360 19:23 28.03.2021
948 Clouds 16 1014 94 10000 7.72 10 18:58 28.03.2021
949 Clouds 16 1014 94 8000 7.2 20 18:33 28.03.2021
950 Mist 16 1014 94 4600 7.72 20 17:56 28.03.2021
951 Clouds 16 1014 94 8000 7.72 20 17:36 28.03.2021
952 Clouds 16 1015 94 10000 8.23 20 16:55 28.03.2021
953 Clouds 16 1015 94 10000 7.2 20 16:24 28.03.2021
954 Clouds 16 1015 94 10000 7.2 20 15:49 28.03.2021
955 Clouds 16 1015 94 7000 8.75 20 15:24 28.03.2021
956 Clouds 16 1015 94 9000 8.75 20 14:39 28.03.2021
957 Clouds 16 1015 94 10000 8.75 20 13:59 28.03.2021
958 Clouds 16 1015 94 10000 8.23 20 13:34 28.03.2021
959 Clouds 17 1016 100 7000 7.2 20 12:55 28.03.2021
960 Clouds 17 1016 88 8000 6.17 350 12:34 28.03.2021
961 Clouds 18 1016 77 10000 8.23 350 11:50 28.03.2021
962 Clouds 18 1016 77 10000 9.26 350 11:32 28.03.2021
963 Clouds 18 1016 77 10000 7.2 340 10:47 28.03.2021
964 Clouds 18 1016 82 10000 7.2 340 10:28 28.03.2021
965 Clouds 18 1016 77 10000 5.66 340 09:50 28.03.2021
966 Clouds 18 1015 77 10000 5.66 340 09:27 28.03.2021
967 Clouds 18 1015 77 10000 7.2 340 08:48 28.03.2021
968 Clouds 18 1015 77 10000 6.69 340 08:23 28.03.2021
969 Clouds 19 1016 68 10000 6.17 350 07:38 28.03.2021
970 Clouds 19 1017 68 10000 7.72 350 05:34 28.03.2021
971 Clouds 20 1018 60 10000 8.75 360 03:26 28.03.2021
972 Clouds 19 1019 64 10000 8.75 360 00:34 28.03.2021
973 Clouds 19 1019 64 10000 8.75 360 23:50 27.03.2021
974 Clouds 19 1019 64 10000 7.2 360 23:32 27.03.2021
975 Clouds 18 1019 63 10000 9.77 360 22:40 27.03.2021
976 Clouds 18 1019 63 10000 9.77 360 22:21 27.03.2021
977 Clouds 17 1019 68 10000 8.75 10 21:41 27.03.2021
978 Clouds 17 1019 68 10000 8.75 10 21:21 27.03.2021
979 Clouds 17 1019 68 10000 8.75 10 20:55 27.03.2021
980 Clouds 17 1019 68 10000 8.23 10 20:37 27.03.2021
981 Clouds 17 1019 63 10000 8.75 10 19:46 27.03.2021
982 Clouds 17 1019 63 10000 8.23 10 19:24 27.03.2021
983 Clouds 17 1019 68 10000 8.75 360 18:58 27.03.2021
984 Clouds 17 1019 63 10000 8.75 360 18:39 27.03.2021
985 Clouds 17 1019 63 10000 8.75 360 18:20 27.03.2021
986 Clouds 17 1019 72 10000 8.23 10 17:29 27.03.2021
987 Clouds 17 1019 72 10000 8.75 360 16:57 27.03.2021
988 Clouds 18 1019 72 10000 8.23 360 16:38 27.03.2021
989 Clouds 18 1019 72 10000 8.23 360 16:19 27.03.2021
990 Clouds 18 1020 77 10000 7.2 350 15:38 27.03.2021
991 Drizzle 18 1020 77 10000 8.23 360 14:55 27.03.2021
992 Rain 18 1020 77 10000 7.72 350 14:23 27.03.2021
993 Clouds 18 1020 72 10000 8.23 360 13:36 27.03.2021
994 Clouds 18 1020 72 10000 8.23 360 13:18 27.03.2021
995 Clouds 17 1020 77 10000 6.69 360 12:39 27.03.2021
996 Clouds 17 1020 77 10000 5.66 10 11:48 27.03.2021
997 Clouds 17 1020 77 10000 4.63 20 11:30 27.03.2021
998 Clouds 17 1020 77 10000 4.12 20 10:48 27.03.2021
999 Clouds 17 1020 72 10000 4.63 20 10:29 27.03.2021
1000 Clouds 17 1020 72 10000 5.66 20 09:44 27.03.2021
1001 Rain 17 1020 72 10000 4.63 10 09:18 27.03.2021
1002 Rain 17 1020 72 10000 4.63 10 09:18 27.03.2021
1003 Rain 17 1021 72 10000 4.63 10 08:38 27.03.2021
1004 Clouds 17 1021 68 10000 4.63 340 07:48 27.03.2021
1005 Clouds 18 1020 68 10000 4.63 330 06:59 27.03.2021
1006 Clouds 18 1021 60 10000 5.66 350 06:39 27.03.2021
1007 Clouds 21 1021 49 10000 7.2 350 04:41 27.03.2021
1008 Clouds 21 1023 60 10000 7.72 340 01:36 27.03.2021
1009 Clouds 21 1023 64 10000 7.2 350 00:32 27.03.2021
1010 Clouds 20 1023 68 10000 7.72 350 23:59 26.03.2021
1011 Clouds 19 1023 68 10000 6.69 350 23:24 26.03.2021
1012 Clouds 18 1023 82 10000 7.2 360 22:39 26.03.2021
1013 Clouds 17 1023 88 10000 6.69 10 21:42 26.03.2021
1014 Clouds 16 1023 88 10000 6.69 10 21:22 26.03.2021
1015 Clouds 16 1023 82 10000 5.66 10 20:54 26.03.2021
1016 Clouds 16 1023 82 10000 5.66 10 20:31 26.03.2021
1017 Clouds 16 1023 82 10000 5.66 10 19:51 26.03.2021
1018 Clouds 16 1023 88 10000 6.17 10 19:32 26.03.2021
1019 Clouds 16 1023 82 10000 5.66 10 18:50 26.03.2021
1020 Clouds 16 1023 82 10000 5.14 10 18:30 26.03.2021
1021 Clouds 16 1023 82 10000 5.66 10 17:50 26.03.2021
1022 Clouds 16 1023 82 10000 5.66 10 17:23 26.03.2021
1023 Clouds 16 1023 88 10000 5.66 10 16:36 26.03.2021
1024 Clouds 16 1023 88 10000 5.14 10 15:59 26.03.2021
1025 Clouds 16 1023 88 10000 5.14 10 15:35 26.03.2021
1026 Clouds 16 1023 88 10000 5.14 20 14:44 26.03.2021
1027 Clouds 16 1023 88 10000 5.66 20 13:51 26.03.2021
1028 Clouds 16 1023 88 10000 5.14 20 13:23 26.03.2021
1029 Clouds 16 1023 88 10000 5.66 20 12:40 26.03.2021
1030 Clouds 17 1023 82 10000 5.14 20 11:48 26.03.2021
1031 Clouds 17 1023 82 10000 4.63 20 11:29 26.03.2021
1032 Clouds 17 1023 82 10000 5.14 20 10:43 26.03.2021
1033 Clouds 17 1023 82 10000 5.14 20 10:19 26.03.2021
1034 Clear 17 1023 82 10000 5.66 10 09:41 26.03.2021
1035 Clear 17 1022 82 10000 6.17 10 08:49 26.03.2021
1036 Clouds 17 1022 82 10000 6.69 360 08:30 26.03.2021
1037 Clouds 17 1022 82 10000 6.69 10 07:44 26.03.2021
1038 Clouds 18 1022 77 10000 7.2 360 07:22 26.03.2021
1039 Clear 18 1022 77 10000 7.2 360 06:55 26.03.2021
1040 Clouds 19 1022 73 10000 8.75 360 05:32 26.03.2021
1041 Clear 19 1022 64 10000 7.72 360 04:18 26.03.2021
1042 Clear 19 1022 64 10000 7.72 360 04:18 26.03.2021
1043 Clear 20 1024 56 10000 7.2 360 00:52 26.03.2021
1044 Clear 19 1024 56 10000 7.2 10 23:53 25.03.2021
1045 Clear 18 1024 60 10000 6.69 360 23:33 25.03.2021
1046 Clear 17 1024 68 10000 5.14 10 22:41 25.03.2021
1047 Clear 17 1024 68 10000 5.14 10 22:19 25.03.2021
1048 Clear 17 1024 68 10000 5.14 10 22:19 25.03.2021
1049 Clear 16 1024 77 10000 4.63 10 21:45 25.03.2021
1050 Clear 15 1024 82 10000 4.63 30 21:24 25.03.2021
1051 Clear 15 1024 88 10000 3.09 10 20:38 25.03.2021
1052 Clear 12 1024 88 10000 3.09 10 20:18 25.03.2021
1053 Clear 12 1024 87 10000 4.12 10 19:40 25.03.2021
1054 Clear 12 1024 87 10000 4.12 10 19:21 25.03.2021
1055 Clear 12 1024 88 10000 4.12 10 18:44 25.03.2021
1056 Clear 12 1024 88 10000 4.12 10 18:25 25.03.2021
1057 Clear 12 1024 87 10000 2.06 30 17:40 25.03.2021
1058 Clear 12 1024 87 10000 2.06 30 17:21 25.03.2021
1059 Clear 12 1024 87 10000 1.54 360 16:37 25.03.2021
1060 Clear 12 1024 87 10000 1.54 360 16:19 25.03.2021
1061 Clear 12 1024 82 10000 2.06 30 15:41 25.03.2021
1062 Clear 13 1024 82 10000 2.06 30 15:19 25.03.2021
1063 Clear 13 1024 82 10000 3.6 20 14:41 25.03.2021
1064 Clear 14 1024 77 10000 2.57 40 13:40 25.03.2021
1065 Rain 12 1024 77 10000 2.57 40 13:20 25.03.2021
1066 Clear 12 1024 72 10000 2.57 340 12:38 25.03.2021
1067 Clear 12 1024 72 10000 2.57 340 12:19 25.03.2021
1068 Clear 12 1024 76 10000 2.06 360 11:45 25.03.2021
1069 Clear 12 1023 72 10000 2.06 30 11:26 25.03.2021
1070 Clear 13 1023 72 10000 1.54 40 10:50 25.03.2021
1071 Clear 13 1023 67 10000 1.54 20 10:24 25.03.2021
1072 Clear 14 1023 67 10000 2.57 20 09:55 25.03.2021
1073 Clear 14 1022 59 10000 2.06 30 09:36 25.03.2021
1074 Clear 15 1022 63 10000 1.54 30 08:43 25.03.2021
1075 Clear 16 1021 67 10000 1.03 250 07:58 25.03.2021
1076 Clouds 18 1021 63 10000 3.6 160 06:59 25.03.2021
1077 Clouds 18 1021 68 10000 4.12 170 06:25 25.03.2021
1078 Clouds 18 1021 68 10000 4.63 170 05:48 25.03.2021
1079 Clouds 19 1021 63 10000 4.63 170 02:48 25.03.2021
1080 Clouds 18 1022 68 10000 3.09 210 00:21 25.03.2021
1081 Clouds 17 1022 72 10000 3.6 200 23:51 24.03.2021
1082 Clouds 18 1022 72 10000 1.54 200 23:28 24.03.2021
1083 Clouds 17 1022 63 10000 3.09 60 22:47 24.03.2021
1084 Clouds 16 1022 72 10000 2.06 110 22:26 24.03.2021
1085 Clouds 15 1021 77 10000 3.09 150 21:42 24.03.2021
1086 Clouds 14 1021 77 10000 3.09 150 21:22 24.03.2021
1087 Clouds 13 1020 82 10000 2.57 140 20:41 24.03.2021
1088 Clouds 13 1020 82 10000 2.57 140 20:20 24.03.2021
1089 Clouds 14 1020 77 10000 3.09 150 19:39 24.03.2021
1090 Clouds 14 1020 77 10000 3.09 150 19:20 24.03.2021
1091 Clouds 14 1020 77 10000 3.09 130 18:43 24.03.2021
1092 Clouds 14 1020 77 10000 3.09 130 18:20 24.03.2021
1093 Clouds 14 1020 82 10000 3.09 140 17:43 24.03.2021
1094 Clouds 14 1020 82 10000 3.6 150 17:25 24.03.2021
1095 Clouds 14 1020 82 10000 4.63 140 16:51 24.03.2021
1096 Clouds 14 1020 82 10000 3.6 150 16:27 24.03.2021
1097 Clouds 14 1020 77 10000 2.57 140 15:44 24.03.2021
1098 Clouds 14 1020 77 10000 3.6 140 15:25 24.03.2021
1099 Clouds 14 1020 77 10000 4.63 140 14:46 24.03.2021
1100 Clouds 14 1020 77 10000 5.14 140 14:24 24.03.2021
1101 Clouds 14 1020 82 10000 5.14 160 13:52 24.03.2021
1102 Clouds 14 1020 88 10000 6.17 160 13:27 24.03.2021
1103 Clouds 13 1020 94 10000 5.66 160 12:42 24.03.2021
1104 Clouds 14 1020 94 10000 5.66 160 12:21 24.03.2021
1105 Clouds 14 1021 94 8000 5.66 160 11:42 24.03.2021
1106 Drizzle 14 1020 94 7000 6.17 160 10:57 24.03.2021
1107 Clouds 14 1020 94 10000 6.17 160 10:36 24.03.2021
1108 Clouds 14 1020 94 10000 7.72 150 09:58 24.03.2021
1109 Clouds 14 1020 94 10000 7.72 150 09:58 24.03.2021
1110 Clouds 14 1020 94 10000 7.2 160 09:38 24.03.2021
1111 Clouds 14 1020 94 10000 7.2 160 09:18 24.03.2021
1112 Clouds 14 1020 94 10000 7.2 160 08:47 24.03.2021
1113 Clouds 14 1019 94 10000 6.17 160 08:24 24.03.2021
1114 Clouds 14 1019 88 10000 7.2 170 07:31 24.03.2021
1115 Clouds 15 1019 88 10000 6.69 180 06:51 24.03.2021
1116 Clouds 17 1019 77 10000 5.66 170 03:21 24.03.2021
1117 Clouds 17 1019 72 10000 5.14 170 00:47 24.03.2021
1118 Clouds 17 1019 82 10000 5.14 170 23:56 23.03.2021
1119 Clouds 16 1019 82 10000 5.14 170 23:21 23.03.2021
1120 Clouds 16 1019 82 10000 2.57 200 22:52 23.03.2021
1121 Clouds 14 1019 82 8000 3.09 210 22:28 23.03.2021
1122 Clear 14 1019 88 9000 1.03 220 21:49 23.03.2021
1123 Clear 14 1019 88 7000 0.51 230 21:31 23.03.2021
1124 Clear 12 1019 88 10000 1.54 80 20:47 23.03.2021
1125 Clear 12 1019 94 10000 0.51 10 20:29 23.03.2021
1126 Clear 11 1018 94 10000 3.09 360 19:57 23.03.2021
1127 Clear 11 1018 93 10000 2.57 20 19:27 23.03.2021
1128 Clear 11 1018 94 10000 3.09 20 18:59 23.03.2021
1129 Clear 11 1018 94 10000 2.57 30 18:37 23.03.2021
1130 Clear 11 1018 94 10000 2.57 30 18:18 23.03.2021
1131 Clear 11 1018 93 10000 2.57 30 17:43 23.03.2021
1132 Clear 11 1018 93 10000 1.54 30 17:21 23.03.2021
1133 Clear 11 1018 94 10000 1.03 70 16:26 23.03.2021
1134 Clear 11 1018 94 10000 2.06 30 15:50 23.03.2021
1135 Clear 11 1018 94 10000 2.57 40 15:23 23.03.2021
1136 Clear 12 1019 94 10000 2.06 40 14:48 23.03.2021
1137 Clear 12 1019 94 10000 2.57 40 14:19 23.03.2021
1138 Clear 11 1019 93 10000 1.54 30 13:47 23.03.2021
1139 Clouds 11 1020 94 10000 1.54 10 13:24 23.03.2021
1140 Clouds 11 1020 87 10000 1.54 20 12:45 23.03.2021
1141 Clouds 11 1020 94 10000 1.03 20 12:26 23.03.2021
1142 Clouds 11 1020 88 10000 0.51 90 11:48 23.03.2021
1143 Clouds 12 1020 88 10000 0.51 10 11:21 23.03.2021
1144 Clouds 12 1020 88 10000 1.54 360 10:42 23.03.2021
1145 Clouds 12 1020 88 10000 1.54 360 10:20 23.03.2021
1146 Clouds 13 1020 88 10000 1.54 10 09:51 23.03.2021
1147 Clouds 13 1020 88 10000 1.54 20 09:23 23.03.2021
1148 Clouds 13 1020 82 10000 1.54 360 08:55 23.03.2021
1149 Clouds 14 1020 82 10000 1.03 280 08:37 23.03.2021
1150 Clouds 14 1020 82 10000 1.03 280 08:18 23.03.2021
1151 Clouds 15 1020 88 10000 2.57 230 07:27 23.03.2021
1152 Rain 16 1020 82 10000 3.6 210 06:52 23.03.2021
1153 Clouds 18 1022 72 10000 4.12 200 03:24 23.03.2021
1154 Clouds 18 1023 72 10000 3.6 200 02:46 23.03.2021
1155 Rain 16 1025 82 10000 3.6 220 23:47 22.03.2021
1156 Clouds 16 1025 82 10000 2.57 220 23:18 22.03.2021
1157 Rain 15 1025 82 10000 3.09 210 22:42 22.03.2021
1158 Clouds 14 1025 82 10000 3.09 210 22:20 22.03.2021
1159 Rain 14 1026 82 10000 3.6 200 21:47 22.03.2021
1160 Clouds 13 1026 82 10000 3.6 200 21:26 22.03.2021
1161 Clouds 12 1025 82 10000 3.6 200 20:44 22.03.2021
1162 Clouds 12 1026 88 10000 3.09 200 20:25 22.03.2021
1163 Clouds 12 1026 88 10000 3.09 190 19:58 22.03.2021
1164 Clouds 12 1025 88 10000 3.6 200 19:38 22.03.2021
1165 Clouds 12 1025 88 10000 3.6 200 19:20 22.03.2021
1166 Clouds 12 1026 88 10000 3.6 200 18:41 22.03.2021
1167 Clouds 13 1026 88 10000 3.6 200 18:22 22.03.2021
1168 Clouds 13 1026 88 10000 3.6 200 17:49 22.03.2021
1169 Clouds 13 1026 88 10000 3.6 210 17:22 22.03.2021
1170 Clouds 13 1026 82 10000 3.6 190 16:55 22.03.2021
1171 Clouds 13 1026 82 10000 3.6 190 16:36 22.03.2021
1172 Clouds 13 1027 82 10000 3.09 200 15:42 22.03.2021
1173 Clouds 13 1027 82 10000 3.09 210 15:23 22.03.2021
1174 Clouds 13 1027 82 10000 3.6 200 14:57 22.03.2021
1175 Clouds 13 1027 82 10000 3.6 200 14:34 22.03.2021
1176 Clouds 13 1028 82 10000 3.6 190 13:50 22.03.2021
1177 Clouds 13 1028 82 10000 3.6 190 13:29 22.03.2021
1178 Clouds 13 1028 82 10000 4.12 170 12:58 22.03.2021
1179 Clouds 13 1028 82 10000 4.12 170 12:26 22.03.2021
1180 Clouds 14 1028 82 10000 3.6 170 11:51 22.03.2021
1181 Clouds 13 1028 82 10000 3.6 170 11:30 22.03.2021
1182 Clouds 14 1028 82 10000 4.12 160 10:57 22.03.2021
1183 Clouds 14 1028 82 10000 4.12 160 10:37 22.03.2021
1184 Clouds 14 1028 82 10000 4.12 160 10:18 22.03.2021
1185 Clouds 14 1028 72 10000 0.51 210 09:34 22.03.2021
1186 Clouds 14 1028 67 10000 0.51 80 08:55 22.03.2021
1187 Clouds 14 1027 72 10000 1.54 120 08:37 22.03.2021
1188 Clouds 14 1027 72 10000 1.54 120 08:19 22.03.2021
1189 Clouds 14 1028 72 10000 4.12 140 07:41 22.03.2021
1190 Clouds 15 1028 82 10000 6.69 140 06:52 22.03.2021
1191 Clouds 17 1029 72 10000 5.66 170 03:24 22.03.2021
1192 Clouds 16 1029 77 10000 5.66 180 00:55 22.03.2021
1193 Clouds 15 1030 82 10000 5.14 180 00:20 22.03.2021
1194 Clouds 16 1030 77 10000 5.66 180 23:47 21.03.2021
1195 Clouds 15 1030 82 10000 5.66 180 23:18 21.03.2021
1196 Clouds 15 1030 77 10000 5.14 190 22:53 21.03.2021
1197 Clouds 15 1030 77 10000 5.14 190 22:53 21.03.2021
1198 Clouds 14 1029 82 10000 5.66 190 21:43 21.03.2021
1199 Clouds 14 1029 77 10000 5.14 180 21:25 21.03.2021
1200 Clouds 14 1029 77 10000 4.12 170 20:57 21.03.2021
1201 Clouds 14 1029 82 10000 5.66 170 20:39 21.03.2021
1202 Clouds 14 1029 82 10000 5.66 170 20:21 21.03.2021
1203 Clouds 14 1029 77 10000 6.17 150 19:48 21.03.2021
1204 Clouds 14 1028 77 10000 6.17 150 19:20 21.03.2021
1205 Clouds 13 1028 82 10000 5.66 170 18:44 21.03.2021
1206 Clouds 13 1028 77 10000 5.66 170 18:25 21.03.2021
1207 Clouds 13 1028 82 10000 5.66 170 17:43 21.03.2021
1208 Clouds 13 1028 82 10000 4.63 170 17:19 21.03.2021
1209 Clouds 13 1029 77 10000 4.12 180 16:51 21.03.2021
1210 Clouds 13 1029 82 10000 4.63 170 16:26 21.03.2021
1211 Clouds 13 1029 82 10000 4.63 170 15:48 21.03.2021
1212 Clouds 13 1029 82 10000 4.63 180 15:22 21.03.2021
1213 Clouds 13 1029 77 10000 4.12 180 14:56 21.03.2021
1214 Clouds 13 1029 82 10000 4.63 170 14:38 21.03.2021
1215 Clouds 13 1029 82 10000 4.63 170 14:19 21.03.2021
1216 Clouds 13 1029 82 10000 4.12 170 13:51 21.03.2021
1217 Clouds 14 1029 77 10000 4.12 180 12:46 21.03.2021
1218 Clouds 14 1029 72 10000 4.12 190 12:25 21.03.2021
1219 Clouds 14 1029 77 10000 4.12 190 11:44 21.03.2021
1220 Clouds 14 1029 77 10000 4.12 190 11:44 21.03.2021
1221 Clouds 14 1029 77 10000 4.63 170 11:26 21.03.2021
1222 Clouds 14 1029 77 10000 4.12 180 10:50 21.03.2021
1223 Rain 14 1029 77 10000 4.63 180 10:32 21.03.2021
1224 Clouds 13 1029 82 10000 4.63 180 09:55 21.03.2021
1225 Clouds 14 1029 77 10000 4.63 180 09:37 21.03.2021
1226 Clouds 14 1029 77 10000 4.63 180 09:18 21.03.2021
1227 Clouds 14 1029 72 10000 5.14 160 08:37 21.03.2021
1228 Clouds 14 1029 72 10000 5.14 160 08:19 21.03.2021
1229 Clouds 15 1028 67 10000 5.14 170 07:29 21.03.2021
1230 Clouds 16 1028 72 10000 6.69 170 06:21 21.03.2021
1231 Clouds 18 1029 68 10000 6.17 150 04:56 21.03.2021
1232 Clouds 17 1030 67 10000 5.14 160 00:58 21.03.2021
1233 Rain 16 1030 72 10000 5.14 150 00:39 21.03.2021
1234 Clouds 16 1030 72 10000 5.14 150 00:20 21.03.2021
1235 Clouds 16 1030 72 10000 5.66 150 23:45 20.03.2021
1236 Clouds 15 1031 67 10000 7.2 140 23:20 20.03.2021
1237 Clouds 15 1030 72 10000 6.17 180 22:25 20.03.2021
1238 Rain 15 1030 67 10000 5.14 180 21:58 20.03.2021
1239 Clouds 15 1030 67 10000 6.17 170 21:40 20.03.2021
1240 Rain 15 1030 67 10000 6.17 170 21:21 20.03.2021
1241 Clouds 14 1030 72 10000 6.17 170 20:41 20.03.2021
1242 Clouds 14 1030 72 10000 6.17 170 20:21 20.03.2021
1243 Clouds 14 1029 72 10000 6.69 170 19:41 20.03.2021
1244 Clouds 14 1029 72 10000 6.69 170 19:23 20.03.2021
1245 Clouds 14 1029 67 10000 6.69 170 18:46 20.03.2021
1246 Clouds 14 1029 67 10000 7.2 170 18:24 20.03.2021
1247 Clouds 14 1029 63 10000 7.2 170 17:48 20.03.2021
1248 Clouds 14 1029 63 10000 7.2 160 17:26 20.03.2021
1249 Clouds 14 1029 72 10000 7.2 170 16:44 20.03.2021
1250 Clouds 14 1029 72 10000 7.2 170 16:44 20.03.2021
1251 Clouds 14 1030 77 10000 6.17 180 16:20 20.03.2021
1252 Rain 14 1030 77 10000 6.17 180 15:54 20.03.2021
1253 Clouds 14 1030 82 10000 6.69 180 15:33 20.03.2021
1254 Clouds 14 1030 82 10000 6.17 170 14:44 20.03.2021
1255 Clouds 14 1030 82 10000 5.66 170 14:22 20.03.2021
1256 Clouds 14 1030 82 10000 6.69 170 13:32 20.03.2021
1257 Clouds 14 1030 77 10000 6.69 170 12:51 20.03.2021
1258 Clouds 14 1030 82 10000 6.69 180 12:26 20.03.2021
1259 Clouds 14 1031 82 10000 6.17 180 11:45 20.03.2021
1260 Clouds 14 1031 77 10000 6.69 170 11:27 20.03.2021
1261 Clouds 14 1031 77 10000 7.2 160 10:54 20.03.2021
1262 Clouds 14 1031 77 10000 6.17 160 10:27 20.03.2021
1263 Clouds 14 1031 77 10000 5.66 160 09:56 20.03.2021
1264 Clouds 14 1031 77 10000 5.66 160 09:27 20.03.2021
1265 Clouds 14 1030 72 10000 5.66 170 08:56 20.03.2021
1266 Clouds 14 1030 58 10000 4.63 140 08:30 20.03.2021
1267 Clouds 14 1030 58 10000 4.63 140 08:30 20.03.2021
1268 Rain 14 1030 72 10000 5.14 150 07:52 20.03.2021
1269 Rain 14 1030 72 10000 6.17 150 07:31 20.03.2021
1270 Clouds 15 1030 67 10000 6.69 170 06:47 20.03.2021
1271 Clear 16 1030 63 10000 6.17 170 06:18 20.03.2021
1272 Clouds 17 1031 55 10000 5.66 160 03:47 20.03.2021
1273 Rain 17 1031 55 10000 7.2 160 02:44 20.03.2021
1274 Clouds 15 1032 67 10000 6.17 170 23:58 19.03.2021
1275 Clouds 15 1032 67 10000 5.66 170 23:30 19.03.2021
1276 Clouds 15 1032 63 10000 6.17 160 22:48 19.03.2021
1277 Clouds 14 1032 67 10000 5.66 170 22:27 19.03.2021
1278 Clouds 13 1032 67 10000 5.14 170 21:56 19.03.2021
1279 Clouds 12 1032 72 10000 5.66 170 21:22 19.03.2021
1280 Clouds 12 1032 77 10000 4.63 160 20:57 19.03.2021
1281 Clouds 11 1032 82 10000 2.57 160 20:39 19.03.2021
1282 Clouds 10 1032 82 10000 2.57 160 20:21 19.03.2021
1283 Clouds 10 1032 82 10000 1.03 160 19:43 19.03.2021
1284 Clouds 10 1032 82 10000 1.03 140 19:19 19.03.2021
1285 Clouds 10 1032 76 10000 1.54 140 18:40 19.03.2021
1286 Clouds 12 1032 76 10000 1.54 140 18:18 19.03.2021
1287 Clouds 12 1032 76 10000 1.54 140 18:18 19.03.2021
1288 Clear 11 1032 82 10000 1.54 120 17:51 19.03.2021
1289 Clear 11 1032 76 10000 2.06 130 17:27 19.03.2021
1290 Clear 11 1032 76 10000 2.06 160 16:52 19.03.2021
1291 Clear 10 1032 82 10000 2.06 150 16:27 19.03.2021
1292 Clear 10 1032 76 10000 2.06 150 15:46 19.03.2021
1293 Clear 9 1032 76 10000 3.09 140 15:22 19.03.2021
1294 Rain 8 1033 87 10000 0.51 80 14:45 19.03.2021
1295 Clear 9 1033 87 10000 1.03 50 14:26 19.03.2021
1296 Clear 9 1033 76 10000 1.54 30 13:40 19.03.2021
1297 Clear 10 1033 82 10000 0.51 330 12:51 19.03.2021
1298 Clear 10 1033 76 10000 1.54 80 12:33 19.03.2021
1299 Clear 11 1033 76 10000 1.54 60 11:42 19.03.2021
1300 Clear 12 1033 72 10000 1.03 210 10:54 19.03.2021
1301 Clear 12 1033 62 10000 0.51 130 10:30 19.03.2021
1302 Clear 13 1033 62 10000 1.54 160 09:49 19.03.2021
1303 Clear 13 1033 63 10000 4.12 140 09:30 19.03.2021
1304 Clear 14 1033 67 10000 5.66 140 08:55 19.03.2021
1305 Clear 14 1032 72 10000 6.17 140 08:37 19.03.2021
1306 Clear 14 1032 72 10000 7.72 150 07:58 19.03.2021
1307 Clear 15 1033 67 10000 7.72 160 07:36 19.03.2021
1308 Clear 16 1033 59 10000 5.66 170 06:48 19.03.2021
1309 Clear 17 1034 67 10000 6.69 170 02:45 19.03.2021
1310 Rain 17 1035 59 10000 4.12 190 00:58 19.03.2021
1311 Rain 15 1035 67 10000 2.57 190 23:30 18.03.2021
1312 Rain 14 1035 62 10000 1.03 220 22:58 18.03.2021
1313 Rain 13 1035 67 10000 0.51 300 22:39 18.03.2021
1314 Rain 12 1035 67 10000 0.51 300 22:19 18.03.2021
1315 Rain 12 1035 76 10000 1.54 10 21:39 18.03.2021
1316 Rain 10 1035 81 10000 2.06 40 20:51 18.03.2021
1317 Rain 9 1035 87 10000 2.06 40 20:32 18.03.2021
1318 Rain 8 1034 87 10000 2.06 40 19:48 18.03.2021
1319 Rain 8 1034 87 10000 1.54 20 19:29 18.03.2021
1320 Rain 8 1034 87 10000 1.54 20 18:58 18.03.2021
1321 Rain 9 1034 87 10000 1.54 40 18:34 18.03.2021
1322 Rain 8 1034 87 10000 1.03 30 17:51 18.03.2021
1323 Clear 8 1034 87 10000 1.03 360 17:26 18.03.2021
1324 Rain 8 1034 81 10000 1.54 60 16:49 18.03.2021
1325 Rain 8 1034 81 10000 1.03 40 16:30 18.03.2021
1326 Rain 8 1035 81 8000 1.03 350 15:48 18.03.2021
1327 Rain 8 1035 81 10000 1.03 30 15:28 18.03.2021
1328 Rain 8 1035 76 10000 1.03 120 14:55 18.03.2021
1329 Rain 9 1035 76 10000 1.03 20 14:33 18.03.2021
1330 Clear 9 1035 76 10000 1.03 320 13:53 18.03.2021
1331 Rain 9 1035 76 10000 0.51 40 13:26 18.03.2021
1332 Rain 9 1035 71 10000 1.03 90 12:45 18.03.2021
1333 Rain 9 1035 71 10000 0.51 100 12:27 18.03.2021
1334 Rain 9 1035 71 10000 0.51 100 12:27 18.03.2021
1335 Clear 10 1035 71 10000 0.51 50 11:55 18.03.2021
1336 Rain 10 1035 66 10000 1.03 10 11:34 18.03.2021
1337 Clear 10 1035 71 10000 1.54 50 10:49 18.03.2021
1338 Clear 11 1035 62 10000 1.03 70 10:27 18.03.2021
1339 Clear 11 1034 62 10000 1.54 120 09:57 18.03.2021
1340 Clear 12 1034 62 10000 2.06 120 09:30 18.03.2021
1341 Clear 13 1034 62 10000 3.09 140 08:55 18.03.2021
1342 Clear 13 1034 62 10000 4.12 140 08:33 18.03.2021
1343 Clear 14 1034 62 10000 5.66 150 07:55 18.03.2021
1344 Clear 14 1034 62 10000 5.66 150 07:55 18.03.2021
1345 Clear 14 1034 58 10000 6.69 150 07:29 18.03.2021
1346 Clear 15 1034 58 10000 7.2 150 06:40 18.03.2021
1347 Clear 15 1034 58 10000 7.2 150 06:19 18.03.2021
1348 Clear 16 1034 55 10000 6.69 160 04:27 18.03.2021
1349 Clear 17 1035 48 10000 7.72 160 00:38 18.03.2021
1350 Clear 15 1035 58 10000 7.2 160 22:59 17.03.2021
1351 Clear 15 1034 58 10000 7.72 170 22:36 17.03.2021
1352 Clear 15 1034 58 10000 7.72 170 22:18 17.03.2021
1353 Clouds 14 1034 58 10000 7.72 160 21:47 17.03.2021
1354 Clouds 14 1034 58 10000 7.72 160 21:47 17.03.2021
1355 Clouds 14 1034 58 10000 8.23 160 21:29 17.03.2021
1356 Clouds 14 1034 62 10000 7.72 160 20:45 17.03.2021
1357 Rain 13 1033 62 10000 8.23 150 20:26 17.03.2021
1358 Clouds 13 1033 62 10000 8.23 150 19:54 17.03.2021
1359 Rain 13 1033 58 10000 8.75 150 19:25 17.03.2021
1360 Rain 13 1032 62 10000 8.23 160 18:59 17.03.2021
1361 Rain 13 1032 62 10000 8.23 160 18:40 17.03.2021
1362 Rain 13 1032 62 10000 8.23 160 17:58 17.03.2021
1363 Rain 13 1032 62 10000 8.23 170 17:27 17.03.2021
1364 Clouds 13 1031 62 10000 8.75 160 16:57 17.03.2021
1365 Rain 13 1031 62 10000 9.77 160 16:37 17.03.2021
1366 Rain 13 1031 62 10000 9.77 160 16:19 17.03.2021
1367 Rain 13 1031 67 10000 8.75 160 15:40 17.03.2021
1368 Rain 13 1030 62 10000 9.26 160 14:46 17.03.2021
1369 Rain 13 1030 67 10000 9.77 160 14:28 17.03.2021
1370 Rain 13 1030 62 10000 9.26 160 13:56 17.03.2021
1371 Rain 13 1030 67 10000 9.77 160 13:38 17.03.2021
1372 Rain 13 1030 67 10000 9.77 160 13:18 17.03.2021
1373 Rain 14 1029 67 10000 9.77 160 12:35 17.03.2021
1374 Rain 14 1029 63 10000 9.77 150 11:54 17.03.2021
1375 Rain 14 1028 72 10000 8.75 150 11:27 17.03.2021
1376 Rain 14 1028 72 10000 8.75 160 10:59 17.03.2021
1377 Clear 14 1028 72 10000 8.75 160 10:40 17.03.2021
1378 Clouds 14 1027 77 10000 9.77 160 09:59 17.03.2021
1379 Clouds 15 1027 72 10000 8.23 160 09:41 17.03.2021
1380 Clouds 15 1027 72 10000 8.23 160 09:20 17.03.2021
1381 Clouds 15 1026 63 10000 8.23 160 08:44 17.03.2021
1382 Clear 15 1025 63 10000 8.23 160 08:24 17.03.2021
1383 Clear 16 1025 63 10000 5.14 160 07:37 17.03.2021
1384 Clear 17 1024 67 10000 4.63 180 06:48 17.03.2021
1385 Clear 19 1022 55 10000 2.06 10 04:28 17.03.2021
1386 Clear 19 1021 49 10000 4.63 20 03:31 17.03.2021
1387 Clear 18 1021 48 10000 5.14 360 00:44 17.03.2021
1388 Clear 18 1021 52 10000 3.6 40 00:24 17.03.2021
1389 Clear 17 1021 59 10000 4.12 40 23:25 16.03.2021
1390 Clear 15 1021 63 10000 4.12 10 22:44 16.03.2021
1391 Clear 15 1021 63 10000 4.12 10 22:44 16.03.2021
1392 Clear 14 1022 67 10000 2.57 360 22:25 16.03.2021
1393 Clear 13 1021 72 10000 1.54 350 21:43 16.03.2021
1394 Clear 11 1021 76 10000 2.57 30 21:25 16.03.2021
1395 Clear 11 1021 82 10000 2.06 30 20:56 16.03.2021
1396 Clear 9 1020 87 10000 1.54 50 20:19 16.03.2021
1397 Clear 8 1020 87 10000 1.54 40 19:48 16.03.2021
1398 Clear 9 1020 87 10000 1.03 30 19:27 16.03.2021
1399 Clear 9 1020 87 10000 1.03 60 18:53 16.03.2021
1400 Clear 9 1020 81 10000 1.03 10 18:35 16.03.2021
1401 Clear 10 1019 81 10000 1.54 40 17:52 16.03.2021
1402 Clear 10 1019 71 10000 1.03 110 17:33 16.03.2021
1403 Clear 12 1019 67 10000 2.57 140 16:54 16.03.2021
1404 Clear 12 1019 67 10000 2.57 140 16:54 16.03.2021
1405 Clear 12 1019 67 10000 2.57 140 16:54 16.03.2021
1406 Clear 12 1019 67 10000 5.14 150 16:31 16.03.2021
1407 Clear 13 1019 72 10000 6.17 150 15:59 16.03.2021
1408 Clear 13 1019 67 10000 7.2 150 15:38 16.03.2021
1409 Clear 13 1019 67 10000 7.2 150 15:19 16.03.2021
1410 Clear 13 1019 67 10000 7.2 160 14:42 16.03.2021
1411 Clear 13 1019 67 10000 7.2 160 14:23 16.03.2021
1412 Clouds 13 1019 72 10000 7.2 160 13:58 16.03.2021
1413 Clouds 13 1019 67 10000 8.75 170 13:29 16.03.2021
1414 Clouds 13 1018 67 10000 7.72 160 12:56 16.03.2021
1415 Clouds 13 1018 72 10000 7.72 160 12:37 16.03.2021
1416 Clouds 13 1018 72 10000 7.72 160 12:18 16.03.2021
1417 Clouds 13 1018 72 10000 7.72 160 12:18 16.03.2021
1418 Clouds 13 1018 72 10000 8.23 160 11:35 16.03.2021
1419 Clouds 13 1018 72 10000 8.75 160 10:50 16.03.2021
1420 Clouds 13 1017 72 10000 7.72 170 10:21 16.03.2021
1421 Clouds 13 1016 77 10000 7.72 180 09:40 16.03.2021
1422 Clouds 13 1016 77 10000 7.72 180 09:21 16.03.2021
1423 Clouds 13 1016 77 10000 7.2 180 08:55 16.03.2021
1424 Clouds 13 1015 72 10000 8.23 170 08:36 16.03.2021
1425 Clouds 14 1015 72 10000 8.23 150 07:53 16.03.2021
1426 Clouds 14 1015 72 10000 10.29 160 07:24 16.03.2021
1427 Clouds 14 1013 77 10000 13.89 170 06:38 16.03.2021
1428 Clouds 16 1010 82 10000 13.38 210 05:37 16.03.2021
1429 Clouds 20 1008 64 10000 7.2 320 04:26 16.03.2021
1430 Clouds 19 1008 73 10000 8.75 330 02:26 16.03.2021
1431 Clouds 17 1009 88 10000 10.8 340 00:39 16.03.2021
1432 Rain 18 1009 77 10000 10.8 340 23:54 15.03.2021
1433 Rain 18 1009 77 10000 9.77 330 23:19 15.03.2021
1434 Rain 18 1009 82 10000 11.32 340 22:43 15.03.2021
1435 Rain 18 1009 77 10000 12.35 340 22:24 15.03.2021
1436 Clouds 18 1009 82 10000 11.83 340 21:49 15.03.2021
1437 Rain 18 1009 82 10000 8.23 340 21:28 15.03.2021
1438 Rain 18 1009 82 10000 11.83 350 20:54 15.03.2021
1439 Rain 17 1009 88 10000 10.29 350 20:36 15.03.2021
1440 Rain 17 1009 88 10000 10.29 350 20:18 15.03.2021
1441 Rain 18 1009 77 10000 10.29 350 19:43 15.03.2021
1442 Rain 18 1009 77 10000 10.8 340 19:22 15.03.2021
1443 Clouds 17 1009 82 10000 11.32 340 18:47 15.03.2021
1444 Drizzle 17 1010 88 10000 10.29 350 18:23 15.03.2021
1445 Drizzle 17 1010 82 10000 9.26 340 17:55 15.03.2021
1446 Rain 17 1010 82 10000 10.29 350 17:28 15.03.2021
1447 Rain 17 1011 82 10000 10.29 360 16:49 15.03.2021
1448 Rain 17 1011 82 10000 10.29 360 16:20 15.03.2021
1449 Rain 17 1011 77 10000 9.77 360 15:39 15.03.2021
1450 Rain 17 1011 77 10000 9.77 360 15:20 15.03.2021
1451 Rain 17 1012 77 10000 10.29 350 14:41 15.03.2021
1452 Rain 17 1012 77 10000 10.29 350 14:21 15.03.2021
1453 Rain 17 1012 77 10000 10.29 340 13:46 15.03.2021
1454 Rain 17 1012 77 10000 10.29 340 13:24 15.03.2021
1455 Rain 17 1012 68 10000 9.77 340 12:47 15.03.2021
1456 Rain 18 1012 63 10000 8.75 340 12:18 15.03.2021
1457 Clouds 17 1013 68 10000 9.26 340 11:47 15.03.2021
1458 Clouds 17 1013 68 10000 10.8 360 11:29 15.03.2021
1459 Clouds 17 1013 72 10000 9.77 350 10:45 15.03.2021
1460 Clouds 17 1013 72 10000 9.77 350 10:45 15.03.2021
1461 Clouds 17 1014 63 10000 8.23 340 10:26 15.03.2021
1462 Clouds 17 1014 63 10000 8.23 340 10:26 15.03.2021
1463 Clouds 17 1014 72 10000 9.77 360 09:48 15.03.2021
1464 Clouds 17 1014 77 10000 7.2 340 09:30 15.03.2021
1465 Clouds 17 1014 72 10000 8.75 360 08:47 15.03.2021
1466 Clouds 17 1014 72 10000 8.75 360 08:27 15.03.2021
1467 Clouds 17 1014 77 10000 8.75 350 07:43 15.03.2021
1468 Clouds 18 1014 68 10000 8.23 350 07:24 15.03.2021
1469 Clouds 18 1014 68 10000 9.26 350 06:21 15.03.2021
1470 Clouds 18 1014 68 10000 12.86 360 05:24 15.03.2021
1471 Clouds 19 1018 68 10000 10.29 360 01:25 15.03.2021
1472 Clouds 18 1020 72 10000 9.26 360 23:45 14.03.2021
1473 Clouds 18 1020 72 10000 9.26 360 23:19 14.03.2021
1474 Clouds 18 1020 72 10000 10.8 10 22:39 14.03.2021
1475 Clouds 18 1020 72 10000 10.8 10 22:18 14.03.2021
1476 Clouds 17 1020 77 10000 9.26 10 21:41 14.03.2021
1477 Rain 17 1020 77 10000 9.26 10 21:18 14.03.2021
1478 Rain 16 1020 77 10000 8.23 10 20:42 14.03.2021
1479 Rain 16 1020 77 10000 8.23 10 20:24 14.03.2021
1480 Rain 16 1020 77 10000 9.26 20 19:42 14.03.2021
1481 Rain 16 1020 77 10000 9.26 20 19:20 14.03.2021
1482 Rain 16 1020 77 10000 8.75 20 18:46 14.03.2021
1483 Rain 16 1020 77 10000 8.75 20 18:18 14.03.2021
1484 Rain 16 1020 77 10000 7.72 30 17:39 14.03.2021
1485 Rain 16 1020 77 10000 7.72 30 17:20 14.03.2021
1486 Rain 16 1020 82 10000 8.23 30 16:42 14.03.2021
1487 Clouds 16 1020 82 10000 8.23 30 16:23 14.03.2021
1488 Rain 15 1021 82 10000 7.72 30 15:52 14.03.2021
1489 Clouds 15 1021 82 10000 8.23 30 15:25 14.03.2021
1490 Rain 15 1022 77 10000 8.23 30 14:41 14.03.2021
1491 Clouds 15 1022 77 10000 8.23 30 14:20 14.03.2021
1492 Clouds 15 1022 77 10000 7.72 20 13:48 14.03.2021
1493 Clouds 15 1022 77 10000 8.23 30 13:27 14.03.2021
1494 Clouds 15 1022 77 10000 7.2 20 12:44 14.03.2021
1495 Clouds 15 1023 77 10000 8.23 20 12:26 14.03.2021
1496 Clouds 15 1023 77 10000 8.75 10 11:44 14.03.2021
1497 Clouds 15 1023 77 10000 9.77 360 11:26 14.03.2021
1498 Rain 15 1022 82 10000 8.75 350 10:38 14.03.2021
1499 Clear 15 1022 82 10000 8.75 350 10:20 14.03.2021
1500 Clouds 15 1022 82 10000 8.75 350 09:59 14.03.2021
1501 Rain 15 1022 82 10000 9.26 360 09:41 14.03.2021
1502 Rain 16 1022 82 10000 9.26 360 09:21 14.03.2021
1503 Rain 16 1022 77 10000 9.77 10 08:40 14.03.2021
1504 Rain 17 1022 72 10000 8.75 360 07:59 14.03.2021
1505 Rain 17 1021 68 10000 8.23 20 07:34 14.03.2021
1506 Rain 19 1022 64 10000 8.75 360 05:42 14.03.2021
1507 Clear 20 1024 60 10000 9.26 360 01:34 14.03.2021
1508 Clear 19 1024 64 10000 10.29 10 00:49 14.03.2021
1509 Rain 20 1024 64 10000 9.26 360 00:18 14.03.2021
1510 Rain 18 1024 68 10000 9.26 360 23:42 13.03.2021
1511 Rain 18 1024 63 10000 8.75 10 23:19 13.03.2021
1512 Rain 18 1024 63 10000 8.75 10 22:47 13.03.2021
1513 Rain 16 1024 63 10000 8.23 10 22:24 13.03.2021
1514 Clear 15 1025 77 10000 4.63 30 21:36 13.03.2021
1515 Rain 14 1025 77 10000 4.63 30 21:18 13.03.2021
1516 Rain 12 1025 82 10000 5.14 30 20:47 13.03.2021
1517 Clear 11 1025 82 10000 5.14 30 20:26 13.03.2021
1518 Clear 11 1025 76 10000 4.12 20 19:45 13.03.2021
1519 Clear 11 1025 82 10000 2.57 20 19:24 13.03.2021
1520 Clear 11 1025 82 10000 3.09 10 18:43 13.03.2021
1521 Clear 11 1025 82 10000 2.57 20 18:21 13.03.2021
1522 Clear 11 1026 76 10000 2.57 10 17:52 13.03.2021
1523 Clear 11 1026 82 10000 3.6 10 17:32 13.03.2021
1524 Clear 12 1026 82 10000 2.57 20 16:57 13.03.2021
1525 Clear 12 1027 76 10000 3.09 40 16:38 13.03.2021
1526 Clear 12 1027 82 10000 1.54 30 15:57 13.03.2021
1527 Clear 12 1027 82 10000 2.06 40 15:21 13.03.2021
1528 Clear 13 1027 76 10000 2.06 40 14:42 13.03.2021
1529 Clear 13 1028 76 10000 1.54 40 14:23 13.03.2021
1530 Rain 12 1028 76 10000 1.03 60 13:30 13.03.2021
1531 Clear 13 1028 76 10000 1.03 30 12:56 13.03.2021
1532 Clear 14 1028 72 10000 1.54 40 12:38 13.03.2021
1533 Clear 14 1028 77 10000 1.54 30 11:58 13.03.2021
1534 Clear 12 1028 76 10000 1.54 20 11:39 13.03.2021
1535 Clear 12 1028 76 10000 1.54 20 11:21 13.03.2021
1536 Clear 13 1028 72 10000 1.54 20 10:36 13.03.2021
1537 Rain 13 1028 72 10000 1.54 20 10:18 13.03.2021
1538 Clear 13 1027 72 10000 3.46 68 09:34 13.03.2021
1539 Clear 14 1027 72 10000 1.03 310 08:55 13.03.2021
1540 Rain 15 1027 67 10000 1.03 180 08:36 13.03.2021
1541 Clear 15 1027 67 10000 1.03 180 08:18 13.03.2021
1542 Clear 16 1027 67 10000 4.12 220 07:39 13.03.2021
1543 Clear 18 1027 68 10000 4.63 200 05:31 13.03.2021
1544 Clouds 19 1029 52 10000 2.57 130 02:42 13.03.2021
1545 Clouds 18 1031 52 10000 4.12 140 00:37 13.03.2021
1546 Clouds 17 1031 51 10000 3.6 110 23:48 12.03.2021
1547 Clouds 16 1031 51 10000 2.57 100 23:30 12.03.2021
1548 Clouds 15 1031 55 10000 3.6 120 22:41 12.03.2021
1549 Clouds 14 1031 55 10000 3.6 120 22:21 12.03.2021
1550 Clouds 15 1031 58 10000 3.09 140 21:39 12.03.2021
1551 Clouds 12 1031 58 10000 3.09 140 21:20 12.03.2021
1552 Clouds 14 1031 67 10000 2.06 160 20:54 12.03.2021
1553 Clouds 10 1030 67 10000 2.06 160 20:31 12.03.2021
1554 Clouds 11 1030 66 10000 2.06 120 19:48 12.03.2021
1555 Clouds 11 1030 66 10000 2.06 120 19:48 12.03.2021
1556 Clear 9 1030 76 10000 2.06 150 19:30 12.03.2021
1557 Clear 9 1030 81 10000 0.51 80 18:54 12.03.2021
1558 Clear 9 1030 76 10000 1.03 100 18:33 12.03.2021
1559 Rain 8 1030 81 10000 0.51 70 17:46 12.03.2021
1560 Rain 8 1030 81 10000 0.51 70 17:46 12.03.2021
1561 Rain 10 1030 76 10000 1.03 60 17:27 12.03.2021
1562 Rain 9 1030 76 10000 1.03 90 16:51 12.03.2021
1563 Rain 10 1030 66 10000 2.06 130 16:29 12.03.2021
1564 Rain 10 1030 62 10000 2.06 130 15:50 12.03.2021
1565 Rain 10 1030 62 10000 2.06 130 15:21 12.03.2021
1566 Rain 10 1030 62 10000 2.06 130 14:46 12.03.2021
1567 Rain 11 1030 62 10000 2.06 120 14:19 12.03.2021
1568 Rain 12 1030 58 10000 2.57 130 13:41 12.03.2021
1569 Rain 12 1030 58 10000 2.57 130 13:20 12.03.2021
1570 Rain 13 1030 58 10000 4.63 140 12:52 12.03.2021
1571 Rain 13 1030 62 10000 6.17 140 12:30 12.03.2021
1572 Rain 13 1030 62 10000 6.69 150 11:58 12.03.2021
1573 Rain 13 1030 67 10000 7.2 160 11:40 12.03.2021
1574 Rain 13 1030 67 10000 7.2 160 11:18 12.03.2021
1575 Rain 14 1030 63 10000 7.72 160 10:44 12.03.2021
1576 Rain 13 1029 63 10000 7.2 140 10:22 12.03.2021
1577 Rain 14 1029 58 10000 6.69 150 09:29 12.03.2021
1578 Rain 14 1028 63 10000 6.69 150 08:57 12.03.2021
1579 Rain 14 1028 58 10000 7.72 140 08:39 12.03.2021
1580 Clear 14 1027 63 10000 7.72 150 07:41 12.03.2021
1581 Clear 14 1027 63 10000 7.72 150 07:19 12.03.2021
1582 Clouds 15 1027 63 10000 7.72 150 06:42 12.03.2021
1583 Clear 16 1027 63 10000 8.23 160 05:45 12.03.2021
1584 Clouds 16 1028 63 10000 7.72 150 00:52 12.03.2021
1585 Clouds 16 1028 63 10000 8.23 170 23:56 11.03.2021
1586 Clouds 15 1027 63 10000 7.2 170 22:58 11.03.2021
1587 Clouds 15 1027 63 10000 7.72 160 22:38 11.03.2021
1588 Clouds 15 1027 63 10000 7.72 160 22:18 11.03.2021
1589 Clouds 15 1027 63 10000 7.72 160 21:46 11.03.2021
1590 Clouds 15 1026 72 10000 7.2 160 21:22 11.03.2021
1591 Clouds 14 1026 63 10000 6.17 140 20:49 11.03.2021
1592 Clouds 14 1026 67 10000 7.72 170 20:22 11.03.2021
1593 Clear 13 1026 67 10000 7.72 150 19:53 11.03.2021
1594 Clear 12 1024 78 10000 0.45 167 19:34 11.03.2021
1595 Clouds 13 1025 72 10000 5.66 160 18:52 11.03.2021
1596 Rain 12 1025 72 10000 5.66 160 18:34 11.03.2021
1597 Clouds 12 1025 72 10000 5.66 160 17:53 11.03.2021
1598 Clouds 12 1024 72 10000 6.17 170 17:32 11.03.2021
1599 Rain 12 1024 67 10000 5.66 160 16:34 11.03.2021
1600 Rain 13 1024 72 10000 5.66 170 15:56 11.03.2021
1601 Rain 13 1024 72 10000 5.14 160 15:37 11.03.2021
1602 Rain 13 1024 72 10000 5.14 160 15:19 11.03.2021
1603 Rain 12 1024 67 10000 4.63 140 14:43 11.03.2021
1604 Rain 13 1024 72 10000 3.6 140 14:18 11.03.2021
1605 Clouds 12 1024 72 10000 5.66 160 13:43 11.03.2021
1606 Rain 12 1024 63 10000 5.66 150 13:21 11.03.2021
1607 Clouds 12 1024 67 10000 5.14 140 12:50 11.03.2021
1608 Clouds 13 1024 67 10000 4.63 140 12:28 11.03.2021
1609 Clouds 13 1024 67 10000 5.14 140 11:46 11.03.2021
1610 Clouds 13 1024 67 10000 5.66 140 11:27 11.03.2021
1611 Clouds 14 1024 67 10000 6.17 150 10:50 11.03.2021
1612 Clouds 14 1024 67 10000 6.69 150 10:25 11.03.2021
1613 Clouds 14 1024 67 10000 6.69 150 09:50 11.03.2021
1614 Clouds 14 1023 67 10000 7.72 150 09:32 11.03.2021
1615 Clouds 14 1023 72 10000 6.69 160 08:49 11.03.2021
1616 Clouds 14 1023 72 10000 7.2 160 08:24 11.03.2021
1617 Clouds 14 1023 72 10000 7.72 160 07:44 11.03.2021
1618 Clouds 15 1022 72 10000 7.72 160 06:54 11.03.2021
1619 Clouds 15 1022 72 10000 8.75 170 06:36 11.03.2021
1620 Clouds 15 1022 72 10000 8.75 170 06:18 11.03.2021
1621 Clouds 16 1021 77 10000 9.77 170 02:25 11.03.2021
1622 -273 0 0 0 0 0 00:23 11.03.2021
1623 Clouds 15 1020 88 10000 8.75 160 23:22 10.03.2021
1624 Clouds 15 1019 88 10000 8.75 160 22:41 10.03.2021
1625 Clouds 15 1019 88 10000 8.75 160 22:41 10.03.2021
1626 Clouds 15 1019 88 10000 8.75 160 22:41 10.03.2021
1627 Clouds 15 1019 88 10000 8.75 160 22:41 10.03.2021
1628 Clouds 15 1018 82 10000 9.26 170 21:58 10.03.2021
1629 Clouds 15 1018 82 10000 9.26 170 21:39 10.03.2021
1630 Clouds 15 1018 82 10000 9.26 170 21:20 10.03.2021
1631 Clouds 14 1017 88 10000 10.8 170 20:42 10.03.2021
1632 Clouds 14 1017 88 10000 10.8 170 20:23 10.03.2021
1633 Clouds 14 1017 88 10000 10.8 170 20:23 10.03.2021
1634 Rain 14 1016 88 10000 10.8 180 19:41 10.03.2021
1635 Clouds 14 1016 88 10000 10.8 180 19:21 10.03.2021
1636 Rain 14 1015 94 10000 10.29 180 18:44 10.03.2021
1637 Clouds 15 1015 88 10000 10.29 180 18:23 10.03.2021
1638 Rain 15 1015 88 10000 10.8 180 17:43 10.03.2021
1639 Clouds 15 1014 88 10000 10.29 180 17:21 10.03.2021
1640 Rain 15 1014 88 10000 9.77 180 16:55 10.03.2021
1641 Rain 15 1014 88 10000 10.29 180 16:37 10.03.2021
1642 Rain 15 1014 88 10000 10.29 180 16:18 10.03.2021
1643 Rain 15 1013 88 10000 9.77 190 15:40 10.03.2021
1644 Clouds 15 1013 88 10000 9.77 190 15:21 10.03.2021
1645 Rain 15 1012 88 10000 10.29 190 14:41 10.03.2021
1646 Rain 15 1012 88 10000 10.29 190 14:19 10.03.2021
1647 Rain 15 1012 94 10000 9.77 200 13:46 10.03.2021
1648 Clouds 15 1012 94 10000 9.26 210 13:24 10.03.2021
1649 Rain 16 1011 88 10000 7.2 200 12:44 10.03.2021
1650 Rain 17 1011 94 10000 3.09 320 12:18 10.03.2021
1651 Rain 17 1010 94 10000 5.14 350 11:32 10.03.2021
1652 Rain 17 1010 94 10000 6.69 350 10:57 10.03.2021
1653 Rain 17 1010 94 10000 7.2 350 10:34 10.03.2021
1654 Rain 17 1009 94 10000 8.23 350 09:59 10.03.2021
1655 Rain 17 1008 94 10000 9.26 340 09:41 10.03.2021
1656 Clouds 17 1008 94 10000 9.26 340 09:21 10.03.2021
1657 Drizzle 17 1008 94 10000 8.23 330 08:46 10.03.2021
1658 Rain 17 1008 88 10000 8.23 330 08:28 10.03.2021
1659 Clouds 17 1008 88 10000 7.72 340 07:58 10.03.2021
1660 Clouds 17 1008 88 10000 8.75 340 07:30 10.03.2021
1661 Clouds 17 1008 88 10000 8.75 340 07:30 10.03.2021
1662 Clouds 17 1008 88 10000 8.75 330 06:56 10.03.2021
1663 Clouds 17 1008 88 10000 9.77 340 06:23 10.03.2021
1664 Clouds 19 1009 77 10000 12.35 350 02:26 10.03.2021
1665 Clouds 18 1011 72 10000 11.32 10 23:49 09.03.2021
1666 Clouds 18 1011 72 10000 11.32 360 22:59 09.03.2021
1667 Clouds 17 1011 72 10000 10.8 360 22:38 09.03.2021
1668 Clouds 17 1011 72 10000 10.8 360 22:18 09.03.2021
1669 Clouds 16 1011 77 10000 9.26 350 21:45 09.03.2021
1670 Clouds 17 1011 68 10000 9.77 350 21:24 09.03.2021
1671 Clouds 17 1011 68 10000 9.77 340 20:58 09.03.2021
1672 Clouds 17 1011 72 10000 8.23 350 20:39 09.03.2021
1673 Clouds 17 1011 72 10000 8.23 350 20:20 09.03.2021
1674 Clouds 16 1011 72 10000 9.26 360 19:46 09.03.2021
1675 Clouds 16 1010 72 10000 12.35 360 19:25 09.03.2021
1676 Clouds 16 1011 72 10000 9.26 350 18:43 09.03.2021
1677 Clouds 16 1011 72 10000 9.77 350 18:25 09.03.2021
1678 Clouds 16 1011 72 10000 10.8 360 17:50 09.03.2021
1679 Clouds 16 1011 72 10000 11.32 360 17:29 09.03.2021
1680 Clouds 16 1012 67 10000 11.83 360 16:44 09.03.2021
1681 Clouds 16 1012 67 10000 8.75 360 16:26 09.03.2021
1682 Clouds 16 1012 67 10000 9.26 360 15:59 09.03.2021
1683 Clouds 16 1012 67 10000 11.32 360 15:36 09.03.2021
1684 Clouds 16 1012 67 10000 11.32 360 15:18 09.03.2021
1685 Clouds 16 1013 67 10000 10.8 360 14:28 09.03.2021
1686 Clouds 16 1014 67 10000 8.75 350 13:43 09.03.2021
1687 Clouds 16 1014 67 10000 11.32 340 13:22 09.03.2021
1688 Clouds 16 1014 67 10000 9.77 350 12:59 09.03.2021
1689 Clouds 16 1014 72 10000 10.8 360 12:38 09.03.2021
1690 Rain 16 1014 72 10000 10.8 350 11:59 09.03.2021
1691 Clouds 16 1015 72 10000 9.26 360 11:39 09.03.2021
1692 Clouds 16 1015 72 10000 9.26 360 11:20 09.03.2021
1693 Clouds 16 1015 72 10000 11.32 360 10:41 09.03.2021
1694 Rain 16 1015 72 10000 11.32 360 10:23 09.03.2021
1695 Clouds 16 1014 77 10000 11.32 360 09:58 09.03.2021
1696 Clouds 16 1014 77 10000 8.75 10 09:39 09.03.2021
1697 Clouds 17 1014 77 10000 8.75 10 09:21 09.03.2021
1698 Clouds 17 1014 72 10000 9.77 10 08:35 09.03.2021
1699 Clouds 17 1014 72 10000 9.77 10 08:35 09.03.2021
1700 Clouds 17 1014 72 10000 10.29 360 07:52 09.03.2021
1701 Clouds 17 1014 63 10000 10.29 360 07:31 09.03.2021
1702 Clouds 18 1014 63 10000 10.29 360 06:59 09.03.2021
1703 Clouds 19 1014 56 10000 9.77 360 05:54 09.03.2021
1704 Clouds 19 1015 52 10000 8.23 360 03:51 09.03.2021
1705 Clouds 19 1016 56 10000 6.17 360 00:18 09.03.2021
1706 Clouds 18 1016 68 10000 4.12 10 23:42 08.03.2021
1707 Clouds 18 1016 68 10000 4.12 10 23:23 08.03.2021
1708 Clouds 17 1016 63 10000 3.09 360 22:44 08.03.2021
1709 Clouds 17 1016 63 10000 3.09 10 22:26 08.03.2021
1710 Clouds 14 1016 72 10000 2.57 10 21:53 08.03.2021
1711 Clouds 13 1016 72 10000 3.09 360 21:34 08.03.2021
1712 Clouds 12 1016 77 10000 3.09 10 20:45 08.03.2021
1713 Clouds 12 1016 76 10000 2.57 40 20:25 08.03.2021
1714 Clouds 12 1015 76 10000 1.54 360 19:55 08.03.2021
1715 Clouds 12 1015 76 10000 1.54 30 19:28 08.03.2021
1716 Clouds 13 1015 72 10000 1.54 20 18:39 08.03.2021
1717 Clouds 13 1015 72 10000 1.54 20 18:20 08.03.2021
1718 Clouds 13 1015 72 10000 2.06 20 17:50 08.03.2021
1719 Clouds 13 1015 77 10000 1.54 20 17:25 08.03.2021
1720 Clouds 13 1015 67 10000 1.03 40 16:46 08.03.2021
1721 Clouds 14 1015 58 10000 1.03 100 16:27 08.03.2021
1722 Clouds 14 1015 58 10000 1.54 100 15:49 08.03.2021
1723 Clouds 14 1015 63 10000 1.54 90 15:26 08.03.2021
1724 Clouds 14 1015 58 10000 1.03 90 14:43 08.03.2021
1725 Clouds 14 1015 63 10000 0.51 100 14:20 08.03.2021
1726 Clouds 14 1015 63 10000 1.54 130 13:37 08.03.2021
1727 Clouds 14 1015 63 10000 1.54 130 13:18 08.03.2021
1728 Clouds 14 1015 67 10000 2.06 130 12:42 08.03.2021
1729 Clouds 14 1015 67 10000 2.06 130 12:22 08.03.2021
1730 Clouds 14 1014 63 10000 4.12 140 11:38 08.03.2021
1731 Clouds 14 1014 63 10000 4.12 140 11:18 08.03.2021
1732 Clouds 14 1014 63 10000 5.14 150 10:41 08.03.2021
1733 Clouds 14 1014 63 10000 5.14 150 10:19 08.03.2021
1734 Clouds 14 1013 63 10000 5.14 150 09:41 08.03.2021
1735 Clouds 14 1013 63 10000 5.14 150 09:22 08.03.2021
1736 Clouds 14 1012 63 10000 5.14 160 08:28 08.03.2021
1737 Clouds 15 1012 67 10000 5.66 170 07:23 08.03.2021
1738 Clouds 15 1011 67 10000 5.14 170 06:43 08.03.2021
1739 Clear 17 1010 67 10000 6.17 160 03:38 08.03.2021
1740 Clouds 16 1009 72 10000 5.14 170 00:44 08.03.2021
1741 Clouds 16 1009 72 10000 4.63 170 23:54 07.03.2021
1742 Clouds 15 1008 77 10000 4.63 170 23:28 07.03.2021
1743 Clouds 14 1008 77 10000 4.12 160 22:59 07.03.2021
1744 Clouds 14 1007 77 10000 4.63 160 22:41 07.03.2021
1745 Clouds 13 1007 77 10000 4.63 160 22:20 07.03.2021
1746 Clouds 14 1007 77 10000 5.14 160 21:42 07.03.2021
1747 Clouds 13 1006 82 10000 4.12 160 21:24 07.03.2021
1748 Clouds 12 1006 82 10000 4.63 170 20:46 07.03.2021
1749 Clouds 13 1005 72 10000 4.12 180 20:28 07.03.2021
1750 Clouds 13 1005 72 10000 3.6 190 19:56 07.03.2021
1751 Clouds 12 1004 71 10000 4.63 160 19:38 07.03.2021
1752 Clouds 12 1004 71 10000 4.63 160 19:19 07.03.2021
1753 Clouds 12 1003 76 10000 6.17 160 18:41 07.03.2021
1754 Clouds 12 1003 76 10000 6.17 160 18:19 07.03.2021
1755 Clouds 12 1003 76 10000 7.72 170 17:39 07.03.2021
1756 Clouds 12 1003 76 10000 7.72 170 17:20 07.03.2021
1757 Clouds 12 1003 82 10000 7.2 170 16:56 07.03.2021
1758 Clouds 13 1002 82 10000 8.75 160 16:37 07.03.2021
1759 Clouds 13 1002 82 10000 8.75 160 16:18 07.03.2021
1760 Clouds 13 1001 82 10000 6.69 170 15:42 07.03.2021
1761 Clouds 14 1001 82 10000 6.69 170 15:21 07.03.2021
1762 Clouds 14 1000 82 10000 6.69 190 14:30 07.03.2021
1763 Clouds 14 999 82 10000 6.69 200 13:59 07.03.2021
1764 Clouds 14 999 82 10000 7.2 200 13:39 07.03.2021
1765 Clouds 14 999 82 10000 7.2 200 13:18 07.03.2021
1766 Clouds 15 998 82 10000 6.69 200 12:43 07.03.2021
1767 Clear 15 998 77 10000 4.63 230 12:24 07.03.2021
1768 Clear 15 996 63 10000 2.57 310 11:25 07.03.2021
1769 Clear 16 996 55 10000 3.6 320 10:59 07.03.2021
1770 Clear 16 996 59 10000 2.57 330 10:38 07.03.2021
1771 Clear 16 996 59 10000 2.57 330 10:19 07.03.2021
1772 Clear 16 995 67 10000 4.12 350 09:40 07.03.2021
1773 Clear 16 995 67 10000 4.12 350 09:21 07.03.2021
1774 Clear 16 994 67 10000 5.14 350 08:45 07.03.2021
1775 Clouds 17 994 63 10000 5.14 350 08:23 07.03.2021
1776 Clear 18 994 59 10000 6.17 360 07:24 07.03.2021
1777 Clear 19 993 52 10000 7.2 320 02:40 07.03.2021
1778 Clouds 18 993 59 10000 8.75 310 00:38 07.03.2021
1779 Rain 17 993 59 10000 7.2 340 23:41 06.03.2021
1780 Clouds 17 993 59 10000 7.2 340 23:22 06.03.2021
1781 Clouds 17 993 63 10000 5.66 340 22:47 06.03.2021
1782 Clouds 16 993 67 10000 6.69 340 22:25 06.03.2021
1783 Clouds 16 993 67 10000 5.14 340 21:57 06.03.2021
1784 Clouds 14 993 67 10000 7.2 350 21:21 06.03.2021
1785 Clouds 14 993 72 10000 6.69 10 20:49 06.03.2021
1786 Clouds 14 993 67 10000 4.63 30 20:26 06.03.2021
1787 Clouds 14 993 82 10000 4.12 30 19:49 06.03.2021
1788 Clouds 14 993 77 10000 4.12 350 19:20 06.03.2021
1789 Clouds 14 993 77 10000 4.12 350 18:45 06.03.2021
1790 Clouds 14 993 77 10000 3.6 10 18:24 06.03.2021
1791 Clouds 14 993 77 10000 4.12 10 17:56 06.03.2021
1792 Clouds 14 993 77 10000 4.12 10 17:56 06.03.2021
1793 Clouds 14 993 72 10000 4.12 360 17:38 06.03.2021
1794 Clear 14 993 72 10000 4.12 360 17:18 06.03.2021
1795 Clear 14 993 72 10000 5.66 350 16:42 06.03.2021
1796 Clear 14 993 72 10000 6.17 350 16:24 06.03.2021
1797 Clouds 15 993 72 10000 7.2 350 15:47 06.03.2021
1798 Clouds 14 994 77 10000 8.23 360 15:29 06.03.2021
1799 Clouds 15 994 72 10000 7.2 360 14:51 06.03.2021
1800 Clouds 14 994 82 10000 5.66 360 14:28 06.03.2021
1801 Clear 14 994 77 10000 6.17 360 13:40 06.03.2021
1802 Clouds 14 994 77 10000 6.17 360 13:20 06.03.2021
1803 Clouds 14 994 77 10000 4.63 350 12:44 06.03.2021
1804 Clouds 15 994 77 10000 6.17 340 12:19 06.03.2021
1805 Clouds 14 994 77 10000 3.6 350 11:54 06.03.2021
1806 Clouds 14 994 82 10000 5.66 340 11:21 06.03.2021
1807 Clouds 15 995 88 10000 7.72 330 10:48 06.03.2021
1808 Clouds 15 994 77 10000 8.75 360 10:19 06.03.2021
1809 Clouds 17 994 72 10000 8.23 340 09:46 06.03.2021
1810 Clouds 17 993 68 10000 10.8 340 09:20 06.03.2021
1811 Clouds 17 993 59 10000 9.77 340 08:46 06.03.2021
1812 Clouds 17 993 63 10000 7.72 350 07:58 06.03.2021
1813 Clouds 17 994 68 10000 9.26 350 07:39 06.03.2021
1814 Clouds 17 994 68 10000 9.26 350 07:19 06.03.2021
1815 Clouds 17 994 63 10000 10.8 350 05:37 06.03.2021
1816 Clouds 19 995 49 10000 9.77 340 02:38 06.03.2021
1817 Clouds 19 995 60 10000 9.77 350 00:56 06.03.2021
1818 Clouds 19 995 68 10000 10.8 340 00:36 06.03.2021
1819 Clouds 18 995 72 10000 9.77 350 23:29 05.03.2021
1820 Clouds 18 995 77 10000 9.26 350 22:49 05.03.2021
1821 Clouds 16 995 94 10000 9.77 350 22:25 05.03.2021
1822 Clouds 16 995 88 7000 10.29 350 21:54 05.03.2021
1823 Drizzle 16 995 88 8000 9.77 350 21:36 05.03.2021
1824 Clouds 17 995 77 10000 11.83 360 20:59 05.03.2021
1825 Clouds 17 994 82 10000 10.8 10 20:41 05.03.2021
1826 Clouds 17 994 82 10000 10.8 10 20:23 05.03.2021
1827 Clouds 17 994 82 10000 9.77 20 19:43 05.03.2021
1828 Clouds 16 994 88 10000 11.32 10 19:21 05.03.2021
1829 Clouds 16 994 82 10000 10.8 10 18:44 05.03.2021
1830 Clouds 16 994 82 10000 10.8 10 18:25 05.03.2021
1831 Clouds 16 995 88 10000 10.29 10 17:43 05.03.2021
1832 Clouds 16 995 82 10000 9.26 20 17:24 05.03.2021
1833 Clouds 17 996 82 10000 9.26 10 16:41 05.03.2021
1834 Clouds 17 996 82 10000 9.26 10 16:23 05.03.2021
1835 Clouds 17 996 77 10000 9.26 360 15:53 05.03.2021
1836 Rain 17 996 72 10000 8.75 350 15:26 05.03.2021
1837 Clouds 17 996 72 10000 10.29 340 14:40 05.03.2021
1838 Clouds 17 996 72 10000 10.29 340 14:21 05.03.2021
1839 Clouds 17 997 72 10000 8.75 350 13:42 05.03.2021
1840 Clouds 17 997 72 10000 8.75 350 13:20 05.03.2021
1841 Clouds 17 997 72 10000 9.26 350 12:42 05.03.2021
1842 Rain 16 997 72 10000 7.72 350 11:39 05.03.2021
1843 Clouds 16 997 72 10000 7.72 350 11:19 05.03.2021
1844 Clouds 17 998 68 10000 7.72 340 10:43 05.03.2021
1845 Clear 17 998 63 10000 7.72 350 10:24 05.03.2021
1846 Clear 17 998 63 10000 6.69 340 09:53 05.03.2021
1847 Clear 17 997 63 10000 8.75 350 09:29 05.03.2021
1848 Clear 17 997 63 10000 9.77 350 08:57 05.03.2021
1849 Clear 17 997 63 10000 8.23 340 08:38 05.03.2021
1850 Clear 17 997 63 10000 8.23 340 08:20 05.03.2021
1851 Rain 18 997 55 10000 8.23 340 07:30 05.03.2021
1852 Clouds 18 997 59 10000 9.77 350 06:34 05.03.2021
1853 Clouds 18 997 63 10000 10.8 340 05:39 05.03.2021
1854 Rain 19 999 49 10000 10.29 350 00:59 05.03.2021
1855 Rain 18 999 48 10000 10.29 350 23:53 04.03.2021
1856 Rain 18 999 52 10000 10.29 340 23:24 04.03.2021
1857 Rain 18 999 55 10000 9.26 340 22:29 04.03.2021
1858 Rain 17 998 59 10000 7.72 340 21:53 04.03.2021
1859 Rain 16 998 59 10000 7.72 330 21:31 04.03.2021
1860 Rain 16 998 55 10000 6.69 330 20:57 04.03.2021
1861 Rain 16 998 63 10000 6.69 340 20:38 04.03.2021
1862 Rain 15 998 63 10000 6.69 340 20:20 04.03.2021
1863 Clear 15 998 63 10000 6.69 340 19:49 04.03.2021
1864 Rain 15 998 67 10000 6.17 330 19:23 04.03.2021
1865 Clear 15 998 67 10000 6.17 330 18:50 04.03.2021
1866 Clear 15 998 67 10000 6.69 330 18:29 04.03.2021
1867 Rain 15 998 67 10000 5.66 330 17:47 04.03.2021
1868 Rain 15 998 67 10000 5.66 330 17:47 04.03.2021
1869 Rain 15 998 67 10000 5.66 330 17:29 04.03.2021
1870 Clear 15 998 59 10000 5.14 340 16:50 04.03.2021
1871 Clear 15 998 59 10000 4.63 330 16:31 04.03.2021
1872 Clear 15 998 67 10000 4.63 330 15:56 04.03.2021
1873 Clear 15 998 72 10000 5.14 330 15:34 04.03.2021
1874 Clear 16 998 72 10000 4.63 330 14:53 04.03.2021
1875 Clear 16 998 72 10000 4.12 330 14:31 04.03.2021
1876 Clear 16 998 72 10000 2.06 340 13:51 04.03.2021
1877 Rain 16 998 77 10000 3.09 10 13:33 04.03.2021
1878 Clear 16 998 82 10000 4.12 10 12:58 04.03.2021
1879 Clear 16 998 77 10000 4.63 350 12:39 04.03.2021
1880 Clear 16 998 77 10000 5.66 340 11:48 04.03.2021
1881 Rain 16 998 72 10000 5.66 350 11:27 04.03.2021
1882 Rain 16 998 72 10000 5.66 330 10:55 04.03.2021
1883 Rain 16 998 68 10000 6.17 340 10:31 04.03.2021
1884 Clear 16 998 72 10000 7.2 340 09:47 04.03.2021
1885 Clear 17 997 68 10000 6.69 330 09:25 04.03.2021
1886 Rain 17 998 68 10000 6.69 340 08:37 04.03.2021
1887 Rain 17 997 63 10000 7.2 340 07:54 04.03.2021
1888 Rain 17 997 63 10000 7.72 350 07:33 04.03.2021
1889 Clouds 19 998 60 10000 7.2 350 06:25 04.03.2021
1890 Clouds 20 998 53 10000 9.26 340 05:40 04.03.2021
1891 Clouds 21 999 56 10000 10.8 350 01:49 04.03.2021
1892 Clouds 19 1000 72 10000 6.69 360 23:19 03.03.2021
1893 Rain 19 1000 72 10000 5.14 350 22:29 03.03.2021
1894 Clouds 18 1000 72 10000 5.66 350 21:55 03.03.2021
1895 Rain 18 1000 77 10000 5.14 350 21:37 03.03.2021
1896 Rain 17 1000 77 10000 5.14 350 21:18 03.03.2021
1897 Rain 17 1000 82 10000 6.17 360 20:42 03.03.2021
1898 Rain 16 1000 82 10000 6.17 360 20:23 03.03.2021
1899 Clouds 16 1000 82 10000 7.2 360 19:45 03.03.2021
1900 Rain 16 1000 82 10000 6.17 350 19:26 03.03.2021
1901 Rain 17 1000 77 10000 6.69 340 18:48 03.03.2021
1902 Clouds 17 1000 77 10000 6.69 340 18:30 03.03.2021
1903 Rain 17 1000 77 10000 5.66 340 17:56 03.03.2021
1904 Clouds 17 1000 77 10000 5.66 350 17:20 03.03.2021
1905 Rain 17 1000 77 10000 5.14 340 16:50 03.03.2021
1906 Rain 17 1000 77 10000 5.66 340 16:27 03.03.2021
1907 Rain 17 1000 77 10000 6.17 340 15:49 03.03.2021
1908 Rain 17 1000 77 10000 8.23 350 15:28 03.03.2021
1909 Clouds 17 1001 82 10000 7.72 350 14:35 03.03.2021
1910 Rain 17 1001 82 10000 7.72 350 13:59 03.03.2021
1911 Rain 18 1001 77 10000 8.75 350 13:38 03.03.2021
1912 Clouds 18 1001 77 10000 8.75 350 13:18 03.03.2021
1913 Clouds 18 1001 72 10000 7.2 340 12:41 03.03.2021
1914 Clouds 18 1001 72 10000 7.2 340 12:22 03.03.2021
1915 Rain 18 1001 68 10000 7.2 340 11:44 03.03.2021
1916 Clouds 18 1001 73 10000 8.23 340 11:22 03.03.2021
1917 Clouds 19 1001 77 10000 8.23 340 10:44 03.03.2021
1918 Rain 19 1001 77 10000 8.23 340 10:21 03.03.2021
1919 Rain 19 1001 77 10000 8.75 340 09:41 03.03.2021
1920 Rain 19 1001 77 10000 9.26 340 08:51 03.03.2021
1921 Clouds 19 1000 77 10000 8.23 340 08:23 03.03.2021
1922 Clouds 19 1000 73 10000 8.75 340 07:53 03.03.2021
1923 Clouds 19 1001 77 10000 8.23 340 07:20 03.03.2021
1924 Clouds 20 1001 64 10000 9.26 330 06:21 03.03.2021
1925 Clouds 21 1001 68 10000 9.26 330 05:31 03.03.2021
1926 Clouds 20 1002 73 10000 10.8 330 04:36 03.03.2021
1927 Rain 20 1001 73 10000 9.77 340 03:53 03.03.2021
1928 Clouds 20 1003 68 10000 11.32 340 00:19 03.03.2021
1929 Clouds 20 1003 73 10000 10.29 350 23:32 02.03.2021
1930 Clouds 19 1003 73 10000 9.26 350 22:50 02.03.2021
1931 Clouds 18 1003 77 10000 7.2 350 22:21 02.03.2021
1932 Clouds 18 1003 77 10000 7.2 360 21:51 02.03.2021
1933 Clouds 18 1003 82 10000 10.29 10 21:32 02.03.2021
1934 Clouds 18 1003 82 10000 8.23 360 20:55 02.03.2021
1935 Clouds 17 1003 82 10000 8.75 360 20:37 02.03.2021
1936 Clouds 17 1003 82 10000 8.75 360 20:19 02.03.2021
1937 Clouds 17 1003 82 10000 8.23 10 19:46 02.03.2021
1938 Clouds 17 1003 82 10000 9.26 10 19:26 02.03.2021
1939 Clouds 17 1003 82 10000 8.23 360 18:41 02.03.2021
1940 Clouds 17 1003 82 10000 8.23 360 18:21 02.03.2021
1941 Clouds 17 1003 82 10000 9.26 360 17:57 02.03.2021
1942 Clouds 17 1003 88 10000 9.26 360 17:38 02.03.2021
1943 Clouds 17 1003 88 10000 9.26 360 17:18 02.03.2021
1944 Clouds 18 1004 82 10000 8.75 360 16:40 02.03.2021
1945 Clouds 17 1004 88 10000 8.75 360 15:54 02.03.2021
1946 Clouds 18 1004 82 10000 8.75 360 15:26 02.03.2021
1947 Clouds 18 1004 88 10000 8.23 360 14:42 02.03.2021
1948 Clouds 17 1004 88 10000 8.23 360 14:18 02.03.2021
1949 Clouds 18 1004 77 10000 7.2 340 13:42 02.03.2021
1950 Clouds 18 1004 77 10000 7.2 340 13:21 02.03.2021
1951 Clouds 18 1005 77 10000 6.69 340 12:43 02.03.2021
1952 Clouds 18 1005 82 10000 6.69 350 12:24 02.03.2021
1953 Clouds 19 1005 83 10000 8.75 360 11:41 02.03.2021
1954 Clouds 19 1005 83 10000 8.75 360 11:20 02.03.2021
1955 Clouds 19 1005 83 10000 7.72 360 10:42 02.03.2021
1956 Clouds 19 1005 83 10000 7.72 360 10:23 02.03.2021
1957 Clouds 19 1005 83 10000 6.69 10 09:40 02.03.2021
1958 Clouds 19 1005 83 10000 6.69 10 09:21 02.03.2021
1959 Clouds 19 1005 83 10000 7.72 350 08:40 02.03.2021
1960 Clouds 19 1005 83 10000 7.72 350 08:21 02.03.2021
1961 Clouds 20 1005 73 10000 7.72 360 07:38 02.03.2021
1962 Clouds 20 1005 73 10000 8.23 360 06:36 02.03.2021
1963 Clouds 21 1006 64 10000 7.2 350 05:46 02.03.2021
1964 Clouds 22 1006 64 10000 7.72 360 05:28 02.03.2021
1965 Clouds 22 1007 64 10000 8.75 350 01:46 02.03.2021
1966 Clouds 22 1008 64 10000 9.26 360 01:28 02.03.2021
1967 Clouds 22 1008 64 10000 9.26 360 00:51 02.03.2021
1968 Clouds 21 1008 68 10000 8.75 360 23:28 01.03.2021
1969 Clouds 21 1008 64 10000 9.26 10 22:42 01.03.2021
1970 Clouds 21 1009 68 10000 8.75 360 22:22 01.03.2021
1971 Clouds 20 1009 73 10000 7.2 20 21:50 01.03.2021
1972 Clouds 19 1009 73 10000 5.66 20 21:24 01.03.2021
1973 Clouds 19 1009 77 10000 6.69 10 20:48 01.03.2021
1974 Clouds 18 1009 77 10000 6.69 360 20:28 01.03.2021
1975 Clouds 17 1009 82 10000 4.63 360 19:55 01.03.2021
1976 Clouds 17 1009 88 10000 4.12 350 19:33 01.03.2021
1977 Clouds 17 1009 88 10000 5.14 360 18:46 01.03.2021
1978 Clouds 17 1009 82 10000 4.63 360 18:25 01.03.2021
1979 Clouds 16 1009 88 10000 3.6 350 17:58 01.03.2021
1980 Rain 16 1009 88 10000 3.6 10 17:39 01.03.2021
1981 Clouds 16 1009 88 10000 3.6 10 17:19 01.03.2021
1982 Clouds 16 1009 88 10000 3.6 10 17:19 01.03.2021
1983 Clouds 16 1009 88 10000 2.57 30 16:43 01.03.2021
1984 Clouds 16 1010 88 10000 4.12 20 16:24 01.03.2021
1985 Clouds 16 1010 88 10000 2.06 30 15:41 01.03.2021
1986 Clouds 17 1010 88 10000 2.06 30 15:20 01.03.2021
1987 Clouds 17 1010 82 10000 3.6 350 14:47 01.03.2021
1988 Clouds 17 1010 82 10000 3.09 10 14:29 01.03.2021
1989 Clouds 17 1010 82 10000 2.06 20 13:40 01.03.2021
1990 Clouds 17 1010 82 10000 2.06 20 13:22 01.03.2021
1991 Clouds 17 1011 77 10000 2.06 20 12:52 01.03.2021
1992 Clouds 17 1011 88 10000 3.09 360 12:32 01.03.2021
1993 Clouds 17 1011 82 10000 2.57 360 11:59 01.03.2021
1994 Clouds 17 1011 82 10000 3.09 360 11:39 01.03.2021
1995 Clouds 17 1011 82 10000 2.57 360 10:44 01.03.2021
1996 Clouds 18 1011 72 10000 1.54 330 10:23 01.03.2021
1997 Clouds 18 1011 72 10000 2.06 330 09:58 01.03.2021
1998 Clouds 19 1011 64 10000 2.57 330 09:40 01.03.2021
1999 Rain 19 1011 64 10000 2.57 330 09:20 01.03.2021
2000 Clouds 19 1011 68 10000 1.03 120 08:47 01.03.2021
2001 Clouds 20 1010 77 10000 2.06 220 07:50 01.03.2021
2002 Clouds 20 1011 72 10000 3.6 190 06:52 01.03.2021
2003 Clouds 23 1012 56 10000 5.14 10 03:24 01.03.2021
2004 Clouds 23 1013 64 10000 5.66 10 00:44 01.03.2021
2005 Clouds 22 1013 64 10000 6.17 360 23:35 28.02.2021
2006 Clouds 21 1013 68 10000 4.12 10 22:51 28.02.2021
2007 Clouds 20 1013 73 10000 4.12 20 22:22 28.02.2021
2008 Clouds 20 1013 73 10000 4.12 20 22:22 28.02.2021
2009 Clouds 18 1014 77 10000 3.6 20 21:49 28.02.2021
2010 Clouds 18 1013 77 10000 4.12 360 21:28 28.02.2021
2011 Clouds 17 1013 82 10000 4.63 20 20:56 28.02.2021
2012 Clouds 17 1013 77 10000 4.63 20 20:36 28.02.2021
2013 Clouds 16 1013 82 10000 3.6 20 19:47 28.02.2021
2014 Clouds 16 1013 82 10000 3.6 20 19:47 28.02.2021
2015 Clouds 16 1013 82 10000 4.63 10 19:28 28.02.2021
2016 Clouds 16 1013 88 10000 2.57 10 18:57 28.02.2021
2017 Clouds 16 1013 88 10000 2.57 10 18:57 28.02.2021
2018 Clouds 16 1013 88 10000 2.57 10 18:36 28.02.2021
2019 Clouds 16 1013 88 10000 2.57 10 18:18 28.02.2021
2020 Clouds 16 1013 88 10000 2.57 10 17:45 28.02.2021
2021 Clouds 16 1013 88 10000 2.57 360 17:27 28.02.2021
2022 Clouds 16 1013 82 10000 2.57 20 16:50 28.02.2021
2023 Clouds 17 1014 82 10000 3.6 20 16:30 28.02.2021
2024 Clouds 17 1014 82 10000 2.06 20 15:53 28.02.2021
2025 Clouds 17 1014 82 10000 2.06 20 15:53 28.02.2021
2026 Clouds 17 1014 82 10000 2.06 30 15:29 28.02.2021
2027 Clouds 17 1014 82 10000 4.12 20 14:58 28.02.2021
2028 Clouds 17 1014 77 10000 3.6 20 14:39 28.02.2021
2029 Clouds 17 1014 77 10000 3.6 20 14:39 28.02.2021
2030 Clouds 18 1014 77 10000 3.6 20 14:20 28.02.2021
2031 Clouds 18 1014 77 10000 4.12 360 13:41 28.02.2021
2032 Clouds 18 1014 77 10000 4.12 360 13:41 28.02.2021
2033 Clouds 18 1014 77 10000 4.12 360 13:19 28.02.2021
2034 Rain 18 1014 77 10000 3.09 350 12:54 28.02.2021
2035 Clouds 18 1014 73 10000 3.09 360 12:36 28.02.2021
2036 Clouds 18 1014 73 10000 3.09 360 12:18 28.02.2021
2037 Clouds 18 1014 73 10000 2.06 20 11:42 28.02.2021
2038 Clouds 19 1014 73 10000 2.06 20 11:22 28.02.2021
2039 Clouds 18 1014 77 10000 1.54 360 10:45 28.02.2021
2040 Clouds 19 1014 73 10000 2.06 50 10:25 28.02.2021
2041 Clouds 19 1014 73 10000 1.03 280 09:40 28.02.2021
2042 Clouds 19 1014 73 10000 1.03 280 09:22 28.02.2021
2043 Clouds 20 1014 68 10000 0.51 290 08:46 28.02.2021
2044 Clouds 20 1013 68 10000 0.51 210 08:28 28.02.2021
2045 Clouds 20 1013 77 10000 1.54 220 07:46 28.02.2021
2046 Clouds 20 1013 77 10000 2.57 210 07:28 28.02.2021
2047 Clouds 21 1014 77 10000 3.09 210 06:25 28.02.2021
2048 Clouds 22 1014 77 10000 3.09 210 05:23 28.02.2021
2049 Clouds 22 1015 57 10000 4.63 360 02:40 28.02.2021
2050 Clouds 22 1016 60 10000 3.09 330 01:36 28.02.2021
2051 Clouds 22 1016 60 10000 3.6 340 00:43 28.02.2021
2052 Clouds 22 1016 64 10000 4.12 20 00:23 28.02.2021
2053 Clouds 22 1016 64 10000 4.63 10 23:44 27.02.2021
2054 Clouds 21 1016 68 10000 5.14 10 23:19 27.02.2021
2055 Clouds 20 1016 73 10000 5.14 10 22:43 27.02.2021
2056 Clouds 19 1016 77 10000 4.63 360 22:19 27.02.2021
2057 Clouds 19 1016 73 10000 5.66 360 21:40 27.02.2021
2058 Clouds 18 1016 73 10000 5.66 360 21:22 27.02.2021
2059 Clouds 18 1016 77 10000 5.14 360 20:47 27.02.2021
2060 Clouds 17 1016 82 10000 5.14 10 20:27 27.02.2021
2061 Clouds 17 1016 82 10000 5.14 350 19:45 27.02.2021
2062 Clouds 17 1016 82 10000 5.14 360 19:26 27.02.2021
2063 Clouds 16 1016 82 10000 5.14 360 18:44 27.02.2021
2064 Clouds 16 1015 82 10000 5.14 360 18:21 27.02.2021
2065 Clouds 16 1015 77 10000 5.14 360 17:55 27.02.2021
2066 Clouds 16 1016 77 10000 5.66 360 17:36 27.02.2021
2067 Clouds 16 1016 77 10000 5.66 360 17:36 27.02.2021
2068 Clouds 16 1016 77 10000 5.66 360 17:18 27.02.2021
2069 Clouds 16 1016 72 10000 5.14 360 16:48 27.02.2021
2070 Clouds 16 1016 77 10000 4.63 360 16:25 27.02.2021
2071 Clouds 16 1016 82 10000 4.12 10 15:41 27.02.2021
2072 Clouds 16 1016 82 10000 4.12 10 15:18 27.02.2021
2073 Clouds 16 1016 82 10000 5.66 360 14:40 27.02.2021
2074 Clouds 16 1016 82 10000 5.66 360 14:20 27.02.2021
2075 Clouds 17 1016 72 10000 5.14 10 13:39 27.02.2021
2076 Rain 17 1016 72 10000 5.14 10 13:18 27.02.2021
2077 Clouds 17 1016 77 10000 4.63 360 12:40 27.02.2021
2078 Clouds 17 1016 77 10000 4.63 360 12:22 27.02.2021
2079 Clouds 17 1016 82 10000 5.14 350 11:43 27.02.2021
2080 Clouds 17 1016 82 10000 5.14 350 11:24 27.02.2021
2081 Clouds 17 1016 77 10000 4.63 360 10:48 27.02.2021
2082 Clouds 17 1016 77 10000 4.12 20 10:29 27.02.2021
2083 Clouds 18 1015 77 10000 4.12 360 09:52 27.02.2021
2084 Clouds 18 1015 77 10000 4.63 360 09:31 27.02.2021
2085 Clouds 19 1015 73 10000 5.14 340 08:43 27.02.2021
2086 Clouds 19 1015 73 10000 5.14 340 08:22 27.02.2021
2087 Rain 20 1015 64 10000 5.66 20 07:42 27.02.2021
2088 Clouds 22 1015 56 10000 6.17 360 06:33 27.02.2021
2089 Clouds 23 1017 60 10000 6.17 10 01:21 27.02.2021
2090 Clear 21 1018 68 10000 6.69 10 23:58 26.02.2021
2091 Clear 21 1018 73 10000 5.66 360 23:40 26.02.2021
2092 Clear 21 1018 73 10000 5.66 360 23:40 26.02.2021
2093 Clear 21 1018 73 10000 5.66 360 23:18 26.02.2021
2094 Clear 19 1018 82 10000 5.66 10 22:31 26.02.2021
2095 Clear 18 1018 88 10000 5.66 10 21:49 26.02.2021
2096 Clear 17 1018 94 10000 5.14 10 21:31 26.02.2021
2097 Clear 16 1018 88 10000 2.57 40 20:45 26.02.2021
2098 Clear 16 1018 88 10000 2.57 40 20:24 26.02.2021
2099 Clear 15 1018 94 10000 1.54 20 19:53 26.02.2021
2100 Clouds 15 1018 100 10000 3.6 360 19:26 26.02.2021
2101 Clouds 15 1018 100 9000 3.09 350 18:49 26.02.2021
2102 Clouds 15 1018 100 9000 3.09 360 18:24 26.02.2021
2103 Clouds 14 1018 100 10000 2.57 360 17:48 26.02.2021
2104 Fog 14 1018 100 350 1.54 30 17:30 26.02.2021
2105 Fog 14 1018 100 250 1.54 50 16:57 26.02.2021
2106 Fog 14 1018 100 250 0.51 190 16:38 26.02.2021
2107 Fog 14 1018 100 250 0.51 190 16:20 26.02.2021
2108 Fog 14 1018 100 150 1.54 180 15:43 26.02.2021
2109 Fog 14 1019 100 200 1.54 180 15:23 26.02.2021
2110 Mist 15 1019 94 5000 2.06 200 14:51 26.02.2021
2111 Clear 15 1019 94 10000 1.03 170 14:32 26.02.2021
2112 Clear 15 1019 94 10000 0.51 90 13:47 26.02.2021
2113 Clear 15 1019 100 10000 1.03 160 13:28 26.02.2021
2114 Clear 16 1019 94 10000 1.54 180 12:48 26.02.2021
2115 Clear 16 1019 100 10000 2.06 200 12:26 26.02.2021
2116 Clear 16 1019 94 10000 3.09 200 11:40 26.02.2021
2117 Rain 16 1019 94 10000 1.54 170 10:55 26.02.2021
2118 Clear 17 1019 94 10000 1.03 220 10:24 26.02.2021
2119 Clear 18 1019 88 10000 0.51 190 09:47 26.02.2021
2120 Clear 17 1019 94 10000 1.54 150 09:27 26.02.2021
2121 Clear 19 1018 73 10000 1.54 190 08:33 26.02.2021
2122 Clear 19 1018 82 10000 1.54 210 07:55 26.02.2021
2123 Clouds 21 1018 82 10000 2.06 200 07:20 26.02.2021
2124 Clouds 20 1018 82 10000 3.6 200 06:28 26.02.2021
2125 Clouds 20 1019 88 10000 3.09 200 04:52 26.02.2021
2126 Clouds 19 1021 94 8000 3.6 190 02:36 26.02.2021
2127 Clouds 19 1022 94 10000 3.09 200 00:27 26.02.2021
2128 Clouds 18 1022 100 10000 1.54 170 23:39 25.02.2021
2129 Clouds 17 1022 100 10000 1.54 180 22:57 25.02.2021
2130 Mist 17 1023 100 4900 1.54 220 22:37 25.02.2021
2131 Mist 16 1023 100 3200 1.54 200 21:50 25.02.2021
2132 Mist 15 1023 100 3700 2.57 220 21:31 25.02.2021
2133 Mist 15 1023 100 3600 3.09 210 20:54 25.02.2021
2134 Mist 15 1022 100 2300 4.12 200 20:36 25.02.2021
2135 Mist 15 1022 100 2300 4.12 200 20:18 25.02.2021
2136 Mist 15 1022 100 2300 4.12 200 20:18 25.02.2021
2137 Mist 15 1022 100 2600 4.63 200 19:46 25.02.2021
2138 Drizzle 15 1022 100 1900 4.63 200 19:19 25.02.2021
2139 Mist 15 1022 100 2300 5.66 210 18:39 25.02.2021
2140 Mist 15 1022 100 2300 5.66 210 18:18 25.02.2021
2141 Mist 15 1022 100 2000 5.14 200 17:33 25.02.2021
2142 Mist 15 1022 100 2600 4.12 190 16:56 25.02.2021
2143 Mist 15 1023 100 3900 4.63 190 16:33 25.02.2021
2144 Mist 15 1023 100 4100 4.63 190 15:48 25.02.2021
2145 Rain 15 1023 100 3700 5.14 190 15:28 25.02.2021
2146 Rain 15 1023 94 10000 5.14 200 14:37 25.02.2021
2147 Rain 15 1023 94 10000 5.14 200 14:18 25.02.2021
2148 Clouds 15 1024 94 10000 4.63 190 13:40 25.02.2021
2149 Clouds 15 1024 94 10000 4.63 190 13:20 25.02.2021
2150 Clouds 15 1024 94 10000 5.14 200 12:38 25.02.2021
2151 Rain 15 1024 94 10000 5.14 200 12:20 25.02.2021
2152 Clouds 15 1024 94 10000 4.12 190 11:42 25.02.2021
2153 Clouds 15 1024 94 10000 4.12 190 10:53 25.02.2021
2154 Clouds 15 1024 94 10000 4.12 190 10:35 25.02.2021
2155 Clouds 15 1023 94 10000 4.12 190 09:48 25.02.2021
2156 Clouds 15 1023 94 10000 4.63 190 09:26 25.02.2021
2157 Clouds 15 1023 94 10000 4.12 190 08:46 25.02.2021
2158 Clouds 15 1023 94 10000 4.12 190 08:21 25.02.2021
2159 Clouds 15 1023 94 10000 3.6 190 07:42 25.02.2021
2160 Clouds 15 1023 94 10000 4.63 190 06:58 25.02.2021
2161 Clouds 15 1023 94 10000 4.63 180 05:29 25.02.2021
2162 Haze 19 1023 94 2800 1.54 10 01:50 25.02.2021
2163 Clouds 20 1023 73 10000 5.14 280 00:48 25.02.2021
2164 Clouds 21 1022 68 10000 3.6 360 00:20 25.02.2021
2165 Clouds 21 1022 68 10000 4.12 10 23:36 24.02.2021
2166 Clouds 20 1022 64 10000 4.63 360 22:56 24.02.2021
2167 Clouds 21 1022 64 10000 3.6 30 22:30 24.02.2021
2168 Clouds 20 1021 64 10000 4.12 30 21:52 24.02.2021
2169 Clouds 20 1021 64 10000 5.14 20 21:33 24.02.2021
2170 Clouds 19 1021 68 10000 6.17 20 20:50 24.02.2021
2171 Clouds 19 1020 68 10000 6.69 10 20:28 24.02.2021
2172 Clouds 19 1020 68 10000 5.66 20 19:47 24.02.2021
2173 Clouds 18 1020 77 10000 5.66 10 19:21 24.02.2021
2174 Clouds 18 1020 77 10000 6.69 10 18:54 24.02.2021
2175 Clouds 18 1020 77 10000 6.69 10 18:32 24.02.2021
2176 Rain 18 1020 77 10000 6.17 20 17:45 24.02.2021
2177 Rain 18 1020 77 10000 6.17 10 17:25 24.02.2021
2178 Rain 18 1020 77 10000 6.69 20 16:48 24.02.2021
2179 Clouds 18 1019 77 10000 7.72 20 16:21 24.02.2021
2180 Clouds 18 1020 82 10000 8.23 10 15:55 24.02.2021
2181 Clouds 18 1019 77 10000 7.2 360 15:34 24.02.2021
2182 Clouds 18 1019 77 10000 8.23 360 14:50 24.02.2021
2183 Clouds 18 1019 72 10000 6.69 20 14:29 24.02.2021
2184 Clouds 19 1019 68 10000 7.2 30 13:44 24.02.2021
2185 Clouds 19 1019 68 10000 8.75 10 13:24 24.02.2021
2186 Clouds 19 1019 64 10000 8.23 350 12:58 24.02.2021
2187 Clouds 19 1018 64 10000 7.2 350 12:38 24.02.2021
2188 Clouds 19 1018 64 10000 7.2 350 12:20 24.02.2021
2189 Clouds 19 1018 64 10000 7.72 360 11:33 24.02.2021
2190 Clouds 19 1018 64 10000 9.77 360 10:43 24.02.2021
2191 Clouds 19 1019 64 10000 6.69 340 10:24 24.02.2021
2192 Clouds 19 1019 64 10000 6.69 330 09:26 24.02.2021
2193 Clouds 19 1018 68 10000 7.2 330 08:50 24.02.2021
2194 Clouds 19 1018 68 10000 7.72 340 08:32 24.02.2021
2195 Clouds 19 1018 60 10000 8.75 340 07:38 24.02.2021
2196 Clouds 20 1018 60 10000 8.75 340 07:18 24.02.2021
2197 Clouds 21 1018 56 10000 8.23 350 05:26 24.02.2021
2198 Clouds 23 1019 53 10000 11.83 360 01:59 24.02.2021
2199 Clear 22 1019 56 10000 12.86 360 23:39 23.02.2021
2200 Clear 22 1019 56 10000 11.83 360 22:46 23.02.2021
2201 Clear 21 1019 60 10000 11.83 360 22:23 23.02.2021
2202 Clear 20 1019 60 10000 11.32 360 21:48 23.02.2021
2203 Clear 20 1019 64 10000 10.8 360 21:25 23.02.2021
2204 Clear 19 1019 60 10000 10.8 360 20:57 23.02.2021
2205 Clear 19 1019 63 10000 9.26 360 20:37 23.02.2021
2206 Clear 18 1019 63 10000 9.26 360 20:19 23.02.2021
2207 Clear 18 1019 68 10000 9.77 360 19:42 23.02.2021
2208 Clouds 17 1019 68 10000 9.77 360 19:24 23.02.2021
2209 Clouds 18 1019 68 10000 9.77 360 18:44 23.02.2021
2210 Clouds 18 1019 63 10000 9.26 360 18:24 23.02.2021
2211 Clouds 18 1019 68 10000 9.77 360 17:51 23.02.2021
2212 Clouds 18 1019 68 10000 10.8 350 17:27 23.02.2021
2213 Clouds 18 1019 68 10000 10.8 350 16:45 23.02.2021
2214 Clouds 18 1019 68 10000 10.29 350 16:23 23.02.2021
2215 Clouds 19 1020 68 10000 9.26 340 15:46 23.02.2021
2216 Clouds 19 1020 68 10000 7.72 340 15:28 23.02.2021
2217 Clouds 19 1020 68 10000 6.69 340 14:50 23.02.2021
2218 Clouds 19 1020 68 10000 7.2 360 14:28 23.02.2021
2219 Clouds 19 1020 68 10000 7.2 360 13:59 23.02.2021
2220 Clouds 19 1020 68 10000 7.2 360 13:35 23.02.2021
2221 Clouds 19 1020 68 10000 7.2 360 12:57 23.02.2021
2222 Clouds 19 1019 68 10000 6.17 10 12:28 23.02.2021
2223 Clouds 19 1020 68 10000 5.66 20 11:58 23.02.2021
2224 Clouds 19 1020 68 10000 5.66 20 11:28 23.02.2021
2225 Clouds 19 1020 68 10000 5.66 20 10:56 23.02.2021
2226 Clouds 19 1020 68 10000 5.66 20 10:38 23.02.2021
2227 Clouds 19 1019 68 10000 5.66 20 09:58 23.02.2021
2228 Clouds 19 1019 68 10000 5.66 20 09:38 23.02.2021
2229 Clouds 19 1019 68 10000 5.66 20 09:20 23.02.2021
2230 Clouds 19 1019 68 10000 5.66 20 09:20 23.02.2021
2231 Clouds 20 1019 64 10000 6.17 10 08:44 23.02.2021
2232 Clouds 20 1019 64 10000 6.17 10 08:20 23.02.2021
2233 Clouds 22 1019 53 10000 5.66 330 06:52 23.02.2021
2234 Clouds 24 1020 50 10000 8.23 340 05:25 23.02.2021
2235 Clouds 23 1022 56 10000 9.26 360 02:37 23.02.2021
2236 Clouds 22 1022 56 10000 8.23 340 01:55 23.02.2021
2237 Clouds 21 1023 64 10000 9.26 360 00:19 23.02.2021
2238 Clouds 20 1023 64 10000 8.75 360 23:30 22.02.2021
2239 Clouds 20 1023 73 10000 6.69 20 22:42 22.02.2021
2240 Clouds 20 1023 73 10000 6.69 20 22:22 22.02.2021
2241 Clouds 20 1023 73 10000 6.17 20 21:56 22.02.2021
2242 Clouds 19 1023 77 10000 5.66 20 21:38 22.02.2021
2243 Clouds 19 1023 77 10000 5.66 20 21:19 22.02.2021
2244 Clouds 17 1023 82 10000 6.69 20 20:43 22.02.2021
2245 Clouds 17 1022 82 10000 6.69 20 20:24 22.02.2021
2246 Clouds 16 1022 82 10000 6.69 10 19:44 22.02.2021
2247 Clouds 16 1022 82 10000 6.17 10 19:26 22.02.2021
2248 Clouds 16 1022 82 10000 6.17 20 18:47 22.02.2021
2249 Clouds 16 1022 82 10000 5.66 20 18:29 22.02.2021
2250 Clouds 16 1022 82 10000 6.17 20 17:48 22.02.2021
2251 Clouds 16 1022 82 10000 6.69 20 17:19 22.02.2021
2252 Clouds 16 1022 82 10000 6.69 10 16:48 22.02.2021
2253 Clouds 16 1022 82 10000 6.69 20 16:25 22.02.2021
2254 Clouds 17 1022 77 10000 7.72 20 15:31 22.02.2021
2255 Clouds 17 1022 77 10000 7.2 30 14:50 22.02.2021
2256 Clouds 17 1022 77 10000 7.2 30 14:32 22.02.2021
2257 Clouds 17 1023 77 10000 8.23 30 13:51 22.02.2021
2258 Clouds 17 1023 77 10000 7.72 30 13:29 22.02.2021
2259 Clouds 17 1023 82 10000 7.72 20 12:45 22.02.2021
2260 Clouds 17 1023 82 10000 8.23 30 12:22 22.02.2021
2261 Clouds 17 1023 82 10000 8.23 30 12:22 22.02.2021
2262 Clouds 17 1023 82 10000 7.72 30 11:48 22.02.2021
2263 Clear 17 1023 72 10000 8.23 30 11:28 22.02.2021
2264 Clear 18 1023 72 10000 7.72 20 10:50 22.02.2021
2265 Clear 18 1023 72 10000 7.72 20 10:32 22.02.2021
2266 Clear 18 1022 72 10000 8.75 10 09:57 22.02.2021
2267 Clear 18 1022 72 10000 9.26 360 09:36 22.02.2021
2268 Clear 18 1022 72 10000 9.26 360 09:18 22.02.2021
2269 Clear 18 1022 68 10000 8.23 360 08:40 22.02.2021
2270 Clear 19 1022 68 10000 8.23 360 08:19 22.02.2021
2271 Clouds 20 1022 64 10000 8.75 360 07:28 22.02.2021
2272 Clouds 21 1022 64 10000 8.75 360 06:47 22.02.2021
2273 Clouds 21 1022 60 10000 8.23 360 06:23 22.02.2021
2274 Clouds 23 1022 46 10000 9.26 360 03:48 22.02.2021
2275 Clouds 23 1023 46 10000 9.26 360 02:55 22.02.2021
2276 Clouds 23 1023 56 10000 8.75 10 00:49 22.02.2021
2277 Clouds 22 1024 56 10000 8.75 360 00:26 22.02.2021
2278 Clouds 23 1024 53 10000 8.75 360 23:48 21.02.2021
2279 Clear 22 1024 53 10000 8.23 10 22:55 21.02.2021
2280 Clear 21 1023 60 10000 6.69 360 22:24 21.02.2021
2281 Clear 19 1024 60 10000 7.2 360 21:50 21.02.2021
2282 Clear 18 1024 68 10000 6.17 10 21:30 21.02.2021
2283 Clear 17 1024 68 10000 5.14 360 20:50 21.02.2021
2284 Clear 17 1023 68 10000 5.66 20 20:21 21.02.2021
2285 Clear 17 1023 72 10000 5.14 10 19:59 21.02.2021
2286 Clear 16 1023 77 10000 6.17 20 19:39 21.02.2021
2287 Clouds 16 1023 77 10000 6.17 20 19:20 21.02.2021
2288 Clouds 16 1023 72 10000 5.14 10 18:26 21.02.2021
2289 Clouds 16 1023 63 10000 5.66 20 17:47 21.02.2021
2290 Clouds 17 1023 63 10000 6.17 10 17:21 21.02.2021
2291 Clouds 17 1023 59 10000 6.17 20 16:50 21.02.2021
2292 Clouds 17 1020 75 10000 8.82 3 16:29 21.02.2021
2293 Clouds 17 1023 59 10000 6.69 20 15:26 21.02.2021
2294 Clouds 17 1023 59 10000 6.17 20 14:59 21.02.2021
2295 Clouds 17 1023 59 10000 8.23 10 14:39 21.02.2021
2296 Clear 16 1023 63 10000 6.17 20 13:59 21.02.2021
2297 Clouds 17 1023 55 10000 6.69 30 13:29 21.02.2021
2298 Clouds 17 1023 55 10000 7.2 30 12:50 21.02.2021
2299 Clouds 17 1023 59 10000 6.69 20 12:26 21.02.2021
2300 Rain 17 1023 59 10000 7.72 10 11:42 21.02.2021
2301 Rain 17 1023 59 10000 8.75 20 10:50 21.02.2021
2302 Rain 17 1023 55 10000 8.23 30 10:22 21.02.2021
2303 Rain 17 1022 59 10000 8.75 10 09:51 21.02.2021
2304 Rain 17 1022 59 10000 9.77 20 09:26 21.02.2021
2305 Clouds 17 1022 59 10000 10.29 10 08:43 21.02.2021
2306 Rain 17 1022 59 10000 10.29 10 08:19 21.02.2021
2307 Clouds 18 1021 72 10000 10.8 10 07:28 21.02.2021
2308 Clouds 18 1021 68 10000 11.83 10 06:45 21.02.2021
2309 Clouds 20 1022 64 10000 10.29 360 02:43 21.02.2021
2310 Clouds 20 1022 64 10000 11.83 360 01:59 21.02.2021
2311 Clouds 19 1023 64 10000 11.32 360 00:22 21.02.2021
2312 Clouds 19 1023 64 10000 10.8 360 23:59 20.02.2021
2313 Clouds 18 1023 72 10000 10.29 360 22:58 20.02.2021
2314 Clouds 17 1023 77 10000 9.26 10 22:34 20.02.2021
2315 Clouds 17 1023 77 10000 10.29 10 21:59 20.02.2021
2316 Clouds 16 1023 77 10000 9.77 10 21:41 20.02.2021
2317 Clouds 16 1023 77 10000 9.77 10 21:18 20.02.2021
2318 Clouds 16 1022 82 10000 9.26 10 20:40 20.02.2021
2319 Clouds 16 1022 82 10000 9.26 10 20:19 20.02.2021
2320 Clouds 15 1022 82 10000 9.26 10 19:42 20.02.2021
2321 Clouds 15 1022 82 10000 10.29 10 18:58 20.02.2021
2322 Clouds 15 1022 82 10000 9.26 20 18:34 20.02.2021
2323 Clouds 15 1022 82 10000 9.77 10 17:59 20.02.2021
2324 Clouds 15 1022 82 10000 11.32 360 17:33 20.02.2021
2325 Clouds 15 1021 82 10000 10.29 360 16:49 20.02.2021
2326 Clouds 15 1022 82 10000 10.29 360 16:26 20.02.2021
2327 Clouds 15 1022 82 10000 10.8 360 15:42 20.02.2021
2328 Clouds 16 1022 77 10000 11.32 10 14:53 20.02.2021
2329 Clouds 16 1022 77 10000 10.29 10 14:27 20.02.2021
2330 Clouds 16 1022 77 10000 8.75 10 13:58 20.02.2021
2331 Clouds 16 1022 77 10000 9.77 10 13:39 20.02.2021
2332 Clouds 16 1022 77 10000 9.77 10 13:21 20.02.2021
2333 Clouds 16 1022 77 10000 9.77 10 13:21 20.02.2021
2334 Clouds 16 1022 77 10000 10.29 10 12:46 20.02.2021
2335 Clouds 16 1022 82 10000 11.32 360 11:56 20.02.2021
2336 Clouds 16 1022 82 10000 10.29 10 11:36 20.02.2021
2337 Clouds 16 1022 82 10000 10.29 10 10:53 20.02.2021
2338 Clouds 16 1022 77 10000 9.26 20 10:29 20.02.2021
2339 Clouds 16 1022 77 10000 11.32 10 09:48 20.02.2021
2340 Clouds 16 1021 82 10000 10.29 360 08:56 20.02.2021
2341 Clouds 16 1021 82 10000 7.72 10 08:27 20.02.2021
2342 Clouds 17 1021 77 10000 8.75 10 07:50 20.02.2021
2343 Clear 20 1023 68 10000 9.77 360 02:32 20.02.2021
2344 Clear 20 1023 68 10000 9.77 360 02:32 20.02.2021
2345 Clear 20 1023 68 10000 10.29 360 01:59 20.02.2021
2346 Clouds 20 1024 73 10000 10.29 360 01:20 20.02.2021
2347 Clouds 19 1024 73 10000 10.8 360 00:42 20.02.2021
2348 Clouds 19 1024 72 10000 9.26 360 23:42 19.02.2021
2349 Clouds 18 1025 72 10000 9.26 10 22:48 19.02.2021
2350 Clouds 18 1025 77 10000 8.75 10 22:26 19.02.2021
2351 Rain 17 1025 72 10000 8.23 10 21:47 19.02.2021
2352 Clouds 17 1025 77 10000 6.69 20 21:26 19.02.2021
2353 Rain 16 1024 82 10000 6.69 30 20:45 19.02.2021
2354 Rain 16 1024 82 10000 6.69 30 20:45 19.02.2021
2355 Clouds 15 1024 82 10000 6.69 30 20:27 19.02.2021
2356 Rain 15 1024 88 10000 6.17 30 19:50 19.02.2021
2357 Rain 14 1024 88 10000 5.66 30 19:20 19.02.2021
2358 Rain 14 1024 88 10000 5.66 20 18:53 19.02.2021
2359 Rain 14 1024 88 10000 5.66 20 18:30 19.02.2021
2360 Rain 14 1024 88 10000 5.66 20 17:45 19.02.2021
2361 Clouds 15 1024 82 10000 5.66 20 16:46 19.02.2021
2362 Rain 15 1024 82 10000 6.69 20 16:23 19.02.2021
2363 Rain 15 1024 88 10000 7.2 20 15:56 19.02.2021
2364 Rain 15 1024 88 10000 7.2 20 15:30 19.02.2021
2365 Rain 15 1024 88 10000 7.2 20 15:30 19.02.2021
2366 Clouds 15 1024 88 10000 7.2 20 14:55 19.02.2021
2367 Clouds 15 1024 88 10000 6.69 20 14:34 19.02.2021
2368 Clouds 15 1025 88 10000 7.2 10 13:56 19.02.2021
2369 Clouds 15 1025 88 10000 7.2 10 13:56 19.02.2021
2370 Clouds 15 1025 88 10000 7.2 10 13:36 19.02.2021
2371 Clear 15 1025 88 10000 7.2 20 12:55 19.02.2021
2372 Clear 15 1024 88 10000 7.72 20 12:36 19.02.2021
2373 Clear 16 1024 88 10000 7.72 20 12:18 19.02.2021
2374 Clear 16 1025 88 10000 8.75 10 11:35 19.02.2021
2375 Rain 16 1025 82 10000 8.23 10 10:55 19.02.2021
2376 Rain 16 1025 77 10000 8.23 10 10:34 19.02.2021
2377 Rain 16 1025 72 10000 7.2 10 09:58 19.02.2021
2378 Rain 16 1024 72 10000 7.72 10 09:29 19.02.2021
2379 Rain 16 1024 72 10000 8.23 10 08:55 19.02.2021
2380 Rain 17 1024 68 10000 9.26 10 08:29 19.02.2021
2381 Rain 18 1024 63 10000 9.77 10 07:57 19.02.2021
2382 Rain 18 1024 63 10000 9.77 10 07:37 19.02.2021
2383 Rain 18 1024 63 10000 9.77 10 07:19 19.02.2021
2384 Rain 19 1024 49 10000 9.26 360 06:41 19.02.2021
2385 Rain 20 1025 40 10000 9.26 360 04:42 19.02.2021
2386 Rain 21 1026 46 10000 8.75 10 02:47 19.02.2021
2387 Clear 21 1028 49 10000 7.72 360 01:28 19.02.2021
2388 Rain 20 1028 43 10000 6.69 350 00:35 19.02.2021
2389 Clouds 20 1029 49 10000 6.17 10 23:45 18.02.2021
2390 Rain 19 1029 52 10000 6.17 10 23:27 18.02.2021
2391 Rain 18 1030 67 10000 6.69 10 22:37 18.02.2021
2392 Clear 17 1030 67 10000 6.69 10 22:18 18.02.2021
2393 Clear 15 1030 72 10000 5.66 360 21:40 18.02.2021
2394 Clear 15 1030 72 10000 5.66 360 21:21 18.02.2021
2395 Clear 13 1030 82 10000 3.6 30 20:39 18.02.2021
2396 Rain 12 1030 82 10000 3.6 30 20:21 18.02.2021
2397 Clear 11 1030 93 10000 3.09 40 19:43 18.02.2021
2398 Rain 10 1030 87 10000 3.6 40 19:20 18.02.2021
2399 Clear 10 1030 82 10000 2.57 30 18:50 18.02.2021
2400 Rain 11 1030 87 10000 2.06 40 18:26 18.02.2021
2401 Clear 11 1030 87 10000 2.06 40 17:49 18.02.2021
2402 Clear 11 1030 87 10000 2.06 30 17:24 18.02.2021
2403 Clear 11 1031 93 10000 2.57 40 16:47 18.02.2021
2404 Clear 11 1031 87 10000 2.06 10 16:29 18.02.2021
2405 Clear 10 1031 93 10000 2.06 30 15:43 18.02.2021
2406 Clear 11 1031 93 10000 1.54 30 15:24 18.02.2021
2407 Clear 12 1031 87 10000 1.54 20 14:55 18.02.2021
2408 Clear 11 1031 87 10000 1.03 30 14:34 18.02.2021
2409 Clear 11 1032 87 10000 2.06 30 13:50 18.02.2021
2410 Clear 11 1032 87 10000 2.06 30 13:50 18.02.2021
2411 Clear 11 1032 87 10000 1.54 70 13:22 18.02.2021
2412 Clear 11 1032 82 10000 1.54 200 12:55 18.02.2021
2413 Clear 12 1032 77 10000 2.57 230 12:33 18.02.2021
2414 Clear 12 1032 77 10000 2.57 220 11:47 18.02.2021
2415 Clear 12 1032 77 10000 2.57 220 11:47 18.02.2021
2416 Rain 12 1032 77 10000 3.6 210 11:28 18.02.2021
2417 Clear 13 1032 77 10000 4.12 200 10:58 18.02.2021
2418 Rain 13 1032 77 10000 3.09 230 10:37 18.02.2021
2419 Clear 13 1032 77 10000 3.09 230 10:19 18.02.2021
2420 Clear 14 1031 77 10000 4.63 210 09:32 18.02.2021
2421 Clear 15 1031 72 10000 4.63 210 08:59 18.02.2021
2422 Clear 15 1031 72 10000 5.14 210 08:31 18.02.2021
2423 Clear 16 1031 72 10000 4.12 210 07:49 18.02.2021
2424 Clear 17 1031 72 10000 5.14 230 07:24 18.02.2021
2425 Clear 18 1031 63 10000 5.66 210 06:20 18.02.2021
2426 Rain 17 1033 67 10000 5.14 220 00:53 18.02.2021
2427 Rain 16 1033 72 10000 4.63 210 23:47 17.02.2021
2428 Clear 16 1033 72 10000 4.12 210 23:19 17.02.2021
2429 Clear 15 1033 72 10000 2.57 200 22:40 17.02.2021
2430 Clear 15 1033 72 10000 2.57 200 22:40 17.02.2021
2431 Clear 14 1033 72 10000 2.57 200 22:22 17.02.2021
2432 Clear 14 1033 72 10000 2.57 200 22:22 17.02.2021
2433 Clear 14 1033 72 10000 1.03 220 21:45 17.02.2021
2434 Clear 12 1033 76 10000 0.51 360 21:20 17.02.2021
2435 Rain 12 1033 82 10000 1.54 20 20:42 17.02.2021
2436 Rain 11 1033 87 10000 1.03 40 20:23 17.02.2021
2437 Rain 8 1032 93 10000 1.54 20 19:38 17.02.2021
2438 Rain 8 1032 93 10000 1.54 20 19:19 17.02.2021
2439 Rain 9 1032 87 10000 1.54 80 18:40 17.02.2021
2440 Rain 9 1032 87 10000 1.54 40 17:59 17.02.2021
2441 Rain 9 1032 81 10000 1.03 30 17:36 17.02.2021
2442 Rain 9 1032 81 10000 1.03 30 17:18 17.02.2021
2443 Rain 8 1032 81 10000 1.03 70 16:42 17.02.2021
2444 Rain 8 1032 81 10000 1.03 70 16:22 17.02.2021
2445 Clear 9 1032 81 10000 1.03 70 15:43 17.02.2021
2446 Rain 9 1032 76 10000 0.51 150 15:22 17.02.2021
2447 Clear 9 1032 76 10000 0.51 60 14:45 17.02.2021
2448 Clear 9 1032 76 10000 1.03 180 14:26 17.02.2021
2449 Clear 10 1032 71 10000 1.03 180 13:45 17.02.2021
2450 Clear 10 1032 66 10000 2.06 150 13:24 17.02.2021
2451 Clear 11 1032 62 10000 1.54 140 12:44 17.02.2021
2452 Rain 11 1032 62 10000 2.57 140 12:22 17.02.2021
2453 Clear 11 1032 62 10000 1.54 140 11:38 17.02.2021
2454 Rain 12 1032 62 10000 1.54 140 11:18 17.02.2021
2455 Rain 12 1031 62 10000 2.57 130 10:44 17.02.2021
2456 Rain 13 1031 58 10000 3.6 130 10:24 17.02.2021
2457 Rain 13 1031 62 10000 5.14 140 09:44 17.02.2021
2458 Rain 13 1030 58 10000 6.17 140 09:25 17.02.2021
2459 Rain 13 1030 62 10000 6.69 140 08:43 17.02.2021
2460 Rain 14 1030 55 10000 7.2 150 08:22 17.02.2021
2461 Rain 15 1030 55 10000 8.23 150 07:33 17.02.2021
2462 Rain 16 1029 55 10000 7.72 160 06:19 17.02.2021
2463 Clouds 16 1029 55 10000 9.26 150 02:34 17.02.2021
2464 Clouds 16 1028 51 10000 8.23 160 01:55 17.02.2021
2465 Clouds 16 1028 55 10000 8.23 150 00:33 17.02.2021
2466 Clouds 15 1028 58 10000 8.23 150 23:57 16.02.2021
2467 Clouds 15 1028 55 10000 9.26 150 23:38 16.02.2021
2468 Clouds 13 1028 67 10000 9.26 150 22:44 16.02.2021
2469 Clouds 13 1027 72 10000 9.77 160 22:25 16.02.2021
2470 Clouds 13 1027 72 10000 9.77 160 22:25 16.02.2021
2471 Clouds 13 1027 77 10000 9.77 170 21:57 16.02.2021
2472 Clouds 13 1027 72 10000 8.23 150 21:39 16.02.2021
2473 Clouds 13 1027 72 10000 8.23 150 21:20 16.02.2021
2474 Clouds 13 1026 76 10000 10.29 160 20:42 16.02.2021
2475 Clouds 12 1026 76 10000 10.29 160 20:20 16.02.2021
2476 Rain 13 1026 67 10000 9.77 150 19:44 16.02.2021
2477 Clouds 12 1025 71 10000 9.77 150 19:25 16.02.2021
2478 Rain 12 1025 76 10000 9.77 160 18:41 16.02.2021
2479 Clouds 12 1025 76 10000 9.77 160 18:22 16.02.2021
2480 Clouds 12 1025 76 10000 10.8 170 17:53 16.02.2021
2481 Clouds 11 1025 82 8000 8.23 140 17:27 16.02.2021
2482 Rain 12 1025 71 10000 11.32 170 16:52 16.02.2021
2483 Clouds 12 1025 71 10000 9.77 170 16:29 16.02.2021
2484 Clouds 12 1025 67 10000 10.8 170 15:53 16.02.2021
2485 Clouds 12 1024 71 10000 11.83 160 15:32 16.02.2021
2486 Clouds 12 1024 76 10000 10.8 160 14:57 16.02.2021
2487 Clouds 13 1024 67 10000 11.32 170 14:38 16.02.2021
2488 Clouds 13 1024 67 10000 11.32 170 14:19 16.02.2021
2489 Clouds 13 1024 58 10000 11.32 170 13:38 16.02.2021
2490 Clouds 13 1024 58 10000 10.8 160 12:52 16.02.2021
2491 Clouds 13 1024 62 10000 10.8 160 12:29 16.02.2021
2492 Clouds 13 1024 62 10000 11.32 170 11:58 16.02.2021
2493 Clouds 13 1024 72 10000 11.32 170 11:38 16.02.2021
2494 Clouds 13 1024 72 10000 11.32 170 11:19 16.02.2021
2495 Clouds 13 1024 62 10000 11.32 170 10:45 16.02.2021
2496 Clouds 13 1023 58 10000 12.35 170 10:26 16.02.2021
2497 Rain 13 1023 58 10000 12.35 170 09:50 16.02.2021
2498 Clouds 13 1023 62 10000 12.86 160 09:26 16.02.2021
2499 Rain 13 1023 77 10000 12.35 180 08:51 16.02.2021
2500 Rain 13 1022 72 10000 13.38 170 08:26 16.02.2021
2501 Rain 13 1021 62 10000 12.86 170 07:42 16.02.2021
2502 Rain 13 1021 67 10000 12.86 170 06:49 16.02.2021
2503 Rain 13 1019 94 5000 12.35 170 02:38 16.02.2021
2504 Rain 13 1018 100 2300 13.89 170 23:52 15.02.2021
2505 Rain 14 1017 82 10000 12.86 170 23:27 15.02.2021
2506 Rain 14 1017 82 10000 13.38 170 22:47 15.02.2021
2507 Rain 14 1017 88 10000 13.38 170 22:26 15.02.2021
2508 Clouds 13 1017 88 9000 12.35 180 21:43 15.02.2021
2509 Rain 13 1016 88 10000 12.35 170 21:24 15.02.2021
2510 Clouds 13 1016 88 7000 12.86 180 20:53 15.02.2021
2511 Clouds 13 1015 94 7000 13.89 180 20:35 15.02.2021
2512 Haze 13 1015 94 3800 12.86 180 19:50 15.02.2021
2513 Mist 13 1014 94 4300 13.89 180 19:25 15.02.2021
2514 Haze 13 1014 94 3900 14.4 180 18:54 15.02.2021
2515 Rain 13 1013 100 4400 12.86 180 18:27 15.02.2021
2516 Rain 14 1013 94 3800 12.35 190 17:57 15.02.2021
2517 Mist 14 1013 94 5000 11.32 180 17:39 15.02.2021
2518 Mist 14 1013 94 5000 11.32 180 17:20 15.02.2021
2519 Clouds 14 1013 94 6000 10.29 170 16:37 15.02.2021
2520 Clouds 14 1013 94 6000 10.29 170 16:18 15.02.2021
2521 Clouds 14 1012 100 7000 10.29 170 15:42 15.02.2021
2522 Clouds 14 1012 100 7000 10.29 170 15:19 15.02.2021
2523 Clouds 14 1012 100 6000 9.77 180 14:43 15.02.2021
2524 Rain 14 1012 94 6000 9.77 180 14:20 15.02.2021
2525 Clouds 14 1012 94 8000 9.26 180 13:49 15.02.2021
2526 Rain 14 1012 100 5000 9.77 180 13:20 15.02.2021
2527 Rain 15 1012 100 6000 8.75 180 12:47 15.02.2021
2528 Clouds 15 1012 100 7000 8.23 180 12:25 15.02.2021
2529 Rain 15 1012 100 8000 8.23 180 11:51 15.02.2021
2530 Rain 14 1012 100 7000 7.72 180 11:25 15.02.2021
2531 Rain 15 1012 100 9000 5.14 170 10:50 15.02.2021
2532 Rain 15 1012 100 10000 4.63 170 10:28 15.02.2021
2533 Rain 15 1012 100 10000 4.63 190 09:57 15.02.2021
2534 Rain 15 1011 100 10000 5.14 180 09:39 15.02.2021
2535 Rain 15 1011 100 10000 5.14 180 09:21 15.02.2021
2536 Rain 15 1011 100 10000 6.17 200 08:21 15.02.2021
2537 Rain 16 1011 94 10000 7.2 210 06:59 15.02.2021
2538 Rain 16 1010 94 10000 7.72 210 06:40 15.02.2021
2539 Rain 19 1012 82 10000 4.63 200 02:52 15.02.2021
2540 Rain 19 1012 82 10000 3.6 200 01:55 15.02.2021
2541 Clouds 19 1014 82 10000 4.12 200 23:59 14.02.2021
2542 Clouds 19 1013 72 10000 3.09 190 23:25 14.02.2021
2543 Rain 19 1013 77 10000 1.03 210 22:46 14.02.2021
2544 Clouds 18 1014 72 10000 1.54 70 22:23 14.02.2021
2545 Clouds 17 1014 77 10000 2.06 20 21:51 14.02.2021
2546 Rain 16 1014 77 10000 2.06 20 21:29 14.02.2021
2547 Rain 16 1014 77 10000 2.06 20 21:29 14.02.2021
2548 Rain 15 1014 82 10000 1.54 10 20:53 14.02.2021
2549 Clouds 14 1014 82 10000 3.09 360 20:30 14.02.2021
2550 Rain 14 1014 82 10000 2.57 10 19:49 14.02.2021
2551 Rain 13 1014 88 10000 2.57 40 18:59 14.02.2021
2552 Rain 13 1015 88 10000 3.09 30 18:39 14.02.2021
2553 Rain 13 1015 88 10000 3.09 30 18:20 14.02.2021
2554 Rain 13 1015 88 10000 2.06 30 17:39 14.02.2021
2555 Clouds 13 1015 82 10000 2.06 20 16:57 14.02.2021
2556 Clouds 13 1015 88 10000 2.06 50 16:38 14.02.2021
2557 Clouds 13 1015 88 10000 2.06 50 16:18 14.02.2021
2558 Clouds 13 1016 82 10000 4.12 350 15:41 14.02.2021
2559 Clouds 13 1016 88 10000 4.12 350 14:58 14.02.2021
2560 Clouds 14 1017 82 10000 3.6 10 14:29 14.02.2021
2561 Clouds 14 1017 82 10000 3.09 30 13:55 14.02.2021
2562 Clouds 14 1018 82 10000 3.6 20 13:31 14.02.2021
2563 Rain 15 1018 77 10000 3.09 30 12:45 14.02.2021
2564 Rain 15 1018 77 10000 4.63 350 12:21 14.02.2021
2565 Rain 15 1018 77 10000 4.12 360 11:50 14.02.2021
2566 Rain 15 1018 77 10000 5.14 360 11:22 14.02.2021
2567 Clear 16 1018 67 10000 4.12 360 10:45 14.02.2021
2568 Rain 16 1017 63 10000 3.6 360 09:57 14.02.2021
2569 Rain 16 1017 63 10000 3.6 350 09:38 14.02.2021
2570 Rain 17 1017 63 10000 3.6 350 09:20 14.02.2021
2571 Rain 17 1017 59 10000 4.63 360 08:40 14.02.2021
2572 Clouds 18 1017 59 10000 5.14 350 07:56 14.02.2021
2573 Rain 19 1017 56 10000 5.66 360 06:51 14.02.2021
2574 Rain 20 1017 56 10000 6.17 360 05:42 14.02.2021
2575 Rain 19 1018 60 10000 8.75 360 03:31 14.02.2021
2576 Rain 19 1018 63 10000 9.26 360 01:57 14.02.2021
2577 Clouds 18 1019 60 10000 10.8 360 00:47 14.02.2021
2578 Clouds 18 1019 68 10000 9.77 360 00:26 14.02.2021
2579 Clouds 18 1019 68 10000 10.8 360 23:40 13.02.2021
2580 Clouds 18 1019 68 10000 10.8 360 23:20 13.02.2021
2581 Clouds 17 1019 72 10000 10.8 360 22:41 13.02.2021
2582 Clouds 17 1019 72 10000 10.8 360 22:18 13.02.2021
2583 Clouds 17 1019 77 10000 7.72 360 21:42 13.02.2021
2584 Clouds 16 1019 77 10000 8.23 360 20:54 13.02.2021
2585 Clouds 16 1018 77 10000 8.75 360 20:29 13.02.2021
2586 Clouds 16 1018 82 10000 8.23 360 19:55 13.02.2021
2587 Clouds 15 1018 82 10000 6.69 20 19:37 13.02.2021
2588 Clouds 15 1018 82 10000 6.69 20 19:18 13.02.2021
2589 Clouds 15 1018 82 10000 6.17 20 18:38 13.02.2021
2590 Clouds 15 1017 82 10000 8.23 10 17:55 13.02.2021
2591 Clouds 15 1017 82 10000 8.75 10 17:36 13.02.2021
2592 Clouds 15 1017 82 10000 8.75 10 17:18 13.02.2021
2593 Rain 15 1017 82 10000 9.26 10 16:42 13.02.2021
2594 Rain 15 1018 82 10000 8.23 10 15:58 13.02.2021
2595 Rain 15 1018 82 10000 8.23 360 15:27 13.02.2021
2596 Rain 15 1018 82 10000 8.75 10 14:50 13.02.2021
2597 Rain 15 1018 82 10000 8.75 360 14:30 13.02.2021
2598 Clouds 16 1018 82 10000 7.72 10 13:44 13.02.2021
2599 Rain 16 1018 82 10000 6.17 20 13:24 13.02.2021
2600 Clouds 16 1018 72 10000 6.69 20 12:41 13.02.2021
2601 Clouds 16 1018 72 10000 6.69 20 12:18 13.02.2021
2602 Clouds 16 1018 72 10000 6.69 20 11:41 13.02.2021
2603 Clouds 16 1018 72 10000 6.69 20 11:19 13.02.2021
2604 Clouds 16 1018 72 10000 5.66 20 10:44 13.02.2021
2605 Clouds 16 1018 72 10000 5.14 30 10:23 13.02.2021
2606 Clouds 16 1017 72 10000 5.66 30 09:52 13.02.2021
2607 Clouds 16 1018 72 10000 5.66 20 09:29 13.02.2021
2608 Clouds 17 1017 68 10000 6.17 360 08:53 13.02.2021
2609 Clouds 17 1017 68 10000 6.69 360 08:30 13.02.2021
2610 Clouds 18 1017 63 10000 5.14 350 07:45 13.02.2021
2611 Clouds 19 1017 60 10000 7.2 360 06:35 13.02.2021
2612 Clouds 20 1017 56 10000 6.69 340 05:18 13.02.2021
2613 Clouds 21 1017 53 10000 6.69 360 03:44 13.02.2021
2614 Clear 21 1018 49 10000 5.14 10 01:31 13.02.2021
2615 Clear 20 1019 56 10000 6.17 10 00:19 13.02.2021
2616 Clear 20 1019 56 10000 5.66 10 23:46 12.02.2021
2617 Clear 19 1019 64 10000 4.12 360 23:20 12.02.2021
2618 Clear 19 1018 68 10000 4.63 40 22:37 12.02.2021
2619 Clear 18 1018 68 10000 4.63 40 22:18 12.02.2021
2620 Rain 17 1018 77 10000 4.12 20 21:42 12.02.2021
2621 Rain 16 1018 77 10000 4.12 20 21:22 12.02.2021
2622 Clear 15 1018 88 10000 4.12 10 20:45 12.02.2021
2623 Rain 14 1018 88 10000 3.09 360 20:26 12.02.2021
2624 Rain 14 1018 88 10000 3.09 360 20:26 12.02.2021
2625 Clear 13 1018 94 10000 1.54 30 19:55 12.02.2021
2626 Clear 12 1018 94 10000 1.03 50 19:29 12.02.2021
2627 Clear 12 1018 94 10000 2.06 40 18:38 12.02.2021
2628 Clear 12 1018 94 10000 2.06 40 18:18 12.02.2021
2629 Clear 12 1018 88 10000 1.54 40 17:41 12.02.2021
2630 Clear 12 1018 94 10000 1.54 30 16:54 12.02.2021
2631 Clear 12 1018 94 10000 1.54 360 16:18 12.02.2021
2632 Clear 13 1017 88 10000 1.03 360 15:43 12.02.2021
2633 Clear 12 1017 94 10000 1.54 360 15:20 12.02.2021
2634 Clear 12 1017 88 10000 1.54 20 14:37 12.02.2021
2635 Clear 12 1017 88 10000 1.54 30 13:51 12.02.2021
2636 Rain 12 1017 88 10000 1.54 250 13:32 12.02.2021
2637 Clear 13 1017 88 10000 2.57 250 12:54 12.02.2021
2638 Clear 14 1017 88 10000 2.06 190 12:36 12.02.2021
2639 Clear 13 1017 88 10000 3.09 160 11:48 12.02.2021
2640 Clear 13 1017 88 10000 3.6 160 11:22 12.02.2021
2641 Clear 14 1017 88 10000 5.14 170 10:48 12.02.2021
2642 Clear 14 1017 82 10000 5.66 200 10:19 12.02.2021
2643 Clear 15 1016 82 10000 5.14 200 09:42 12.02.2021
2644 Clear 15 1016 82 10000 5.14 200 09:23 12.02.2021
2645 Clear 15 1016 77 10000 5.66 180 08:45 12.02.2021
2646 Clear 15 1016 77 10000 6.17 170 08:22 12.02.2021
2647 Clear 16 1015 77 10000 6.69 170 07:52 12.02.2021
2648 Clouds 17 1015 72 10000 6.17 180 07:24 12.02.2021
2649 Clouds 17 1015 72 10000 7.2 170 06:49 12.02.2021
2650 Clouds 18 1015 72 10000 7.72 170 05:29 12.02.2021
2651 Clouds 17 1015 72 10000 8.75 170 03:35 12.02.2021
2652 Clouds 17 1013 82 10000 6.17 190 00:32 12.02.2021
2653 Clouds 17 1012 88 10000 6.17 190 23:38 11.02.2021
2654 Clouds 17 1012 88 10000 6.17 190 23:18 11.02.2021
2655 Clouds 16 1012 88 9000 7.2 200 22:42 11.02.2021
2656 Clouds 15 1012 88 9000 7.2 200 22:22 11.02.2021
2657 Clouds 14 1011 94 10000 10.8 220 21:43 11.02.2021
2658 Clouds 14 1011 94 10000 10.8 220 21:24 11.02.2021
2659 Clouds 14 1011 94 10000 9.77 210 20:54 11.02.2021
2660 Clouds 15 1010 94 10000 6.69 190 20:36 11.02.2021
2661 Clouds 14 1010 94 10000 6.69 190 20:18 11.02.2021
2662 Clouds 14 1010 82 10000 2.06 340 19:45 11.02.2021
2663 Rain 13 1010 77 10000 1.54 30 19:23 11.02.2021
2664 Clouds 13 1009 82 10000 2.57 20 18:37 11.02.2021
2665 Clouds 13 1009 82 10000 2.57 20 18:18 11.02.2021
2666 Clear 13 1008 77 10000 4.12 20 17:39 11.02.2021
2667 Clear 13 1008 77 10000 4.12 20 17:19 11.02.2021
2668 Clear 13 1008 77 10000 5.14 20 16:42 11.02.2021
2669 Clear 13 1008 77 10000 5.14 20 16:24 11.02.2021
2670 Clear 13 1008 77 10000 4.63 20 15:45 11.02.2021
2671 Clear 13 1007 77 10000 4.63 20 15:26 11.02.2021
2672 Clear 13 1008 77 10000 3.6 20 14:53 11.02.2021
2673 Clear 14 1008 72 10000 4.63 20 14:30 11.02.2021
2674 Clear 14 1007 77 10000 7.2 20 13:42 11.02.2021
2675 Clear 14 1007 77 10000 7.2 20 13:19 11.02.2021
2676 Clear 14 1007 77 10000 6.17 20 12:53 11.02.2021
2677 Clear 14 1007 72 10000 7.2 20 12:32 11.02.2021
2678 Clear 15 1007 72 10000 9.77 20 11:47 11.02.2021
2679 Clear 15 1006 72 10000 9.26 10 11:26 11.02.2021
2680 Rain 15 1006 67 10000 8.75 20 10:45 11.02.2021
2681 Clear 15 1006 67 10000 8.75 20 10:26 11.02.2021
2682 Clear 15 1006 72 10000 7.72 30 09:55 11.02.2021
2683 Clear 15 1006 72 10000 8.75 20 09:24 11.02.2021
2684 Clear 16 1005 67 10000 9.77 360 08:55 11.02.2021
2685 Clear 16 1005 67 10000 9.77 360 08:55 11.02.2021
2686 Clear 16 1005 67 10000 10.29 360 08:30 11.02.2021
2687 Clear 17 1004 63 10000 12.35 350 07:39 11.02.2021
2688 Clear 18 1004 63 10000 13.38 360 06:41 11.02.2021
2689 Clear 18 1004 59 10000 12.86 360 05:44 11.02.2021
2690 Clear 19 1004 49 10000 10.29 350 02:43 11.02.2021
2691 Clear 19 1004 49 10000 10.29 350 02:19 11.02.2021
2692 Clear 19 1005 49 10000 9.77 350 00:22 11.02.2021
2693 Clear 19 1005 49 10000 9.77 350 23:46 10.02.2021
2694 Clear 18 1005 52 10000 9.26 350 23:18 10.02.2021
2695 Clouds 18 1005 55 10000 7.72 340 22:42 10.02.2021
2696 Clouds 17 1005 55 10000 7.72 340 22:18 10.02.2021
2697 Clear 17 1004 59 10000 6.69 350 21:39 10.02.2021
2698 Clear 16 1004 59 10000 6.69 350 21:19 10.02.2021
2699 Clear 16 1004 63 10000 5.14 340 20:42 10.02.2021
2700 Clear 15 1004 63 10000 5.14 340 20:24 10.02.2021
2701 Clear 15 1004 63 10000 6.17 340 19:47 10.02.2021
2702 Clear 15 1004 59 10000 7.2 340 19:26 10.02.2021
2703 Clear 15 1004 59 10000 4.63 340 18:47 10.02.2021
2704 Clear 15 1003 59 10000 6.17 350 18:24 10.02.2021
2705 Clear 15 1003 63 10000 5.66 340 17:57 10.02.2021
2706 Clear 15 1003 63 10000 4.63 340 17:26 10.02.2021
2707 Clear 15 1003 67 10000 5.66 340 16:57 10.02.2021
2708 Clear 15 1003 67 10000 5.66 340 16:37 10.02.2021
2709 Rain 15 1003 67 10000 5.66 340 16:19 10.02.2021
2710 Clouds 15 1003 72 10000 5.66 340 15:24 10.02.2021
2711 Clouds 15 1003 72 10000 5.66 340 15:24 10.02.2021
2712 Rain 15 1004 72 10000 5.14 340 14:52 10.02.2021
2713 Clouds 15 1004 63 10000 5.14 340 14:34 10.02.2021
2714 Clouds 15 1003 67 10000 5.66 350 13:53 10.02.2021
2715 Clouds 15 1003 77 10000 5.66 360 13:29 10.02.2021
2716 Clouds 15 1003 77 10000 6.69 360 12:53 10.02.2021
2717 Clouds 15 1003 77 10000 6.69 350 12:30 10.02.2021
2718 Clouds 15 1003 77 10000 7.72 350 11:57 10.02.2021
2719 Clouds 15 1003 77 10000 9.26 360 11:38 10.02.2021
2720 Clouds 15 1003 77 10000 9.26 360 11:19 10.02.2021
2721 Clouds 15 1003 72 10000 6.69 350 10:23 10.02.2021
2722 Clouds 16 1003 72 10000 7.72 350 09:56 10.02.2021
2723 Clouds 16 1002 72 10000 8.75 350 09:31 10.02.2021
2724 Rain 16 1002 72 10000 8.75 360 08:53 10.02.2021
2725 Clouds 16 1002 72 10000 9.77 360 08:32 10.02.2021
2726 Clouds 17 1001 68 10000 7.72 350 07:34 10.02.2021
2727 Rain 18 1001 63 10000 11.32 360 06:21 10.02.2021
2728 Clouds 18 1000 68 10000 11.32 360 01:24 10.02.2021
2729 Clouds 16 1000 82 10000 10.8 360 23:59 09.02.2021
2730 Clouds 17 999 82 10000 9.77 360 23:32 09.02.2021
2731 Clouds 16 999 82 10000 8.23 350 22:45 09.02.2021
2732 Clouds 17 999 82 9000 8.23 340 22:24 09.02.2021
2733 Rain 17 998 88 10000 7.2 340 21:48 09.02.2021
2734 Clouds 17 999 88 10000 7.72 340 21:21 09.02.2021
2735 Clouds 17 998 88 10000 8.23 350 20:44 09.02.2021
2736 Clouds 17 997 88 10000 7.2 340 20:25 09.02.2021
2737 Mist 17 996 100 4100 10.8 360 19:44 09.02.2021
2738 Clouds 18 996 94 7000 12.35 10 19:23 09.02.2021
2739 Clouds 18 996 88 6000 13.38 360 18:49 09.02.2021
2740 Clouds 18 996 88 10000 12.86 10 18:31 09.02.2021
2741 Rain 18 996 88 10000 10.8 10 17:50 09.02.2021
2742 Clouds 18 997 94 10000 12.35 360 17:28 09.02.2021
2743 Clouds 18 997 88 10000 12.35 360 16:54 09.02.2021
2744 Rain 18 997 94 10000 11.32 10 16:20 09.02.2021
2745 Clouds 18 998 94 8000 9.77 10 15:58 09.02.2021
2746 Clouds 18 998 88 10000 11.32 360 15:40 09.02.2021
2747 Clouds 18 998 88 10000 11.32 360 15:21 09.02.2021
2748 Clouds 18 998 88 10000 10.29 10 14:43 09.02.2021
2749 Clouds 18 999 88 10000 11.83 10 14:23 09.02.2021
2750 Clouds 18 999 88 10000 12.35 10 13:43 09.02.2021
2751 Clouds 17 999 94 8000 11.32 10 13:20 09.02.2021
2752 Haze 17 1000 94 3900 11.32 10 12:47 09.02.2021
2753 Clouds 17 1000 94 6000 10.29 10 12:27 09.02.2021
2754 Mist 17 1000 94 3400 9.77 10 11:44 09.02.2021
2755 Clouds 17 1001 94 7000 9.26 360 11:22 09.02.2021
2756 Drizzle 18 1001 88 9000 8.75 360 10:57 09.02.2021
2757 Clouds 19 1001 77 10000 8.75 350 10:23 09.02.2021
2758 Clouds 20 1001 73 10000 10.29 360 09:54 09.02.2021
2759 Clouds 20 1001 68 10000 9.77 10 09:27 09.02.2021
2760 Clouds 19 1001 77 10000 9.26 360 08:57 09.02.2021
2761 Clouds 20 1001 68 10000 9.26 360 08:29 09.02.2021
2762 Clouds 20 1001 68 10000 9.77 360 07:53 09.02.2021
2763 Clouds 22 1002 57 10000 11.83 350 05:35 09.02.2021
2764 Clouds 22 1003 60 10000 10.29 350 03:49 09.02.2021
2765 Clouds 20 1004 68 10000 9.77 350 01:52 09.02.2021
2766 Clouds 19 1005 77 10000 9.77 10 00:31 09.02.2021
2767 Clouds 18 1006 88 7000 9.77 10 23:44 08.02.2021
2768 Clouds 18 1006 72 10000 9.77 350 23:19 08.02.2021
2769 Clouds 18 1006 77 10000 9.26 360 22:43 08.02.2021
2770 Clouds 18 1006 77 10000 9.26 360 22:22 08.02.2021
2771 Clouds 18 1006 77 10000 9.26 360 21:46 08.02.2021
2772 Clouds 17 1007 82 10000 9.26 360 21:23 08.02.2021
2773 Clouds 17 1007 88 10000 5.14 350 20:44 08.02.2021
2774 Drizzle 17 1007 94 10000 5.14 360 20:25 08.02.2021
2775 Drizzle 16 1007 88 10000 9.26 360 19:59 08.02.2021
2776 Clouds 17 1007 77 10000 9.26 10 19:41 08.02.2021
2777 Clouds 17 1007 77 10000 9.26 10 19:21 08.02.2021
2778 Clouds 17 1007 82 10000 8.23 360 18:42 08.02.2021
2779 Clouds 17 1007 82 10000 8.23 360 18:19 08.02.2021
2780 Clouds 17 1007 82 10000 8.75 360 17:43 08.02.2021
2781 Clouds 17 1008 82 10000 8.75 360 17:23 08.02.2021
2782 Clouds 17 1008 82 10000 9.26 360 16:41 08.02.2021
2783 Clouds 17 1008 82 10000 9.26 360 16:21 08.02.2021
2784 Clouds 17 1009 82 10000 8.75 360 15:41 08.02.2021
2785 Clouds 17 1009 82 10000 8.75 360 15:19 08.02.2021
2786 Clouds 17 1009 82 10000 8.75 360 14:51 08.02.2021
2787 Clouds 17 1009 82 10000 8.75 360 14:30 08.02.2021
2788 Clouds 17 1009 82 10000 8.23 10 13:56 08.02.2021
2789 Clouds 17 1009 77 10000 7.72 10 13:32 08.02.2021
2790 Clouds 17 1010 77 10000 6.69 20 12:51 08.02.2021
2791 Clouds 17 1010 77 10000 5.66 20 12:33 08.02.2021
2792 Clouds 17 1010 77 10000 6.17 20 11:43 08.02.2021
2793 Clouds 17 1010 68 10000 6.69 20 11:18 08.02.2021
2794 Clouds 17 1010 68 10000 5.14 350 10:42 08.02.2021
2795 Clouds 17 1010 68 10000 5.14 350 10:23 08.02.2021
2796 Clouds 18 1010 68 10000 5.14 330 09:50 08.02.2021
2797 Clouds 18 1010 68 10000 6.69 340 09:22 08.02.2021
2798 Clouds 18 1010 77 10000 8.23 350 08:32 08.02.2021
2799 Clouds 19 1010 73 10000 5.66 340 07:51 08.02.2021
2800 Clouds 19 1010 73 10000 7.2 340 07:22 08.02.2021
2801 Clouds 21 1011 64 10000 10.29 350 05:29 08.02.2021
2802 Clouds 20 1013 68 10000 9.77 360 02:28 08.02.2021
2803 Clouds 20 1013 68 10000 10.8 360 00:56 08.02.2021
2804 Clouds 21 1014 64 10000 9.26 350 00:21 08.02.2021
2805 Clouds 20 1014 73 10000 8.75 350 23:46 07.02.2021
2806 Clouds 20 1014 64 10000 9.77 360 23:20 07.02.2021
2807 Clouds 19 1014 73 10000 8.75 360 22:44 07.02.2021
2808 Clouds 19 1014 73 10000 8.75 360 22:25 07.02.2021
2809 Clouds 18 1014 77 10000 8.75 360 21:52 07.02.2021
2810 Clouds 18 1014 82 10000 9.26 360 21:27 07.02.2021
2811 Clouds 17 1014 82 10000 8.75 360 20:54 07.02.2021
2812 Clouds 17 1014 88 10000 8.23 360 20:33 07.02.2021
2813 Clouds 17 1014 82 10000 7.72 360 19:55 07.02.2021
2814 Clouds 17 1014 82 10000 8.23 20 19:31 07.02.2021
2815 Clouds 16 1014 88 10000 8.75 10 18:56 07.02.2021
2816 Clouds 16 1014 88 10000 7.72 10 18:36 07.02.2021
2817 Clouds 16 1014 88 10000 7.72 10 18:18 07.02.2021
2818 Clouds 16 1014 88 10000 5.14 20 17:41 07.02.2021
2819 Clouds 16 1014 88 10000 5.14 20 17:19 07.02.2021
2820 Clouds 17 1014 82 10000 5.66 20 16:47 07.02.2021
2821 Clouds 16 1015 82 10000 5.66 20 16:23 07.02.2021
2822 Clouds 17 1015 82 10000 5.66 20 15:49 07.02.2021
2823 Clouds 17 1015 88 10000 6.17 20 15:28 07.02.2021
2824 Clouds 17 1015 82 10000 5.66 20 14:57 07.02.2021
2825 Clouds 17 1015 82 10000 5.66 20 14:39 07.02.2021
2826 Clouds 17 1015 82 10000 5.66 20 14:18 07.02.2021
2827 Clear 16 1016 82 10000 5.14 20 13:35 07.02.2021
2828 Clouds 16 1016 82 10000 5.14 20 12:54 07.02.2021
2829 Clouds 16 1016 77 10000 5.14 10 12:36 07.02.2021
2830 Clouds 16 1016 77 10000 5.14 10 12:18 07.02.2021
2831 Clouds 17 1016 72 10000 6.69 360 11:27 07.02.2021
2832 Clouds 17 1016 72 10000 4.12 20 10:57 07.02.2021
2833 Clouds 17 1016 68 10000 3.6 20 10:27 07.02.2021
2834 Clouds 17 1015 63 10000 5.14 20 09:50 07.02.2021
2835 Clouds 18 1015 59 10000 3.6 20 09:25 07.02.2021
2836 Clouds 19 1015 56 10000 4.63 20 08:38 07.02.2021
2837 Clouds 20 1015 49 10000 4.12 340 07:49 07.02.2021
2838 Clouds 22 1015 46 10000 6.17 360 05:58 07.02.2021
2839 Clouds 22 1015 46 10000 6.17 360 05:58 07.02.2021
2840 Clouds 20 1016 72 10000 3.09 200 04:34 07.02.2021
2841 Clouds 20 1017 72 10000 3.6 190 02:25 07.02.2021
2842 Clouds 19 1019 72 10000 4.63 200 00:37 07.02.2021
2843 Clouds 19 1019 72 10000 4.63 200 23:50 06.02.2021
2844 Clouds 19 1019 63 10000 2.06 330 22:52 06.02.2021
2845 Clouds 16 1020 72 10000 3.6 360 21:45 06.02.2021
2846 Clouds 16 1020 82 10000 2.57 10 21:24 06.02.2021
2847 Clouds 14 1020 82 10000 1.54 40 20:53 06.02.2021
2848 Clouds 13 1020 87 10000 1.03 40 20:27 06.02.2021
2849 Clouds 13 1020 87 10000 1.03 40 19:59 06.02.2021
2850 Clouds 11 1020 93 10000 0.51 10 19:40 06.02.2021
2851 Clouds 11 1020 93 10000 0.51 10 19:19 06.02.2021
2852 Clouds 10 1019 87 10000 1.54 40 18:43 06.02.2021
2853 Clouds 10 1019 87 10000 1.03 150 18:24 06.02.2021
2854 Clouds 10 1019 87 10000 2.06 40 17:41 06.02.2021
2855 Clouds 10 1019 87 10000 2.06 40 17:21 06.02.2021
2856 Clouds 11 1020 87 10000 1.54 40 16:47 06.02.2021
2857 Clouds 11 1020 87 10000 1.03 40 16:29 06.02.2021
2858 Clouds 11 1020 87 10000 1.54 30 15:52 06.02.2021
2859 Clouds 11 1020 87 10000 1.03 50 15:29 06.02.2021
2860 Clouds 11 1020 87 10000 1.03 90 14:49 06.02.2021
2861 Clouds 11 1020 88 10000 0.51 340 14:29 06.02.2021
2862 Clouds 12 1020 82 10000 0.51 40 13:57 06.02.2021
2863 Clouds 12 1021 88 10000 1.03 70 13:38 06.02.2021
2864 Clouds 12 1020 82 10000 1.54 30 12:24 06.02.2021
2865 Haze 13 1020 88 5000 0.51 260 11:58 06.02.2021
2866 Clouds 13 1020 77 10000 1.03 10 11:40 06.02.2021
2867 Clouds 14 1020 77 10000 1.03 10 11:19 06.02.2021
2868 Clouds 14 1021 77 10000 1.54 50 10:49 06.02.2021
2869 Clouds 15 1021 72 10000 3.09 80 10:25 06.02.2021
2870 Clouds 15 1020 82 10000 2.06 240 09:38 06.02.2021
2871 Clouds 15 1020 82 10000 2.06 240 09:19 06.02.2021
2872 Clouds 16 1020 77 10000 2.06 210 08:56 06.02.2021
2873 Clouds 16 1020 77 10000 3.6 150 08:29 06.02.2021
2874 Clouds 17 1020 77 10000 6.69 150 06:50 06.02.2021
2875 Clouds 17 1021 77 10000 7.2 160 05:41 06.02.2021
2876 Clouds 17 1023 77 10000 6.69 160 02:44 06.02.2021
2877 Clouds 16 1024 77 10000 5.66 160 00:56 06.02.2021
2878 Clouds 16 1024 72 10000 6.17 160 00:37 06.02.2021
2879 Clouds 16 1024 72 10000 6.17 160 00:18 06.02.2021
2880 Clouds 16 1024 72 10000 5.66 170 23:30 05.02.2021
2881 Clouds 16 1024 67 10000 6.17 160 22:50 05.02.2021
2882 Clouds 15 1024 72 10000 5.66 160 22:25 05.02.2021
2883 Clouds 15 1024 72 10000 5.14 160 21:56 05.02.2021
2884 Clouds 15 1024 72 10000 5.66 150 21:36 05.02.2021
2885 Clouds 14 1024 72 10000 5.14 160 20:56 05.02.2021
2886 Clouds 14 1023 82 10000 5.66 160 20:20 05.02.2021
2887 Clouds 13 1023 94 10000 4.63 180 19:45 05.02.2021
2888 Clouds 13 1023 94 10000 6.17 170 19:18 05.02.2021
2889 Clouds 13 1023 88 10000 6.17 160 18:40 05.02.2021
2890 Clouds 13 1023 88 10000 6.17 160 18:19 05.02.2021
2891 Clouds 13 1023 88 10000 6.69 150 17:36 05.02.2021
2892 Clouds 13 1023 88 10000 4.63 160 16:58 05.02.2021
2893 Clouds 13 1023 100 10000 5.14 180 16:39 05.02.2021
2894 Clouds 13 1023 100 10000 5.14 180 16:20 05.02.2021
2895 Clouds 13 1023 94 10000 5.66 180 15:50 05.02.2021
2896 Clouds 13 1023 100 8000 5.66 190 15:22 05.02.2021
2897 Clouds 13 1024 100 10000 5.66 170 14:38 05.02.2021
2898 Clouds 13 1024 100 10000 5.66 170 14:20 05.02.2021
2899 Clouds 13 1024 94 10000 6.69 190 13:52 05.02.2021
2900 Clouds 13 1024 94 10000 5.14 180 13:32 05.02.2021
2901 Clouds 13 1024 94 10000 4.12 170 12:44 05.02.2021
2902 Clouds 13 1024 100 7000 4.63 170 12:23 05.02.2021
2903 Clouds 14 1024 88 10000 4.12 170 11:39 05.02.2021
2904 Clouds 14 1024 88 10000 4.12 170 11:20 05.02.2021
2905 Clouds 14 1024 82 10000 5.14 170 10:49 05.02.2021
2906 Clouds 14 1024 82 10000 6.17 150 10:25 05.02.2021
2907 Clouds 14 1023 88 10000 6.17 160 09:43 05.02.2021
2908 Rain 14 1023 88 10000 6.17 150 09:24 05.02.2021
2909 Clouds 14 1023 88 10000 6.17 150 08:45 05.02.2021
2910 Clouds 14 1023 82 10000 7.2 170 07:52 05.02.2021
2911 Clouds 14 1023 77 10000 7.72 170 07:34 05.02.2021
2912 Clouds 15 1023 82 10000 7.2 170 06:42 05.02.2021
2913 Clouds 15 1023 77 10000 8.23 170 05:35 05.02.2021
2914 Clouds 15 1024 82 10000 9.26 180 02:27 05.02.2021
2915 Clouds 15 1024 77 10000 8.75 180 01:59 05.02.2021
2916 Clouds 15 1024 77 10000 8.75 180 00:38 05.02.2021
2917 Clouds 15 1024 77 10000 8.75 180 00:19 05.02.2021
2918 Clouds 14 1024 72 10000 9.77 180 23:55 04.02.2021
2919 Clouds 15 1024 72 10000 9.26 180 23:36 04.02.2021
2920 Clouds 14 1024 72 10000 9.26 180 23:18 04.02.2021
2921 Clouds 14 1024 67 10000 10.29 180 22:43 04.02.2021
2922 Clouds 14 1025 77 10000 8.75 180 22:25 04.02.2021
2923 Clouds 13 1024 72 10000 9.26 190 21:42 04.02.2021
2924 Clouds 13 1024 72 10000 9.26 190 21:19 04.02.2021
2925 Clouds 13 1024 72 10000 9.77 190 20:46 04.02.2021
2926 Clouds 13 1024 72 9000 10.29 190 20:26 04.02.2021
2927 Clouds 13 1024 72 10000 10.8 190 19:42 04.02.2021
2928 Clouds 13 1024 72 10000 9.26 180 18:51 04.02.2021
2929 Clear 12 1024 71 10000 10.29 190 18:25 04.02.2021
2930 Clear 12 1024 71 10000 9.26 180 17:53 04.02.2021
2931 Clouds 12 1024 71 10000 9.77 180 17:25 04.02.2021
2932 Clouds 12 1024 71 10000 9.26 170 16:56 04.02.2021
2933 Clouds 12 1024 71 10000 9.77 170 16:38 04.02.2021
2934 Clouds 13 1024 71 10000 9.77 170 16:18 04.02.2021
2935 Clouds 13 1024 71 10000 9.77 170 15:39 04.02.2021
2936 Clouds 13 1024 71 10000 9.77 170 15:20 04.02.2021
2937 Clouds 13 1025 67 10000 9.77 170 14:42 04.02.2021
2938 Clouds 13 1025 67 10000 9.77 170 14:20 04.02.2021
2939 Clouds 13 1025 67 10000 9.77 170 13:45 04.02.2021
2940 Clouds 13 1025 72 10000 10.8 170 13:20 04.02.2021
2941 Clouds 13 1025 67 10000 9.77 170 12:52 04.02.2021
2942 Clouds 13 1025 67 10000 10.29 160 11:54 04.02.2021
2943 Clouds 13 1025 72 10000 10.29 160 11:34 04.02.2021
2944 Clouds 13 1025 72 10000 10.29 170 10:54 04.02.2021
2945 Clouds 13 1025 67 10000 10.29 160 10:33 04.02.2021
2946 Clouds 13 1025 72 10000 10.29 160 09:45 04.02.2021
2947 Clouds 13 1025 72 10000 10.8 160 09:20 04.02.2021
2948 Clouds 13 1025 72 10000 10.8 150 08:51 04.02.2021
2949 Clear 14 1025 72 10000 10.29 150 08:25 04.02.2021
2950 Clear 14 1025 67 10000 10.29 150 07:51 04.02.2021
2951 Clear 14 1024 67 10000 10.8 150 07:32 04.02.2021
2952 Rain 15 1024 67 10000 11.32 150 06:45 04.02.2021
2953 Clouds 16 1025 67 10000 11.32 160 05:45 04.02.2021
2954 Clouds 16 1025 63 10000 10.29 170 02:30 04.02.2021
2955 Clouds 17 1025 63 10000 9.77 160 01:24 04.02.2021
2956 Clouds 16 1025 67 10000 9.77 160 23:55 03.02.2021
2957 Clouds 16 1025 67 10000 10.29 170 23:30 03.02.2021
2958 Clouds 16 1025 67 10000 8.75 170 22:38 03.02.2021
2959 Clouds 16 1025 67 10000 8.75 170 22:20 03.02.2021
2960 Clouds 16 1025 72 10000 8.75 170 21:51 03.02.2021
2961 Clouds 15 1024 72 10000 8.75 170 21:24 03.02.2021
2962 Clouds 15 1024 77 10000 8.75 170 20:51 03.02.2021
2963 Clouds 15 1024 77 10000 8.23 170 20:31 03.02.2021
2964 Clouds 15 1024 77 10000 8.75 180 19:55 03.02.2021
2965 Clouds 15 1024 82 10000 8.75 170 19:25 03.02.2021
2966 Clouds 15 1023 88 10000 8.23 180 18:58 03.02.2021
2967 Clouds 15 1023 82 10000 7.72 180 18:37 03.02.2021
2968 Rain 15 1023 82 10000 7.72 180 18:19 03.02.2021
2969 Clouds 15 1022 88 10000 7.2 180 17:44 03.02.2021
2970 Clouds 15 1022 88 10000 7.2 180 17:24 03.02.2021
2971 Clouds 15 1021 88 10000 4.63 180 16:42 03.02.2021
2972 Clouds 15 1021 88 10000 4.63 180 16:22 03.02.2021
2973 Clouds 15 1021 88 10000 6.17 170 15:40 03.02.2021
2974 Clouds 15 1021 88 10000 6.17 170 15:22 03.02.2021
2975 Rain 15 1021 88 10000 5.66 190 14:45 03.02.2021
2976 Clear 15 1021 88 10000 7.2 200 14:22 03.02.2021
2977 Clear 15 1021 94 10000 6.69 200 13:47 03.02.2021
2978 Clear 15 1021 88 10000 5.66 200 13:21 03.02.2021
2979 Clear 15 1020 88 10000 4.63 200 12:42 03.02.2021
2980 Clear 16 1020 88 10000 4.63 200 12:20 03.02.2021
2981 Rain 16 1020 82 10000 7.2 220 11:42 03.02.2021
2982 Clear 16 1020 82 10000 7.2 220 11:23 03.02.2021
2983 Clear 16 1019 82 10000 6.69 220 10:41 03.02.2021
2984 Clear 16 1019 82 10000 6.69 220 10:19 03.02.2021
2985 Clear 17 1019 82 10000 3.6 210 09:43 03.02.2021
2986 Clear 17 1018 82 10000 5.66 220 09:20 03.02.2021
2987 Clear 18 1018 77 10000 5.66 220 08:48 03.02.2021
2988 Rain 19 1017 63 10000 3.6 220 07:58 03.02.2021
2989 Clear 20 1017 63 10000 4.63 220 07:19 03.02.2021
2990 Clear 20 1017 68 10000 4.63 210 06:38 03.02.2021
2991 Clear 21 1017 64 10000 4.63 210 04:49 03.02.2021
2992 Clear 20 1017 72 10000 5.14 200 03:53 03.02.2021
2993 Clear 20 1017 68 10000 5.14 200 02:42 03.02.2021
2994 Clear 21 1017 68 10000 4.12 190 01:48 03.02.2021
2995 Clear 21 1017 56 10000 4.63 10 00:25 03.02.2021
2996 Clear 21 1017 56 10000 4.12 10 23:44 02.02.2021
2997 Clear 21 1017 60 10000 4.12 10 23:26 02.02.2021
2998 Clear 20 1017 60 10000 4.12 20 22:51 02.02.2021
2999 Clear 19 1017 68 10000 3.6 10 22:21 02.02.2021
3000 Clear 18 1017 72 10000 4.12 10 21:47 02.02.2021
3001 Rain 17 1017 72 10000 3.6 10 21:27 02.02.2021
3002 Clear 16 1017 77 10000 4.12 360 20:50 02.02.2021
3003 Rain 15 1017 82 10000 4.12 360 20:23 02.02.2021
3004 Rain 15 1017 82 10000 3.09 20 19:58 02.02.2021
3005 Clear 14 1018 82 10000 2.06 360 19:39 02.02.2021
3006 Clouds 13 1018 82 10000 2.06 360 19:21 02.02.2021
3007 Clouds 12 1018 82 10000 3.09 20 18:41 02.02.2021
3008 Clouds 12 1018 82 10000 3.09 20 18:22 02.02.2021
3009 Clouds 12 1017 82 10000 2.57 20 17:40 02.02.2021
3010 Rain 12 1017 82 10000 2.57 20 17:21 02.02.2021
3011 Clouds 13 1017 82 10000 2.57 40 16:50 02.02.2021
3012 Rain 13 1018 82 10000 2.06 360 16:31 02.02.2021
3013 Rain 12 1017 88 10000 2.57 20 15:57 02.02.2021
3014 Rain 13 1018 82 10000 1.54 30 15:33 02.02.2021
3015 Rain 13 1018 82 10000 1.03 20 14:56 02.02.2021
3016 Clouds 13 1018 88 10000 1.03 270 14:37 02.02.2021
3017 Rain 13 1018 88 10000 1.03 270 14:18 02.02.2021
3018 Clouds 13 1018 77 10000 1.03 80 13:42 02.02.2021
3019 Clouds 14 1018 77 10000 1.03 80 13:22 02.02.2021
3020 Rain 14 1018 88 10000 1.54 240 12:51 02.02.2021
3021 Rain 15 1018 82 10000 1.54 170 12:22 02.02.2021
3022 Rain 15 1018 77 10000 1.03 20 11:38 02.02.2021
3023 Clouds 15 1018 77 10000 1.03 20 11:18 02.02.2021
3024 Clouds 16 1018 82 10000 0.51 260 10:43 02.02.2021
3025 Clouds 16 1018 82 10000 1.54 200 10:25 02.02.2021
3026 Clouds 17 1017 82 10000 2.06 180 09:45 02.02.2021
3027 Rain 18 1017 77 10000 1.54 160 09:21 02.02.2021
3028 Clouds 19 1016 68 10000 2.57 200 08:38 02.02.2021
3029 Clouds 19 1016 72 10000 3.6 210 07:46 02.02.2021
3030 Clouds 20 1017 72 10000 3.6 200 06:49 02.02.2021
3031 Clouds 21 1017 72 10000 4.12 200 06:31 02.02.2021
3032 Clouds 21 1017 72 10000 4.12 200 06:31 02.02.2021
3033 Clouds 21 1017 72 10000 4.12 210 05:50 02.02.2021
3034 Clouds 20 1018 68 10000 5.66 170 03:35 02.02.2021
3035 Clouds 20 1019 68 10000 5.14 180 02:24 02.02.2021
3036 Clear 19 1020 63 10000 4.12 200 00:38 02.02.2021
3037 Clear 20 1020 68 10000 4.12 190 23:55 01.02.2021
3038 Clear 19 1021 82 10000 3.6 190 22:57 01.02.2021
3039 Clear 19 1021 82 10000 3.6 190 22:57 01.02.2021
3040 Clear 19 1021 82 10000 3.6 190 22:57 01.02.2021
3041 Clear 19 1021 72 10000 3.09 190 22:38 01.02.2021
3042 Clear 18 1021 72 10000 3.09 190 22:19 01.02.2021
3043 Clear 17 1021 82 10000 2.57 190 21:43 01.02.2021
3044 Clear 16 1021 77 10000 1.54 200 21:22 01.02.2021
3045 Clear 17 1021 72 10000 1.03 50 20:42 01.02.2021
3046 Clear 14 1021 82 10000 1.54 80 20:24 01.02.2021
3047 Rain 13 1021 82 10000 1.03 50 19:42 01.02.2021
3048 Rain 11 1021 82 10000 0.51 70 19:21 01.02.2021
3049 Clear 11 1020 87 10000 0.51 10 18:51 01.02.2021
3050 Rain 11 1021 87 10000 1.54 40 18:29 01.02.2021
3051 Rain 11 1020 87 10000 1.03 360 17:48 01.02.2021
3052 Clouds 11 1020 88 10000 1.03 70 17:27 01.02.2021
3053 Clouds 11 1020 88 10000 1.03 70 16:58 01.02.2021
3054 Clouds 12 1020 82 10000 1.03 80 16:33 01.02.2021
3055 Clouds 12 1020 88 10000 1.03 30 15:50 01.02.2021
3056 Clouds 12 1020 94 10000 1.54 30 15:21 01.02.2021
3057 Clouds 13 1021 88 10000 1.54 30 14:54 01.02.2021
3058 Clouds 13 1021 94 10000 1.54 30 14:35 01.02.2021
3059 Clouds 13 1021 94 10000 1.54 20 13:56 01.02.2021
3060 Clouds 14 1021 88 10000 1.03 50 13:38 01.02.2021
3061 Clouds 14 1021 88 10000 1.03 50 13:38 01.02.2021
3062 Clouds 14 1021 88 10000 1.03 50 13:19 01.02.2021
3063 Clouds 14 1021 88 10000 1.54 50 12:44 01.02.2021
3064 Clear 14 1021 88 10000 1.54 40 12:23 01.02.2021
3065 Clear 14 1021 88 10000 1.03 300 11:42 01.02.2021
3066 Rain 14 1021 88 10000 1.03 300 11:20 01.02.2021
3067 Clear 15 1021 82 10000 2.57 240 10:46 01.02.2021
3068 Clear 15 1021 82 10000 6.17 230 10:20 01.02.2021
3069 Clear 16 1020 82 10000 8.23 230 09:44 01.02.2021
3070 Clear 17 1020 82 10000 8.75 230 09:24 01.02.2021
3071 Rain 18 1020 82 10000 7.72 220 08:51 01.02.2021
3072 Clear 18 1020 77 10000 7.2 220 07:53 01.02.2021
3073 Clear 20 1020 77 10000 7.2 220 06:34 01.02.2021
3074 Clear 19 1022 72 10000 5.14 210 04:21 01.02.2021
3075 Clear 18 1022 77 10000 5.14 190 01:31 01.02.2021
3076 Clouds 20 1022 64 10000 4.63 10 23:45 31.01.2021
3077 Clouds 18 1022 68 10000 5.66 360 22:44 31.01.2021
3078 Clouds 17 1022 72 10000 6.17 360 22:25 31.01.2021
3079 Clouds 17 1022 72 10000 6.69 360 21:55 31.01.2021
3080 Clouds 16 1022 72 10000 7.2 10 21:26 31.01.2021
3081 Clouds 16 1022 77 10000 7.72 10 20:59 31.01.2021
3082 Clouds 15 1022 72 10000 8.75 10 20:37 31.01.2021
3083 Clouds 15 1022 72 10000 8.75 10 20:18 31.01.2021
3084 Clouds 14 1021 82 10000 5.66 20 19:37 31.01.2021
3085 Clouds 13 1021 82 10000 5.66 20 19:19 31.01.2021
3086 Clouds 14 1021 72 10000 6.17 360 18:42 31.01.2021
3087 Clouds 14 1021 72 10000 6.17 360 18:23 31.01.2021
3088 Clouds 14 1021 77 10000 6.17 10 17:49 31.01.2021
3089 Clear 13 1021 77 10000 6.69 360 17:24 31.01.2021
3090 Clear 12 1021 77 10000 5.66 360 16:58 31.01.2021
3091 Clear 12 1021 77 10000 5.14 10 16:39 31.01.2021
3092 Clear 13 1021 77 10000 5.14 10 16:19 31.01.2021
3093 Clear 13 1021 82 10000 6.17 360 15:43 31.01.2021
3094 Clear 13 1022 77 10000 6.17 10 14:50 31.01.2021
3095 Clear 14 1022 77 10000 6.69 10 14:28 31.01.2021
3096 Clear 14 1022 67 10000 5.14 20 13:57 31.01.2021
3097 Clear 13 1022 67 10000 4.12 20 13:38 31.01.2021
3098 Clear 13 1022 67 10000 4.12 10 12:56 31.01.2021
3099 Clear 13 1022 72 10000 4.12 10 12:37 31.01.2021
3100 Rain 14 1022 72 10000 4.12 10 12:19 31.01.2021
3101 Clear 14 1022 67 10000 3.6 30 11:38 31.01.2021
3102 Clear 14 1022 67 10000 3.6 30 11:19 31.01.2021
3103 Clear 15 1022 55 10000 3.6 40 10:44 31.01.2021
3104 Clear 15 1022 55 10000 3.09 30 10:25 31.01.2021
3105 Clear 16 1021 55 10000 5.14 360 09:33 31.01.2021
3106 Clear 18 1021 48 10000 4.63 10 08:34 31.01.2021
3107 Clear 20 1021 45 10000 5.14 360 07:50 31.01.2021
3108 Clear 19 1022 55 10000 2.57 220 06:25 31.01.2021
3109 Clear 19 1023 63 10000 4.63 200 01:55 31.01.2021
3110 Rain 18 1024 52 10000 2.06 200 00:28 31.01.2021
3111 Rain 18 1025 63 10000 3.09 180 23:42 30.01.2021
3112 Clear 18 1025 63 10000 3.09 180 23:20 30.01.2021
3113 Clear 17 1025 59 10000 1.03 350 22:37 30.01.2021
3114 Clear 17 1025 59 10000 1.03 350 22:37 30.01.2021
3115 Clear 16 1025 63 10000 1.54 360 21:43 30.01.2021
3116 Rain 14 1025 67 10000 2.06 30 21:24 30.01.2021
3117 Rain 14 1025 77 10000 2.57 40 20:55 30.01.2021
3118 Clear 13 1025 82 10000 2.57 40 20:35 30.01.2021
3119 Rain 11 1025 87 10000 1.54 40 19:58 30.01.2021
3120 Rain 11 1025 87 10000 1.03 20 19:39 30.01.2021
3121 Rain 9 1025 87 10000 1.03 20 19:19 30.01.2021
3122 Clear 10 1025 87 10000 1.54 80 18:40 30.01.2021
3123 Clear 10 1025 87 10000 1.54 80 18:20 30.01.2021
3124 Clear 10 1024 87 10000 1.54 40 17:45 30.01.2021
3125 Rain 10 1024 82 10000 1.54 70 17:18 30.01.2021
3126 Clouds 11 1024 82 10000 1.03 20 16:41 30.01.2021
3127 Rain 11 1024 82 10000 1.03 20 16:22 30.01.2021
3128 Clouds 11 1024 82 10000 1.03 60 15:49 30.01.2021
3129 Rain 12 1024 77 10000 1.03 90 15:24 30.01.2021
3130 Clouds 12 1024 82 10000 1.54 100 14:52 30.01.2021
3131 Clouds 12 1024 82 10000 1.54 140 14:32 30.01.2021
3132 Rain 12 1024 82 10000 2.06 150 13:57 30.01.2021
3133 Clouds 12 1025 77 10000 2.57 140 13:21 30.01.2021
3134 Rain 12 1025 77 10000 2.57 140 12:44 30.01.2021
3135 Rain 12 1025 77 10000 3.6 140 12:26 30.01.2021
3136 Rain 12 1025 77 10000 4.12 140 11:46 30.01.2021
3137 Rain 13 1025 72 10000 4.12 140 10:57 30.01.2021
3138 Clouds 13 1024 77 10000 5.14 150 10:28 30.01.2021
3139 Rain 13 1024 72 10000 6.17 150 09:42 30.01.2021
3140 Clouds 13 1024 72 10000 6.17 150 09:24 30.01.2021
3141 Rain 14 1024 72 10000 6.69 160 08:44 30.01.2021
3142 Clear 15 1023 63 10000 7.72 160 07:42 30.01.2021
3143 Clear 16 1023 63 10000 7.2 160 06:32 30.01.2021
3144 Clear 17 1023 59 10000 8.23 160 03:53 30.01.2021
3145 Clear 17 1023 55 10000 8.75 160 03:31 30.01.2021
3146 Clouds 17 1023 55 10000 8.75 160 02:22 30.01.2021
3147 Clouds 16 1023 59 10000 9.77 170 00:56 30.01.2021
3148 Clouds 16 1023 63 10000 9.26 170 00:27 30.01.2021
3149 Clouds 15 1023 63 10000 8.75 170 23:54 29.01.2021
3150 Clouds 15 1023 63 10000 9.77 170 23:28 29.01.2021
3151 Rain 15 1022 59 10000 10.8 170 22:47 29.01.2021
3152 Rain 15 1022 63 10000 9.77 170 22:28 29.01.2021
3153 Rain 14 1022 67 10000 10.29 180 21:59 29.01.2021
3154 Rain 14 1022 67 10000 10.8 170 21:27 29.01.2021
3155 Clouds 14 1021 63 10000 10.29 170 20:43 29.01.2021
3156 Rain 13 1021 67 10000 9.77 170 20:24 29.01.2021
3157 Clouds 13 1020 72 10000 10.29 170 19:40 29.01.2021
3158 Rain 13 1020 72 10000 10.29 170 19:21 29.01.2021
3159 Rain 13 1020 67 10000 10.29 170 18:55 29.01.2021
3160 Rain 13 1020 67 10000 9.77 170 17:50 29.01.2021
3161 Rain 13 1019 67 10000 10.29 180 17:23 29.01.2021
3162 Rain 13 1019 67 10000 11.32 170 16:54 29.01.2021
3163 Rain 13 1019 72 10000 9.77 180 16:28 29.01.2021
3164 Rain 13 1019 72 10000 10.8 180 15:59 29.01.2021
3165 Clouds 13 1019 67 10000 10.29 170 15:41 29.01.2021
3166 Rain 13 1019 67 10000 10.29 170 15:21 29.01.2021
3167 Rain 13 1019 67 10000 10.29 170 14:23 29.01.2021
3168 Rain 13 1019 67 10000 10.29 170 13:57 29.01.2021
3169 Clouds 13 1018 67 10000 10.29 170 13:33 29.01.2021
3170 Rain 13 1018 67 10000 10.29 170 12:43 29.01.2021
3171 Rain 13 1018 67 10000 10.29 170 12:19 29.01.2021
3172 Rain 13 1018 67 10000 10.8 170 11:44 29.01.2021
3173 Rain 13 1018 67 10000 10.8 170 11:18 29.01.2021
3174 Rain 13 1018 67 10000 9.77 170 10:46 29.01.2021
3175 Clouds 13 1017 67 10000 9.77 160 10:23 29.01.2021
3176 Rain 13 1016 67 10000 9.77 160 09:39 29.01.2021
3177 Rain 13 1016 62 10000 11.32 150 08:50 29.01.2021
3178 Clouds 13 1016 62 10000 10.8 150 08:27 29.01.2021
3179 Rain 14 1016 67 10000 9.26 160 07:48 29.01.2021
3180 Clouds 14 1015 63 10000 9.77 170 07:30 29.01.2021
3181 Clear 15 1015 58 10000 10.29 160 06:49 29.01.2021
3182 Rain 16 1015 55 10000 8.75 160 04:53 29.01.2021
3183 Clouds 16 1015 55 10000 9.77 180 02:26 29.01.2021
3184 Clouds 15 1015 62 10000 9.77 180 00:37 29.01.2021
3185 Clouds 14 1015 62 10000 9.77 180 00:19 29.01.2021
3186 Clouds 14 1014 72 10000 10.8 180 23:41 28.01.2021
3187 Clouds 13 1014 72 10000 10.8 180 23:22 28.01.2021
3188 Clouds 12 1014 82 10000 11.32 180 22:42 28.01.2021
3189 Clouds 12 1014 71 10000 9.26 180 22:24 28.01.2021
3190 Clouds 12 1014 76 10000 9.77 180 21:48 28.01.2021
3191 Clouds 12 1014 76 10000 9.77 180 21:30 28.01.2021
3192 Drizzle 11 1013 71 10000 10.29 180 20:47 28.01.2021
3193 Rain 11 1013 82 10000 10.29 190 20:20 28.01.2021
3194 Rain 11 1013 87 7000 10.29 180 19:59 28.01.2021
3195 Rain 11 1012 82 9000 10.8 190 19:36 28.01.2021
3196 Rain 11 1012 82 9000 10.8 190 19:18 28.01.2021
3197 Rain 11 1012 71 10000 10.8 190 18:41 28.01.2021
3198 Rain 11 1012 71 10000 10.8 190 18:19 28.01.2021
3199 Rain 11 1011 82 10000 12.35 200 17:44 28.01.2021
3200 Rain 11 1011 82 10000 10.8 190 17:24 28.01.2021
3201 Rain 11 1011 76 10000 10.8 190 16:44 28.01.2021
3202 Rain 12 1011 82 10000 10.8 190 16:21 28.01.2021
3203 Rain 12 1011 88 6000 11.32 200 15:39 28.01.2021
3204 Rain 12 1011 72 10000 7.72 190 14:58 28.01.2021
3205 Rain 12 1011 77 10000 5.66 180 14:39 28.01.2021
3206 Rain 13 1011 77 10000 5.66 180 14:20 28.01.2021
3207 Rain 13 1011 77 10000 5.66 180 14:20 28.01.2021
3208 Rain 13 1011 77 10000 5.66 180 14:20 28.01.2021
3209 Clouds 13 1011 72 10000 6.17 180 13:44 28.01.2021
3210 Rain 13 1011 72 10000 6.69 180 12:53 28.01.2021
3211 Clouds 13 1011 82 10000 5.66 200 12:34 28.01.2021
3212 Rain 13 1011 82 10000 5.14 170 11:59 28.01.2021
3213 Rain 13 1011 82 10000 6.17 170 11:40 28.01.2021
3214 Rain 13 1011 82 10000 6.17 170 11:19 28.01.2021
3215 Rain 13 1010 72 10000 6.69 170 10:50 28.01.2021
3216 Clouds 13 1010 72 10000 8.23 160 10:32 28.01.2021
3217 Clouds 13 1010 72 10000 6.69 160 09:44 28.01.2021
3218 Rain 12 1010 76 10000 7.2 160 09:22 28.01.2021
3219 Rain 12 1009 76 10000 9.77 170 08:54 28.01.2021
3220 Rain 12 1009 82 10000 9.77 160 08:18 28.01.2021
3221 Rain 11 1009 87 10000 11.32 170 07:44 28.01.2021
3222 Mist 12 1008 100 3100 13.38 180 06:49 28.01.2021
3223 Clouds 16 1004 82 10000 7.72 170 05:35 28.01.2021
3224 Clouds 20 1002 64 10000 7.72 330 03:49 28.01.2021
3225 Clouds 18 1004 88 9000 11.32 340 01:37 28.01.2021
3226 Clouds 18 1004 88 10000 11.32 340 23:47 27.01.2021
3227 Rain 18 1004 88 10000 10.29 350 23:23 27.01.2021
3228 Clouds 18 1005 82 10000 7.2 340 22:41 27.01.2021
3229 Rain 18 1005 82 10000 7.2 340 22:21 27.01.2021
3230 Clouds 18 1005 82 10000 8.23 350 21:43 27.01.2021
3231 Clouds 18 1005 82 10000 9.26 350 21:23 27.01.2021
3232 Clouds 18 1006 82 10000 8.23 340 20:52 27.01.2021
3233 Rain 17 1005 88 10000 9.26 350 20:23 27.01.2021
3234 Rain 17 1005 82 10000 9.77 350 19:49 27.01.2021
3235 Rain 17 1005 82 10000 10.8 350 19:23 27.01.2021
3236 Rain 17 1005 82 10000 10.8 350 19:23 27.01.2021
3237 Rain 17 1006 82 10000 9.77 350 18:46 27.01.2021
3238 Clouds 17 1006 82 10000 11.32 350 18:24 27.01.2021
3239 Rain 17 1006 82 10000 12.86 360 17:55 27.01.2021
3240 Clouds 17 1006 82 10000 12.35 360 17:35 27.01.2021
3241 Rain 17 1006 82 10000 11.83 360 16:57 27.01.2021
3242 Rain 17 1007 82 10000 10.8 350 16:39 27.01.2021
3243 Rain 16 1007 82 10000 10.8 350 16:20 27.01.2021
3244 Clouds 16 1007 82 10000 12.35 360 15:49 27.01.2021
3245 Clouds 16 1007 82 10000 12.35 360 15:49 27.01.2021
3246 Clouds 16 1007 82 10000 13.38 360 15:29 27.01.2021
3247 Clouds 17 1008 77 10000 12.86 360 14:24 27.01.2021
3248 Clouds 17 1008 82 10000 11.32 10 13:53 27.01.2021
3249 Clouds 17 1009 77 10000 10.29 10 13:35 27.01.2021
3250 Clouds 17 1009 77 10000 10.29 10 12:42 27.01.2021
3251 Clouds 17 1009 77 10000 10.29 10 12:23 27.01.2021
3252 Clouds 17 1009 82 10000 11.32 360 11:47 27.01.2021
3253 Clouds 17 1009 82 10000 11.83 360 11:23 27.01.2021
3254 Clouds 17 1010 82 10000 11.32 360 10:45 27.01.2021
3255 Clear 17 1009 82 10000 10.8 10 10:22 27.01.2021
3256 Clear 17 1009 82 10000 11.32 360 09:53 27.01.2021
3257 Clear 17 1009 82 10000 9.26 350 09:27 27.01.2021
3258 Clear 18 1009 77 10000 10.8 350 08:40 27.01.2021
3259 Clear 19 1009 77 10000 8.75 330 07:46 27.01.2021
3260 Clear 19 1009 77 10000 9.77 330 07:26 27.01.2021
3261 Clouds 21 1009 68 10000 11.83 360 06:25 27.01.2021
3262 Clouds 22 1009 64 10000 11.32 360 05:49 27.01.2021
3263 Clouds 22 1010 64 10000 9.77 350 04:57 27.01.2021
3264 Clouds 22 1011 60 10000 9.77 360 02:24 27.01.2021
3265 Clouds 22 1011 60 10000 8.23 350 01:57 27.01.2021
3266 Clouds 21 1012 68 10000 9.26 340 00:51 27.01.2021
3267 Rain 22 1012 64 10000 7.72 340 23:52 26.01.2021
3268 Clouds 22 1012 64 10000 7.2 350 23:32 26.01.2021
3269 Rain 21 1012 68 10000 8.75 360 22:52 26.01.2021
3270 Clouds 21 1012 68 10000 9.26 360 22:34 26.01.2021
3271 Clouds 20 1012 73 10000 10.29 10 21:59 26.01.2021
3272 Clouds 20 1012 77 10000 9.77 360 21:40 26.01.2021
3273 Clouds 19 1012 77 10000 9.77 360 21:21 26.01.2021
3274 Clouds 18 1013 82 10000 9.26 10 20:41 26.01.2021
3275 Clouds 18 1013 82 10000 9.26 10 20:22 26.01.2021
3276 Clouds 18 1012 82 10000 9.26 10 19:48 26.01.2021
3277 Clouds 17 1012 88 10000 9.26 10 19:29 26.01.2021
3278 Rain 17 1012 88 10000 9.26 10 18:57 26.01.2021
3279 Clouds 17 1012 88 10000 8.75 360 18:37 26.01.2021
3280 Rain 17 1012 88 10000 8.75 360 18:18 26.01.2021
3281 Rain 17 1012 88 10000 9.26 10 17:46 26.01.2021
3282 Clouds 17 1012 88 10000 9.26 10 17:20 26.01.2021
3283 Rain 17 1012 88 10000 8.75 10 16:41 26.01.2021
3284 Clouds 17 1012 88 10000 8.75 10 16:20 26.01.2021
3285 Rain 17 1012 88 10000 8.23 10 15:48 26.01.2021
3286 Rain 17 1012 88 10000 9.26 350 15:27 26.01.2021
3287 Rain 17 1012 88 10000 9.77 350 14:49 26.01.2021
3288 Clouds 17 1013 88 10000 9.26 360 14:29 26.01.2021
3289 Rain 17 1012 88 10000 9.77 350 13:39 26.01.2021
3290 Rain 17 1012 88 10000 9.77 350 13:21 26.01.2021
3291 Clouds 17 1012 88 10000 11.32 350 12:44 26.01.2021
3292 Clear 18 1012 82 10000 11.32 350 12:25 26.01.2021
3293 Clear 18 1012 82 10000 11.83 350 11:58 26.01.2021
3294 Clear 17 1012 88 10000 10.8 350 11:38 26.01.2021
3295 Clear 18 1012 88 10000 9.26 350 10:47 26.01.2021
3296 Clear 18 1012 82 10000 9.26 350 10:29 26.01.2021
3297 Clear 18 1012 77 10000 9.26 350 09:47 26.01.2021
3298 Clear 18 1011 77 10000 10.29 350 09:26 26.01.2021
3299 Clear 18 1011 73 10000 10.8 340 08:53 26.01.2021
3300 Clear 19 1011 68 10000 9.26 350 08:29 26.01.2021
3301 Clear 20 1011 68 10000 9.26 350 07:43 26.01.2021
3302 Clear 22 1010 53 10000 11.32 360 06:21 26.01.2021
3303 Clear 24 1010 47 10000 11.32 10 05:42 26.01.2021
3304 Clear 24 1011 60 10000 11.32 10 04:28 26.01.2021
3305 Clear 24 1011 53 10000 11.32 10 02:44 26.01.2021
3306 Clear 22 1012 64 10000 10.29 360 00:56 26.01.2021
3307 Clear 22 1011 68 10000 10.29 10 23:39 25.01.2021
3308 Clear 21 1012 68 10000 10.8 10 22:57 25.01.2021
3309 Clear 21 1012 73 10000 10.29 360 22:38 25.01.2021
3310 Clear 20 1012 77 10000 8.75 360 21:50 25.01.2021
3311 Clear 19 1012 77 10000 8.75 10 21:28 25.01.2021
3312 Clouds 19 1012 82 10000 7.72 10 20:52 25.01.2021
3313 Clear 18 1012 77 10000 7.72 10 20:33 25.01.2021
3314 Clouds 18 1012 82 10000 7.2 10 19:52 25.01.2021
3315 Clouds 17 1011 88 10000 6.17 360 19:32 25.01.2021
3316 Clouds 16 1011 88 10000 5.66 350 18:49 25.01.2021
3317 Clouds 16 1011 94 10000 4.12 10 18:28 25.01.2021
3318 Clouds 16 1010 88 10000 5.66 350 17:58 25.01.2021
3319 Clouds 16 1010 88 10000 4.12 10 17:40 25.01.2021
3320 Clear 16 1010 88 10000 4.12 10 17:22 25.01.2021
3321 Clear 16 1011 88 10000 4.12 10 16:41 25.01.2021
3322 Clear 17 1011 88 10000 4.12 10 16:22 25.01.2021
3323 Clouds 17 1010 88 10000 5.66 10 15:49 25.01.2021
3324 Clouds 17 1010 88 10000 5.66 10 15:29 25.01.2021
3325 Clear 17 1010 77 10000 7.72 10 14:50 25.01.2021
3326 Clouds 17 1010 82 10000 7.72 10 14:19 25.01.2021
3327 Clouds 17 1010 82 10000 8.23 20 13:54 25.01.2021
3328 Clouds 17 1010 77 10000 8.23 10 13:28 25.01.2021
3329 Clouds 17 1010 77 10000 8.75 20 12:46 25.01.2021
3330 Clouds 17 1009 77 10000 8.75 20 12:24 25.01.2021
3331 Clouds 17 1009 77 10000 8.23 20 11:55 25.01.2021
3332 Clouds 17 1009 77 10000 9.26 20 11:19 25.01.2021
3333 Clouds 17 1009 72 10000 9.77 20 10:42 25.01.2021
3334 Clouds 17 1009 72 10000 9.77 20 10:20 25.01.2021
3335 Clouds 17 1008 72 10000 10.8 10 09:46 25.01.2021
3336 Rain 17 1008 72 10000 10.8 10 09:27 25.01.2021
3337 Clouds 18 1007 68 10000 12.86 10 08:30 25.01.2021
3338 Clouds 18 1007 68 10000 12.35 10 07:46 25.01.2021
3339 Clear 18 1007 68 10000 11.83 10 07:26 25.01.2021
3340 Rain 19 1006 68 10000 13.38 10 06:22 25.01.2021
3341 Clear 22 1008 56 10000 10.8 10 01:34 25.01.2021
3342 Clear 21 1008 56 10000 9.77 10 00:31 25.01.2021
3343 Clear 20 1008 56 10000 10.29 10 23:20 24.01.2021
3344 Clear 20 1008 60 10000 9.77 10 22:47 24.01.2021
3345 Clouds 19 1009 64 10000 9.26 10 22:27 24.01.2021
3346 -273 0 0 0 0 0 22:26 24.01.2021
3347 Clouds 19 1009 64 10000 9.26 10 22:25 24.01.2021
3348 Clear 19 1009 68 10000 8.75 10 21:51 24.01.2021
3349 Clear 18 1008 68 10000 7.72 10 21:24 24.01.2021
3350 Clear 17 1008 68 10000 7.2 20 20:46 24.01.2021
3351 Clear 17 1008 72 10000 6.69 20 20:22 24.01.2021
3352 Clear 16 1008 77 10000 6.69 20 19:55 24.01.2021
3353 Clouds 15 1008 77 10000 6.17 20 19:28 24.01.2021
3354 Clouds 14 1008 82 10000 6.17 20 18:59 24.01.2021
3355 Clouds 14 1007 82 10000 6.17 20 18:40 24.01.2021
3356 Clouds 14 1007 82 10000 6.17 20 18:21 24.01.2021
3357 Clouds 14 1007 82 10000 6.69 20 17:51 24.01.2021
3358 Clouds 15 1007 77 10000 6.69 20 17:31 24.01.2021
3359 Clouds 15 1007 77 10000 6.69 20 16:59 24.01.2021
3360 Clouds 15 1007 77 10000 7.2 20 16:40 24.01.2021
3361 Clouds 15 1007 77 10000 7.2 20 16:20 24.01.2021
3362 Clouds 15 1007 77 10000 6.69 20 15:45 24.01.2021
3363 Clouds 15 1007 77 10000 7.2 20 15:20 24.01.2021
3364 Clouds 15 1007 77 10000 6.17 20 14:47 24.01.2021
3365 Clouds 16 1007 77 10000 6.69 20 14:24 24.01.2021
3366 Clouds 16 1006 77 10000 9.26 20 13:34 24.01.2021
3367 Clouds 15 1006 77 10000 8.23 20 12:51 24.01.2021
3368 Clouds 15 1006 77 10000 8.75 20 12:22 24.01.2021
3369 Clouds 15 1005 77 10000 9.26 20 11:55 24.01.2021
3370 Clouds 15 1006 77 10000 9.77 20 11:27 24.01.2021
3371 Clouds 15 1006 77 10000 9.77 30 10:59 24.01.2021
3372 Rain 15 1005 77 10000 11.32 10 10:30 24.01.2021
3373 Clouds 16 1005 72 10000 10.8 20 09:47 24.01.2021
3374 Clouds 16 1005 72 10000 10.8 20 09:47 24.01.2021
3375 Clouds 16 1005 72 10000 10.8 20 09:19 24.01.2021
3376 Clouds 16 1005 72 10000 12.35 10 08:38 24.01.2021
3377 Clouds 20 1006 60 10000 12.35 10 03:51 24.01.2021
3378 Clear 20 1007 53 10000 10.8 10 02:19 24.01.2021
3379 Clouds 20 1007 53 10000 10.29 360 00:56 24.01.2021
3380 Clouds 20 1007 56 10000 10.8 360 00:21 24.01.2021
3381 Clouds 20 1007 52 10000 9.77 360 23:41 23.01.2021
3382 Clouds 20 1007 52 10000 9.77 360 23:20 23.01.2021
3383 Clouds 19 1007 64 10000 9.26 360 22:41 23.01.2021
3384 Clouds 19 1007 64 10000 9.26 360 22:20 23.01.2021
3385 Clouds 18 1006 68 10000 10.29 10 21:24 23.01.2021
3386 Clouds 18 1006 72 10000 9.26 10 20:58 23.01.2021
3387 Clouds 17 1006 72 10000 9.77 10 20:38 23.01.2021
3388 Clouds 17 1006 72 10000 9.77 10 20:20 23.01.2021
3389 Clouds 16 1006 82 10000 8.23 10 19:43 23.01.2021
3390 Clouds 16 1006 88 10000 8.75 10 19:20 23.01.2021
3391 Clouds 17 1006 77 10000 9.26 360 18:43 23.01.2021
3392 Clouds 16 1006 88 10000 8.23 10 18:23 23.01.2021
3393 Clouds 17 1006 82 10000 7.72 10 17:43 23.01.2021
3394 Clouds 17 1006 82 10000 7.72 10 17:24 23.01.2021
3395 Clouds 17 1006 82 10000 7.72 10 16:45 23.01.2021
3396 Clouds 17 1006 88 10000 7.2 360 15:58 23.01.2021
3397 Clouds 17 1006 88 10000 7.72 350 15:30 23.01.2021
3398 Rain 17 1007 88 10000 7.72 360 14:46 23.01.2021
3399 Clouds 17 1007 88 10000 8.23 360 14:25 23.01.2021
3400 Rain 17 1007 88 10000 8.23 360 13:50 23.01.2021
3401 Rain 17 1007 88 10000 9.26 350 13:26 23.01.2021
3402 Rain 17 1008 88 10000 9.77 350 12:46 23.01.2021
3403 Clouds 17 1008 88 10000 10.8 350 12:25 23.01.2021
3404 Clouds 17 1008 88 10000 10.8 350 11:44 23.01.2021
3405 Clouds 16 1008 94 10000 11.32 350 11:18 23.01.2021
3406 Rain 16 1009 88 10000 11.83 360 10:27 23.01.2021
3407 Clouds 16 1009 88 10000 11.83 360 09:54 23.01.2021
3408 Clouds 16 1009 88 10000 10.8 20 09:29 23.01.2021
3409 Clouds 16 1009 88 10000 9.26 20 08:44 23.01.2021
3410 Rain 16 1009 88 10000 9.77 20 07:49 23.01.2021
3411 Clouds 16 1009 82 10000 13.38 360 06:59 23.01.2021
3412 Clouds 17 1009 72 10000 12.35 10 03:34 23.01.2021
3413 Clouds 18 1009 68 10000 10.8 360 00:34 23.01.2021
3414 Clouds 17 1009 72 10000 10.29 350 23:36 22.01.2021
3415 Clouds 17 1009 72 10000 10.8 10 22:45 22.01.2021
3416 Clouds 17 1009 72 10000 11.83 360 22:21 22.01.2021
3417 Clouds 16 1009 72 10000 10.8 350 21:45 22.01.2021
3418 Clouds 16 1009 72 10000 10.8 10 21:24 22.01.2021
3419 Rain 17 1009 68 10000 10.8 360 20:51 22.01.2021
3420 Clouds 16 1008 77 10000 9.77 10 20:31 22.01.2021
3421 Clouds 15 1008 82 10000 10.29 360 19:48 22.01.2021
3422 Rain 15 1008 82 10000 10.29 10 19:21 22.01.2021
3423 Rain 15 1008 82 10000 9.77 360 18:48 22.01.2021
3424 Rain 15 1008 82 10000 9.26 360 18:26 22.01.2021
3425 Rain 15 1008 82 10000 8.75 10 17:52 22.01.2021
3426 Rain 16 1008 82 10000 8.23 20 17:33 22.01.2021
3427 Clouds 15 1008 82 10000 8.75 20 16:56 22.01.2021
3428 Rain 15 1008 88 10000 8.75 10 16:31 22.01.2021
3429 Rain 15 1008 88 10000 9.26 10 15:48 22.01.2021
3430 Rain 15 1008 88 10000 9.26 20 15:25 22.01.2021
3431 Rain 15 1008 88 10000 9.26 20 15:25 22.01.2021
3432 Rain 15 1009 82 10000 8.23 20 14:37 22.01.2021
3433 Rain 15 1009 82 10000 8.23 20 14:18 22.01.2021
3434 Rain 15 1009 82 10000 8.23 20 13:38 22.01.2021
3435 Rain 15 1009 82 10000 8.23 20 13:19 22.01.2021
3436 Clear 15 1010 82 10000 8.23 20 12:40 22.01.2021
3437 Clear 15 1010 82 10000 8.23 20 12:18 22.01.2021
3438 Clouds 15 1010 82 10000 8.23 20 11:38 22.01.2021
3439 Clear 15 1010 77 10000 8.23 20 10:48 22.01.2021
3440 Clear 15 1009 77 10000 7.72 20 10:24 22.01.2021
3441 Clouds 15 1009 77 10000 7.72 20 09:44 22.01.2021
3442 Clear 16 1008 67 10000 8.75 10 08:58 22.01.2021
3443 Clear 17 1008 63 10000 8.23 10 08:32 22.01.2021
3444 Rain 17 1008 63 10000 7.72 20 07:49 22.01.2021
3445 Rain 20 1008 49 10000 10.8 10 05:26 22.01.2021
3446 Clouds 19 1008 52 10000 7.72 350 01:54 22.01.2021
3447 Clouds 19 1008 52 10000 6.69 340 00:30 22.01.2021
3448 Clouds 19 1008 56 10000 7.72 360 23:49 21.01.2021
3449 Clouds 19 1008 52 10000 7.2 10 23:21 21.01.2021
3450 Clouds 18 1007 52 10000 5.14 10 22:48 21.01.2021
3451 Clear 17 1008 67 10000 3.09 340 21:59 21.01.2021
3452 Clear 16 1007 72 10000 2.57 40 21:40 21.01.2021
3453 Clear 16 1007 72 10000 2.57 40 21:19 21.01.2021
3454 Clear 14 1007 77 10000 3.09 10 20:46 21.01.2021
3455 Clouds 14 1007 82 10000 4.12 350 20:21 21.01.2021
3456 Clouds 13 1007 82 10000 3.6 40 19:50 21.01.2021
3457 Clouds 11 1006 87 10000 3.09 20 19:26 21.01.2021
3458 Clouds 11 1006 93 10000 1.54 20 18:49 21.01.2021
3459 Clouds 11 1005 87 10000 3.09 20 18:23 21.01.2021
3460 Clouds 12 1005 87 10000 2.57 40 17:59 21.01.2021
3461 Clouds 11 1005 87 10000 2.57 30 17:40 21.01.2021
3462 Clouds 11 1005 87 10000 2.57 30 17:18 21.01.2021
3463 Clouds 11 1004 87 10000 2.06 40 16:41 21.01.2021
3464 Clouds 11 1004 87 10000 2.06 40 16:22 21.01.2021
3465 Clouds 11 1004 82 10000 1.03 330 15:49 21.01.2021
3466 Clouds 12 1004 82 10000 0.51 10 15:28 21.01.2021
3467 Clouds 12 1004 76 10000 1.03 360 14:48 21.01.2021
3468 Clouds 12 1003 76 10000 1.54 70 14:29 21.01.2021
3469 Clouds 12 1003 72 10000 1.03 20 13:47 21.01.2021
3470 Clouds 13 1003 72 10000 1.54 130 13:26 21.01.2021
3471 Clouds 13 1003 72 10000 1.54 280 12:46 21.01.2021
3472 Clouds 13 1002 77 10000 1.54 220 12:25 21.01.2021
3473 Rain 14 1002 67 10000 2.06 170 11:56 21.01.2021
3474 Clouds 14 1002 67 10000 2.57 150 11:35 21.01.2021
3475 Clouds 15 1002 67 10000 6.17 160 10:53 21.01.2021
3476 Clouds 15 1001 72 10000 5.14 180 10:34 21.01.2021
3477 Clouds 15 1000 77 10000 5.14 210 09:56 21.01.2021
3478 Clouds 16 999 82 10000 7.2 220 09:37 21.01.2021
3479 Clouds 16 999 82 10000 7.2 220 09:18 21.01.2021
3480 Clouds 17 997 55 10000 4.12 310 08:34 21.01.2021
3481 Rain 18 997 56 10000 4.63 330 07:46 21.01.2021
3482 Rain 19 996 52 10000 6.69 340 07:26 21.01.2021
3483 Clouds 19 996 63 10000 6.17 350 05:59 21.01.2021
3484 Clouds 18 995 55 10000 7.72 350 04:32 21.01.2021
3485 Clouds 17 995 63 10000 9.77 330 02:19 21.01.2021
3486 Clouds 16 995 67 10000 9.26 320 00:41 21.01.2021
3487 Rain 15 994 67 10000 10.8 330 23:44 20.01.2021
3488 Rain 15 994 67 10000 11.32 330 23:24 20.01.2021
3489 Rain 15 994 63 10000 10.29 340 22:52 20.01.2021
3490 Clouds 15 994 63 10000 10.29 330 22:29 20.01.2021
3491 Clouds 15 994 63 10000 9.77 330 21:54 20.01.2021
3492 Clouds 14 994 63 10000 10.29 330 21:23 20.01.2021
3493 Clouds 14 995 63 10000 8.75 330 20:52 20.01.2021
3494 Clouds 14 994 63 10000 8.75 330 20:23 20.01.2021
3495 Rain 14 994 63 10000 9.77 330 19:48 20.01.2021
3496 Clear 13 994 67 10000 8.75 330 19:29 20.01.2021
3497 Clear 13 993 67 10000 9.26 330 18:43 20.01.2021
3498 Rain 13 993 62 10000 8.75 330 18:21 20.01.2021
3499 Rain 13 993 62 10000 9.77 340 17:50 20.01.2021
3500 Clouds 13 992 62 10000 9.26 340 17:31 20.01.2021
3501 Rain 13 993 67 10000 10.8 350 16:51 20.01.2021
3502 Clouds 13 993 62 10000 10.8 340 16:22 20.01.2021
3503 Clouds 13 994 62 10000 10.29 340 15:41 20.01.2021
3504 Clouds 13 994 62 10000 10.29 340 15:19 20.01.2021
3505 Clear 13 993 62 10000 10.29 330 14:41 20.01.2021
3506 Clear 13 993 62 10000 10.29 330 14:20 20.01.2021
3507 Clouds 13 994 62 10000 9.77 340 13:38 20.01.2021
3508 Clouds 13 995 62 10000 9.26 350 12:57 20.01.2021
3509 Clear 13 995 62 10000 9.77 340 12:24 20.01.2021
3510 Clear 13 994 58 10000 8.23 340 11:41 20.01.2021
3511 Clear 13 994 58 10000 8.23 340 11:21 20.01.2021
3512 Clouds 13 994 54 10000 8.75 340 10:50 20.01.2021
3513 Clouds 13 994 54 10000 8.75 340 10:50 20.01.2021
3514 Clouds 14 995 51 10000 8.75 350 10:27 20.01.2021
3515 Clear 14 994 51 10000 9.77 340 09:39 20.01.2021
3516 Clear 14 994 51 10000 9.77 340 09:19 20.01.2021
3517 Clouds 14 994 55 10000 7.72 340 08:44 20.01.2021
3518 Clouds 14 994 51 10000 9.77 350 08:23 20.01.2021
3519 Clouds 15 994 51 10000 10.29 340 07:53 20.01.2021
3520 Rain 15 994 51 10000 9.77 340 07:24 20.01.2021
3521 Rain 16 994 48 10000 11.83 340 04:44 20.01.2021
3522 Rain 17 993 42 10000 9.77 340 02:58 20.01.2021
3523 Rain 16 994 51 10000 10.8 320 00:58 20.01.2021
3524 Rain 16 994 48 10000 11.32 320 23:59 19.01.2021
3525 Rain 16 994 48 10000 10.29 330 23:41 19.01.2021
3526 Clouds 16 994 51 10000 10.29 330 22:59 19.01.2021
3527 Clouds 16 994 51 10000 10.29 340 22:40 19.01.2021
3528 Clouds 16 994 51 10000 10.29 340 22:21 19.01.2021
3529 Clouds 14 994 55 10000 11.83 330 21:55 19.01.2021
3530 Clouds 14 994 55 10000 10.29 330 21:36 19.01.2021
3531 Clouds 14 994 47 10000 10.29 330 20:50 19.01.2021
3532 Clouds 14 993 55 10000 10.8 340 20:30 19.01.2021
3533 Clouds 13 994 58 10000 9.77 330 19:56 19.01.2021
3534 Clouds 13 994 58 10000 9.77 330 19:56 19.01.2021
3535 Clouds 13 993 54 10000 10.29 330 19:37 19.01.2021
3536 Rain 13 993 54 10000 10.29 330 19:19 19.01.2021
3537 Rain 13 993 58 10000 9.26 330 18:39 19.01.2021
3538 Rain 13 993 58 10000 9.26 330 18:21 19.01.2021
3539 Rain 14 993 51 10000 8.23 330 17:44 19.01.2021
3540 Rain 14 993 55 10000 10.29 330 17:22 19.01.2021
3541 Rain 14 993 55 10000 8.23 330 16:41 19.01.2021
3542 Rain 14 993 55 10000 8.23 330 16:23 19.01.2021
3543 Rain 14 993 51 10000 7.72 330 15:52 19.01.2021
3544 Rain 14 993 47 10000 8.75 340 15:33 19.01.2021
3545 Rain 15 993 55 10000 8.23 330 14:49 19.01.2021
3546 Clouds 15 993 51 10000 8.23 340 14:28 19.01.2021
3547 Clouds 15 994 51 10000 7.2 330 13:52 19.01.2021
3548 Rain 15 994 59 10000 8.75 340 13:24 19.01.2021
3549 Rain 15 994 59 10000 8.75 350 12:55 19.01.2021
3550 Clouds 15 994 63 10000 10.29 340 12:30 19.01.2021
3551 Clouds 15 994 59 10000 9.77 340 11:54 19.01.2021
3552 Clouds 16 994 55 10000 7.2 340 11:30 19.01.2021
3553 Clouds 16 994 59 10000 10.8 340 10:59 19.01.2021
3554 Clouds 16 993 63 10000 10.8 340 10:40 19.01.2021
3555 Clouds 16 993 63 10000 10.8 340 10:18 19.01.2021
3556 Clouds 16 993 63 10000 11.32 340 09:46 19.01.2021
3557 Clouds 16 993 63 10000 11.32 340 09:46 19.01.2021
3558 Clouds 16 992 59 10000 11.83 340 09:19 19.01.2021
3559 Clouds 17 991 72 10000 12.86 340 08:33 19.01.2021
3560 Rain 17 991 77 10000 12.35 340 07:51 19.01.2021
3561 Rain 18 992 82 10000 15.95 350 06:59 19.01.2021
3562 Rain 19 992 68 10000 15.95 340 04:18 19.01.2021
3563 Clouds 19 995 73 10000 13.89 340 02:22 19.01.2021
3564 Rain 19 998 68 10000 11.32 340 00:36 19.01.2021
3565 Clouds 19 998 64 10000 10.8 350 23:48 18.01.2021
3566 Clouds 19 998 64 10000 9.77 350 23:25 18.01.2021
3567 Clouds 19 999 63 10000 8.75 340 22:43 18.01.2021
3568 Clouds 18 999 63 10000 9.77 350 22:21 18.01.2021
3569 Clouds 18 999 63 10000 9.26 350 21:47 18.01.2021
3570 Clouds 17 1000 68 10000 8.75 350 21:23 18.01.2021
3571 Clouds 17 1000 68 10000 9.26 340 20:57 18.01.2021
3572 Clouds 17 1000 72 10000 9.26 340 20:34 18.01.2021
3573 Clouds 17 999 72 10000 11.32 330 19:54 18.01.2021
3574 Clouds 17 999 72 10000 10.8 330 19:35 18.01.2021
3575 Clouds 17 999 68 10000 6.17 340 18:48 18.01.2021
3576 Clouds 17 999 68 10000 6.17 340 18:48 18.01.2021
3577 Clouds 16 1000 77 10000 7.2 350 18:27 18.01.2021
3578 Clear 16 1000 77 10000 7.72 330 17:47 18.01.2021
3579 Clouds 16 1000 77 10000 8.23 340 17:29 18.01.2021
3580 Clouds 16 1000 77 10000 8.23 330 16:51 18.01.2021
3581 Clouds 16 1000 77 10000 8.23 360 16:27 18.01.2021
3582 Clouds 16 1000 82 10000 7.72 360 15:54 18.01.2021
3583 Clouds 16 1000 82 10000 8.75 350 15:29 18.01.2021
3584 Clouds 16 1000 82 10000 8.23 340 14:58 18.01.2021
3585 Clear 16 1000 77 10000 10.8 320 14:38 18.01.2021
3586 Clouds 16 1000 77 10000 10.8 320 14:20 18.01.2021
3587 Clouds 17 1000 72 10000 9.77 330 13:44 18.01.2021
3588 Clouds 17 1000 72 10000 10.8 330 13:20 18.01.2021
3589 Clouds 17 1000 72 10000 10.8 330 12:46 18.01.2021
3590 Clouds 17 1000 72 10000 10.8 330 12:19 18.01.2021
3591 Clouds 17 1000 72 10000 11.32 330 11:46 18.01.2021
3592 Clouds 17 1000 72 10000 10.8 340 11:25 18.01.2021
3593 Clouds 17 1000 68 10000 11.32 340 10:49 18.01.2021
3594 Clouds 17 1001 72 10000 9.26 340 10:30 18.01.2021
3595 Clouds 17 1001 68 10000 11.32 340 09:40 18.01.2021
3596 Clouds 17 1001 68 10000 11.32 340 09:18 18.01.2021
3597 Clear 17 1000 63 10000 10.29 340 08:27 18.01.2021
3598 Clear 17 1000 68 10000 10.29 340 07:54 18.01.2021
3599 Clouds 18 1000 56 10000 10.8 340 06:35 18.01.2021
3600 Clouds 19 1000 45 10000 11.32 360 04:43 18.01.2021
3601 Clouds 19 1000 52 10000 9.77 340 04:25 18.01.2021
3602 Clouds 20 1000 49 10000 10.29 340 03:50 18.01.2021
3603 Clouds 20 1000 46 10000 9.77 350 03:27 18.01.2021
3604 Rain 19 1000 46 10000 10.29 340 02:58 18.01.2021
3605 Clouds 20 1000 46 10000 7.72 330 02:19 18.01.2021
3606 Clouds 19 1000 49 10000 7.2 350 00:41 18.01.2021
3607 Clouds 19 1000 49 10000 7.2 350 00:41 18.01.2021
3608 Clear 19 1000 49 10000 7.2 350 00:19 18.01.2021
3609 Clear 19 1000 52 10000 7.2 320 23:41 17.01.2021
3610 Clear 19 1000 52 10000 7.2 320 23:19 17.01.2021
3611 Clear 18 999 52 10000 8.23 340 22:24 17.01.2021
3612 Clear 18 999 55 10000 7.2 330 21:57 17.01.2021
3613 Clear 17 1000 55 10000 6.69 330 21:37 17.01.2021
3614 Clear 17 998 67 10000 8.73 298 21:18 17.01.2021
3615 Clear 16 996 69 10000 0.89 59 20:40 17.01.2021
3616 Clear 16 998 71 10000 0.45 16 20:18 17.01.2021
3617 Clear 15 995 72 10000 0.89 51 19:40 17.01.2021
3618 Clear 15 997 59 10000 10.29 340 18:58 17.01.2021
3619 Clear 15 997 59 10000 10.29 340 18:30 17.01.2021
3620 Clear 16 997 59 10000 10.29 340 17:54 17.01.2021
3621 Clear 16 997 59 10000 8.23 330 17:35 17.01.2021
3622 Clouds 16 996 63 10000 8.75 340 16:57 17.01.2021
3623 Clear 16 996 59 10000 9.26 340 16:39 17.01.2021
3624 Clear 16 996 59 10000 9.26 340 16:19 17.01.2021
3625 Clear 16 996 59 10000 9.77 330 15:38 17.01.2021
3626 Clear 16 996 59 10000 9.77 330 15:19 17.01.2021
3627 Clear 16 996 63 10000 9.77 330 14:44 17.01.2021
3628 Clear 16 996 63 10000 10.8 330 14:25 17.01.2021
3629 Clear 16 996 67 10000 9.77 320 13:44 17.01.2021
3630 Clear 16 995 72 10000 11.32 340 13:26 17.01.2021
3631 Clouds 17 995 68 10000 12.35 340 12:47 17.01.2021
3632 Clear 17 996 68 10000 11.32 330 12:28 17.01.2021
3633 Clouds 17 996 77 10000 13.89 330 11:26 17.01.2021
3634 Clouds 18 996 72 10000 13.89 340 10:57 17.01.2021
3635 Rain 18 996 72 10000 15.43 340 10:39 17.01.2021
3636 Rain 18 996 72 10000 15.43 340 10:18 17.01.2021
3637 Clouds 18 996 77 10000 15.95 340 09:18 17.01.2021
3638 Clouds 18 996 73 10000 13.89 340 08:42 17.01.2021
3639 Clouds 20 995 60 10000 11.83 340 04:45 17.01.2021
3640 Rain 20 996 83 10000 10.8 340 04:27 17.01.2021
3641 Rain 19 998 83 10000 12.86 360 01:38 17.01.2021
3642 Rain 19 999 82 7000 12.35 360 00:37 17.01.2021
3643 Rain 18 999 82 7000 12.35 360 00:18 17.01.2021
3644 Rain 19 1000 73 10000 10.8 10 23:46 16.01.2021
3645 Clouds 19 1000 73 10000 11.32 10 23:18 16.01.2021
3646 Clouds 19 1002 73 10000 11.83 360 22:28 16.01.2021
3647 Clouds 19 1002 77 10000 10.8 360 21:58 16.01.2021
3648 Clouds 18 1002 82 10000 10.29 10 21:24 16.01.2021
3649 Clouds 18 1003 77 10000 10.29 360 20:53 16.01.2021
3650 Clouds 18 1003 77 10000 9.77 360 20:29 16.01.2021
3651 Clouds 18 1003 77 10000 8.75 10 19:50 16.01.2021
3652 Clouds 17 1003 82 10000 10.29 360 19:31 16.01.2021
3653 Clouds 17 1003 82 10000 8.75 10 18:49 16.01.2021
3654 Clouds 17 1003 82 10000 9.26 10 18:28 16.01.2021
3655 Clouds 17 1004 77 10000 10.29 360 17:59 16.01.2021
3656 Clouds 17 1004 77 10000 11.32 350 17:40 16.01.2021
3657 Clouds 17 1004 77 10000 11.32 350 17:21 16.01.2021
3658 Clouds 17 1004 77 10000 10.29 350 16:44 16.01.2021
3659 Clouds 17 1004 77 10000 10.29 350 16:20 16.01.2021
3660 Clouds 17 1004 77 10000 9.77 360 15:43 16.01.2021
3661 Clouds 17 1005 77 10000 9.77 360 14:39 16.01.2021
3662 Clouds 17 1006 82 10000 9.77 360 13:54 16.01.2021
3663 Clouds 17 1006 82 10000 9.26 360 13:34 16.01.2021
3664 Rain 18 1006 77 10000 10.8 360 12:58 16.01.2021
3665 Clouds 18 1007 77 10000 8.23 10 12:37 16.01.2021
3666 Clouds 18 1007 77 10000 8.23 10 12:19 16.01.2021
3667 Clouds 18 1007 77 10000 7.72 360 11:45 16.01.2021
3668 Clouds 18 1007 77 10000 7.2 360 11:20 16.01.2021
3669 Clouds 18 1007 82 10000 6.69 10 10:42 16.01.2021
3670 Clouds 18 1007 82 10000 8.23 20 09:57 16.01.2021
3671 Clouds 18 1007 82 10000 9.77 10 09:22 16.01.2021
3672 Clouds 19 1006 68 10000 8.75 360 08:21 16.01.2021
3673 Clouds 21 1006 68 10000 8.75 360 07:18 16.01.2021
3674 Clouds 22 1007 64 10000 8.75 360 05:45 16.01.2021
3675 Rain 22 1008 64 10000 9.26 360 04:38 16.01.2021
3676 Clouds 22 1008 68 10000 8.23 360 02:54 16.01.2021
3677 Rain 22 1009 68 10000 7.2 10 00:49 16.01.2021
3678 Clouds 21 1009 73 10000 6.17 10 00:25 16.01.2021
3679 Clouds 20 1010 77 10000 7.2 10 23:40 15.01.2021
3680 Clouds 19 1010 77 10000 5.66 350 22:47 15.01.2021
3681 Rain 19 1010 77 10000 5.66 10 22:23 15.01.2021
3682 Clouds 19 1010 82 10000 5.14 20 21:46 15.01.2021
3683 Clouds 18 1010 82 10000 4.12 30 20:58 15.01.2021
3684 Clouds 18 1010 88 10000 5.14 30 20:40 15.01.2021
3685 Clouds 18 1010 88 10000 5.14 30 20:19 15.01.2021
3686 Clouds 17 1010 88 10000 4.63 30 19:40 15.01.2021
3687 Clouds 17 1010 88 10000 4.63 30 19:22 15.01.2021
3688 Clouds 17 1010 88 10000 4.63 30 18:42 15.01.2021
3689 Clouds 17 1010 88 10000 4.63 30 18:18 15.01.2021
3690 Clouds 17 1010 88 10000 4.63 30 17:50 15.01.2021
3691 Clouds 17 1010 88 10000 4.12 30 17:24 15.01.2021
3692 Clouds 17 1010 88 10000 4.12 30 16:52 15.01.2021
3693 Clouds 17 1010 94 10000 4.63 20 16:25 15.01.2021
3694 Clear 17 1010 88 10000 4.63 360 15:42 15.01.2021
3695 Clear 16 1010 88 10000 4.63 360 15:22 15.01.2021
3696 Clear 16 1011 88 10000 4.12 20 14:50 15.01.2021
3697 Clear 16 1011 94 10000 1.03 260 14:27 15.01.2021
3698 Clear 16 1011 94 10000 0.51 240 13:44 15.01.2021
3699 Clear 16 1011 88 10000 1.03 230 13:23 15.01.2021
3700 Rain 16 1011 88 10000 1.03 230 12:59 15.01.2021
3701 Clear 16 1011 94 10000 2.06 180 12:34 15.01.2021
3702 Clear 17 1011 88 10000 2.57 180 11:59 15.01.2021
3703 Clear 17 1011 88 10000 1.54 180 11:41 15.01.2021
3704 Clear 17 1011 88 10000 0.51 320 10:57 15.01.2021
3705 Clear 18 1011 88 10000 0.51 310 10:39 15.01.2021
3706 Clear 18 1011 88 10000 0.51 310 10:19 15.01.2021
3707 Clear 18 1011 88 10000 2.06 260 09:45 15.01.2021
3708 Clear 19 1011 82 10000 1.54 180 09:27 15.01.2021
3709 Clear 20 1010 82 10000 3.09 150 08:27 15.01.2021
3710 Rain 20 1010 77 10000 4.12 190 07:41 15.01.2021
3711 Clear 21 1010 77 10000 4.12 190 07:20 15.01.2021
3712 Clear 20 1011 82 10000 3.6 190 05:36 15.01.2021
3713 Fog 20 1013 88 1000 4.63 190 02:19 15.01.2021
3714 Mist 18 1014 94 2100 4.12 190 23:55 14.01.2021
3715 Fog 19 1014 94 550 3.6 200 23:29 14.01.2021
3716 Fog 17 1014 100 450 3.09 200 22:50 14.01.2021
3717 Rain 17 1014 94 1500 3.09 200 22:26 14.01.2021
3718 Rain 17 1014 94 650 3.6 220 21:50 14.01.2021
3719 Fog 16 1014 100 300 2.57 190 21:21 14.01.2021
3720 Fog 16 1014 94 500 2.57 200 20:53 14.01.2021
3721 Clouds 16 1014 94 10000 2.57 210 20:33 14.01.2021
3722 Rain 16 1014 94 10000 1.54 210 19:54 14.01.2021
3723 Clouds 15 1014 100 10000 1.54 210 19:35 14.01.2021
3724 Clouds 15 1014 94 10000 1.54 190 18:56 14.01.2021
3725 Clear 15 1014 88 10000 2.06 200 18:34 14.01.2021
3726 Rain 14 1013 94 10000 2.06 180 17:54 14.01.2021
3727 Clear 14 1013 94 10000 1.54 180 17:28 14.01.2021
3728 Rain 14 1013 88 7000 1.03 300 16:54 14.01.2021
3729 Clear 15 1014 94 10000 1.03 230 16:27 14.01.2021
3730 Clear 15 1014 94 10000 1.03 230 16:27 14.01.2021
3731 Rain 15 1014 88 10000 1.03 240 15:52 14.01.2021
3732 Clear 15 1014 88 10000 1.54 170 15:27 14.01.2021
3733 Clear 15 1014 88 10000 2.06 160 14:42 14.01.2021
3734 Clear 15 1014 88 10000 2.06 160 14:22 14.01.2021
3735 Clear 16 1014 88 10000 0.51 210 13:54 14.01.2021
3736 Clear 16 1014 88 10000 1.54 20 13:23 14.01.2021
3737 Clear 16 1014 88 10000 1.54 40 12:56 14.01.2021
3738 Clear 16 1014 88 10000 1.54 30 12:21 14.01.2021
3739 Clear 16 1014 88 10000 1.54 30 12:21 14.01.2021
3740 Clear 16 1014 88 10000 1.03 360 11:54 14.01.2021
3741 Clear 17 1014 88 10000 1.54 240 11:27 14.01.2021
3742 Clear 17 1014 88 10000 2.06 160 10:58 14.01.2021
3743 Clear 17 1014 94 10000 1.54 190 10:40 14.01.2021
3744 Clear 17 1014 94 10000 1.54 190 10:40 14.01.2021
3745 Clear 17 1014 94 10000 1.54 190 10:18 14.01.2021
3746 Rain 17 1014 82 10000 4.12 210 09:42 14.01.2021
3747 Clear 18 1014 82 10000 4.12 210 09:20 14.01.2021
3748 Clear 19 1014 77 10000 4.12 190 08:30 14.01.2021
3749 Clear 20 1014 77 10000 3.6 200 07:57 14.01.2021
3750 Clear 20 1014 77 10000 3.6 200 07:31 14.01.2021
3751 Rain 19 1014 77 10000 3.6 190 06:34 14.01.2021
3752 Rain 23 1014 50 10000 4.63 350 04:57 14.01.2021
3753 Clear 22 1017 60 10000 6.69 360 00:27 14.01.2021
3754 Clear 21 1017 64 10000 7.72 10 23:28 13.01.2021
3755 Clear 21 1017 64 10000 7.72 10 22:49 13.01.2021
3756 Clear 21 1017 68 10000 6.69 10 22:21 13.01.2021
3757 Clear 20 1017 68 10000 6.17 30 21:43 13.01.2021
3758 Clear 20 1017 73 10000 7.72 30 21:22 13.01.2021
3759 Clear 19 1017 77 10000 7.2 30 20:51 13.01.2021
3760 Clear 18 1017 82 10000 7.2 20 20:26 13.01.2021
3761 Clear 17 1017 82 10000 6.17 20 19:52 13.01.2021
3762 Clear 17 1017 88 10000 5.14 20 19:27 13.01.2021
3763 Clear 17 1017 82 10000 5.14 30 18:52 13.01.2021
3764 Rain 16 1017 82 10000 5.14 20 18:33 13.01.2021
3765 Clear 17 1017 82 10000 4.63 30 17:50 13.01.2021
3766 Rain 17 1017 82 10000 4.63 20 17:18 13.01.2021
3767 Rain 17 1017 82 10000 5.14 20 16:46 13.01.2021
3768 Rain 17 1017 82 10000 5.14 20 16:21 13.01.2021
3769 Clear 17 1018 82 10000 5.14 20 15:49 13.01.2021
3770 Rain 17 1018 82 10000 5.66 20 15:31 13.01.2021
3771 Rain 17 1018 77 10000 5.66 20 14:33 13.01.2021
3772 Rain 17 1019 77 10000 5.66 20 13:49 13.01.2021
3773 Clear 17 1019 77 10000 6.17 20 13:25 13.01.2021
3774 Rain 17 1019 77 10000 6.17 20 12:46 13.01.2021
3775 Rain 18 1019 72 10000 6.17 20 12:27 13.01.2021
3776 Rain 18 1019 72 10000 5.66 20 11:53 13.01.2021
3777 Clear 18 1019 72 10000 5.66 10 11:34 13.01.2021
3778 Clear 18 1020 72 10000 5.66 10 10:50 13.01.2021
3779 Clear 19 1019 68 10000 5.66 10 10:29 13.01.2021
3780 Rain 19 1019 68 10000 6.17 10 09:51 13.01.2021
3781 Clear 19 1019 68 10000 6.69 10 09:30 13.01.2021
3782 Clear 20 1019 64 10000 6.17 360 08:49 13.01.2021
3783 Clear 21 1019 64 10000 7.2 360 08:25 13.01.2021
3784 Clear 22 1019 56 10000 6.69 360 07:32 13.01.2021
3785 Rain 23 1019 56 10000 6.69 10 06:51 13.01.2021
3786 Clear 24 1020 57 10000 8.75 360 04:20 13.01.2021
3787 Clear 24 1020 57 10000 7.72 10 03:44 13.01.2021
3788 Clear 24 1020 57 10000 8.23 10 03:24 13.01.2021
3789 Clear 23 1021 53 10000 8.23 360 01:18 13.01.2021
3790 Clear 22 1021 60 10000 7.72 360 23:54 12.01.2021
3791 Clouds 23 1021 64 10000 6.69 10 23:22 12.01.2021
3792 Clouds 22 1021 73 10000 6.17 10 22:45 12.01.2021
3793 Clouds 22 1021 68 10000 5.66 10 22:23 12.01.2021
3794 Clouds 21 1021 73 10000 4.12 20 21:49 12.01.2021
3795 Clouds 21 1022 77 10000 4.12 30 21:28 12.01.2021
3796 Clouds 20 1021 77 10000 5.66 30 20:49 12.01.2021
3797 Clouds 19 1021 82 10000 5.14 30 20:27 12.01.2021
3798 Clouds 18 1021 82 10000 5.14 30 19:48 12.01.2021
3799 Clouds 18 1021 88 10000 4.63 30 19:27 12.01.2021
3800 Rain 17 1021 88 10000 4.12 30 18:44 12.01.2021
3801 Clouds 17 1021 88 10000 4.12 40 18:23 12.01.2021
3802 Clear 17 1021 82 10000 3.6 20 17:40 12.01.2021
3803 Rain 17 1021 82 10000 3.6 20 17:22 12.01.2021
3804 Rain 17 1020 88 10000 3.6 10 16:43 12.01.2021
3805 Rain 17 1021 82 10000 3.09 20 16:23 12.01.2021
3806 Rain 17 1021 82 10000 4.12 10 15:39 12.01.2021
3807 Rain 17 1021 82 10000 4.12 10 15:18 12.01.2021
3808 Rain 17 1019 80 10000 4.64 7 14:41 12.01.2021
3809 Rain 17 1021 82 10000 4.63 10 14:21 12.01.2021
3810 Rain 17 1021 82 10000 4.12 10 13:52 12.01.2021
3811 Rain 17 1021 77 10000 4.12 10 12:54 12.01.2021
3812 Rain 17 1021 77 10000 4.12 360 12:22 12.01.2021
3813 Clear 18 1021 72 10000 3.6 350 11:40 12.01.2021
3814 Clear 18 1021 68 10000 4.12 350 10:52 12.01.2021
3815 Clear 18 1021 68 10000 4.12 350 10:52 12.01.2021
3816 Clear 19 1020 68 10000 4.63 350 10:22 12.01.2021
3817 Clear 19 1020 73 10000 4.63 360 09:57 12.01.2021
3818 Clear 19 1020 73 10000 4.63 360 09:28 12.01.2021
3819 Clear 21 1020 68 10000 4.63 10 08:51 12.01.2021
3820 Clear 21 1019 60 10000 4.12 360 08:25 12.01.2021
3821 Rain 21 1019 60 10000 2.06 200 07:36 12.01.2021
3822 Clear 21 1019 64 10000 3.09 200 06:35 12.01.2021
3823 Rain 23 1019 60 10000 3.6 190 05:34 12.01.2021
3824 Rain 21 1020 68 10000 4.12 190 03:27 12.01.2021
3825 Rain 20 1020 64 10000 4.12 200 02:19 12.01.2021
3826 Clouds 20 1021 72 10000 4.12 200 01:28 12.01.2021
3827 Rain 19 1021 77 10000 5.66 200 23:57 11.01.2021
3828 Rain 18 1021 88 10000 4.12 170 23:36 11.01.2021
3829 Rain 19 1021 88 10000 4.12 170 23:18 11.01.2021
3830 Rain 20 1021 77 10000 2.57 190 22:44 11.01.2021
3831 Rain 19 1021 77 10000 3.6 190 22:26 11.01.2021
3832 Clouds 18 1021 72 10000 1.54 10 21:39 11.01.2021
3833 Clouds 18 1021 72 10000 1.54 10 21:21 11.01.2021
3834 Clouds 16 1021 82 10000 1.54 10 20:41 11.01.2021
3835 Clouds 15 1021 82 10000 1.54 10 20:23 11.01.2021
3836 Clouds 14 1021 82 10000 1.54 30 19:56 11.01.2021
3837 Clouds 14 1020 88 10000 1.54 50 19:33 11.01.2021
3838 Clear 12 1020 88 10000 1.03 10 18:46 11.01.2021
3839 Clear 12 1020 88 10000 1.03 10 18:46 11.01.2021
3840 Clouds 12 1020 82 10000 1.03 40 18:27 11.01.2021
3841 Clouds 12 1020 88 10000 1.54 20 17:56 11.01.2021
3842 Clouds 12 1019 82 10000 1.54 80 17:38 11.01.2021
3843 Clouds 12 1019 82 10000 1.54 80 17:19 11.01.2021
3844 Clear 13 1019 82 10000 0.51 230 16:39 11.01.2021
3845 Clear 13 1019 82 10000 0.51 230 16:21 11.01.2021
3846 Clear 13 1019 82 10000 1.03 350 15:49 11.01.2021
3847 Clear 13 1019 77 10000 1.54 60 15:27 11.01.2021
3848 Clear 14 1020 72 10000 3.09 340 14:40 11.01.2021
3849 Clear 14 1019 77 10000 2.57 340 13:58 11.01.2021
3850 Clear 14 1020 77 10000 3.6 350 13:38 11.01.2021
3851 Clear 14 1020 77 10000 3.6 350 13:18 11.01.2021
3852 Clouds 14 1019 77 10000 4.12 360 12:36 11.01.2021
3853 Clouds 15 1019 77 10000 3.6 360 11:58 11.01.2021
3854 Rain 15 1019 72 10000 3.6 360 11:36 11.01.2021
3855 Rain 16 1019 72 10000 2.57 10 10:53 11.01.2021
3856 Clouds 16 1018 72 10000 3.09 10 10:27 11.01.2021
3857 Clear 17 1018 77 10000 1.54 30 09:45 11.01.2021
3858 Rain 17 1017 72 10000 1.54 60 09:23 11.01.2021
3859 Rain 18 1017 77 10000 2.06 230 08:46 11.01.2021
3860 Clear 19 1017 72 10000 2.57 230 08:19 11.01.2021
3861 Clear 19 1017 72 10000 4.63 210 07:30 11.01.2021
3862 Clouds 20 1016 68 10000 4.63 200 06:59 11.01.2021
3863 Rain 20 1016 72 10000 4.63 190 06:26 11.01.2021
3864 Clouds 19 1017 68 10000 5.66 180 01:46 11.01.2021
3865 Rain 19 1017 77 10000 5.14 180 00:38 11.01.2021
3866 Rain 17 1017 82 10000 5.14 180 23:43 10.01.2021
3867 Clouds 17 1016 82 10000 5.66 150 22:49 10.01.2021
3868 Rain 16 1016 88 10000 4.63 170 22:27 10.01.2021
3869 Clouds 16 1016 88 10000 5.14 160 21:46 10.01.2021
3870 Rain 16 1015 94 10000 5.14 180 21:21 10.01.2021
3871 Rain 17 1015 82 10000 5.14 220 20:57 10.01.2021
3872 Clouds 17 1014 72 10000 1.54 310 20:33 10.01.2021
3873 Clouds 16 1014 77 10000 2.06 350 19:59 10.01.2021
3874 Rain 16 1013 82 10000 2.06 310 19:38 10.01.2021
3875 Clear 15 1013 82 10000 2.06 310 19:20 10.01.2021
3876 Clear 15 1012 88 10000 3.6 10 18:42 10.01.2021
3877 Clouds 14 1012 88 10000 4.12 20 18:19 10.01.2021
3878 Clouds 14 1011 82 10000 4.63 20 17:22 10.01.2021
3879 Clouds 14 1010 82 10000 4.12 30 16:43 10.01.2021
3880 Clouds 15 1010 82 10000 4.12 20 16:25 10.01.2021
3881 Clouds 15 1009 77 10000 4.12 20 15:26 10.01.2021
3882 Clouds 16 1009 77 10000 4.63 10 14:52 10.01.2021
3883 Clouds 16 1009 82 10000 5.14 10 14:34 10.01.2021
3884 Clear 16 1009 82 10000 6.17 30 13:55 10.01.2021
3885 Clear 16 1009 82 10000 5.66 20 13:37 10.01.2021
3886 Clouds 17 1009 82 10000 5.66 20 13:19 10.01.2021
3887 Clouds 17 1008 82 10000 7.72 10 12:50 10.01.2021
3888 Clear 17 1008 82 10000 7.2 20 12:32 10.01.2021
3889 Rain 17 1008 82 10000 6.69 20 11:48 10.01.2021
3890 Clear 17 1008 82 10000 8.75 10 11:19 10.01.2021
3891 Clear 16 1009 82 10000 10.8 10 10:45 10.01.2021
3892 Clouds 16 1009 82 10000 10.29 10 10:22 10.01.2021
3893 Clouds 17 1008 77 10000 11.32 10 09:36 10.01.2021
3894 Clouds 17 1008 77 10000 9.77 10 08:23 10.01.2021
3895 Clouds 18 1008 72 10000 9.26 350 07:37 10.01.2021
3896 Rain 19 1008 77 10000 10.8 10 06:21 10.01.2021
3897 Clouds 19 1009 68 10000 12.35 10 05:41 10.01.2021
3898 Clouds 20 1009 68 10000 9.26 360 03:56 10.01.2021
3899 Clouds 20 1010 68 10000 7.72 350 01:30 10.01.2021
3900 Clouds 20 1011 73 10000 8.75 360 23:58 09.01.2021
3901 Clouds 20 1011 73 10000 8.75 360 23:40 09.01.2021
3902 Clouds 19 1011 72 10000 8.23 10 22:50 09.01.2021
3903 Clouds 19 1011 72 10000 8.75 360 22:19 09.01.2021
3904 Clouds 19 1012 68 10000 8.75 360 21:58 09.01.2021
3905 Clouds 18 1012 72 10000 7.2 350 21:39 09.01.2021
3906 Clouds 18 1012 72 10000 7.2 350 21:20 09.01.2021
3907 Clouds 17 1011 72 10000 5.66 350 20:45 09.01.2021
3908 Clouds 16 1011 77 10000 6.17 360 19:57 09.01.2021
3909 Rain 16 1011 77 10000 5.14 360 19:39 09.01.2021
3910 Clouds 16 1011 77 10000 5.14 360 19:18 09.01.2021
3911 Clouds 16 1011 82 10000 5.14 10 18:35 09.01.2021
3912 Rain 16 1011 82 10000 5.66 360 17:51 09.01.2021
3913 Clouds 16 1011 82 10000 6.69 10 17:32 09.01.2021
3914 Rain 16 1011 88 10000 3.09 20 16:36 09.01.2021
3915 Clouds 16 1011 88 10000 3.09 20 16:18 09.01.2021
3916 Clouds 16 1012 82 10000 3.09 30 15:40 09.01.2021
3917 Clouds 16 1012 82 10000 4.12 40 14:43 09.01.2021
3918 Clouds 16 1012 82 10000 4.12 30 14:21 09.01.2021
3919 Clouds 16 1012 82 10000 3.6 20 13:59 09.01.2021
3920 Clouds 16 1012 82 10000 4.12 30 13:40 09.01.2021
3921 Rain 16 1012 82 10000 4.12 30 13:22 09.01.2021
3922 Rain 16 1012 82 10000 3.09 20 12:27 09.01.2021
3923 Rain 15 1012 82 10000 3.09 20 11:57 09.01.2021
3924 Clear 16 1012 88 10000 3.09 20 11:37 09.01.2021
3925 Clear 16 1012 77 10000 4.12 20 10:56 09.01.2021
3926 Clouds 16 1012 77 10000 2.57 330 10:37 09.01.2021
3927 Rain 16 1012 77 10000 2.57 330 10:18 09.01.2021
3928 Clouds 17 1012 77 10000 1.03 160 09:42 09.01.2021
3929 Clear 17 1010 82 10000 1.52 352 09:18 09.01.2021
3930 Clouds 18 1011 72 10000 2.57 190 07:46 09.01.2021
3931 Clouds 19 1010 68 10000 3.09 200 06:42 09.01.2021
3932 Clouds 19 1010 68 10000 3.09 200 06:23 09.01.2021
3933 Clouds 19 1011 63 10000 3.09 200 03:49 09.01.2021
3934 Clouds 19 1011 72 10000 4.12 190 02:40 09.01.2021
3935 Clouds 19 1011 72 10000 4.12 190 02:22 09.01.2021
3936 Clouds 18 1011 72 10000 4.12 190 00:49 09.01.2021
3937 Clouds 18 1012 67 10000 5.14 190 00:23 09.01.2021
3938 Clouds 17 1011 77 10000 4.12 200 23:38 08.01.2021
3939 Clouds 16 1011 72 10000 4.63 170 22:38 08.01.2021
3940 Clouds 16 1011 72 10000 4.63 170 21:52 08.01.2021
3941 Rain 14 1011 77 10000 5.14 170 20:59 08.01.2021
3942 Clouds 14 1011 77 10000 5.14 170 20:33 08.01.2021
3943 Clouds 14 1011 72 10000 5.66 170 19:57 08.01.2021
3944 Clouds 14 1011 77 10000 5.66 170 19:24 08.01.2021
3945 Clouds 14 1010 77 10000 5.66 170 18:53 08.01.2021
3946 Clouds 13 1010 77 10000 5.66 160 18:31 08.01.2021
3947 Clouds 13 1010 77 10000 6.17 160 17:50 08.01.2021
3948 Clouds 13 1010 77 10000 5.66 170 17:24 08.01.2021
3949 Clouds 13 1010 77 10000 6.17 170 16:47 08.01.2021
3950 Clouds 14 1010 77 10000 6.17 160 15:48 08.01.2021
3951 Clouds 14 1010 77 10000 6.17 170 15:27 08.01.2021
3952 Clouds 14 1011 82 10000 5.14 160 14:37 08.01.2021
3953 Clouds 14 1011 82 10000 5.14 150 13:48 08.01.2021
3954 Clouds 14 1011 82 10000 6.17 170 13:21 08.01.2021
3955 Clouds 14 1011 82 10000 6.69 180 12:50 08.01.2021
3956 Clouds 14 1011 82 10000 7.2 170 12:20 08.01.2021
3957 Rain 14 1011 82 10000 7.72 180 11:46 08.01.2021
3958 Clouds 14 1010 88 10000 7.2 180 11:28 08.01.2021
3959 Clouds 14 1010 88 10000 7.2 170 10:53 08.01.2021
3960 Clouds 14 1010 88 10000 7.72 170 10:35 08.01.2021
3961 Clouds 14 1010 88 10000 6.69 170 09:53 08.01.2021
3962 Clouds 14 1010 88 10000 6.69 160 09:30 08.01.2021
3963 Clouds 15 1009 88 10000 7.72 160 08:39 08.01.2021
3964 Clouds 15 1008 82 10000 8.75 160 07:29 08.01.2021
3965 Clouds 16 1008 82 10000 8.23 160 06:21 08.01.2021
3966 Rain 16 1007 100 8000 8.23 190 00:22 08.01.2021
3967 Rain 17 1006 88 10000 5.66 220 23:41 07.01.2021
3968 Rain 17 1006 88 10000 4.12 220 22:47 07.01.2021
3969 Rain 17 1006 88 10000 4.12 220 22:26 07.01.2021
3970 Rain 17 1006 88 10000 3.09 200 21:47 07.01.2021
3971 Rain 17 1006 88 10000 4.12 200 21:27 07.01.2021
3972 Rain 17 1006 82 10000 1.54 280 20:47 07.01.2021
3973 Rain 17 1005 82 10000 2.06 360 20:29 07.01.2021
3974 Rain 17 1005 88 10000 2.06 310 19:46 07.01.2021
3975 Clouds 17 1005 88 10000 2.57 320 19:23 07.01.2021
3976 Clouds 16 1004 82 10000 1.03 180 18:38 07.01.2021
3977 Clouds 16 1004 82 10000 1.03 180 18:19 07.01.2021
3978 Clouds 16 1003 88 10000 5.14 350 17:30 07.01.2021
3979 Clouds 16 1003 94 10000 4.63 350 16:54 07.01.2021
3980 Clouds 16 1003 88 10000 7.2 10 16:30 07.01.2021
3981 Clouds 16 1003 94 10000 6.17 10 15:47 07.01.2021
3982 Clouds 16 1004 94 10000 6.17 10 15:29 07.01.2021
3983 Clouds 17 1004 82 10000 8.75 360 14:27 07.01.2021
3984 Clouds 17 1004 88 10000 9.26 360 13:49 07.01.2021
3985 Clouds 16 1004 100 10000 9.26 10 13:19 07.01.2021
3986 Clouds 17 1003 96 10000 0.89 357 12:51 07.01.2021
3987 Clouds 17 1005 93 10000 8.7 10 11:59 07.01.2021
3988 Clouds 17 1005 93 10000 10.8 360 11:38 07.01.2021
3989 Clouds 17 1005 93 10000 10.3 350 10:54 07.01.2021
3990 Clouds 17 1005 93 10000 9.8 360 10:33 07.01.2021
3991 Rain 17 1005 93 10000 9.3 10 09:49 07.01.2021
3992 Rain 17 1005 100 10000 7.7 20 09:22 07.01.2021
3993 Rain 17 1005 88 10000 9.3 10 08:30 07.01.2021
3994 Rain 17 1005 88 10000 9.3 360 07:54 07.01.2021
3995 Rain 17 1004 82 10000 9.8 360 07:35 07.01.2021
3996 Clouds 19 1005 73 10000 10.8 10 05:46 07.01.2021
3997 Clouds 20 1006 77 10000 9.8 350 00:59 07.01.2021
3998 Clouds 19 1007 88 10000 7.2 340 23:52 06.01.2021
3999 Rain 19 1008 82 10000 6.2 350 22:50 06.01.2021
4000 Clouds 19 1008 82 10000 7.7 350 22:19 06.01.2021
4001 Clouds 19 1008 88 10000 8.2 360 21:41 06.01.2021
4002 Clouds 18 1009 88 10000 8.2 360 21:22 06.01.2021
4003 Clouds 18 1008 88 10000 7.7 360 20:40 06.01.2021
4004 Clouds 18 1009 82 10000 6.7 10 20:19 06.01.2021
4005 Clouds 18 1008 82 10000 8.2 20 19:42 06.01.2021
4006 Clouds 18 1008 82 10000 8.2 20 19:24 06.01.2021
4007 Clouds 18 1008 82 10000 8.7 10 18:45 06.01.2021
4008 Clouds 18 1008 82 10000 9.8 10 18:26 06.01.2021
4009 Clouds 18 1008 82 10000 7.2 10 17:43 06.01.2021
4010 Clouds 18 1008 82 10000 7.2 10 17:25 06.01.2021
4011 Clouds 18 1008 82 10000 5.7 20 16:56 06.01.2021
4012 Clouds 18 1009 82 10000 8.2 10 16:20 06.01.2021
4013 Clouds 18 1009 82 10000 8.2 10 15:58 06.01.2021
4014 Clouds 18 1009 82 10000 8.2 10 15:33 06.01.2021
4015 Clouds 18 1009 82 10000 8.2 20 14:57 06.01.2021
4016 Clouds 18 1010 82 10000 7.7 360 14:30 06.01.2021
4017 Clouds 18 1010 82 10000 7.7 360 14:30 06.01.2021
4018 Clouds 18 1010 82 10000 8.7 10 13:51 06.01.2021
4019 Clouds 18 1010 82 10000 8.7 10 13:25 06.01.2021
4020 Clouds 18 1010 82 10000 7.7 10 12:54 06.01.2021
4021 Clouds 18 1010 82 10000 6.7 20 12:30 06.01.2021
4022 Clouds 18 1011 82 10000 8.7 10 11:44 06.01.2021
4023 Clouds 18 1011 82 10000 8.7 10 11:21 06.01.2021
4024 Clouds 18 1011 82 10000 7.7 20 10:31 06.01.2021
4025 Clouds 18 1011 82 10000 7.7 10 09:52 06.01.2021
4026 Clouds 19 1011 77 10000 7.7 10 09:22 06.01.2021
4027 Clouds 19 1012 77 10000 7.7 10 08:42 06.01.2021
4028 Clouds 19 1012 77 10000 7.7 10 08:18 06.01.2021
4029 Clouds 19 1012 77 10000 8.7 10 07:41 06.01.2021
4030 Clouds 22 1012 68 10000 8.2 10 05:53 06.01.2021
4031 Clouds 22 1013 60 10000 5.7 340 04:43 06.01.2021
4032 Clouds 21 1015 82 10000 3.6 190 02:55 06.01.2021
4033 Clouds 21 1015 77 10000 3.6 190 02:36 06.01.2021
4034 Clouds 20 1015 77 10000 4.1 190 02:18 06.01.2021
4035 Clouds 19 1016 82 10000 4.1 200 23:44 05.01.2021
4036 Clouds 19 1017 88 10000 3.6 200 22:55 05.01.2021
4037 Clouds 19 1017 88 10000 3.6 200 22:36 05.01.2021
4038 Clouds 18 1017 88 10000 3.6 180 22:18 05.01.2021
4039 Clouds 18 1017 88 10000 3.1 190 21:19 05.01.2021
4040 Clouds 17 1017 88 10000 1.5 190 20:30 05.01.2021
4041 Clouds 17 1016 88 10000 1.5 170 19:45 05.01.2021
4042 Clouds 17 1016 88 10000 2.6 220 19:24 05.01.2021
4043 Clouds 17 1016 88 10000 4.1 220 18:49 05.01.2021
4044 Clouds 17 1016 88 10000 4.1 220 18:28 05.01.2021
4045 Clouds 17 1016 88 10000 5.1 360 17:54 05.01.2021
4046 Clouds 17 1016 88 10000 5.1 360 17:32 05.01.2021
4047 Clouds 17 1015 88 10000 6.7 10 16:54 05.01.2021
4048 Clouds 17 1015 88 10000 6.7 10 16:24 05.01.2021
4049 Clouds 17 1015 88 10000 6.7 10 15:59 05.01.2021
4050 Clouds 17 1015 88 10000 6.7 10 15:35 05.01.2021
4051 Clouds 17 1016 88 10000 6.7 20 14:48 05.01.2021
4052 Clouds 17 1016 88 10000 7.7 20 14:18 05.01.2021
4053 Clouds 18 1016 88 10000 8.2 10 13:43 05.01.2021
4054 Clouds 18 1016 88 10000 6.2 20 13:20 05.01.2021
4055 Clouds 18 1016 88 10000 7.2 360 12:46 05.01.2021
4056 Clouds 18 1016 88 10000 9.8 360 12:20 05.01.2021
4057 Clouds 18 1016 88 10000 8.7 10 11:33 05.01.2021
4058 Clouds 18 1016 88 10000 8.7 10 11:32 05.01.2021
4059 Clouds 18 1016 88 10000 8.7 10 11:32 05.01.2021
4060 Clouds 18 1016 88 10000 8.7 10 11:31 05.01.2021
4061 Clouds 18 1017 82 10000 8.2 10 10:45 05.01.2021
4062 Clouds 18 1017 82 10000 8.2 10 10:24 05.01.2021
4063 Clouds 18 1017 82 10000 8.2 360 09:45 05.01.2021
4064 Clouds 18 1017 82 10000 8.2 360 09:25 05.01.2021
4065 Clouds 18 1017 82 10000 10.3 360 08:19 05.01.2021
4066 Clouds 20 1018 73 10000 9.8 360 05:38 05.01.2021
4067 Clouds 21 1019 64 10000 9.3 360 03:42 05.01.2021
4068 Clouds 21 1020 68 10000 8.2 350 00:28 05.01.2021
4069 Clouds 20 1020 68 10000 8.2 360 23:43 04.01.2021
4070 Clouds 20 1020 68 10000 6.7 360 23:24 04.01.2021
4071 Clouds 20 1020 68 10000 8.2 360 22:46 04.01.2021
4072 Clouds 20 1020 68 10000 8.2 360 22:46 04.01.2021
4073 Clouds 19 1020 72 10000 6.2 10 22:21 04.01.2021
4074 Clouds 18 1020 72 10000 5.1 30 21:44 04.01.2021
4075 Clouds 18 1020 72 10000 5.1 30 21:24 04.01.2021
4076 Clouds 16 1020 77 10000 5.1 20 20:43 04.01.2021
4077 Clouds 16 1020 77 10000 5.1 20 20:22 04.01.2021
4078 Clouds 15 1020 82 10000 5.1 20 19:43 04.01.2021
4079 Clouds 15 1020 82 10000 5.7 30 19:21 04.01.2021
4080 Clouds 14 1020 82 10000 5.1 40 18:48 04.01.2021
4081 Rain 14 1020 82 10000 6.2 20 18:18 04.01.2021
4082 Clouds 14 1020 82 10000 5.1 40 17:39 04.01.2021
4083 Rain 14 1020 82 10000 6.2 10 17:21 04.01.2021
4084 Clouds 14 1020 82 10000 5.7 20 16:44 04.01.2021
4085 Rain 14 1020 82 10000 5.7 20 16:26 04.01.2021
4086 Clouds 14 1020 82 10000 6.2 20 15:49 04.01.2021
4087 Clouds 14 1020 82 10000 6.7 30 15:25 04.01.2021
4088 Rain 14 1021 82 10000 5.1 20 14:21 04.01.2021
4089 Clouds 15 1021 77 10000 5.7 20 13:37 04.01.2021
4090 Clouds 15 1021 77 10000 5.1 30 12:57 04.01.2021
4091 Rain 15 1021 77 10000 5.7 30 12:31 04.01.2021
4092 Clouds 15 1021 77 10000 5.7 20 11:52 04.01.2021
4093 Clouds 15 1021 77 10000 5.7 20 11:20 04.01.2021
4094 Clouds 16 1021 77 10000 5.1 20 10:46 04.01.2021
4095 Clouds 16 1021 77 10000 5.1 20 10:23 04.01.2021
4096 Clouds 16 1020 77 10000 7.2 10 09:48 04.01.2021
4097 Clouds 16 1020 72 10000 7.2 10 09:18 04.01.2021
4098 Clouds 17 1019 72 10000 7.7 10 08:41 04.01.2021
4099 Clouds 18 1019 68 10000 8.2 360 07:48 04.01.2021
4100 Clouds 19 1019 68 10000 8.7 360 06:56 04.01.2021
4101 Clear 20 1019 64 10000 8.7 360 05:21 04.01.2021
4102 Clouds 20 1019 68 10000 7.7 360 02:31 04.01.2021
4103 Clouds 20 1019 68 10000 7.2 340 00:29 04.01.2021
4104 Clouds 19 1019 68 10000 7.2 350 23:47 03.01.2021
4105 Clouds 19 1019 64 10000 6.7 330 23:19 03.01.2021
4106 Rain 18 1019 68 10000 6.2 330 22:42 03.01.2021
4107 Clouds 18 1019 68 10000 6.2 330 22:23 03.01.2021
4108 Clouds 18 1018 72 10000 7.2 340 21:46 03.01.2021
4109 Clouds 18 1018 72 10000 7.2 340 21:24 03.01.2021
4110 Clouds 17 1018 72 10000 6.7 340 20:42 03.01.2021
4111 Clouds 17 1018 72 10000 6.7 340 20:23 03.01.2021
4112 Clouds 16 1018 77 10000 6.2 340 19:54 03.01.2021
4113 Clouds 16 1017 77 10000 5.7 340 19:34 03.01.2021
4114 Clouds 16 1017 82 10000 7.2 340 18:52 03.01.2021
4115 Clouds 15 1017 82 10000 7.7 360 18:34 03.01.2021
4116 Clouds 15 1017 82 10000 8.2 360 17:57 03.01.2021
4117 Clouds 15 1017 82 10000 6.2 350 17:38 03.01.2021
4118 Clouds 15 1016 82 10000 7.7 350 17:18 03.01.2021
4119 Clouds 15 1016 82 10000 6.2 350 16:41 03.01.2021
4120 Clear 15 1016 82 10000 6.7 350 16:19 03.01.2021
4121 Clear 16 1016 82 10000 8.7 350 15:45 03.01.2021
4122 Clear 16 1016 82 10000 8.7 360 15:23 03.01.2021
4123 Clear 15 1017 82 10000 8.2 360 14:44 03.01.2021
4124 Clear 15 1017 82 10000 8.2 360 14:22 03.01.2021
4125 Clear 15 1016 87 10000 9.8 360 13:38 03.01.2021
4126 Clouds 15 1016 82 10000 9.3 360 13:19 03.01.2021
4127 Clouds 15 1016 82 10000 9.3 360 11:53 03.01.2021
4128 Rain 15 1016 82 10000 8.2 350 11:34 03.01.2021
4129 Clouds 15 1015 82 10000 8.2 350 10:58 03.01.2021
4130 Clouds 15 1015 82 10000 8.2 350 10:33 03.01.2021
4131 Rain 16 1015 77 10000 8.7 340 09:52 03.01.2021
4132 Rain 16 1015 82 10000 8.7 350 09:26 03.01.2021
4133 Clouds 17 1015 82 10000 6.7 360 08:31 03.01.2021
4134 Rain 17 1014 88 10000 7.2 10 06:57 03.01.2021
4135 Clouds 18 1015 93 10000 5.1 10 03:29 03.01.2021
4136 Haze 17 1016 93 5000 4.6 340 02:26 03.01.2021
4137 Rain 19 1016 72 10000 8.7 10 00:33 03.01.2021
4138 Rain 19 1016 72 10000 8.7 360 23:52 02.01.2021
4139 Clouds 18 1016 72 10000 8.2 360 23:19 02.01.2021
4140 Rain 18 1016 72 10000 7.7 350 22:47 02.01.2021
4141 Rain 18 1016 72 10000 7.7 350 22:28 02.01.2021
4142 Rain 17 1015 77 10000 8.7 360 21:48 02.01.2021
4143 Rain 17 1015 77 10000 8.7 360 21:28 02.01.2021
4144 Clouds 16 1015 82 10000 8.2 360 20:45 02.01.2021
4145 Clouds 16 1015 82 10000 8.2 360 20:25 02.01.2021
4146 Rain 16 1015 82 10000 7.2 360 19:46 02.01.2021
4147 Clouds 15 1015 82 10000 7.2 360 19:20 02.01.2021
4148 Rain 15 1014 82 10000 7.7 360 18:47 02.01.2021
4149 Clouds 15 1014 82 10000 7.7 360 18:28 02.01.2021
4150 Clouds 15 1014 82 10000 7.2 350 17:46 02.01.2021
4151 Rain 15 1014 82 10000 7.2 350 17:26 02.01.2021
4152 Clouds 15 1014 77 10000 7.2 350 16:42 02.01.2021
4153 Rain 15 1013 82 10000 7.2 350 16:21 02.01.2021
4154 Clouds 15 1013 82 10000 7.7 350 15:43 02.01.2021
4155 Clouds 15 1013 82 10000 7.7 350 15:25 02.01.2021
4156 Clouds 16 1013 67 10000 7.7 350 14:39 02.01.2021
4157 Rain 16 1013 72 10000 7.2 350 14:21 02.01.2021
4158 Clouds 16 1013 82 10000 8.2 360 13:40 02.01.2021
4159 Clouds 16 1013 82 10000 8.2 360 13:40 02.01.2021
4160 Clouds 16 1014 82 10000 8.2 360 12:54 02.01.2021
4161 Clouds 16 1014 88 10000 7.7 360 12:32 02.01.2021
4162 Clouds 17 1014 88 10000 7.2 10 11:59 02.01.2021
4163 Rain 17 1013 88 10000 8.7 360 11:25 02.01.2021
4164 Rain 17 1013 88 10000 8.7 360 10:58 02.01.2021
4165 Rain 17 1013 88 10000 8.7 360 10:33 02.01.2021
4166 Clouds 18 1012 82 10000 7.7 10 09:54 02.01.2021
4167 Clouds 18 1012 82 10000 7.2 10 09:29 02.01.2021
4168 Clouds 18 1012 82 10000 7.2 360 08:53 02.01.2021
4169 Clouds 18 1012 82 10000 7.2 10 08:34 02.01.2021
4170 Rain 18 1012 82 10000 6.7 10 07:53 02.01.2021
4171 Rain 19 1011 77 10000 6.7 10 07:22 02.01.2021
4172 Rain 19 1011 77 10000 7.7 10 06:56 02.01.2021
4173 Clouds 20 1011 73 10000 7.7 350 05:54 02.01.2021
4174 Clouds 19 1013 88 10000 7.7 10 00:59 02.01.2021
4175 Clouds 18 1013 88 10000 7.7 10 00:37 02.01.2021
4176 Clouds 18 1013 88 10000 7.7 10 00:37 02.01.2021
4177 Rain 17 1013 88 10000 7.2 10 23:58 01.01.2021
4178 Rain 17 1013 77 10000 6.2 350 23:23 01.01.2021
4179 Clouds 17 1013 77 10000 7.2 360 22:50 01.01.2021
4180 Clouds 17 1013 77 10000 7.2 360 22:27 01.01.2021
4181 Clouds 17 1012 77 10000 7.2 10 21:59 01.01.2021
4182 Clouds 18 1012 82 10000 6.2 10 21:41 01.01.2021
4183 Clouds 17 1012 82 10000 4.6 10 21:19 01.01.2021
4184 Clouds 17 1012 88 10000 5.1 20 20:44 01.01.2021
4185 Clouds 17 1012 93 10000 4.6 10 20:18 01.01.2021
4186 Rain 16 1012 93 10000 4.1 20 19:41 01.01.2021
4187 Rain 16 1012 100 10000 4.1 30 19:21 01.01.2021
4188 Mist 16 1012 100 4700 4.1 20 18:45 01.01.2021
4189 Rain 15 1012 100 9000 6.2 10 18:23 01.01.2021
4190 Rain 16 1012 93 10000 4.6 20 17:46 01.01.2021
4191 Clouds 16 1012 93 10000 4.6 20 17:23 01.01.2021
4192 Rain 16 1012 88 10000 5.1 30 16:48 01.01.2021
4193 Clouds 16 1012 88 10000 5.1 30 16:25 01.01.2021
4194 Clouds 16 1012 82 10000 6.7 20 15:40 01.01.2021
4195 Rain 16 1013 82 10000 7.7 10 14:44 01.01.2021
4196 Clouds 16 1013 82 10000 7.7 10 14:26 01.01.2021
4197 Clouds 16 1013 82 10000 8.7 10 13:39 01.01.2021
4198 Clouds 16 1013 82 10000 9.8 10 12:51 01.01.2021
4199 Clouds 16 1013 82 10000 9.8 10 12:27 01.01.2021
4200 Clouds 16 1013 82 10000 10.3 10 11:42 01.01.2021
4201 Clouds 16 1013 82 10000 9.8 10 11:19 01.01.2021
4202 Clouds 16 1013 82 10000 9.8 10 10:56 01.01.2021
4203 Rain 16 1013 82 10000 10.3 20 10:28 01.01.2021
4204 Clouds 16 1012 82 10000 10.3 10 09:31 01.01.2021
4205 Clouds 17 1012 72 10000 10.3 360 08:30 01.01.2021
4206 Clouds 18 1012 68 10000 8.2 360 07:22 01.01.2021
4207 Rain 20 1014 64 10000 8.7 350 04:51 01.01.2021
4208 Rain 20 1015 68 10000 9.3 360 01:58 01.01.2021
4209 Clouds 20 1015 64 10000 8.7 360 00:33 01.01.2021
4210 Clouds 19 1015 63 10000 8.7 360 23:41 31.12.2020
4211 Clouds 19 1016 68 10000 8.2 360 23:21 31.12.2020
4212 Clouds 19 1016 68 10000 7.7 10 22:42 31.12.2020
4213 Clouds 19 1016 68 10000 7.7 10 22:24 31.12.2020
4214 Clouds 19 1016 68 10000 7.7 10 22:24 31.12.2020
4215 Clouds 18 1016 72 10000 8.2 10 21:57 31.12.2020
4216 Clouds 18 1016 77 10000 8.7 10 21:39 31.12.2020
4217 Clouds 17 1016 82 10000 8.7 10 21:20 31.12.2020
4218 Clouds 16 1016 82 10000 6.7 10 20:31 31.12.2020
4219 Clear 15 1017 82 10000 5.1 20 19:51 31.12.2020
4220 Clear 15 1017 82 10000 5.1 20 19:33 31.12.2020
4221 Clear 14 1017 87 10000 5.1 30 18:56 31.12.2020
4222 Clear 13 1017 87 10000 4.6 20 18:26 31.12.2020
4223 Clear 13 1016 87 10000 5.1 20 17:55 31.12.2020
4224 Clear 13 1017 87 10000 4.1 30 17:37 31.12.2020
4225 Clear 13 1017 87 10000 3.6 30 17:18 31.12.2020
4226 Clear 13 1017 87 10000 3.1 30 16:38 31.12.2020
4227 Clear 13 1017 87 10000 2.6 40 16:20 31.12.2020
4228 Clear 13 1017 87 10000 2.1 360 15:43 31.12.2020
4229 Clear 13 1017 87 10000 2.1 10 15:20 31.12.2020
4230 Rain 14 1018 82 10000 3.1 20 14:42 31.12.2020
4231 Clear 13 1018 87 10000 2.6 360 14:23 31.12.2020
4232 Clear 13 1018 87 10000 2.6 360 13:58 31.12.2020
4233 Rain 14 1018 82 10000 2.1 30 13:37 31.12.2020
4234 Rain 14 1019 82 10000 2.1 30 13:19 31.12.2020
4235 Rain 14 1019 82 10000 2.1 40 12:46 31.12.2020
4236 Rain 14 1019 82 10000 2.1 40 12:28 31.12.2020
4237 Clouds 14 1019 77 10000 1.5 10 11:47 31.12.2020
4238 Clouds 14 1019 77 10000 1.5 10 11:29 31.12.2020
4239 Rain 15 1019 77 10000 1 260 10:42 31.12.2020
4240 Rain 16 1019 67 10000 0.5 170 10:23 31.12.2020
4241 Clouds 16 1019 72 10000 1 200 09:49 31.12.2020
4242 Clouds 17 1019 72 10000 1 200 09:24 31.12.2020
4243 Rain 18 1019 72 10000 2.6 210 08:48 31.12.2020
4244 Clouds 18 1019 72 10000 2.6 210 08:30 31.12.2020
4245 Rain 18 1019 72 10000 3.6 220 07:55 31.12.2020
4246 Clouds 19 1019 68 10000 4.1 210 07:25 31.12.2020
4247 Clouds 19 1020 77 10000 4.6 210 05:30 31.12.2020
4248 Rain 19 1021 72 10000 6.7 170 03:37 31.12.2020
4249 Clear 19 1022 72 10000 5.7 170 02:37 31.12.2020
4250 Clear 19 1022 72 10000 6.7 160 01:58 31.12.2020
4251 Clear 19 1022 72 10000 5.7 170 01:39 31.12.2020
4252 Clouds 18 1023 72 10000 4.6 180 01:19 31.12.2020
4253 Clear 18 1022 72 10000 5.1 170 00:39 31.12.2020
4254 Clear 18 1023 77 10000 5.7 170 23:41 30.12.2020
4255 Clear 17 1023 77 10000 5.1 170 23:18 30.12.2020
4256 Clear 17 1023 77 10000 3.6 190 22:36 30.12.2020
4257 Clear 17 1024 72 10000 4.6 160 21:55 30.12.2020
4258 Rain 16 1024 82 10000 4.1 180 21:28 30.12.2020
4259 Clear 16 1024 82 10000 4.6 180 20:57 30.12.2020
4260 Rain 15 1024 87 10000 4.6 180 20:39 30.12.2020
4261 Rain 15 1024 87 10000 5.1 170 20:19 30.12.2020
4262 Rain 14 1024 87 10000 5.1 170 19:38 30.12.2020
4263 Clear 14 1023 87 10000 4.6 190 19:19 30.12.2020
4264 Clear 14 1023 82 10000 5.1 170 18:41 30.12.2020
4265 Rain 14 1023 82 10000 5.1 180 18:22 30.12.2020
4266 Clear 13 1023 82 10000 5.1 170 17:50 30.12.2020
4267 Rain 14 1023 82 10000 5.1 170 17:30 30.12.2020
4268 Rain 14 1023 82 10000 4.1 180 16:48 30.12.2020
4269 Clear 14 1023 82 10000 5.1 160 16:20 30.12.2020
4270 Rain 14 1023 72 10000 5.7 140 15:42 30.12.2020
4271 Clear 14 1023 72 10000 5.1 160 15:24 30.12.2020
4272 Clear 14 1023 72 10000 5.7 150 14:43 30.12.2020
4273 Clear 14 1023 72 10000 6.2 150 14:22 30.12.2020
4274 Clear 14 1023 77 10000 6.7 150 13:20 30.12.2020
4275 Clear 14 1023 77 10000 6.2 140 12:27 30.12.2020
4276 Clear 14 1023 82 10000 6.7 150 11:49 30.12.2020
4277 Clear 14 1022 82 10000 8.2 160 11:23 30.12.2020
4278 Clear 14 1022 82 10000 8.2 160 10:59 30.12.2020
4279 Clear 14 1022 87 10000 7.7 160 10:39 30.12.2020
4280 Clear 14 1022 87 10000 8.2 170 10:20 30.12.2020
4281 Clear 14 1022 87 10000 8.7 170 09:46 30.12.2020
4282 Clear 14 1021 82 10000 8.2 170 08:55 30.12.2020
4283 Rain 16 1020 77 10000 7.7 170 07:59 30.12.2020
4284 Clear 16 1020 77 10000 6.7 180 07:28 30.12.2020
4285 Rain 17 1020 77 10000 7.7 170 06:42 30.12.2020
4286 Clear 17 1020 72 10000 7.7 170 05:50 30.12.2020
4287 Clear 18 1020 72 10000 7.7 170 05:30 30.12.2020
4288 Rain 18 1020 77 10000 7.7 170 03:44 30.12.2020
4289 Clouds 18 1020 72 10000 7.7 170 03:24 30.12.2020
4290 Rain 18 1020 72 10000 6.7 180 02:36 30.12.2020
4291 Clouds 18 1020 72 10000 6.7 190 01:49 30.12.2020
4292 Clouds 17 1020 72 10000 6.7 190 01:30 30.12.2020
4293 Clouds 18 1020 72 10000 5.1 190 00:46 30.12.2020
4294 Rain 18 1020 72 10000 5.1 190 00:26 30.12.2020
4295 Rain 17 1020 72 10000 4.6 200 23:52 29.12.2020
4296 Clouds 17 1020 72 10000 3.6 200 23:34 29.12.2020
4297 Clouds 16 1020 72 10000 2.6 200 22:50 29.12.2020
4298 Clouds 16 1020 72 10000 2.6 200 22:31 29.12.2020
4299 Clouds 15 1020 77 10000 3.1 160 21:56 29.12.2020
4300 Rain 15 1020 82 10000 3.1 150 21:37 29.12.2020
4301 Clouds 14 1020 82 10000 2.6 150 21:19 29.12.2020
4302 Rain 14 1020 76 10000 3.6 170 20:42 29.12.2020
4303 Clouds 14 1020 82 10000 3.6 170 20:22 29.12.2020
4304 Clouds 13 1020 82 10000 3.1 160 19:45 29.12.2020
4305 Clouds 13 1019 76 10000 3.6 170 19:21 29.12.2020
4306 Clouds 13 1019 82 10000 3.6 180 18:50 29.12.2020
4307 Rain 13 1019 82 10000 3.6 180 18:28 29.12.2020
4308 Rain 13 1018 82 10000 3.6 190 17:46 29.12.2020
4309 Clouds 13 1018 76 10000 4.1 170 17:21 29.12.2020
4310 Clouds 13 1018 76 10000 4.1 170 17:21 29.12.2020
4311 Clouds 13 1018 76 10000 4.1 180 16:54 29.12.2020
4312 Clouds 13 1018 76 10000 3.1 180 16:26 29.12.2020
4313 Rain 13 1018 76 10000 4.1 170 15:39 29.12.2020
4314 Clouds 13 1018 76 10000 3.6 190 15:20 29.12.2020
4315 Clouds 13 1018 76 10000 3.6 190 14:40 29.12.2020
4316 Rain 13 1019 76 10000 4.1 190 14:20 29.12.2020
4317 Clouds 13 1019 76 10000 4.1 190 13:54 29.12.2020
4318 Clouds 13 1019 76 10000 4.1 160 13:23 29.12.2020
4319 Clouds 13 1019 76 10000 4.1 180 12:45 29.12.2020
4320 Rain 13 1019 76 10000 4.1 180 12:26 29.12.2020
4321 Rain 13 1019 82 10000 4.1 190 11:58 29.12.2020
4322 Clouds 13 1019 87 10000 5.1 190 11:31 29.12.2020
4323 Clouds 13 1019 82 10000 5.1 180 10:40 29.12.2020
4324 Clouds 13 1019 82 10000 5.1 170 09:59 29.12.2020
4325 Rain 13 1018 82 10000 6.2 170 09:37 29.12.2020
4326 Clouds 13 1018 82 10000 5.7 180 09:18 29.12.2020
4327 Clouds 14 1018 76 10000 5.7 180 08:43 29.12.2020
4328 Rain 15 1018 72 10000 5.7 180 07:33 29.12.2020
4329 Clear 15 1018 67 10000 6.2 180 06:55 29.12.2020
4330 Clear 16 1018 63 10000 5.7 190 05:33 29.12.2020
4331 Clear 16 1018 59 10000 6.7 180 01:36 29.12.2020
4332 Clouds 15 1017 63 10000 6.7 170 00:24 29.12.2020
4333 Clouds 15 1017 62 10000 6.2 180 23:37 28.12.2020
4334 Clouds 14 1017 67 10000 7.7 170 22:41 28.12.2020
4335 Clouds 14 1017 71 10000 7.2 190 21:47 28.12.2020
4336 Clouds 14 1017 71 10000 7.2 190 21:29 28.12.2020
4337 Clouds 13 1017 67 10000 6.7 180 20:47 28.12.2020
4338 Clouds 13 1017 67 10000 6.7 180 20:29 28.12.2020
4339 Clouds 12 1017 71 10000 6.7 180 19:59 28.12.2020
4340 Clouds 12 1016 66 10000 6.7 190 19:40 28.12.2020
4341 Rain 11 1016 71 10000 7.2 190 19:20 28.12.2020
4342 Clouds 10 1016 66 10000 6.2 190 18:44 28.12.2020
4343 Rain 10 1016 66 10000 7.2 190 18:23 28.12.2020
4344 Rain 11 1016 66 10000 7.2 190 17:41 28.12.2020
4345 Rain 11 1016 76 10000 7.2 190 17:18 28.12.2020
4346 Rain 11 1016 71 10000 6.7 190 16:32 28.12.2020
4347 Rain 10 1016 71 10000 7.2 190 15:58 28.12.2020
4348 Clouds 11 1016 66 10000 6.2 180 15:38 28.12.2020
4349 Clouds 11 1017 66 10000 5.1 190 14:43 28.12.2020
4350 Clouds 11 1017 66 10000 5.1 180 13:51 28.12.2020
4351 Clouds 11 1017 71 10000 5.7 190 13:23 28.12.2020
4352 Clouds 11 1017 66 10000 5.7 180 12:38 28.12.2020
4353 Clouds 11 1017 71 10000 5.7 180 12:18 28.12.2020
4354 Clouds 12 1017 71 10000 5.7 170 11:42 28.12.2020
4355 Clouds 12 1018 71 10000 5.7 170 11:18 28.12.2020
4356 Clouds 12 1017 66 10000 6.2 170 10:38 28.12.2020
4357 Clouds 12 1017 71 10000 6.2 170 10:19 28.12.2020
4358 Clouds 12 1017 71 10000 6.7 170 09:38 28.12.2020
4359 Clouds 12 1017 76 10000 6.2 180 09:18 28.12.2020
4360 Clouds 14 1017 62 10000 6.7 180 06:55 28.12.2020
4361 Clouds 15 1017 62 10000 8.2 170 05:34 28.12.2020
4362 Clouds 15 1018 54 10000 8.7 180 03:53 28.12.2020
4363 Clouds 14 1018 51 10000 9.8 180 01:56 28.12.2020
4364 Clouds 12 1019 66 10000 10.8 180 00:19 28.12.2020
4365 Clouds 13 1018 66 10000 10.8 190 23:37 27.12.2020
4366 Clouds 13 1019 66 10000 10.8 190 22:52 27.12.2020
4367 Rain 12 1019 71 10000 11.8 190 21:56 27.12.2020
4368 Rain 12 1019 76 10000 12.3 200 21:25 27.12.2020
4369 Clouds 11 1018 66 10000 12.3 190 20:40 27.12.2020
4370 Rain 11 1018 66 10000 12.9 190 19:25 27.12.2020
4371 Clouds 10 1018 71 10000 11.8 180 18:54 27.12.2020
4372 Clouds 10 1018 71 10000 11.8 180 18:36 27.12.2020
4373 Rain 10 1018 76 10000 11.3 180 18:18 27.12.2020
4374 Rain 10 1018 76 10000 11.3 180 18:18 27.12.2020
4375 Clouds 10 1018 76 10000 12.9 200 17:42 27.12.2020
4376 Rain 10 1018 76 10000 12.3 190 17:21 27.12.2020
4377 Rain 10 1018 76 10000 11.3 190 16:30 27.12.2020
4378 Rain 11 1018 71 10000 11.8 180 15:40 27.12.2020
4379 Rain 10 1018 76 10000 10.8 180 14:58 27.12.2020
4380 Rain 11 1018 71 10000 11.8 180 14:38 27.12.2020
4381 Rain 10 1018 71 10000 12.3 180 13:43 27.12.2020
4382 Rain 10 1018 81 6000 12.9 180 13:19 27.12.2020
4383 Rain 10 1019 87 6000 12.3 180 12:41 27.12.2020
4384 Rain 10 1018 81 10000 13.4 180 11:46 27.12.2020
4385 Rain 11 1018 81 10000 13.4 180 11:28 27.12.2020
4386 Rain 10 1018 87 10000 13.9 190 10:51 27.12.2020
4387 Rain 11 1018 87 10000 13.9 190 10:23 27.12.2020
4388 Rain 10 1018 81 10000 14.9 200 09:41 27.12.2020
4389 Rain 11 1017 66 10000 13.4 190 08:29 27.12.2020
4390 Rain 11 1017 66 10000 13.4 190 08:29 27.12.2020
4391 Rain 11 1017 71 10000 12.3 180 07:58 27.12.2020
4392 Rain 12 1017 76 10000 11.8 190 07:25 27.12.2020
4393 Rain 11 1017 81 10000 11.3 190 05:39 27.12.2020
4394 Rain 13 1018 62 10000 10.8 180 03:26 27.12.2020
4395 Rain 12 1018 76 10000 10.8 160 02:40 27.12.2020
4396 Clouds 12 1017 76 10000 15.4 200 01:21 27.12.2020
4397 Rain 12 1017 66 10000 11.8 170 23:45 26.12.2020
4398 Rain 12 1017 66 10000 11.8 170 23:26 26.12.2020
4399 Rain 13 1017 71 10000 11.3 180 22:47 26.12.2020
4400 Rain 12 1017 71 10000 11.8 180 22:20 26.12.2020
4401 Rain 13 1017 71 10000 11.8 180 21:55 26.12.2020
4402 Rain 12 1016 66 10000 11.8 180 21:31 26.12.2020
4403 Rain 12 1016 71 10000 11.8 170 20:58 26.12.2020
4404 Rain 11 1016 71 10000 11.3 180 20:28 26.12.2020
4405 Rain 11 1016 76 10000 11.8 170 19:57 26.12.2020
4406 Rain 11 1015 81 10000 11.3 170 19:24 26.12.2020
4407 Rain 11 1015 71 10000 12.9 170 18:38 26.12.2020
4408 Rain 10 1014 81 10000 11.3 170 18:18 26.12.2020
4409 Rain 10 1014 81 10000 11.8 160 17:40 26.12.2020
4410 Rain 10 1014 76 10000 11.3 180 17:19 26.12.2020
4411 Rain 10 1014 76 10000 11.8 180 16:32 26.12.2020
4412 Clouds 11 1009 80 10000 0.45 204 15:26 26.12.2020
4413 Clouds 11 1014 66 10000 11.8 180 14:46 26.12.2020
4414 Clouds 11 1014 66 10000 11.8 180 14:27 26.12.2020
4415 Rain 11 1014 71 10000 11.3 180 13:43 26.12.2020
4416 Clouds 11 1014 71 10000 10.3 180 13:24 26.12.2020
4417 Clouds 11 1015 81 10000 10.3 170 12:44 26.12.2020
4418 Clouds 11 1015 76 10000 10.3 180 12:21 26.12.2020
4419 Clouds 11 1015 71 10000 10.8 180 11:51 26.12.2020
4420 Clouds 11 1015 76 10000 9.8 180 11:21 26.12.2020
4421 Clouds 11 1015 76 10000 9.8 180 10:53 26.12.2020
4422 Rain 11 1014 76 10000 9.8 170 10:27 26.12.2020
4423 Clouds 11 1013 76 10000 8.7 180 09:49 26.12.2020
4424 Clouds 11 1013 76 10000 8.7 180 09:49 26.12.2020
4425 Clouds 11 1013 76 10000 9.3 170 09:24 26.12.2020
4426 Clouds 11 1013 71 10000 9.3 180 08:29 26.12.2020
4427 Clouds 12 1012 71 10000 7.7 170 07:50 26.12.2020
4428 Clouds 12 1012 71 10000 8.2 170 06:29 26.12.2020
4429 Rain 12 1011 82 10000 10.3 180 02:49 26.12.2020
4430 Rain 14 1010 72 10000 10.3 170 00:44 26.12.2020
4431 Rain 15 1010 72 10000 10.3 170 00:24 26.12.2020
4432 Rain 14 1009 71 10000 8.7 180 23:39 25.12.2020
4433 Clouds 14 1009 76 10000 9.3 180 23:21 25.12.2020
4434 Clouds 13 1009 82 10000 9.8 180 22:40 25.12.2020
4435 Rain 12 1009 82 10000 9.3 190 21:54 25.12.2020
4436 Rain 12 1009 93 6000 9.3 200 21:34 25.12.2020
4437 Rain 12 1008 100 4700 7.7 180 20:49 25.12.2020
4438 Rain 12 1008 100 4700 7.7 180 20:30 25.12.2020
4439 Rain 13 1006 100 2700 8.2 190 19:47 25.12.2020
4440 Rain 14 1006 87 10000 3.1 340 19:20 25.12.2020
4441 Drizzle 15 1005 82 10000 7.2 360 18:39 25.12.2020
4442 Rain 15 1005 77 10000 5.1 340 17:47 25.12.2020
4443 Rain 15 1005 77 10000 5.1 340 17:28 25.12.2020
4444 Rain 15 1006 77 10000 7.2 340 16:33 25.12.2020
4445 Clear 15 1006 77 10000 7.2 350 15:59 25.12.2020
4446 Clear 15 1006 77 10000 6.2 350 15:36 25.12.2020
4447 Clear 15 1006 82 10000 7.7 10 14:50 25.12.2020
4448 Clear 15 1006 82 10000 7.7 10 14:29 25.12.2020
4449 Clear 15 1006 82 10000 7.7 10 14:29 25.12.2020
4450 Clear 15 1007 82 10000 9.3 10 13:44 25.12.2020
4451 Clear 14 1007 82 10000 9.3 10 13:26 25.12.2020
4452 Clouds 15 1007 77 10000 9.3 360 12:45 25.12.2020
4453 Clouds 15 1007 82 10000 8.7 360 11:56 25.12.2020
4454 Clouds 15 1007 77 10000 7.2 20 11:33 25.12.2020
4455 Clouds 15 1008 72 10000 6.7 20 10:57 25.12.2020
4456 Clouds 15 1008 77 10000 6.7 10 10:24 25.12.2020
4457 Clouds 15 1007 77 10000 7.2 360 09:34 25.12.2020
4458 Clouds 16 1007 68 10000 5.1 360 08:48 25.12.2020
4459 Clouds 18 1007 59 10000 5.1 340 07:59 25.12.2020
4460 Clouds 19 1006 55 10000 2.1 220 06:46 25.12.2020
4461 Clouds 19 1008 68 10000 6.2 180 03:49 25.12.2020
4462 Clouds 18 1008 72 10000 7.2 170 01:41 25.12.2020
4463 Clouds 17 1008 82 10000 6.2 170 00:18 25.12.2020
4464 Clouds 16 1008 87 10000 5.1 150 23:23 24.12.2020
4465 Drizzle 15 1008 100 7000 6.2 170 22:41 24.12.2020
4466 Rain 15 1007 87 10000 6.2 170 22:20 24.12.2020
4467 Rain 15 1007 87 10000 6.2 170 21:33 24.12.2020
4468 Rain 15 1006 93 10000 6.2 160 20:36 24.12.2020
4469 Rain 14 1004 93 10000 2.1 160 18:40 24.12.2020
4470 Rain 14 1003 93 10000 1.5 140 18:18 24.12.2020
4471 Rain 14 1003 87 10000 0.5 330 17:37 24.12.2020
4472 Clouds 14 1003 93 10000 1 200 16:45 24.12.2020
4473 Clouds 14 1003 93 10000 1.5 180 16:20 24.12.2020
4474 Rain 14 1003 93 10000 1 190 15:42 24.12.2020
4475 Clouds 15 1003 87 10000 1 200 15:19 24.12.2020
4476 Clouds 15 1003 87 10000 1.5 240 14:42 24.12.2020
4477 Clouds 15 1002 93 10000 1 220 14:24 24.12.2020
4478 Clouds 15 1002 87 10000 2.6 190 13:42 24.12.2020
4479 Clouds 15 1002 87 10000 3.1 200 13:22 24.12.2020
4480 Clouds 15 1002 87 10000 3.6 210 12:43 24.12.2020
4481 Clouds 15 1002 87 10000 2.1 230 12:21 24.12.2020
4482 Clouds 15 1001 87 10000 2.1 210 11:41 24.12.2020
4483 Clouds 15 1001 93 10000 3.1 200 11:20 24.12.2020
4484 Clouds 15 1001 93 10000 3.1 200 10:52 24.12.2020
4485 Clouds 15 1001 87 10000 4.6 200 10:34 24.12.2020
4486 Clouds 16 1000 87 10000 4.6 190 09:52 24.12.2020
4487 Clouds 16 1000 87 10000 5.7 200 09:24 24.12.2020
4488 Drizzle 16 998 88 10000 4.1 210 08:20 24.12.2020
4489 Clouds 16 997 88 10000 4.1 210 07:39 24.12.2020
4490 Clouds 17 997 88 10000 4.1 200 07:18 24.12.2020
4491 Clouds 18 994 77 10000 9.8 340 04:28 24.12.2020
4492 Clouds 18 994 68 10000 10.8 340 01:54 24.12.2020
4493 Clouds 19 994 68 10000 10.3 340 01:32 24.12.2020
4494 Clouds 19 994 68 10000 10.8 350 00:56 24.12.2020
4495 Clouds 19 994 72 10000 11.8 360 00:21 24.12.2020
4496 Clouds 19 994 77 10000 11.3 360 23:44 23.12.2020
4497 Clouds 19 994 77 10000 9.8 360 23:23 23.12.2020
4498 Clouds 18 994 82 10000 9.8 360 22:53 23.12.2020
4499 Clouds 18 994 82 10000 9.8 360 22:29 23.12.2020
4500 Clouds 18 995 88 10000 8.7 10 21:49 23.12.2020
4501 Clouds 18 995 88 10000 8.7 10 21:25 23.12.2020
4502 Clouds 17 995 88 10000 8.2 10 20:50 23.12.2020
4503 Clouds 17 995 88 10000 8.2 10 20:31 23.12.2020
4504 Clear 16 995 88 10000 7.2 20 19:59 23.12.2020
4505 Clear 17 995 82 10000 7.2 360 19:38 23.12.2020
4506 Clouds 17 994 82 10000 7.7 350 19:19 23.12.2020
4507 Rain 16 994 88 10000 11.3 350 18:46 23.12.2020
4508 Rain 16 995 93 5000 9.3 350 18:21 23.12.2020
4509 Rain 16 995 88 10000 12.9 350 17:39 23.12.2020
4510 Rain 16 995 88 10000 12.9 350 17:20 23.12.2020
4511 Rain 16 995 93 10000 11.3 360 16:43 23.12.2020
4512 Rain 16 995 88 10000 13.4 360 16:25 23.12.2020
4513 Rain 16 995 88 10000 13.4 360 15:54 23.12.2020
4514 Drizzle 16 996 88 10000 15.9 360 15:28 23.12.2020
4515 Rain 16 996 88 10000 14.4 360 14:58 23.12.2020
4516 Rain 16 997 88 10000 12.3 360 14:39 23.12.2020
4517 Rain 16 997 82 10000 11.8 360 14:20 23.12.2020
4518 Rain 16 998 82 10000 13.4 360 13:43 23.12.2020
4519 Rain 17 999 88 10000 13.4 360 13:19 23.12.2020
4520 Rain 17 999 88 10000 11.3 20 12:51 23.12.2020
4521 Rain 17 999 88 10000 11.3 20 12:25 23.12.2020
4522 Rain 17 1000 93 10000 9.3 360 11:47 23.12.2020
4523 Rain 17 1001 93 7000 10.8 350 11:19 23.12.2020
4524 Rain 16 1001 93 7000 10.3 350 10:48 23.12.2020
4525 Rain 16 1001 93 7000 10.3 350 10:30 23.12.2020
4526 Rain 16 1002 93 10000 10.3 360 09:35 23.12.2020
4527 Rain 16 1002 93 10000 9.3 360 08:49 23.12.2020
4528 Rain 16 1002 88 10000 9.8 350 08:21 23.12.2020
4529 Rain 17 1003 88 10000 8.7 350 07:27 23.12.2020
4530 Rain 16 1003 93 10000 10.8 360 06:41 23.12.2020
4531 Rain 16 1004 93 10000 8.2 20 05:39 23.12.2020
4532 Rain 15 1005 93 10000 7.7 20 04:59 23.12.2020
4533 Rain 17 1007 77 10000 9.3 350 01:31 23.12.2020
4534 Rain 17 1008 82 10000 8.7 360 00:21 23.12.2020
4535 Rain 16 1008 82 10000 9.8 350 23:36 22.12.2020
4536 Rain 16 1008 82 10000 10.8 360 23:18 22.12.2020
4537 Clouds 16 1008 82 10000 8.2 350 22:41 22.12.2020
4538 Clouds 16 1008 77 10000 9.3 350 22:20 22.12.2020
4539 Clouds 16 1008 77 10000 10.8 350 21:45 22.12.2020
4540 Clouds 16 1008 77 10000 10.3 360 21:20 22.12.2020
4541 Clouds 16 1008 77 10000 9.3 360 20:49 22.12.2020
4542 Clouds 16 1008 77 10000 8.2 10 20:25 22.12.2020
4543 Clouds 16 1008 82 10000 8.7 10 19:49 22.12.2020
4544 Clouds 15 1008 82 10000 8.7 10 19:26 22.12.2020
4545 Clouds 15 1008 82 10000 8.7 10 18:56 22.12.2020
4546 Clouds 15 1008 87 10000 8.2 10 18:36 22.12.2020
4547 Clouds 15 1008 87 10000 8.2 10 18:18 22.12.2020
4548 Clouds 15 1008 87 10000 8.2 10 18:18 22.12.2020
4549 Clouds 15 1008 87 10000 8.7 10 17:36 22.12.2020
4550 Clouds 15 1008 87 10000 7.7 20 17:18 22.12.2020
4551 Clouds 15 1008 87 10000 7.2 20 16:46 22.12.2020
4552 Clouds 15 1008 93 10000 7.7 10 16:19 22.12.2020
4553 Clouds 15 1008 87 10000 7.7 20 15:45 22.12.2020
4554 Clouds 15 1008 87 10000 7.7 20 15:27 22.12.2020
4555 Clouds 16 1009 82 10000 7.2 20 14:46 22.12.2020
4556 Clouds 16 1009 82 10000 7.2 20 14:46 22.12.2020
4557 Clouds 16 1009 82 10000 6.7 20 14:28 22.12.2020
4558 Clouds 16 1010 82 10000 6.2 10 13:55 22.12.2020
4559 Clouds 16 1010 82 10000 6.2 10 13:36 22.12.2020
4560 Clouds 16 1010 82 10000 6.7 30 13:18 22.12.2020
4561 Clouds 16 1010 82 10000 6.7 20 12:42 22.12.2020
4562 Clouds 16 1010 82 10000 6.7 20 12:22 22.12.2020
4563 Clouds 16 1010 82 10000 6.7 20 11:55 22.12.2020
4564 Clouds 16 1010 82 10000 7.2 30 11:37 22.12.2020
4565 Clouds 16 1010 82 10000 7.2 30 11:18 22.12.2020
4566 Clouds 16 1010 82 10000 7.7 30 10:45 22.12.2020
4567 Clouds 16 1010 82 10000 8.7 20 10:23 22.12.2020
4568 Clouds 16 1009 82 10000 9.3 360 09:49 22.12.2020
4569 Clouds 17 1009 82 10000 9.3 10 09:21 22.12.2020
4570 Clouds 17 1009 77 10000 9.8 20 08:45 22.12.2020
4571 Clouds 17 1009 77 10000 9.8 20 08:25 22.12.2020
4572 Clouds 18 1009 72 10000 8.2 340 07:47 22.12.2020
4573 Clouds 19 1009 77 10000 8.2 330 06:38 22.12.2020
4574 Clouds 19 1010 82 10000 8.2 350 05:39 22.12.2020
4575 Rain 17 1011 93 6000 6.7 350 02:51 22.12.2020
4576 Rain 17 1012 93 8000 8.2 20 00:44 22.12.2020
4577 Rain 17 1012 88 10000 7.7 360 23:52 21.12.2020
4578 Rain 17 1012 88 10000 7.7 360 23:29 21.12.2020
4579 Rain 17 1012 88 10000 8.2 10 22:38 21.12.2020
4580 Rain 17 1012 88 10000 6.7 10 22:19 21.12.2020
4581 Rain 17 1012 88 10000 6.7 20 21:49 21.12.2020
4582 Rain 17 1012 88 10000 6.7 20 21:31 21.12.2020
4583 Rain 17 1012 82 10000 6.7 10 20:50 21.12.2020
4584 Rain 17 1012 82 10000 6.7 10 20:25 21.12.2020
4585 Clouds 17 1012 82 10000 6.7 20 19:56 21.12.2020
4586 Clouds 17 1012 82 10000 7.2 10 19:37 21.12.2020
4587 Clouds 17 1012 88 10000 6.2 20 19:18 21.12.2020
4588 Rain 17 1012 88 10000 2.6 360 18:50 21.12.2020
4589 Rain 16 1012 88 10000 2.6 360 18:32 21.12.2020
4590 Clouds 16 1012 82 10000 4.1 20 17:43 21.12.2020
4591 Clouds 16 1012 82 10000 4.1 350 17:24 21.12.2020
4592 Clouds 16 1013 88 10000 3.6 10 16:47 21.12.2020
4593 Clouds 16 1013 88 10000 4.1 340 16:26 21.12.2020
4594 Clouds 16 1013 88 10000 3.6 340 15:45 21.12.2020
4595 Clouds 16 1013 88 10000 3.6 340 15:27 21.12.2020
4596 Clouds 16 1014 88 10000 3.1 330 14:56 21.12.2020
4597 Clouds 16 1014 82 10000 4.1 330 14:21 21.12.2020
4598 Clouds 17 1014 77 10000 4.1 10 13:42 21.12.2020
4599 Clouds 17 1014 77 10000 4.1 10 13:24 21.12.2020
4600 Clouds 17 1015 88 10000 3.1 350 12:43 21.12.2020
4601 Clouds 17 1015 88 10000 3.1 350 12:24 21.12.2020
4602 Clouds 16 1015 88 10000 2.1 350 11:55 21.12.2020
4603 Clouds 16 1015 88 10000 2.1 360 11:37 21.12.2020
4604 Clouds 16 1015 93 10000 1.5 30 11:18 21.12.2020
4605 Clouds 16 1015 87 10000 3.1 350 10:40 21.12.2020
4606 Clouds 16 1015 87 10000 2.6 350 10:21 21.12.2020
4607 Clouds 15 1015 93 10000 3.1 360 09:43 21.12.2020
4608 Clouds 15 1015 93 10000 3.1 360 09:24 21.12.2020
4609 Clouds 16 1016 93 10000 1 50 08:47 21.12.2020
4610 Clouds 16 1016 87 10000 2.1 200 07:48 21.12.2020
4611 Clouds 16 1016 87 10000 2.1 200 06:22 21.12.2020
4612 Clouds 17 1017 87 10000 4.6 200 04:32 21.12.2020
4613 Clouds 16 1018 93 10000 5.1 240 01:22 21.12.2020
4614 Clouds 16 1018 93 10000 5.7 230 00:31 21.12.2020
4615 Drizzle 15 1018 100 10000 6.7 170 23:34 20.12.2020
4616 Drizzle 14 1020 100 10000 7.7 190 22:58 20.12.2020
4617 Drizzle 14 1020 100 10000 7.7 200 22:39 20.12.2020
4618 Clouds 15 1020 93 10000 6.2 200 22:21 20.12.2020
4619 Clouds 14 1020 93 10000 5.7 200 21:39 20.12.2020
4620 Clouds 14 1020 93 10000 4.6 190 21:20 20.12.2020
4621 Clouds 14 1019 100 10000 5.1 180 20:48 20.12.2020
4622 Clouds 14 1019 100 9000 5.7 180 20:23 20.12.2020
4623 Clouds 14 1019 100 9000 6.7 180 19:46 20.12.2020
4624 Clouds 14 1019 100 9000 6.7 180 19:26 20.12.2020
4625 Clouds 14 1019 100 8000 7.2 180 18:56 20.12.2020
4626 Clouds 14 1019 100 10000 6.7 180 18:38 20.12.2020
4627 Clouds 14 1019 100 10000 6.7 190 18:19 20.12.2020
4628 Clouds 14 1019 100 10000 6.2 180 17:42 20.12.2020
4629 Clouds 14 1019 100 10000 6.7 180 17:18 20.12.2020
4630 Clouds 14 1019 100 10000 7.2 190 16:44 20.12.2020
4631 Clouds 14 1019 100 10000 7.2 190 16:24 20.12.2020
4632 Clouds 14 1019 100 10000 8.7 190 15:41 20.12.2020
4633 Clouds 14 1019 100 10000 7.7 190 15:23 20.12.2020
4634 Clouds 14 1019 93 10000 6.2 180 14:49 20.12.2020
4635 Clouds 14 1019 93 10000 6.2 180 14:29 20.12.2020
4636 Clouds 14 1020 93 10000 6.7 180 13:46 20.12.2020
4637 Clouds 14 1020 93 10000 7.2 190 13:23 20.12.2020
4638 Clouds 14 1020 93 10000 7.2 190 12:54 20.12.2020
4639 Clouds 14 1019 93 10000 7.2 190 12:27 20.12.2020
4640 Clouds 15 1019 93 10000 6.7 190 11:57 20.12.2020
4641 Clouds 15 1020 93 10000 6.2 190 11:38 20.12.2020
4642 Clouds 15 1020 93 10000 7.2 180 10:50 20.12.2020
4643 Clouds 15 1020 93 10000 7.2 180 10:23 20.12.2020
4644 Clouds 15 1020 93 10000 7.2 190 09:57 20.12.2020
4645 Clouds 15 1019 93 10000 5.1 180 09:39 20.12.2020
4646 Clouds 15 1018 87 10000 5.1 180 09:20 20.12.2020
4647 Clouds 15 1018 87 10000 5.1 200 08:48 20.12.2020
4648 Clouds 16 1018 87 10000 5.1 200 08:30 20.12.2020
4649 Clouds 17 1018 87 10000 5.7 220 07:22 20.12.2020
4650 Clouds 20 1017 56 10000 4.6 320 05:44 20.12.2020
4651 Clouds 20 1018 68 10000 8.2 360 01:32 20.12.2020
4652 Clouds 19 1017 68 10000 7.7 360 00:22 20.12.2020
4653 Clouds 19 1017 68 10000 9.8 10 23:19 19.12.2020
4654 Clouds 18 1017 68 10000 8.2 360 22:46 19.12.2020
4655 Clouds 18 1017 68 10000 8.2 360 22:25 19.12.2020
4656 Clouds 18 1017 72 10000 7.7 360 21:59 19.12.2020
4657 Clouds 17 1016 72 10000 8.2 360 21:41 19.12.2020
4658 Clouds 17 1016 72 10000 8.2 360 21:22 19.12.2020
4659 Clouds 16 1016 77 10000 7.7 20 20:41 19.12.2020
4660 Clouds 16 1016 77 10000 8.7 10 20:18 19.12.2020
4661 Rain 16 1015 77 10000 8.2 20 19:50 19.12.2020
4662 Rain 16 1015 77 10000 8.2 20 19:29 19.12.2020
4663 Clouds 16 1015 77 10000 9.8 350 18:38 19.12.2020
4664 Clouds 16 1014 77 10000 9.3 350 18:20 19.12.2020
4665 Clouds 16 1014 77 10000 11.8 350 17:45 19.12.2020
4666 Clouds 16 1014 82 10000 11.8 360 17:23 19.12.2020
4667 Clouds 16 1014 77 10000 12.9 360 16:44 19.12.2020
4668 Clouds 16 1014 77 10000 12.9 360 16:26 19.12.2020
4669 Clouds 16 1014 82 10000 11.3 360 15:55 19.12.2020
4670 Clouds 16 1014 82 10000 11.3 360 15:34 19.12.2020
4671 Clouds 16 1015 82 10000 12.3 360 14:41 19.12.2020
4672 Clouds 16 1015 72 10000 12.9 360 14:21 19.12.2020
4673 Clouds 16 1015 72 10000 11.8 350 13:41 19.12.2020
4674 Clouds 16 1015 72 10000 13.4 360 13:20 19.12.2020
4675 Clouds 16 1015 72 10000 13.9 360 12:44 19.12.2020
4676 Clouds 16 1015 72 10000 13.9 360 12:26 19.12.2020
4677 Clouds 16 1015 72 10000 11.8 350 11:57 19.12.2020
4678 Clouds 16 1015 82 10000 10.3 360 11:36 19.12.2020
4679 Clouds 16 1015 77 10000 11.8 10 10:43 19.12.2020
4680 Clouds 16 1015 72 10000 12.3 10 10:25 19.12.2020
4681 Clouds 16 1015 72 10000 12.3 10 09:56 19.12.2020
4682 Clouds 16 1015 77 10000 10.8 10 09:38 19.12.2020
4683 Clouds 16 1014 77 10000 12.9 360 08:36 19.12.2020
4684 Clouds 17 1014 68 10000 14.4 360 07:25 19.12.2020
4685 Clouds 17 1014 68 10000 13.9 360 06:54 19.12.2020
4686 Clouds 17 1014 68 10000 14.9 10 06:21 19.12.2020
4687 Clouds 18 1014 68 10000 14.4 360 05:18 19.12.2020
4688 Clouds 19 1015 60 10000 12.9 360 03:20 19.12.2020
4689 Clouds 19 1015 60 10000 15.4 360 00:40 19.12.2020
4690 Clouds 19 1016 68 10000 15.9 360 00:18 19.12.2020
4691 Clouds 19 1016 68 10000 13.9 350 23:48 18.12.2020
4692 Clouds 18 1016 68 10000 13.9 350 23:23 18.12.2020
4693 Clouds 18 1016 72 10000 13.4 360 22:46 18.12.2020
4694 Clouds 18 1016 72 10000 13.4 360 22:46 18.12.2020
4695 Clouds 17 1016 77 10000 12.3 360 22:24 18.12.2020
4696 Clouds 17 1017 77 10000 11.8 360 21:50 18.12.2020
4697 Clouds 16 1017 77 10000 11.8 360 21:31 18.12.2020
4698 Clouds 16 1017 77 10000 10.8 350 20:43 18.12.2020
4699 Clouds 16 1017 77 10000 12.3 360 20:22 18.12.2020
4700 Clouds 16 1016 77 10000 12.3 360 19:45 18.12.2020
4701 Clouds 16 1016 82 10000 12.3 360 19:21 18.12.2020
4702 Clouds 16 1016 87 10000 11.8 360 18:45 18.12.2020
4703 Clouds 16 1016 87 10000 11.8 360 18:24 18.12.2020
4704 Clouds 16 1016 82 10000 12.3 350 17:30 18.12.2020
4705 Clouds 16 1016 87 10000 11.3 360 16:57 18.12.2020
4706 Clouds 16 1016 87 10000 11.3 360 16:38 18.12.2020
4707 Clouds 15 1016 82 10000 11.8 360 16:20 18.12.2020
4708 Clouds 16 1016 82 10000 12.3 360 15:43 18.12.2020
4709 Clouds 15 1016 82 10000 11.3 360 15:24 18.12.2020
4710 Clouds 15 1017 82 10000 11.8 10 14:55 18.12.2020
4711 Clear 16 1017 77 10000 12.3 10 14:23 18.12.2020
4712 Clear 15 1017 87 10000 11.3 10 13:51 18.12.2020
4713 Clear 16 1017 87 10000 11.3 10 13:31 18.12.2020
4714 Clouds 16 1017 82 10000 12.3 360 12:56 18.12.2020
4715 Clouds 16 1018 87 10000 10.8 360 12:30 18.12.2020
4716 Clouds 16 1018 82 10000 10.8 350 11:27 18.12.2020
4717 Clouds 16 1018 82 10000 10.8 360 10:40 18.12.2020
4718 Clouds 16 1017 82 10000 11.3 10 10:21 18.12.2020
4719 Clouds 16 1017 82 10000 11.3 10 09:55 18.12.2020
4720 Clouds 16 1017 82 10000 10.3 10 09:36 18.12.2020
4721 Clouds 16 1017 77 10000 10.8 360 09:18 18.12.2020
4722 Clouds 16 1016 72 10000 10.8 350 08:42 18.12.2020
4723 Clouds 17 1016 72 10000 12.3 350 07:52 18.12.2020
4724 Clear 18 1016 68 10000 11.8 350 07:19 18.12.2020
4725 Clear 18 1016 68 10000 11.8 350 06:58 18.12.2020
4726 Clear 20 1017 64 10000 11.3 350 05:44 18.12.2020
4727 Clear 20 1017 64 10000 12.9 360 04:51 18.12.2020
4728 Clouds 21 1018 68 10000 11.3 360 02:49 18.12.2020
4729 Clouds 20 1019 72 10000 9.3 360 01:43 18.12.2020
4730 Clear 20 1018 68 10000 10.3 360 00:28 18.12.2020
4731 Clear 20 1019 64 10000 8.7 350 23:51 17.12.2020
4732 Clear 20 1019 68 10000 8.2 360 23:20 17.12.2020
4733 Clear 20 1019 68 10000 5.7 10 22:47 17.12.2020
4734 Clear 20 1019 68 10000 5.7 10 22:27 17.12.2020
4735 Clear 19 1020 72 10000 4.6 350 21:44 17.12.2020
4736 Clear 19 1020 72 10000 4.6 350 21:44 17.12.2020
4737 Clear 19 1020 72 10000 4.6 350 21:44 17.12.2020
4738 Clear 19 1020 72 10000 4.6 350 21:44 17.12.2020
4739 Clear 18 1020 77 10000 1.5 330 21:21 17.12.2020
4740 Clear 16 1020 87 9000 1 200 20:45 17.12.2020
4741 Clear 16 1020 87 10000 1.5 20 20:19 17.12.2020
4742 Clear 16 1020 87 10000 1.5 160 19:50 17.12.2020
4743 Clouds 14 1020 87 10000 1.5 190 19:25 17.12.2020
4744 Clouds 14 1020 87 10000 1.5 190 18:56 17.12.2020
4745 Clouds 13 1019 87 10000 1 30 18:37 17.12.2020
4746 Clouds 12 1019 87 10000 1 20 18:18 17.12.2020
4747 Clouds 12 1019 87 10000 2.1 40 17:44 17.12.2020
4748 Clouds 12 1019 87 10000 1 40 17:25 17.12.2020
4749 Clouds 13 1019 87 10000 1 30 16:39 17.12.2020
4750 Clouds 13 1019 87 10000 0.5 10 16:19 17.12.2020
4751 Clouds 13 1020 87 10000 0.5 80 15:44 17.12.2020
4752 Clouds 13 1020 87 10000 0.5 50 15:26 17.12.2020
4753 Clouds 13 1020 87 10000 0.5 70 14:48 17.12.2020
4754 Clouds 14 1020 87 10000 0.5 40 14:20 17.12.2020
4755 Clouds 14 1020 82 10000 0.5 50 13:48 17.12.2020
4756 Clouds 14 1020 87 10000 0.5 30 13:22 17.12.2020
4757 Clouds 14 1021 82 10000 0.5 260 12:41 17.12.2020
4758 Clouds 15 1021 77 10000 2.1 130 12:22 17.12.2020
4759 Clouds 15 1021 72 10000 2.6 120 11:42 17.12.2020
4760 Clouds 15 1021 77 10000 3.1 150 11:22 17.12.2020
4761 Clouds 15 1020 72 10000 3.1 140 10:48 17.12.2020
4762 Clouds 16 1020 77 10000 5.1 140 09:40 17.12.2020
4763 Clouds 16 1020 77 10000 5.7 150 08:57 17.12.2020
4764 Clouds 17 1019 82 10000 10.3 150 07:44 17.12.2020
4765 Clouds 17 1019 82 10000 10.3 150 07:25 17.12.2020
4766 Clouds 17 1019 87 10000 9.3 160 06:50 17.12.2020
4767 Clouds 17 1019 87 10000 9.3 160 06:32 17.12.2020
4768 Clouds 17 1020 87 10000 6.2 190 03:31 17.12.2020
4769 Clouds 18 1020 77 10000 5.7 150 00:28 17.12.2020
4770 Clouds 18 1019 72 10000 4.1 110 23:42 16.12.2020
4771 Clouds 18 1019 68 10000 4.6 360 23:19 16.12.2020
4772 Clouds 18 1019 68 10000 5.1 360 22:49 16.12.2020
4773 Clouds 18 1019 68 10000 5.1 360 22:31 16.12.2020
4774 Clouds 18 1018 72 10000 7.7 10 21:45 16.12.2020
4775 Clouds 17 1018 72 10000 7.7 10 21:25 16.12.2020
4776 Clouds 17 1018 72 10000 6.7 360 20:52 16.12.2020
4777 Clouds 15 1017 82 10000 6.2 10 20:20 16.12.2020
4778 Clouds 15 1017 82 10000 7.2 10 19:43 16.12.2020
4779 Clouds 15 1017 82 10000 7.2 10 19:43 16.12.2020
4780 Clouds 14 1017 82 10000 8.2 10 19:18 16.12.2020
4781 Rain 14 1017 77 10000 7.7 10 18:51 16.12.2020
4782 Clouds 14 1017 77 10000 7.7 10 18:26 16.12.2020
4783 Clouds 14 1016 77 10000 8.2 10 17:42 16.12.2020
4784 Clouds 14 1017 77 10000 7.7 10 16:56 16.12.2020
4785 Rain 14 1017 77 10000 7.7 10 16:37 16.12.2020
4786 Clouds 14 1017 82 10000 8.7 10 16:19 16.12.2020
4787 Clouds 14 1017 82 10000 8.2 10 15:46 16.12.2020
4788 Clouds 14 1017 82 10000 9.3 10 15:19 16.12.2020
4789 Clouds 14 1017 82 10000 9.8 10 14:45 16.12.2020
4790 Clouds 14 1017 82 10000 9.8 10 14:27 16.12.2020
4791 Clouds 15 1018 77 10000 7.7 10 13:42 16.12.2020
4792 Clear 15 1018 77 10000 7.7 10 13:21 16.12.2020
4793 Clear 15 1018 77 10000 7.2 10 12:44 16.12.2020
4794 Clear 15 1018 77 10000 7.2 20 11:55 16.12.2020
4795 Clear 15 1018 77 10000 7.2 20 11:36 16.12.2020
4796 Clear 15 1018 77 10000 7.7 20 10:58 16.12.2020
4797 Clear 15 1018 77 10000 7.2 20 10:38 16.12.2020
4798 Clear 15 1017 77 10000 7.2 20 09:56 16.12.2020
4799 Clear 15 1017 77 10000 8.7 20 09:33 16.12.2020
4800 Clear 16 1017 72 10000 10.3 10 08:23 16.12.2020
4801 Clear 16 1017 72 10000 11.3 360 07:46 16.12.2020
4802 Clouds 16 1017 72 10000 11.3 360 07:23 16.12.2020
4803 Clear 17 1017 68 10000 11.8 10 05:31 16.12.2020
4804 Clouds 17 1017 68 10000 13.4 360 01:59 16.12.2020
4805 Clouds 17 1018 72 10000 12.3 10 23:50 15.12.2020
4806 Clouds 17 1018 72 10000 12.3 10 23:32 15.12.2020
4807 Clouds 16 1018 72 10000 13.4 10 22:42 15.12.2020
4808 Clouds 16 1018 77 10000 12.3 10 22:22 15.12.2020
4809 Clouds 16 1018 77 10000 12.3 10 21:48 15.12.2020
4810 Clouds 15 1018 77 10000 12.3 10 21:24 15.12.2020
4811 Rain 15 1018 77 10000 11.8 360 20:46 15.12.2020
4812 Clouds 15 1018 77 10000 11.3 10 20:27 15.12.2020
4813 Clouds 15 1018 77 10000 11.3 10 19:55 15.12.2020
4814 Rain 14 1018 82 10000 10.8 10 19:34 15.12.2020
4815 Clouds 14 1017 82 10000 11.8 10 18:55 15.12.2020
4816 Clouds 14 1017 82 10000 11.8 10 18:36 15.12.2020
4817 Rain 14 1017 82 10000 12.3 10 18:18 15.12.2020
4818 Clouds 14 1017 82 10000 11.3 360 17:41 15.12.2020
4819 Clouds 14 1018 82 10000 8.7 20 17:20 15.12.2020
4820 Clouds 14 1018 82 10000 8.7 20 17:20 15.12.2020
4821 Clouds 14 1018 82 10000 9.8 10 16:34 15.12.2020
4822 Clouds 14 1018 82 10000 10.3 10 15:58 15.12.2020
4823 Clouds 14 1019 82 10000 9.3 10 15:33 15.12.2020
4824 Clouds 14 1019 82 10000 9.3 10 14:51 15.12.2020
4825 Clouds 14 1019 82 10000 10.8 10 14:25 15.12.2020
4826 Clouds 14 1020 82 10000 9.8 10 13:54 15.12.2020
4827 Clouds 14 1020 82 10000 9.8 10 13:33 15.12.2020
4828 Rain 14 1020 82 10000 10.8 360 12:47 15.12.2020
4829 Clear 14 1020 82 10000 10.8 360 12:25 15.12.2020
4830 Rain 15 1020 82 10000 10.8 360 11:57 15.12.2020
4831 Rain 15 1020 82 10000 9.8 360 11:39 15.12.2020
4832 Clear 15 1020 87 10000 10.3 360 11:20 15.12.2020
4833 Rain 15 1020 82 10000 11.3 10 10:39 15.12.2020
4834 Clear 15 1020 82 10000 11.3 10 09:53 15.12.2020
4835 Rain 15 1020 82 10000 11.3 10 09:32 15.12.2020
4836 Rain 15 1020 82 10000 10.3 20 08:58 15.12.2020
4837 Rain 16 1019 77 10000 10.8 10 08:30 15.12.2020
4838 Clear 17 1019 72 10000 11.3 10 07:59 15.12.2020
4839 Rain 17 1019 68 10000 11.3 360 07:37 15.12.2020
4840 Rain 19 1020 59 10000 11.3 360 06:37 15.12.2020
4841 Clear 20 1021 56 10000 9.8 10 04:22 15.12.2020
4842 Clear 20 1023 56 10000 7.2 10 00:37 15.12.2020
4843 Clear 19 1023 63 10000 6.2 10 23:28 14.12.2020
4844 Clear 19 1024 63 10000 6.2 10 22:59 14.12.2020
4845 Clear 18 1024 68 10000 5.7 10 22:38 14.12.2020
4846 Clear 17 1024 72 10000 6.2 10 21:54 14.12.2020
4847 Clear 17 1024 72 10000 6.2 10 21:36 14.12.2020
4848 Clear 15 1024 82 10000 4.6 360 20:52 14.12.2020
4849 Clear 14 1024 82 10000 4.6 360 20:33 14.12.2020
4850 Clear 13 1024 87 10000 4.6 10 19:59 14.12.2020
4851 Clear 12 1024 81 10000 3.1 20 19:30 14.12.2020
4852 Clouds 11 1024 87 10000 4.1 10 18:55 14.12.2020
4853 Rain 10 1024 87 10000 2.1 40 18:37 14.12.2020
4854 Clouds 10 1024 81 10000 2.6 50 17:58 14.12.2020
4855 Rain 9 1024 87 10000 2.6 40 17:33 14.12.2020
4856 Clouds 9 1025 87 10000 2.1 40 16:53 14.12.2020
4857 Clouds 10 1025 87 10000 2.1 40 16:30 14.12.2020
4858 Clouds 10 1025 87 10000 2.1 40 15:53 14.12.2020
4859 Rain 10 1025 87 10000 2.6 30 15:31 14.12.2020
4860 Clouds 9 1026 87 10000 2.1 30 14:46 14.12.2020
4861 Clouds 10 1026 87 10000 2.1 30 14:27 14.12.2020
4862 Clouds 10 1026 87 10000 1 50 13:55 14.12.2020
4863 Clouds 10 1026 87 10000 1.5 40 13:33 14.12.2020
4864 Clouds 11 1026 76 10000 1 30 12:55 14.12.2020
4865 Clouds 11 1026 81 10000 0.5 120 12:31 14.12.2020
4866 Clouds 11 1026 81 10000 3.1 160 11:39 14.12.2020
4867 Rain 12 1027 81 10000 3.1 170 11:20 14.12.2020
4868 Clouds 12 1026 76 10000 3.1 170 10:27 14.12.2020
4869 Clouds 12 1026 76 10000 4.1 170 09:51 14.12.2020
4870 Rain 13 1025 76 10000 5.1 170 08:52 14.12.2020
4871 Rain 13 1025 76 10000 5.1 170 08:33 14.12.2020
4872 Clouds 14 1025 71 10000 5.1 180 07:53 14.12.2020
4873 Clouds 14 1025 71 10000 4.6 180 07:19 14.12.2020
4874 Clouds 15 1025 67 10000 5.1 170 06:33 14.12.2020
4875 Clouds 16 1026 63 10000 5.7 170 03:57 14.12.2020
4876 Rain 15 1026 72 10000 5.1 160 00:58 14.12.2020
4877 Clouds 15 1026 72 10000 5.1 160 00:39 14.12.2020
4878 Clouds 15 1026 76 10000 6.2 160 00:20 14.12.2020
4879 Rain 15 1026 72 10000 5.7 150 23:44 13.12.2020
4880 Rain 14 1026 76 10000 6.2 160 22:57 13.12.2020
4881 Clouds 13 1026 82 8000 5.1 180 22:39 13.12.2020
4882 Rain 14 1026 76 10000 5.7 170 22:18 13.12.2020
4883 Rain 14 1025 71 10000 5.1 180 21:41 13.12.2020
4884 Clouds 14 1025 76 8000 4.6 180 20:55 13.12.2020
4885 Clouds 14 1025 76 7000 4.6 190 20:25 13.12.2020
4886 Rain 12 1025 76 9000 4.6 180 19:47 13.12.2020
4887 Clouds 12 1025 76 9000 4.6 180 19:24 13.12.2020
4888 Clouds 12 1025 76 9000 5.7 180 18:54 13.12.2020
4889 Rain 12 1025 76 8000 5.1 190 18:36 13.12.2020
4890 Clouds 12 1024 71 10000 5.7 180 18:18 13.12.2020
4891 Clouds 12 1024 71 10000 6.2 180 17:44 13.12.2020
4892 Clouds 12 1024 76 9000 6.2 180 17:18 13.12.2020
4893 Clouds 12 1024 81 10000 6.2 170 16:46 13.12.2020
4894 Clouds 12 1024 81 10000 6.2 170 16:28 13.12.2020
4895 Clouds 12 1024 76 10000 6.7 180 15:45 13.12.2020
4896 Clouds 12 1024 76 10000 6.7 180 15:26 13.12.2020
4897 Clouds 12 1024 76 7000 6.2 190 14:47 13.12.2020
4898 Clouds 12 1024 76 7000 6.2 190 14:28 13.12.2020
4899 Clouds 12 1024 76 8000 5.1 190 13:48 13.12.2020
4900 Clouds 12 1024 76 8000 5.1 190 13:30 13.12.2020
4901 Clouds 12 1024 71 9000 5.7 180 12:56 13.12.2020
4902 Clouds 12 1024 71 9000 7.2 190 12:24 13.12.2020
4903 Clouds 12 1024 76 8000 5.7 180 11:58 13.12.2020
4904 Clouds 12 1024 71 10000 5.7 180 11:31 13.12.2020
4905 Clouds 12 1023 71 10000 5.7 170 10:43 13.12.2020
4906 Clear 12 1023 66 10000 6.7 160 10:21 13.12.2020
4907 Clear 12 1023 71 10000 7.2 160 09:39 13.12.2020
4908 Clear 12 1022 71 10000 6.7 160 08:47 13.12.2020
4909 Clear 13 1022 71 10000 6.7 160 08:28 13.12.2020
4910 Clouds 13 1021 66 10000 5.7 150 07:19 13.12.2020
4911 Clouds 14 1020 62 10000 7.2 150 02:44 13.12.2020
4912 Clouds 14 1020 62 10000 7.2 160 02:20 13.12.2020
4913 Clouds 15 1020 67 10000 7.7 150 01:34 13.12.2020
4914 Clouds 15 1020 67 10000 7.7 150 00:44 13.12.2020
4915 Clouds 15 1019 67 10000 7.7 150 23:37 12.12.2020
4916 Clouds 14 1019 67 10000 8.2 150 23:19 12.12.2020
4917 Clouds 15 1019 67 10000 7.2 150 22:34 12.12.2020
4918 Clouds 14 1018 67 10000 7.2 150 21:46 12.12.2020
4919 Clear 14 1018 67 10000 6.7 150 21:20 12.12.2020
4920 Clear 14 1017 67 10000 6.7 150 20:46 12.12.2020
4921 Clear 13 1013 75 10000 7.1 156 20:21 12.12.2020
4922 Clear 12 1013 78 10000 7.1 156 19:53 12.12.2020
4923 Clear 12 1015 89 10000 7.1 156 19:33 12.12.2020
4924 Clear 12 1016 76 10000 2.6 100 18:56 12.12.2020
4925 Clear 12 1016 76 10000 2.6 100 18:38 12.12.2020
4926 Clear 11 1016 76 10000 2.6 100 18:20 12.12.2020
4927 Clear 12 1015 76 10000 3.1 90 17:41 12.12.2020
4928 Clear 13 1015 71 10000 3.6 50 16:44 12.12.2020
4929 Clear 13 1015 76 10000 3.6 40 15:58 12.12.2020
4930 Clear 13 1015 76 10000 5.1 30 15:39 12.12.2020
4931 Clear 14 1015 76 10000 5.1 30 14:54 12.12.2020
4932 Clear 14 1014 71 10000 6.2 10 14:22 12.12.2020
4933 Clear 14 1013 77 10000 9.8 10 13:41 12.12.2020
4934 Clear 14 1013 77 10000 9.8 10 13:23 12.12.2020
4935 Clear 14 1014 77 10000 8.7 20 12:37 12.12.2020
4936 Clear 14 1013 77 10000 9.8 20 11:28 12.12.2020
4937 Clear 14 1014 72 10000 8.7 30 10:46 12.12.2020
4938 Clear 15 1014 67 10000 6.2 20 09:24 12.12.2020
4939 Clear 16 1013 59 10000 6.7 10 08:25 12.12.2020
4940 Clouds 17 1016 67 10000 6.7 170 01:41 12.12.2020
4941 Clouds 16 1015 72 10000 7.2 170 23:30 11.12.2020
4942 Clear 15 1013 55 10000 2.1 20 20:58 11.12.2020
4943 Clear 14 1011 58 10000 5.7 330 19:44 11.12.2020
4944 Clouds 13 1011 58 10000 5.7 350 16:59 11.12.2020
4945 Clouds 14 1010 47 10000 8.7 320 14:38 11.12.2020
4946 Clouds 14 1010 44 10000 8.2 320 13:46 11.12.2020
4947 Clear 14 1010 44 10000 7.7 320 12:28 11.12.2020
4948 Clear 13 1010 62 10000 2.1 340 11:55 11.12.2020
4949 Clear 13 1010 71 10000 1 360 11:37 11.12.2020
4950 Clear 13 1010 82 10000 2.1 350 10:40 11.12.2020
4951 Clear 17 1008 67 10000 5.1 170 07:51 11.12.2020
4952 Clouds 19 1007 49 10000 7.7 350 05:36 11.12.2020
4953 Clouds 19 1007 52 10000 8.7 350 04:47 11.12.2020
4954 Rain 16 1007 77 10000 13.9 350 00:59 11.12.2020
4955 Clouds 17 1007 68 10000 14.4 340 23:31 10.12.2020
4956 Clouds 17 1008 68 10000 7.7 350 21:55 10.12.2020
4957 Clouds 17 1008 63 10000 8.7 360 21:28 10.12.2020
4958 Clouds 16 1008 72 10000 7.2 350 20:36 10.12.2020
4959 Clear 15 1008 82 10000 6.7 360 19:31 10.12.2020
4960 Rain 15 1008 87 10000 8.2 20 18:49 10.12.2020
4961 Rain 15 1007 87 10000 7.7 20 17:36 10.12.2020
4962 Clear 15 1007 93 10000 10.3 10 16:18 10.12.2020
4963 Clear 15 1007 93 10000 8.2 20 15:24 10.12.2020
4964 Clear 15 1008 87 10000 8.2 10 14:46 10.12.2020
4965 Clear 15 1008 87 10000 7.7 10 14:21 10.12.2020
4966 Clear 15 1008 82 10000 8.2 20 12:24 10.12.2020
4967 Clear 15 1008 82 10000 8.7 20 10:57 10.12.2020
4968 Clear 16 1006 77 10000 6.7 20 08:42 10.12.2020
4969 Rain 17 1006 82 10000 7.7 10 07:31 10.12.2020
4970 Clouds 18 1005 82 10000 7.2 10 06:20 10.12.2020
4971 Rain 18 1005 88 10000 2.6 300 02:50 10.12.2020
4972 Rain 18 1005 82 10000 2.1 160 01:50 10.12.2020
4973 Rain 17 1004 93 10000 1 250 23:45 09.12.2020
4974 Rain 16 1004 100 4700 2.1 70 20:40 09.12.2020
4975 Rain 16 1004 93 6000 3.1 50 19:46 09.12.2020
4976 Rain 16 1004 100 10000 5.7 10 18:42 09.12.2020
4977 Rain 16 1004 100 10000 5.1 30 17:35 09.12.2020
4978 Rain 17 1005 93 10000 3.1 30 16:40 09.12.2020
4979 Rain 17 1005 93 10000 3.1 30 16:20 09.12.2020
4980 Clouds 17 1007 100 10000 4.6 360 14:51 09.12.2020
4981 Rain 17 1007 100 10000 4.6 360 14:27 09.12.2020
4982 Rain 17 1008 93 10000 6.2 350 13:37 09.12.2020
4983 Rain 17 1008 93 10000 6.7 350 13:18 09.12.2020
4984 Clouds 17 1008 93 10000 6.7 360 12:36 09.12.2020
4985 Rain 17 1008 93 10000 6.7 10 11:37 09.12.2020
4986 Rain 17 1008 88 10000 8.2 20 09:52 09.12.2020
4987 Rain 17 1008 93 10000 9.3 10 08:41 09.12.2020
4988 Clouds 17 1008 93 10000 7.2 350 06:56 09.12.2020
4989 Clouds 17 1009 93 10000 6.7 10 05:33 09.12.2020
4990 Rain 19 1008 88 10000 6.7 10 02:43 09.12.2020
4991 Rain 18 1010 93 10000 5.7 20 00:42 09.12.2020
4992 Rain 18 1010 93 10000 5.7 10 23:36 08.12.2020
4993 Rain 17 1010 93 10000 5.1 10 22:27 08.12.2020
4994 Rain 17 1010 93 10000 5.1 10 22:26 08.12.2020
4995 Rain 17 1009 100 9000 5.1 10 20:48 08.12.2020
4996 Rain 16 1008 100 3700 7.7 10 19:31 08.12.2020
4997 Rain 17 1008 88 10000 7.7 360 18:38 08.12.2020
4998 Rain 17 1008 82 10000 6.2 340 17:19 08.12.2020
4999 Clouds 16 1008 88 10000 8.7 30 15:25 08.12.2020
5000 Clouds 16 1009 82 10000 6.7 20 13:52 08.12.2020
5001 Clouds 16 1009 82 10000 7.7 350 12:46 08.12.2020
5002 Clouds 16 1008 82 10000 8.2 360 11:59 08.12.2020
5003 Clouds 16 1008 82 10000 8.2 350 11:24 08.12.2020
5004 Clouds 16 1008 82 10000 8.7 360 10:41 08.12.2020
5005 Clouds 16 1007 82 10000 10.8 360 09:45 08.12.2020
5006 Clouds 17 1007 77 10000 8.7 10 07:41 08.12.2020
5007 Clouds 17 1007 82 10000 9.3 10 05:42 08.12.2020
5008 Rain 18 1006 82 10000 10.8 10 02:33 08.12.2020
5009 Clouds 18 1006 77 10000 8.2 340 00:45 08.12.2020
5010 Clouds 18 1005 88 10000 8.7 340 23:46 07.12.2020
5011 Clouds 17 1005 93 10000 8.2 350 22:21 07.12.2020
5012 Clouds 17 1005 88 10000 10.3 350 21:47 07.12.2020
5013 Rain 17 1005 93 5000 10.3 340 19:36 07.12.2020
5014 Clouds 17 1005 93 9000 9.3 360 17:59 07.12.2020
5015 Rain 17 1006 82 10000 8.7 340 17:22 07.12.2020
5016 Rain 16 1006 82 10000 9.3 350 16:47 07.12.2020
5017 Rain 17 1006 82 10000 6.7 350 15:25 07.12.2020
5018 Rain 17 1006 93 10000 9.8 20 14:36 07.12.2020
5019 Rain 17 1007 93 10000 8.2 20 13:43 07.12.2020
5020 Rain 17 1007 93 10000 7.7 20 12:34 07.12.2020
5021 Clouds 17 1007 93 10000 11.3 350 11:43 07.12.2020
5022 Clouds 17 1007 93 10000 10.3 360 10:38 07.12.2020
5023 Clouds 17 1007 93 10000 8.2 350 09:24 07.12.2020
5024 Clouds 17 1005 88 10000 8.7 350 07:49 07.12.2020
5025 Clouds 18 1005 88 10000 10.3 350 05:29 07.12.2020
5026 Clouds 18 1005 88 10000 9.8 350 04:40 07.12.2020
5027 Rain 17 1006 88 9000 10.8 340 01:23 07.12.2020
5028 Rain 17 1006 93 9000 11.8 350 22:53 06.12.2020
5029 Rain 16 1006 88 10000 13.4 340 21:53 06.12.2020
5030 Rain 16 1005 93 3200 13.4 360 20:47 06.12.2020
5031 Rain 16 1005 93 3200 13.4 360 20:26 06.12.2020
5032 Rain 15 1005 93 3900 11.3 360 19:39 06.12.2020
5033 Haze 15 1006 87 4800 13.4 360 17:54 06.12.2020
5034 Clouds 16 1007 82 10000 11.3 350 16:39 06.12.2020
5035 Clouds 15 1008 77 10000 11.3 350 14:50 06.12.2020
5036 Clouds 15 1009 77 10000 12.3 350 13:30 06.12.2020
5037 Clouds 15 1009 82 10000 11.3 360 12:35 06.12.2020
5038 Clouds 15 1009 77 10000 10.8 350 11:53 06.12.2020
5039 Clouds 15 1010 77 10000 10.3 350 11:25 06.12.2020
5040 Clouds 15 1010 72 10000 11.3 350 10:39 06.12.2020
5041 Clouds 15 1010 72 10000 13.9 340 09:38 06.12.2020
5042 Clouds 15 1010 72 10000 8.7 20 07:52 06.12.2020
5043 Clouds 15 1010 63 10000 11.3 360 05:18 06.12.2020
5044 Clouds 18 1011 55 10000 8.7 360 00:46 06.12.2020
5045 Clouds 18 1011 55 10000 8.7 360 00:27 06.12.2020
5046 Clouds 18 1011 55 10000 7.2 360 23:58 05.12.2020
5047 Clear 17 1011 55 10000 3.6 60 22:26 05.12.2020
5048 Clear 17 1011 55 10000 2.6 50 21:57 05.12.2020
5049 Clear 16 1011 67 10000 3.6 50 21:31 05.12.2020
5050 Clear 16 1011 55 10000 1.5 130 20:59 05.12.2020
5051 Clear 13 1009 76 10000 4.6 210 18:50 05.12.2020
5052 Clouds 13 1008 71 10000 5.7 210 17:57 05.12.2020
5053 Rain 12 1007 76 10000 6.2 200 16:49 05.12.2020
5054 Clouds 12 1007 76 10000 6.2 200 16:28 05.12.2020
5055 Clouds 12 1006 76 10000 4.1 180 15:21 05.12.2020
5056 Clouds 13 1005 67 10000 5.1 180 13:33 05.12.2020
5057 Clouds 14 1003 77 10000 2.6 30 11:50 05.12.2020
5058 Clouds 14 1001 72 10000 3.6 340 10:39 05.12.2020
5059 Rain 14 1001 72 10000 5.7 350 09:31 05.12.2020
5060 Clouds 14 1001 77 10000 8.2 340 07:48 05.12.2020
5061 Rain 15 1001 77 10000 9.3 340 05:34 05.12.2020
5062 Clouds 16 1004 72 10000 11.3 330 00:55 05.12.2020
5063 Clouds 16 1004 72 10000 9.3 340 23:36 04.12.2020
5064 Rain 16 1006 77 10000 8.2 360 21:37 04.12.2020
5065 Clouds 15 1006 77 10000 8.2 360 19:35 04.12.2020
5066 Clouds 14 1005 77 10000 8.2 350 18:40 04.12.2020
5067 Clouds 14 1005 72 10000 9.3 10 17:47 04.12.2020
5068 Rain 14 1005 72 10000 7.2 350 16:52 04.12.2020
5069 Rain 14 1006 77 10000 7.7 10 15:26 04.12.2020
5070 Clouds 13 1007 87 10000 6.7 10 13:38 04.12.2020
5071 Clouds 14 1007 87 10000 7.2 10 13:20 04.12.2020
5072 Rain 14 1007 82 10000 6.2 360 12:41 04.12.2020
5073 Rain 14 1006 77 10000 6.7 360 10:38 04.12.2020
5074 Rain 15 1006 67 10000 5.7 340 09:30 04.12.2020
5075 Rain 17 1005 59 10000 7.7 330 06:40 04.12.2020
5076 Clear 18 1006 52 10000 9.3 340 04:54 04.12.2020
5077 Rain 18 1008 55 10000 11.8 360 01:54 04.12.2020
5078 Rain 17 1009 55 10000 10.8 360 22:51 03.12.2020
5079 Clear 16 1009 59 10000 10.8 360 21:56 03.12.2020
5080 Clear 16 1009 55 10000 8.7 350 20:47 03.12.2020
5081 Clear 14 1009 62 10000 5.7 20 19:25 03.12.2020
5082 Clear 14 1009 71 10000 6.7 20 18:48 03.12.2020
5083 Clear 13 1009 76 10000 8.7 10 17:21 03.12.2020
5084 Clear 13 1009 76 10000 8.7 10 16:59 03.12.2020
5085 Rain 13 1009 76 10000 9.8 10 15:39 03.12.2020
5086 Rain 13 1009 76 10000 8.2 10 15:21 03.12.2020
5087 Clear 13 1009 76 10000 8.2 10 14:25 03.12.2020
5088 Clear 14 1010 76 10000 6.7 20 13:24 03.12.2020
5089 Clear 14 1010 67 10000 7.7 30 12:26 03.12.2020
5090 Rain 14 1010 72 10000 7.7 20 11:23 03.12.2020
5091 Clear 16 1010 59 10000 8.2 20 08:49 03.12.2020
5092 Clear 20 1009 49 10000 8.7 360 04:44 03.12.2020
5093 Clear 19 1009 42 10000 4.1 180 02:26 03.12.2020
5094 Clear 19 1008 40 10000 2.6 180 00:42 03.12.2020
5095 Clear 19 1006 34 10000 5.7 290 22:47 02.12.2020
5096 Clear 19 1006 34 10000 5.7 290 22:21 02.12.2020
5097 Clear 17 1005 68 10000 7.7 20 20:55 02.12.2020
5098 Clear 16 1004 77 10000 7.2 350 20:37 02.12.2020
5099 Clear 16 1004 87 10000 8.2 360 20:18 02.12.2020
5100 Clouds 15 1005 93 10000 8.2 340 17:56 02.12.2020
5101 Rain 15 1005 87 10000 8.2 330 17:37 02.12.2020
5102 Rain 15 1005 87 10000 9.8 330 17:19 02.12.2020
5103 Clouds 15 1006 82 10000 13.4 340 14:49 02.12.2020
5104 Clear 14 1010 82 10000 11.8 350 11:52 02.12.2020
5105 Clear 14 1010 77 10000 11.3 340 10:28 02.12.2020
5106 Clear 15 1010 72 10000 13.4 340 08:40 02.12.2020
5107 Clouds 15 1014 55 10000 11.3 10 03:57 02.12.2020
5108 Clouds 14 1017 67 10000 8.7 10 22:21 01.12.2020
5109 Clouds 11 1018 76 10000 6.7 40 20:49 01.12.2020
5110 Clouds 8 1019 87 10000 5.7 10 19:35 01.12.2020
5111 Clouds 7 1019 81 10000 5.1 360 17:51 01.12.2020
5112 Clouds 7 1020 93 10000 2.6 20 16:35 01.12.2020
5113 Clouds 7 1021 81 10000 1 90 13:38 01.12.2020
5114 Clouds 8 1021 76 10000 1.5 20 12:25 01.12.2020
5115 Clouds 9 1021 71 10000 1 10 11:26 01.12.2020
5116 Clouds 10 1020 66 10000 1.5 90 10:38 01.12.2020
5117 Clear 12 1019 66 10000 8.7 150 08:21 01.12.2020
5118 Clear 13 1018 62 10000 10.3 170 06:48 01.12.2020
5119 Clouds 14 1016 62 10000 12.9 180 01:53 01.12.2020
5120 Clouds 14 1015 67 10000 12.9 180 00:56 01.12.2020
5121 Clouds 13 1014 66 10000 15.4 180 23:21 30.11.2020
5122 Clouds 12 1014 66 10000 14.4 180 22:44 30.11.2020
5123 Clouds 12 1014 66 10000 14.4 180 22:25 30.11.2020
5124 Clouds 11 1012 71 9000 15.9 180 20:57 30.11.2020
5125 Rain 11 1010 76 6000 16.5 190 19:42 30.11.2020
5126 Rain 11 1007 81 4700 18.5 190 18:24 30.11.2020
5127 Rain 10 1006 87 5000 17.5 190 17:48 30.11.2020
5128 Rain 11 1006 82 4700 15.9 190 16:55 30.11.2020
5129 Rain 11 999 91 10000 1.79 315 15:59 30.11.2020
5130 Haze 11 1004 87 4300 13.9 190 14:47 30.11.2020
5131 Rain 11 1003 82 5000 16.5 190 13:53 30.11.2020
5132 Rain 11 1002 87 5000 17.5 190 12:26 30.11.2020
5133 Haze 11 1002 87 5000 17 190 11:58 30.11.2020
5134 Rain 11 1000 87 4100 15.4 190 10:28 30.11.2020
5135 Rain 11 1000 93 6000 14.4 180 09:50 30.11.2020
5136 Rain 12 996 100 2200 10.3 180 07:18 30.11.2020
5137 Rain 14 997 82 10000 11.3 10 00:54 30.11.2020
5138 Clouds 14 1000 82 10000 8.2 10 21:53 29.11.2020
5139 Clouds 14 1000 82 10000 8.2 10 21:53 29.11.2020
5140 Clouds 15 1000 77 10000 7.2 350 21:32 29.11.2020
5141 Clouds 15 1000 82 10000 8.7 20 20:38 29.11.2020
5142 Clouds 12 1002 87 10000 2.6 20 17:48 29.11.2020
5143 Clouds 11 1002 87 10000 3.6 360 16:27 29.11.2020
5144 Clouds 13 1004 87 10000 2.1 260 13:24 29.11.2020
5145 Clouds 13 1004 87 10000 2.1 260 13:24 29.11.2020
5146 Clouds 13 1005 87 10000 4.6 190 11:49 29.11.2020
5147 Clouds 13 1005 87 10000 3.6 190 10:53 29.11.2020
5148 Clear 14 1003 87 10000 5.7 180 08:39 29.11.2020
5149 Clear 17 1002 77 10000 5.7 180 06:33 29.11.2020
5150 Clouds 17 999 77 10000 2.1 60 00:30 29.11.2020
5151 Rain 14 999 93 10000 3.1 50 22:57 28.11.2020
5152 Rain 13 998 93 10000 8.7 20 20:50 28.11.2020
5153 Rain 13 998 93 10000 8.7 20 20:50 28.11.2020
5154 Rain 13 999 93 10000 8.2 10 19:51 28.11.2020
5155 Rain 13 999 100 9000 8.7 360 19:24 28.11.2020
5156 Rain 13 1000 93 9000 8.7 360 18:51 28.11.2020
5157 Rain 12 1001 87 10000 8.7 350 17:48 28.11.2020
5158 Rain 13 1001 76 10000 10.8 360 16:45 28.11.2020
5159 Rain 13 1003 76 10000 10.3 360 14:57 28.11.2020
5160 Rain 13 1004 76 10000 9.8 340 13:27 28.11.2020
5161 Rain 13 1005 76 10000 11.3 360 11:23 28.11.2020
5162 Clouds 14 1007 76 10000 9.3 360 07:55 28.11.2020
5163 Clouds 15 1011 54 10000 3.1 190 03:34 28.11.2020
5164 Clouds 15 1012 58 10000 3.6 180 01:51 28.11.2020
5165 Clear 13 1014 66 10000 5.7 190 23:19 27.11.2020
5166 Clear 12 1014 71 10000 7.2 170 21:51 27.11.2020
5167 Clear 12 1013 71 10000 8.2 180 20:37 27.11.2020
5168 Clear 10 1013 71 10000 8.2 190 19:30 27.11.2020
5169 Rain 10 1013 76 10000 9.8 180 18:51 27.11.2020
5170 Clouds 11 1011 76 10000 10.8 190 15:39 27.11.2020
5171 Clouds 11 1011 76 10000 10.8 190 14:18 27.11.2020
5172 Rain 11 1011 81 10000 10.3 180 12:48 27.11.2020
5173 Rain 11 1011 76 10000 10.3 180 11:57 27.11.2020
5174 Rain 10 1010 76 10000 10.3 180 10:51 27.11.2020
5175 Rain 10 1010 76 10000 11.3 180 10:27 27.11.2020
5176 Rain 12 1003 87 10000 0.45 202 07:30 27.11.2020
5177 Clouds 18 1000 73 10000 0.89 21 22:47 26.11.2020
5178 Clouds 17 1000 77 10000 2.24 359 22:22 26.11.2020
5179 Clouds 17 1001 82 10000 9.8 10 21:39 26.11.2020
5180 Clouds 15 1001 82 10000 10.3 20 19:48 26.11.2020
5181 Clouds 15 1001 87 10000 8.2 20 18:36 26.11.2020
5182 Clouds 15 1002 87 10000 8.2 10 16:38 26.11.2020
5183 Clouds 15 1003 93 10000 8.2 10 13:44 26.11.2020
5184 Clouds 16 1003 88 10000 7.2 360 12:52 26.11.2020
5185 Clouds 16 1003 93 10000 7.2 360 12:29 26.11.2020
5186 Clouds 16 1004 82 10000 4.6 350 10:39 26.11.2020
5187 Clouds 16 1004 82 10000 4.1 10 10:18 26.11.2020
5188 Clouds 16 1004 82 10000 3.1 360 09:34 26.11.2020
5189 Clouds 17 1003 87 10000 2.1 200 08:47 26.11.2020
5190 Clouds 17 1003 87 10000 2.1 200 08:28 26.11.2020
5191 Clouds 19 1006 77 10000 1.5 20 02:18 26.11.2020
5192 Rain 15 1007 100 10000 3.1 360 21:54 25.11.2020
5193 Rain 15 1007 100 5000 1.5 20 20:32 25.11.2020
5194 Rain 14 1007 93 10000 0.5 100 18:59 25.11.2020
5195 Rain 14 1006 93 10000 0.5 350 17:28 25.11.2020
5196 Rain 14 1006 93 10000 2.1 160 15:43 25.11.2020
5197 Rain 14 1002 91 10000 1.75 68 14:57 25.11.2020
5198 Rain 14 1007 93 10000 1.5 350 13:45 25.11.2020
5199 Rain 14 1007 93 10000 1.5 300 12:47 25.11.2020
5200 Rain 14 1007 93 10000 2.1 220 11:23 25.11.2020
5201 Rain 15 1007 82 10000 1 250 09:21 25.11.2020
5202 Rain 15 1007 77 10000 1 30 08:50 25.11.2020
5203 Rain 16 1006 72 10000 4.1 110 07:21 25.11.2020
5204 Rain 18 1007 72 10000 3.6 40 03:49 25.11.2020
5205 Rain 15 1007 77 10000 3.1 70 01:48 25.11.2020
5206 Rain 14 1009 93 8000 2.6 210 00:19 25.11.2020
5207 Rain 13 1009 93 9000 2.6 230 23:35 24.11.2020
5208 Rain 13 1009 93 9000 2.6 230 23:35 24.11.2020
5209 Rain 13 1009 87 7000 1 110 22:39 24.11.2020
5210 Rain 13 1009 87 7000 1 110 22:39 24.11.2020
5211 Rain 12 1009 82 10000 2.1 60 21:35 24.11.2020
5212 Rain 12 1009 76 10000 1.5 60 20:58 24.11.2020
5213 Drizzle 13 1009 76 10000 3.6 90 19:48 24.11.2020
5214 Rain 12 1007 91 10000 3.37 114 17:32 24.11.2020
5215 Rain 12 1009 87 10000 1.5 170 16:58 24.11.2020
5216 Rain 12 1010 93 10000 2.6 170 16:38 24.11.2020
5217 Rain 13 1010 82 10000 1 270 15:56 24.11.2020
5218 Rain 13 1010 82 10000 1 50 15:20 24.11.2020
5219 Drizzle 12 1010 87 10000 2.6 360 14:44 24.11.2020
5220 Rain 13 1011 76 10000 2.6 360 13:36 24.11.2020
5221 Clouds 13 1011 76 10000 4.6 360 12:39 24.11.2020
5222 Clouds 13 1011 76 10000 4.1 360 11:59 24.11.2020
5223 Rain 14 1011 72 10000 3.6 350 11:25 24.11.2020
5224 Rain 14 1011 72 10000 3.1 340 10:25 24.11.2020
5225 Rain 14 1010 72 10000 3.6 20 09:40 24.11.2020
5226 Clouds 15 1010 67 10000 3.6 30 08:59 24.11.2020
5227 Clouds 16 1010 67 10000 3.6 200 06:20 24.11.2020
5228 Clouds 16 1011 72 10000 5.7 210 00:59 24.11.2020
5229 Clouds 15 1012 67 10000 2.6 190 22:24 23.11.2020
5230 Clouds 14 1012 67 10000 1 310 21:32 23.11.2020
5231 Clouds 13 1012 71 10000 3.1 30 20:31 23.11.2020
5232 Clouds 11 1012 81 10000 2.1 30 19:59 23.11.2020
5233 Clouds 10 1012 76 10000 2.1 20 17:57 23.11.2020
5234 Clouds 10 1012 81 10000 2.1 30 16:56 23.11.2020
5235 Clouds 10 1013 81 10000 1.5 360 15:18 23.11.2020
5236 Clouds 10 1013 81 10000 1 360 14:37 23.11.2020
5237 Clouds 10 1013 76 10000 2.6 140 12:41 23.11.2020
5238 Clouds 10 1014 81 10000 2.6 150 12:18 23.11.2020
5239 Clouds 11 1014 81 10000 2.6 150 11:41 23.11.2020
5240 Drizzle 11 1013 71 10000 1 240 10:19 23.11.2020
5241 Rain 11 1013 76 10000 2.1 150 09:31 23.11.2020
5242 Rain 11 1013 71 10000 4.1 150 08:36 23.11.2020
5243 Clouds 13 1013 62 10000 5.1 160 06:36 23.11.2020
5244 Clouds 14 1016 62 10000 4.6 160 23:59 22.11.2020
5245 Clouds 13 1016 66 10000 6.7 170 22:40 22.11.2020
5246 Clouds 12 1016 71 10000 5.7 180 21:26 22.11.2020
5247 Clouds 11 1016 71 10000 6.2 170 20:43 22.11.2020
5248 Clouds 11 1016 76 10000 6.7 170 19:51 22.11.2020
5249 Clouds 10 1015 71 10000 6.7 170 18:39 22.11.2020
5250 Clouds 10 1015 71 10000 8.2 160 16:39 22.11.2020
5251 Clear 10 1015 71 10000 9.8 160 15:29 22.11.2020
5252 Clear 10 1015 71 10000 10.3 170 14:27 22.11.2020
5253 Clear 10 1016 76 10000 7.7 170 12:44 22.11.2020
5254 Clear 11 1016 76 10000 8.2 160 11:55 22.11.2020
5255 Clear 11 1016 76 10000 8.2 160 11:55 22.11.2020
5256 Clear 11 1016 71 10000 8.7 170 11:20 22.11.2020
5257 Clear 11 1015 66 10000 8.7 170 10:38 22.11.2020
5258 Clear 11 1014 66 10000 11.8 170 08:26 22.11.2020
5259 Clouds 13 1013 66 10000 12.3 170 01:47 22.11.2020
5260 Clouds 13 1012 62 10000 10.8 190 22:52 21.11.2020
5261 Rain 11 1012 71 10000 10.3 200 21:32 21.11.2020
5262 Rain 10 1012 71 10000 8.7 190 20:54 21.11.2020
5263 Rain 10 1012 76 10000 7.7 180 20:29 21.11.2020
5264 Clouds 10 1011 81 10000 6.2 170 19:50 21.11.2020
5265 Rain 10 1011 81 10000 7.2 190 19:25 21.11.2020
5266 Clouds 11 1010 81 10000 11.3 170 17:57 21.11.2020
5267 Rain 12 1008 66 10000 5.7 150 16:48 21.11.2020
5268 Clouds 12 1007 76 10000 5.7 160 15:45 21.11.2020
5269 Rain 12 1007 82 10000 4.6 170 15:21 21.11.2020
5270 Clear 12 1007 87 10000 5.1 200 14:42 21.11.2020
5271 Rain 13 1007 82 10000 3.6 230 13:41 21.11.2020
5272 Clouds 14 1007 82 10000 4.1 260 12:24 21.11.2020
5273 Clouds 14 1007 82 10000 3.6 20 11:54 21.11.2020
5274 Rain 15 1006 82 10000 6.2 350 10:37 21.11.2020
5275 Rain 15 1006 82 10000 10.3 340 09:22 21.11.2020
5276 Rain 15 1006 77 10000 11.3 330 08:50 21.11.2020
5277 Clouds 15 1009 77 10000 10.8 360 05:43 21.11.2020
5278 Clouds 15 1009 72 10000 11.8 340 04:23 21.11.2020
5279 Clouds 16 1011 72 10000 9.3 340 00:26 21.11.2020
5280 Rain 17 1012 77 10000 12.3 340 23:23 20.11.2020
5281 Clouds 16 1013 82 10000 10.3 360 21:47 20.11.2020
5282 Clouds 16 1013 82 10000 10.3 360 21:26 20.11.2020
5283 Clouds 16 1013 82 10000 10.3 360 21:26 20.11.2020
5284 Clouds 15 1014 87 10000 9.8 10 20:42 20.11.2020
5285 Clouds 15 1014 87 10000 10.3 10 19:37 20.11.2020
5286 Clouds 15 1014 87 10000 9.3 20 18:28 20.11.2020
5287 Clouds 14 1015 82 10000 8.7 10 17:32 20.11.2020
5288 Clouds 14 1015 82 10000 9.3 10 16:57 20.11.2020
5289 Clouds 14 1015 82 10000 9.8 10 16:37 20.11.2020
5290 Clouds 14 1016 82 10000 9.8 360 15:48 20.11.2020
5291 Clouds 14 1016 82 10000 8.7 20 14:23 20.11.2020
5292 Clouds 14 1017 82 10000 7.7 20 13:29 20.11.2020
5293 Clouds 14 1018 82 10000 7.2 30 12:59 20.11.2020
5294 Clouds 14 1018 87 10000 7.7 10 12:28 20.11.2020
5295 Clouds 14 1019 82 10000 6.2 30 11:36 20.11.2020
5296 Rain 14 1019 82 10000 7.2 360 09:56 20.11.2020
5297 Clouds 15 1019 77 10000 6.2 10 08:35 20.11.2020
5298 Clear 15 1019 72 10000 5.7 350 07:58 20.11.2020
5299 Clouds 18 1019 68 10000 7.2 360 05:20 20.11.2020
5300 Clouds 18 1019 68 10000 7.2 360 03:42 20.11.2020
5301 Clouds 16 1018 78 10000 0.45 11 22:33 19.11.2020
5302 Clouds 15 1020 72 10000 4.1 10 21:54 19.11.2020
5303 Clouds 13 1020 76 10000 4.6 20 20:59 19.11.2020
5304 Clear 12 1019 81 10000 4.1 360 20:21 19.11.2020
5305 Clear 12 1019 81 10000 4.1 360 20:21 19.11.2020
5306 Clouds 10 1019 81 10000 3.6 20 19:27 19.11.2020
5307 Clouds 9 1019 87 10000 3.1 30 18:55 19.11.2020
5308 Clouds 9 1019 87 10000 3.1 30 18:55 19.11.2020
5309 Clouds 9 1019 76 10000 1.5 190 17:35 19.11.2020
5310 Clouds 10 1019 76 10000 3.1 180 16:39 19.11.2020
5311 Clouds 10 1019 76 10000 4.1 200 15:31 19.11.2020
5312 Clouds 10 1019 76 10000 5.1 200 13:58 19.11.2020
5313 Clouds 10 1019 76 10000 4.6 190 13:38 19.11.2020
5314 Clear 11 1019 76 10000 5.1 190 12:55 19.11.2020
5315 Clear 11 1020 76 10000 6.2 190 12:34 19.11.2020
5316 Clear 11 1020 76 10000 5.7 190 11:41 19.11.2020
5317 Clear 11 1020 76 10000 5.7 190 11:22 19.11.2020
5318 Clear 11 1019 76 10000 6.2 190 10:44 19.11.2020
5319 Clear 12 1019 76 10000 5.7 180 09:48 19.11.2020
5320 Clear 12 1019 76 10000 6.2 170 09:28 19.11.2020
5321 Clear 12 1018 76 10000 6.7 170 08:44 19.11.2020
5322 Clear 12 1018 71 10000 7.2 170 07:57 19.11.2020
5323 Clear 14 1017 67 10000 9.3 180 01:48 19.11.2020
5324 Clear 14 1017 67 10000 9.3 180 01:48 19.11.2020
5325 Clouds 14 1017 62 10000 11.3 180 00:33 19.11.2020
5326 Clouds 13 1017 71 10000 10.3 180 23:47 18.11.2020
5327 Clouds 13 1017 71 10000 10.3 180 23:23 18.11.2020
5328 Clouds 13 1016 62 10000 11.3 190 22:29 18.11.2020
5329 Clouds 12 1016 71 10000 11.3 180 21:44 18.11.2020
5330 Clouds 12 1016 71 10000 11.3 180 21:26 18.11.2020
5331 Clouds 12 1016 76 10000 10.8 180 20:40 18.11.2020
5332 Clouds 11 1015 81 10000 10.8 170 19:44 18.11.2020
5333 Clouds 11 1015 81 10000 10.8 170 19:22 18.11.2020
5334 Clouds 11 1015 81 10000 10.8 170 19:22 18.11.2020
5335 Clouds 11 1014 76 10000 10.8 190 18:45 18.11.2020
5336 Clouds 11 1014 76 10000 10.8 190 18:45 18.11.2020
5337 Clouds 11 1014 81 10000 8.7 180 17:45 18.11.2020
5338 Clouds 11 1014 76 10000 10.3 180 16:54 18.11.2020
5339 Clouds 11 1013 81 10000 8.7 190 16:19 18.11.2020
5340 Clouds 11 1013 82 10000 9.8 190 14:42 18.11.2020
5341 Clouds 11 1013 82 10000 9.8 190 14:22 18.11.2020
5342 Clouds 11 1013 82 10000 10.3 180 13:26 18.11.2020
5343 Clouds 12 1012 82 10000 9.8 180 12:44 18.11.2020
5344 Clouds 12 1012 82 10000 9.3 180 11:56 18.11.2020
5345 Clouds 11 1011 82 10000 10.3 180 10:58 18.11.2020
5346 Clouds 11 1011 82 10000 10.3 180 10:30 18.11.2020
5347 Rain 11 1010 87 10000 10.8 190 08:43 18.11.2020
5348 Rain 11 1009 93 5000 11.8 190 07:28 18.11.2020
5349 Rain 12 1007 93 8000 9.8 170 04:34 18.11.2020
5350 Rain 14 1005 87 9000 4.6 230 00:20 18.11.2020
5351 Rain 15 1004 87 10000 5.1 240 23:24 17.11.2020
5352 Rain 15 1005 93 9000 3.1 360 22:44 17.11.2020
5353 Rain 15 1005 93 9000 3.1 360 22:25 17.11.2020
5354 Rain 15 1003 87 10000 3.6 50 21:46 17.11.2020
5355 Rain 15 1003 87 10000 3.6 50 21:22 17.11.2020
5356 Rain 15 1004 87 7000 3.6 300 20:43 17.11.2020
5357 Rain 15 1004 87 7000 3.6 300 20:22 17.11.2020
5358 Rain 16 1002 87 10000 9.3 360 18:56 17.11.2020
5359 Rain 16 1003 87 10000 8.7 360 18:22 17.11.2020
5360 Rain 16 1003 82 10000 8.7 360 17:27 17.11.2020
5361 Rain 16 1004 88 10000 8.2 360 16:33 17.11.2020
5362 Clouds 16 1004 88 10000 6.2 350 15:53 17.11.2020
5363 Clouds 16 1005 88 10000 8.7 340 15:34 17.11.2020
5364 Clouds 16 1005 88 10000 7.7 340 14:58 17.11.2020
5365 Clouds 16 1005 88 10000 8.7 340 14:29 17.11.2020
5366 Clouds 16 1005 88 10000 8.7 340 14:29 17.11.2020
5367 Clouds 16 1005 88 10000 8.7 350 13:42 17.11.2020
5368 Clouds 16 1005 88 10000 8.7 350 13:20 17.11.2020
5369 Clouds 16 1005 88 10000 11.8 330 12:41 17.11.2020
5370 Clouds 16 1006 82 10000 8.2 340 11:44 17.11.2020
5371 Clouds 16 1007 82 10000 9.8 350 10:56 17.11.2020
5372 Clouds 16 1007 82 10000 12.3 350 10:33 17.11.2020
5373 Clouds 16 1006 82 10000 12.3 340 09:51 17.11.2020
5374 Clouds 16 1006 82 10000 12.3 340 09:29 17.11.2020
5375 Clouds 16 1006 82 10000 12.3 340 09:29 17.11.2020
5376 Clouds 16 1007 77 10000 10.8 360 08:25 17.11.2020
5377 Clouds 16 1007 82 10000 10.8 10 07:49 17.11.2020
5378 Clouds 16 1007 82 10000 12.9 360 06:54 17.11.2020
5379 Clouds 17 1009 72 10000 13.9 360 04:20 17.11.2020
5380 Clouds 18 1009 72 10000 13.4 360 02:54 17.11.2020
5381 Clouds 18 1010 72 10000 12.9 360 01:25 17.11.2020
5382 Clouds 18 1010 72 10000 12.9 360 01:25 17.11.2020
5383 Clouds 18 1009 68 10000 11.8 360 00:56 17.11.2020
5384 Clouds 18 1010 77 10000 11.3 10 23:50 16.11.2020
5385 Clouds 18 1010 72 10000 10.8 10 23:29 16.11.2020
5386 Clouds 18 1011 77 10000 11.8 10 22:48 16.11.2020
5387 Clouds 17 1011 77 10000 11.8 10 22:21 16.11.2020
5388 Clouds 16 1011 77 10000 10.3 360 21:47 16.11.2020
5389 Clouds 16 1011 77 10000 10.3 360 21:25 16.11.2020
5390 Clouds 16 1011 72 10000 10.3 10 20:50 16.11.2020
5391 Clouds 15 1010 77 10000 7.7 10 20:24 16.11.2020
5392 Clouds 15 1010 82 10000 6.7 10 19:39 16.11.2020
5393 Clouds 14 1010 82 10000 6.7 10 19:21 16.11.2020
5394 Clouds 14 1011 82 10000 4.6 10 18:41 16.11.2020
5395 Clouds 13 1011 87 10000 4.6 10 17:51 16.11.2020
5396 Clouds 13 1011 93 10000 4.1 10 17:22 16.11.2020
5397 Clouds 13 1011 93 10000 4.1 10 16:54 16.11.2020
5398 Clouds 13 1011 93 10000 4.1 10 16:36 16.11.2020
5399 Clouds 13 1012 87 10000 4.1 10 16:18 16.11.2020
5400 Clouds 13 1012 87 10000 3.6 350 15:41 16.11.2020
5401 Clouds 13 1012 87 10000 2.6 360 15:21 16.11.2020
5402 Clouds 13 1012 82 10000 2.6 340 14:39 16.11.2020
5403 Clouds 14 1012 82 10000 2.6 350 13:33 16.11.2020
5404 Clouds 14 1012 87 10000 4.1 360 12:34 16.11.2020
5405 Clouds 15 1012 82 10000 5.7 10 11:44 16.11.2020
5406 Clouds 15 1012 82 10000 5.7 10 11:25 16.11.2020
5407 Clouds 15 1012 82 10000 6.7 10 10:51 16.11.2020
5408 Clear 15 1012 82 10000 7.2 10 10:27 16.11.2020
5409 Clear 15 1011 82 10000 6.7 20 09:59 16.11.2020
5410 Clear 15 1010 82 10000 7.7 20 09:40 16.11.2020
5411 Clear 15 1010 82 10000 8.2 20 08:49 16.11.2020
5412 Clear 15 1009 82 10000 9.3 20 08:27 16.11.2020
5413 Clear 16 1009 77 10000 9.8 10 07:43 16.11.2020
5414 Clouds 16 1009 82 10000 8.2 360 06:47 16.11.2020
5415 Clouds 16 1009 82 10000 8.2 360 06:47 16.11.2020
5416 Clouds 16 1008 77 10000 10.8 350 05:53 16.11.2020
5417 Clouds 17 1009 77 10000 10.8 360 04:36 16.11.2020
5418 Clouds 18 1009 72 10000 10.3 360 01:47 16.11.2020
5419 Clouds 18 1009 72 10000 10.3 360 01:21 16.11.2020
5420 Clouds 17 1010 88 10000 11.3 360 23:48 15.11.2020
5421 Clouds 17 1010 82 10000 10.8 350 23:21 15.11.2020
5422 Clouds 17 1010 82 10000 10.8 360 22:39 15.11.2020
5423 Clouds 17 1010 82 10000 10.8 360 22:18 15.11.2020
5424 Clouds 16 1011 88 10000 9.3 350 21:41 15.11.2020
5425 Clouds 16 1011 88 10000 9.3 350 21:20 15.11.2020
5426 Clouds 16 1010 88 10000 7.7 350 20:40 15.11.2020
5427 Clouds 16 1010 88 10000 9.3 350 20:18 15.11.2020
5428 Clouds 16 1010 93 10000 7.7 350 19:43 15.11.2020
5429 Clouds 16 1010 93 10000 7.7 350 19:22 15.11.2020
5430 Clouds 16 1010 87 10000 9.8 360 18:55 15.11.2020
5431 Clouds 16 1010 87 10000 10.3 360 18:37 15.11.2020
5432 Clouds 15 1011 87 10000 9.8 360 18:18 15.11.2020
5433 Clouds 15 1011 87 10000 8.7 10 17:42 15.11.2020
5434 Clouds 15 1011 87 10000 8.7 360 17:22 15.11.2020
5435 Clouds 15 1012 87 10000 9.3 360 16:44 15.11.2020
5436 Clouds 15 1012 87 10000 8.7 350 16:20 15.11.2020
5437 Clouds 15 1012 87 10000 8.7 350 15:49 15.11.2020
5438 Clouds 15 1012 87 10000 7.7 10 15:26 15.11.2020
5439 Clouds 15 1012 87 10000 7.7 20 14:55 15.11.2020
5440 Clouds 15 1012 87 10000 7.7 10 14:28 15.11.2020
5441 Clouds 15 1013 87 10000 7.7 10 13:53 15.11.2020
5442 Clouds 16 1013 82 10000 7.7 10 13:35 15.11.2020
5443 Clouds 16 1013 82 10000 7.2 10 12:50 15.11.2020
5444 Clear 16 1013 87 10000 7.7 10 12:20 15.11.2020
5445 Clear 16 1013 87 10000 8.7 10 11:45 15.11.2020
5446 Clear 16 1013 87 10000 9.3 10 11:19 15.11.2020
5447 Clear 16 1013 87 10000 9.3 10 10:53 15.11.2020
5448 Clear 16 1013 82 10000 8.7 10 10:31 15.11.2020
5449 Clear 16 1012 82 10000 9.3 10 09:56 15.11.2020
5450 Clear 16 1012 82 10000 8.7 10 09:37 15.11.2020
5451 Clear 16 1012 82 10000 9.3 10 09:18 15.11.2020
5452 Clear 16 1012 82 10000 8.2 20 08:43 15.11.2020
5453 Clear 16 1012 82 10000 8.7 20 07:47 15.11.2020
5454 Clear 16 1012 82 10000 9.3 10 06:49 15.11.2020
5455 Clear 18 1012 72 10000 10.3 360 04:56 15.11.2020
5456 Clear 19 1013 63 10000 10.3 360 02:27 15.11.2020
5457 Clear 19 1013 63 10000 10.8 10 00:36 15.11.2020
5458 Clear 18 1014 68 10000 10.8 10 00:18 15.11.2020
5459 Clear 19 1014 68 10000 9.3 10 23:20 14.11.2020
5460 Clear 18 1014 63 10000 8.2 10 22:45 14.11.2020
5461 Clear 18 1014 68 10000 8.2 10 22:20 14.11.2020
5462 Clear 17 1014 77 10000 8.2 20 21:39 14.11.2020
5463 Clear 17 1013 77 10000 7.7 20 21:21 14.11.2020
5464 Clear 16 1013 77 10000 7.2 30 20:48 14.11.2020
5465 Clear 15 1013 77 10000 7.2 30 20:24 14.11.2020
5466 Clear 15 1013 77 10000 7.7 30 19:39 14.11.2020
5467 Clear 14 1013 77 10000 7.7 30 19:19 14.11.2020
5468 Clear 13 1013 82 10000 7.7 40 18:41 14.11.2020
5469 Clear 13 1013 82 10000 7.7 40 18:22 14.11.2020
5470 Clear 13 1013 82 10000 8.2 30 17:45 14.11.2020
5471 Clear 13 1013 82 10000 8.2 30 17:45 14.11.2020
5472 Clear 14 1013 82 10000 8.2 30 17:27 14.11.2020
5473 Clear 13 1013 82 10000 6.7 30 16:52 14.11.2020
5474 Clear 13 1013 82 10000 7.7 40 16:34 14.11.2020
5475 Clear 14 1013 82 10000 8.2 40 15:56 14.11.2020
5476 Clear 14 1013 87 10000 7.7 30 15:32 14.11.2020
5477 Clear 14 1014 87 10000 7.7 30 14:57 14.11.2020
5478 Clear 14 1014 82 10000 8.2 20 14:30 14.11.2020
5479 Clear 14 1014 82 10000 8.7 20 13:55 14.11.2020
5480 Clear 14 1014 82 10000 10.8 20 13:37 14.11.2020
5481 Clear 14 1014 82 10000 10.3 10 13:18 14.11.2020
5482 Clear 14 1014 82 10000 10.3 10 12:39 14.11.2020
5483 Clear 14 1014 82 10000 10.3 10 12:18 14.11.2020
5484 Clear 14 1014 82 10000 9.3 10 11:39 14.11.2020
5485 Clear 14 1014 82 10000 8.2 10 11:18 14.11.2020
5486 Clear 14 1014 82 10000 9.8 10 10:40 14.11.2020
5487 Clear 14 1014 82 10000 9.8 10 10:22 14.11.2020
5488 Clear 15 1014 82 10000 11.3 360 09:45 14.11.2020
5489 Clear 15 1014 82 10000 11.3 360 09:27 14.11.2020
5490 Clear 15 1013 82 10000 13.4 360 08:42 14.11.2020
5491 Clear 15 1013 82 10000 13.4 360 08:23 14.11.2020
5492 Clear 15 1013 77 10000 14.9 360 07:42 14.11.2020
5493 Clear 15 1013 77 10000 14.9 360 07:20 14.11.2020
5494 Clear 15 1013 77 10000 14.9 360 06:28 14.11.2020
5495 Clear 17 1013 68 10000 14.4 360 05:18 14.11.2020
5496 Clear 17 1014 63 10000 13.4 360 03:21 14.11.2020
5497 Clear 18 1014 59 10000 12.9 360 00:28 14.11.2020
5498 Clear 17 1015 67 10000 13.9 360 23:38 13.11.2020
5499 Clear 17 1015 63 10000 14.9 360 23:19 13.11.2020
5500 Clear 16 1015 67 10000 13.9 360 22:41 13.11.2020
5501 Clear 16 1015 67 10000 13.9 360 22:22 13.11.2020
5502 Clear 16 1015 67 10000 12.9 360 21:51 13.11.2020
5503 Clouds 15 1015 67 10000 13.4 360 21:27 13.11.2020
5504 Clouds 15 1015 67 10000 13.9 360 20:54 13.11.2020
5505 Rain 14 1015 67 10000 13.4 360 20:33 13.11.2020
5506 Clear 14 1015 71 10000 12.3 360 19:59 13.11.2020
5507 Rain 13 1016 71 10000 12.3 350 19:40 13.11.2020
5508 Clouds 13 1016 71 10000 12.3 350 19:22 13.11.2020
5509 Clouds 13 1015 71 10000 12.9 360 18:49 13.11.2020
5510 Rain 13 1016 67 10000 14.4 350 17:48 13.11.2020
5511 Clouds 13 1016 67 10000 14.4 350 17:24 13.11.2020
5512 Clouds 13 1016 67 10000 12.3 350 16:59 13.11.2020
5513 Clouds 13 1016 71 10000 12.9 350 16:40 13.11.2020
5514 Clouds 13 1016 67 10000 12.9 350 16:20 13.11.2020
5515 Clouds 13 1016 71 10000 12.3 350 15:41 13.11.2020
5516 Clouds 13 1017 71 10000 12.9 350 15:21 13.11.2020
5517 Rain 13 1017 76 10000 12.3 350 14:38 13.11.2020
5518 Clouds 13 1017 76 10000 13.9 350 14:19 13.11.2020
5519 Clouds 13 1017 76 10000 14.4 350 13:32 13.11.2020
5520 Clouds 13 1017 71 10000 13.9 350 12:59 13.11.2020
5521 Clouds 13 1018 76 10000 11.3 350 12:41 13.11.2020
5522 Clouds 13 1018 82 10000 10.3 360 12:23 13.11.2020
5523 Clouds 13 1018 82 10000 11.3 360 11:47 13.11.2020
5524 Clouds 13 1018 82 10000 11.3 360 11:23 13.11.2020
5525 Clouds 13 1018 82 10000 12.3 360 10:52 13.11.2020
5526 Clouds 13 1018 76 10000 12.3 350 10:33 13.11.2020
5527 Clouds 13 1018 82 10000 12.3 360 09:53 13.11.2020
5528 Clouds 13 1018 82 10000 10.8 360 09:32 13.11.2020
5529 Clouds 14 1018 82 10000 10.8 360 08:54 13.11.2020
5530 Clouds 14 1018 77 10000 11.8 360 08:30 13.11.2020
5531 Clouds 14 1018 77 10000 12.3 360 07:51 13.11.2020
5532 Clouds 14 1018 77 10000 10.8 350 07:29 13.11.2020
5533 Clouds 15 1018 67 10000 11.8 350 06:57 13.11.2020
5534 Clouds 15 1018 67 10000 11.3 350 06:37 13.11.2020
5535 Clouds 16 1018 63 10000 12.9 350 05:42 13.11.2020
5536 Clouds 16 1019 67 10000 11.8 360 04:24 13.11.2020
5537 Clouds 16 1020 67 10000 11.3 360 01:43 13.11.2020
5538 Clouds 17 1021 67 10000 10.8 360 00:37 13.11.2020
5539 Clouds 16 1021 72 10000 10.8 360 23:59 12.11.2020
5540 Clouds 16 1021 72 10000 10.8 360 23:36 12.11.2020
5541 Clouds 16 1021 72 10000 11.3 360 23:18 12.11.2020
5542 Clouds 16 1021 72 10000 11.3 360 23:18 12.11.2020
5543 Clouds 15 1021 77 10000 10.8 360 22:40 12.11.2020
5544 Clouds 15 1021 77 10000 10.3 360 21:59 12.11.2020
5545 Clouds 15 1021 77 10000 9.8 10 21:41 12.11.2020
5546 Clouds 15 1021 77 10000 9.8 10 21:22 12.11.2020
5547 Clouds 14 1020 77 10000 10.8 10 20:42 12.11.2020
5548 Clouds 14 1020 77 10000 10.8 10 20:24 12.11.2020
5549 Clouds 14 1020 82 10000 9.8 20 19:57 12.11.2020
5550 Clouds 14 1020 76 10000 9.8 20 19:39 12.11.2020
5551 Clouds 14 1020 76 10000 9.8 20 19:21 12.11.2020
5552 Clouds 13 1020 76 10000 8.2 20 18:45 12.11.2020
5553 Clouds 13 1020 82 10000 8.2 20 18:20 12.11.2020
5554 Clouds 13 1020 82 10000 8.7 10 17:43 12.11.2020
5555 Clouds 13 1020 82 10000 8.7 10 17:24 12.11.2020
5556 Clouds 13 1020 82 10000 8.7 10 16:46 12.11.2020
5557 Clouds 13 1020 82 10000 8.7 10 16:24 12.11.2020
5558 Clouds 13 1020 82 10000 7.7 20 15:54 12.11.2020
5559 Clouds 13 1020 82 10000 7.7 10 15:30 12.11.2020
5560 Clouds 13 1020 82 10000 8.2 10 14:56 12.11.2020
5561 Clouds 13 1020 77 10000 7.7 10 14:38 12.11.2020
5562 Clouds 14 1020 77 10000 7.2 10 14:19 12.11.2020
5563 Clouds 13 1020 76 10000 8.7 10 13:45 12.11.2020
5564 Clouds 13 1020 76 10000 8.7 10 13:20 12.11.2020
5565 Clouds 13 1020 76 10000 8.7 10 12:49 12.11.2020
5566 Clouds 13 1020 76 10000 8.7 10 12:25 12.11.2020
5567 Clouds 13 1020 82 10000 8.2 10 11:58 12.11.2020
5568 Clouds 13 1020 82 10000 8.2 20 11:39 12.11.2020
5569 Clouds 13 1020 82 10000 8.2 20 10:54 12.11.2020
5570 Clouds 13 1020 76 10000 8.2 20 10:35 12.11.2020
5571 Clouds 13 1020 82 10000 8.7 20 09:58 12.11.2020
5572 Clouds 13 1019 82 10000 8.7 20 09:38 12.11.2020
5573 Clouds 13 1019 82 10000 9.3 10 09:18 12.11.2020
5574 Clouds 13 1018 72 10000 8.7 10 08:40 12.11.2020
5575 Clouds 14 1018 72 10000 8.7 10 08:21 12.11.2020
5576 Clouds 14 1018 72 10000 8.7 10 07:55 12.11.2020
5577 Clouds 15 1018 72 10000 9.3 10 07:36 12.11.2020
5578 Clear 15 1018 72 10000 9.8 10 06:52 12.11.2020
5579 Clear 16 1017 67 10000 8.7 350 06:26 12.11.2020
5580 Clear 17 1017 72 10000 10.3 360 03:50 12.11.2020
5581 Clear 18 1017 68 10000 9.8 360 03:20 12.11.2020
5582 Clouds 16 1018 72 10000 7.7 360 00:36 12.11.2020
5583 Rain 15 1018 76 10000 7.2 360 23:44 11.11.2020
5584 Clouds 15 1018 76 10000 7.2 360 23:25 11.11.2020
5585 Rain 14 1018 82 10000 5.1 10 22:48 11.11.2020
5586 Clouds 13 1018 82 10000 5.1 10 22:23 11.11.2020
5587 Clouds 13 1018 76 10000 5.1 10 21:57 11.11.2020
5588 Rain 12 1018 81 10000 4.6 10 21:38 11.11.2020
5589 Clear 12 1018 81 10000 4.1 360 21:20 11.11.2020
5590 Rain 11 1017 87 10000 3.1 360 20:43 11.11.2020
5591 Rain 10 1017 87 10000 3.1 360 20:22 11.11.2020
5592 Rain 9 1017 87 10000 3.1 20 19:57 11.11.2020
5593 Rain 9 1017 93 10000 3.1 20 19:38 11.11.2020
5594 Rain 8 1017 93 10000 2.6 30 19:20 11.11.2020
5595 Rain 8 1016 93 10000 2.6 20 18:42 11.11.2020
5596 Clouds 7 1016 93 10000 2.6 20 18:22 11.11.2020
5597 Clouds 8 1016 93 10000 2.1 30 17:39 11.11.2020
5598 Clouds 8 1016 87 10000 2.6 40 17:21 11.11.2020
5599 Clouds 8 1016 93 10000 1.5 50 16:40 11.11.2020
5600 Clear 7 1016 93 10000 1.5 50 16:21 11.11.2020
5601 Clear 7 1016 93 10000 1.5 40 15:43 11.11.2020
5602 Clouds 7 1016 93 10000 1.5 40 15:23 11.11.2020
5603 Clouds 8 1016 93 10000 1.5 30 14:49 11.11.2020
5604 Clouds 8 1016 87 10000 1 50 14:30 11.11.2020
5605 Clear 9 1016 81 10000 2.6 180 13:50 11.11.2020
5606 Clear 9 1016 81 10000 3.1 190 13:24 11.11.2020
5607 Clear 10 1016 76 10000 4.6 210 12:22 11.11.2020
5608 Clear 10 1016 76 10000 5.7 210 11:58 11.11.2020
5609 Clear 10 1016 76 10000 6.2 220 11:40 11.11.2020
5610 Clear 10 1016 76 10000 6.7 220 11:20 11.11.2020
5611 Clear 10 1016 76 10000 7.2 210 10:39 11.11.2020
5612 Clear 10 1016 76 10000 7.2 210 10:19 11.11.2020
5613 Clear 11 1015 71 10000 5.7 190 09:43 11.11.2020
5614 Rain 11 1015 71 10000 5.7 190 09:24 11.11.2020
5615 Clear 11 1015 76 10000 5.1 170 08:45 11.11.2020
5616 Rain 11 1015 76 10000 5.1 170 08:25 11.11.2020
5617 Clear 11 1014 71 10000 5.7 180 07:49 11.11.2020
5618 Clouds 13 1014 71 10000 4.6 180 06:33 11.11.2020
5619 Rain 13 1014 76 10000 5.7 180 05:52 11.11.2020
5620 Rain 13 1015 82 10000 6.2 160 02:29 11.11.2020
5621 Clouds 13 1015 76 10000 6.7 170 00:58 11.11.2020
5622 Clouds 13 1015 76 10000 6.7 170 00:58 11.11.2020
5623 Clouds 13 1015 82 10000 7.2 170 00:25 11.11.2020
5624 Rain 12 1015 81 10000 7.7 160 23:42 10.11.2020
5625 Rain 12 1015 81 10000 7.7 160 23:23 10.11.2020
5626 Rain 12 1015 81 10000 7.7 170 22:51 10.11.2020
5627 Rain 12 1015 81 10000 7.7 180 22:27 10.11.2020
5628 Rain 11 1015 81 10000 8.2 180 21:42 10.11.2020
5629 Rain 11 1015 81 10000 8.2 180 21:24 10.11.2020
5630 Rain 11 1015 87 8000 8.7 190 20:58 10.11.2020
5631 Clouds 11 1015 81 10000 8.7 180 20:40 10.11.2020
5632 Rain 11 1015 81 10000 8.7 180 20:22 10.11.2020
5633 Rain 10 1015 93 8000 8.7 180 19:46 10.11.2020
5634 Clouds 10 1015 93 8000 8.7 180 19:25 10.11.2020
5635 Rain 10 1015 87 10000 8.2 180 18:56 10.11.2020
5636 Rain 10 1015 87 9000 8.7 180 18:37 10.11.2020
5637 Rain 10 1015 87 10000 8.2 180 18:18 10.11.2020
5638 Rain 10 1015 87 10000 8.2 180 18:18 10.11.2020
5639 Rain 10 1015 87 10000 8.2 180 18:18 10.11.2020
5640 Rain 10 1015 87 10000 8.7 180 17:42 10.11.2020
5641 Clouds 10 1015 87 10000 8.7 180 17:24 10.11.2020
5642 Rain 10 1015 87 10000 9.3 180 16:42 10.11.2020
5643 Rain 9 1009 90 10000 9.11 176 16:24 10.11.2020
5644 Rain 10 1015 87 10000 9.8 190 15:55 10.11.2020
5645 Clouds 10 1015 87 10000 9.8 180 15:37 10.11.2020
5646 Rain 10 1015 87 10000 9.8 180 15:18 10.11.2020
5647 Rain 10 1015 81 10000 10.3 180 14:40 10.11.2020
5648 Rain 10 1016 81 10000 10.3 180 14:19 10.11.2020
5649 Rain 10 1016 81 10000 10.3 180 13:40 10.11.2020
5650 Rain 10 1016 81 10000 10.8 190 13:21 10.11.2020
5651 Clouds 10 1016 81 10000 10.8 190 12:56 10.11.2020
5652 Rain 10 1016 76 10000 11.3 190 12:37 10.11.2020
5653 Rain 10 1016 81 10000 9.8 180 12:18 10.11.2020
5654 Clouds 10 1017 76 10000 10.8 190 11:36 10.11.2020
5655 Clouds 10 1016 76 10000 10.3 180 11:18 10.11.2020
5656 Clouds 10 1016 76 10000 10.8 180 10:42 10.11.2020
5657 Rain 10 1016 76 10000 10.8 180 10:22 10.11.2020
5658 Rain 10 1016 76 10000 11.8 180 09:47 10.11.2020
5659 Rain 10 1016 76 10000 11.8 180 09:26 10.11.2020
5660 Rain 9 1016 71 10000 11.8 180 08:57 10.11.2020
5661 Rain 9 1016 76 10000 12.3 180 08:29 10.11.2020
5662 Rain 9 1015 76 10000 12.3 180 07:47 10.11.2020
5663 Rain 10 1015 76 10000 12.3 180 07:26 10.11.2020
5664 Rain 9 1015 81 10000 11.8 180 06:42 10.11.2020
5665 Rain 10 1015 81 10000 12.9 180 05:56 10.11.2020
5666 Rain 10 1015 76 10000 12.9 180 05:27 10.11.2020
5667 Rain 9 1016 87 4400 14.4 180 02:48 10.11.2020
5668 Rain 9 1016 93 3500 14.4 190 01:37 10.11.2020
5669 Rain 9 1016 87 5000 13.4 180 00:23 10.11.2020
5670 Rain 9 1016 81 10000 14.4 180 23:41 09.11.2020
5671 Rain 10 1016 87 4400 13.9 180 22:56 09.11.2020
5672 Rain 9 1016 93 4800 14.4 180 22:37 09.11.2020
5673 Rain 10 1016 87 7000 13.4 180 22:19 09.11.2020
5674 Rain 9 1016 100 3100 13.9 190 21:39 09.11.2020
5675 Rain 9 1017 93 3000 13.4 180 21:20 09.11.2020
5676 Rain 9 1016 93 4100 11.8 180 20:40 09.11.2020
5677 Rain 9 1016 87 6000 13.4 180 20:21 09.11.2020
5678 Rain 9 1016 100 4100 12.9 180 19:42 09.11.2020
5679 Rain 9 1016 100 4100 12.9 180 19:22 09.11.2020
5680 Rain 9 1016 93 4200 12.3 170 18:47 09.11.2020
5681 Rain 9 1016 93 5000 12.3 170 18:21 09.11.2020
5682 Clouds 9 1016 93 5000 12.3 170 17:59 09.11.2020
5683 Rain 9 1015 100 4300 13.4 170 17:39 09.11.2020
5684 Rain 9 1016 100 4900 12.3 160 17:21 09.11.2020
5685 Rain 9 1016 100 2800 12.3 170 16:39 09.11.2020
5686 Rain 9 1016 100 2800 13.4 160 16:19 09.11.2020
5687 Rain 9 1015 93 5000 13.9 170 15:42 09.11.2020
5688 Rain 9 1009 89 10000 0.45 185 15:24 09.11.2020
5689 Rain 9 1016 93 4300 12.3 170 14:44 09.11.2020
5690 Rain 9 1016 93 4300 12.3 170 14:26 09.11.2020
5691 Rain 9 1016 93 5000 13.4 160 13:52 09.11.2020
5692 Rain 10 1016 87 7000 12.9 160 13:21 09.11.2020
5693 Rain 10 1016 81 10000 13.9 160 12:50 09.11.2020
5694 Clouds 10 1016 81 10000 13.9 160 12:26 09.11.2020
5695 Clouds 10 1016 81 10000 12.9 160 11:59 09.11.2020
5696 Rain 10 1017 87 10000 12.3 180 11:41 09.11.2020
5697 Rain 10 1017 87 10000 12.3 180 11:22 09.11.2020
5698 Rain 10 1017 93 5000 13.4 160 10:43 09.11.2020
5699 Haze 10 1017 93 5000 13.4 160 10:24 09.11.2020
5700 Rain 11 1016 71 10000 13.4 170 09:51 09.11.2020
5701 Rain 11 1016 76 10000 12.3 170 09:25 09.11.2020
5702 Rain 11 1016 66 10000 13.4 160 08:44 09.11.2020
5703 Rain 11 1016 76 10000 12.3 160 08:21 09.11.2020
5704 Rain 11 1016 81 10000 12.3 160 07:41 09.11.2020
5705 Rain 11 1016 81 10000 12.3 160 07:21 09.11.2020
5706 Rain 11 1016 76 10000 11.8 160 06:42 09.11.2020
5707 Clouds 12 1016 62 10000 11.8 150 03:32 09.11.2020
5708 Clouds 13 1016 62 10000 12.3 150 01:55 09.11.2020
5709 Clouds 12 1017 66 10000 11.8 160 01:36 09.11.2020
5710 Clouds 12 1016 66 10000 13.4 170 23:54 08.11.2020
5711 Clouds 12 1016 66 10000 12.9 170 23:30 08.11.2020
5712 Clouds 12 1016 66 10000 13.4 170 22:58 08.11.2020
5713 Clouds 11 1016 66 10000 12.9 170 22:40 08.11.2020
5714 Clouds 11 1016 62 10000 13.4 170 22:19 08.11.2020
5715 Clouds 11 1015 66 10000 13.4 170 21:39 08.11.2020
5716 Clouds 10 1015 66 10000 12.9 160 21:19 08.11.2020
5717 Clouds 11 1015 66 10000 12.9 160 20:54 08.11.2020
5718 Clouds 10 1015 66 10000 13.4 170 20:36 08.11.2020
5719 Clouds 10 1015 66 10000 12.3 160 20:18 08.11.2020
5720 Clouds 10 1014 66 10000 12.3 160 19:42 08.11.2020
5721 Clouds 10 1014 66 10000 12.3 160 19:21 08.11.2020
5722 Clouds 10 1014 66 10000 13.4 170 18:48 08.11.2020
5723 Clouds 10 1013 66 10000 12.9 170 18:22 08.11.2020
5724 Clouds 10 1013 66 10000 12.9 170 17:58 08.11.2020
5725 Clouds 10 1013 66 10000 13.4 170 17:38 08.11.2020
5726 Clouds 10 1013 66 10000 12.9 170 17:19 08.11.2020
5727 Clouds 10 1013 66 10000 12.9 170 16:48 08.11.2020
5728 Clouds 10 1013 66 10000 12.9 170 16:22 08.11.2020
5729 Clouds 10 1012 66 10000 12.9 170 15:58 08.11.2020
5730 Clouds 10 1012 66 10000 13.4 170 15:40 08.11.2020
5731 Clouds 10 1012 66 10000 13.4 170 15:21 08.11.2020
5732 Clouds 10 1013 71 10000 12.3 180 14:41 08.11.2020
5733 Clouds 10 1013 71 10000 12.3 180 14:21 08.11.2020
5734 Clouds 10 1012 71 10000 12.3 170 13:46 08.11.2020
5735 Clouds 10 1012 71 10000 12.3 170 13:22 08.11.2020
5736 Clouds 10 1012 71 10000 13.9 170 12:43 08.11.2020
5737 Clouds 10 1012 71 10000 13.9 170 12:25 08.11.2020
5738 Clouds 10 1011 66 10000 13.9 170 11:58 08.11.2020
5739 Clouds 10 1012 66 10000 13.9 170 11:39 08.11.2020
5740 Clouds 10 1012 71 10000 13.9 170 11:20 08.11.2020
5741 Clouds 10 1011 66 10000 14.9 170 10:49 08.11.2020
5742 Clouds 10 1011 76 10000 12.9 170 10:18 08.11.2020
5743 Clouds 10 1011 71 10000 11.8 180 09:44 08.11.2020
5744 Clouds 10 1011 71 10000 11.8 180 09:24 08.11.2020
5745 Clouds 10 1010 71 10000 13.9 180 08:56 08.11.2020
5746 Clouds 10 1009 76 9000 13.4 180 08:37 08.11.2020
5747 Rain 10 1009 81 8000 14.4 180 08:18 08.11.2020
5748 Rain 10 1008 81 6000 14.9 190 07:46 08.11.2020
5749 Rain 10 1008 76 7000 15.9 190 07:19 08.11.2020
5750 Rain 10 1007 76 7000 14.4 190 05:55 08.11.2020
5751 Rain 10 1007 81 6000 14.9 190 05:29 08.11.2020
5752 Rain 10 1006 81 8000 16.5 200 03:56 08.11.2020
5753 Rain 11 1004 76 6000 15.9 210 01:50 08.11.2020
5754 Rain 11 1002 76 6000 18 200 01:18 08.11.2020
5755 Rain 11 1001 76 5000 18 210 00:26 08.11.2020
5756 Rain 11 1000 76 10000 15.9 210 23:46 07.11.2020
5757 Rain 11 1000 76 10000 15.9 210 23:28 07.11.2020
5758 Rain 11 998 93 3900 14.9 210 22:42 07.11.2020
5759 Rain 11 998 93 3900 14.9 210 22:24 07.11.2020
5760 Rain 11 998 93 3900 14.9 210 22:24 07.11.2020
5761 Rain 11 996 100 2500 12.9 200 21:46 07.11.2020
5762 Rain 11 996 100 2500 12.9 200 21:22 07.11.2020
5763 Rain 11 995 100 3200 11.8 200 20:55 07.11.2020
5764 Rain 12 994 100 1700 10.8 190 20:36 07.11.2020
5765 Mist 12 994 100 1500 8.7 190 20:18 07.11.2020
5766 Rain 13 994 100 2800 5.1 200 19:39 07.11.2020
5767 Rain 13 994 100 2800 5.1 200 19:20 07.11.2020
5768 Mist 13 993 100 4900 7.2 170 18:39 07.11.2020
5769 Rain 14 993 100 8000 5.7 210 18:21 07.11.2020
5770 Rain 14 993 100 8000 5.7 210 17:46 07.11.2020
5771 Rain 14 993 100 8000 5.7 210 17:26 07.11.2020
5772 Rain 15 994 87 10000 1 180 16:44 07.11.2020
5773 Rain 15 994 87 10000 1 180 16:24 07.11.2020
5774 Rain 15 995 87 10000 2.1 360 15:48 07.11.2020
5775 Rain 15 995 87 10000 2.1 360 15:24 07.11.2020
5776 Rain 15 996 93 10000 0.5 320 14:58 07.11.2020
5777 Rain 15 996 93 10000 0.5 320 14:58 07.11.2020
5778 Rain 15 996 93 10000 1.5 110 14:40 07.11.2020
5779 Rain 15 997 93 10000 0.5 70 14:19 07.11.2020
5780 Rain 15 998 100 10000 2.6 10 13:39 07.11.2020
5781 Clouds 15 999 100 10000 3.1 10 13:21 07.11.2020
5782 Rain 15 999 93 10000 2.1 350 12:35 07.11.2020
5783 Clouds 15 1000 93 10000 3.6 20 11:46 07.11.2020
5784 Clouds 15 1000 93 10000 3.6 20 11:25 07.11.2020
5785 Clouds 16 1001 88 10000 4.6 20 10:57 07.11.2020
5786 Clouds 16 1001 88 10000 4.6 20 10:39 07.11.2020
5787 Clouds 16 1002 93 10000 4.6 20 10:20 07.11.2020
5788 Clouds 16 1002 93 10000 4.6 20 09:47 07.11.2020
5789 Clouds 16 1002 93 10000 4.6 20 09:21 07.11.2020
5790 Rain 16 1003 93 10000 5.1 30 08:47 07.11.2020
5791 Rain 16 1003 93 10000 5.1 30 08:28 07.11.2020
5792 Rain 16 1003 88 10000 7.7 10 07:48 07.11.2020
5793 Clouds 17 1003 82 10000 8.7 360 06:50 07.11.2020
5794 Clouds 17 1004 82 10000 7.2 360 05:48 07.11.2020
5795 Clouds 17 1006 88 10000 6.7 10 03:26 07.11.2020
5796 Clouds 17 1006 88 10000 7.7 360 02:38 07.11.2020
5797 Clouds 17 1006 82 10000 7.7 360 01:27 07.11.2020
5798 Clouds 17 1007 93 10000 7.2 10 00:34 07.11.2020
5799 Clouds 16 1007 88 10000 8.7 360 23:32 06.11.2020
5800 Clouds 16 1007 88 10000 8.2 350 22:57 06.11.2020
5801 Clouds 16 1007 88 10000 9.3 360 22:38 06.11.2020
5802 Clouds 16 1007 93 10000 8.7 360 22:18 06.11.2020
5803 Clouds 16 1008 93 10000 7.2 10 21:41 06.11.2020
5804 Clouds 15 1008 93 10000 6.2 20 21:20 06.11.2020
5805 Clouds 15 1008 93 10000 5.7 10 20:44 06.11.2020
5806 Clouds 15 1008 93 10000 6.7 350 20:20 06.11.2020
5807 Clouds 15 1008 100 10000 6.7 350 19:45 06.11.2020
5808 Clouds 14 1008 100 10000 6.7 350 19:27 06.11.2020
5809 Clouds 15 1008 93 10000 5.7 340 18:55 06.11.2020
5810 Clouds 15 1008 93 10000 5.7 340 18:55 06.11.2020
5811 Clouds 15 1008 93 10000 5.7 340 18:37 06.11.2020
5812 Clouds 15 1008 93 10000 6.2 360 18:19 06.11.2020
5813 Clouds 15 1008 93 10000 6.7 360 17:42 06.11.2020
5814 Clouds 15 1008 93 10000 6.7 360 17:23 06.11.2020
5815 Clouds 15 1008 93 10000 6.7 360 16:42 06.11.2020
5816 Clouds 15 1008 93 10000 6.2 350 16:20 06.11.2020
5817 Rain 15 1008 100 10000 4.6 10 15:44 06.11.2020
5818 Drizzle 15 1008 100 3400 5.7 10 15:25 06.11.2020
5819 Rain 15 1008 100 3400 5.7 10 14:49 06.11.2020
5820 Rain 14 1009 93 10000 3.6 10 14:22 06.11.2020
5821 Rain 13 1009 100 3000 3.6 10 13:42 06.11.2020
5822 Rain 13 1010 93 8000 3.1 360 13:20 06.11.2020
5823 Rain 13 1010 93 10000 3.1 20 12:43 06.11.2020
5824 Rain 13 1010 93 10000 3.1 20 12:23 06.11.2020
5825 Clouds 12 1010 93 10000 1 360 11:39 06.11.2020
5826 Clouds 13 1011 93 10000 0.5 310 11:20 06.11.2020
5827 Clouds 13 1011 87 10000 0.5 210 10:36 06.11.2020
5828 Clouds 13 1010 87 10000 1 180 10:18 06.11.2020
5829 Clouds 13 1010 87 10000 2.1 170 09:41 06.11.2020
5830 Clouds 13 1010 87 10000 2.6 170 09:21 06.11.2020
5831 Clouds 13 1010 87 10000 3.6 170 08:47 06.11.2020
5832 Clouds 13 1010 87 10000 3.6 170 08:28 06.11.2020
5833 Clouds 13 1010 93 10000 4.1 170 07:44 06.11.2020
5834 Clouds 13 1010 87 10000 3.6 190 07:21 06.11.2020
5835 Clouds 14 1010 87 10000 4.1 180 06:48 06.11.2020
5836 Clouds 14 1010 87 10000 4.6 190 05:40 06.11.2020
5837 Clouds 14 1010 87 10000 5.7 170 02:53 06.11.2020
5838 Clouds 15 1009 82 10000 6.2 180 00:35 06.11.2020
5839 Clouds 15 1008 87 10000 7.2 190 23:57 05.11.2020
5840 Clouds 15 1008 82 10000 6.7 180 23:26 05.11.2020
5841 Clouds 14 1007 87 10000 8.2 170 22:49 05.11.2020
5842 Clouds 14 1007 93 10000 7.2 170 22:26 05.11.2020
5843 Clouds 14 1007 93 10000 7.2 170 22:26 05.11.2020
5844 Clouds 14 1007 93 10000 7.2 170 21:58 05.11.2020
5845 Clouds 14 1006 93 10000 7.2 180 21:40 05.11.2020
5846 Drizzle 13 1006 93 9000 7.2 190 21:19 05.11.2020
5847 Clouds 13 1005 93 10000 7.2 190 20:44 05.11.2020
5848 Rain 13 1005 93 10000 7.2 190 20:24 05.11.2020
5849 Rain 13 1005 93 10000 7.2 200 19:57 05.11.2020
5850 Rain 13 1004 93 9000 8.2 210 19:38 05.11.2020
5851 Drizzle 13 1003 93 10000 9.3 210 19:19 05.11.2020
5852 Rain 13 1003 93 9000 8.2 220 18:41 05.11.2020
5853 Rain 13 1002 100 10000 4.1 210 18:22 05.11.2020
5854 Clouds 15 1002 100 10000 1 300 17:47 05.11.2020
5855 Rain 15 1002 100 10000 1 300 17:26 05.11.2020
5856 Drizzle 15 1002 100 3600 1.5 50 16:49 05.11.2020
5857 Rain 15 1002 100 3600 1.5 50 16:29 05.11.2020
5858 Rain 15 1002 100 7000 0.31 226 15:55 05.11.2020
5859 Mist 15 1002 100 4100 1 170 15:37 05.11.2020
5860 Mist 15 1002 100 4200 1.5 180 15:18 05.11.2020
5861 Rain 15 1003 100 2800 2.1 170 14:44 05.11.2020
5862 Rain 15 1003 100 2800 2.1 170 14:24 05.11.2020
5863 Mist 15 1003 100 4300 2.1 190 13:41 05.11.2020
5864 Mist 15 1004 100 3400 1.5 190 13:20 05.11.2020
5865 Clouds 15 1004 100 7000 1.5 190 12:43 05.11.2020
5866 Rain 15 1004 100 7000 1.5 190 12:23 05.11.2020
5867 Clouds 15 1005 93 7000 1 160 11:44 05.11.2020
5868 Rain 16 1005 93 7000 1 160 11:24 05.11.2020
5869 Rain 16 1005 93 7000 0.5 360 10:52 05.11.2020
5870 Rain 16 1005 93 10000 2.6 360 10:28 05.11.2020
5871 Rain 16 1005 88 10000 2.6 20 09:55 05.11.2020
5872 Rain 16 1006 82 10000 3.1 20 09:37 05.11.2020
5873 Rain 16 1006 82 10000 3.1 20 09:18 05.11.2020
5874 Clouds 17 1006 77 10000 2.6 10 08:43 05.11.2020
5875 Clouds 17 1006 77 10000 2.6 10 08:23 05.11.2020
5876 Clouds 18 1007 72 10000 3.6 20 07:29 05.11.2020
5877 Clouds 19 1007 72 10000 3.1 350 06:51 05.11.2020
5878 Rain 19 1008 68 10000 3.6 330 06:33 05.11.2020
5879 Rain 20 1011 68 10000 6.2 330 03:46 05.11.2020
5880 Clouds 20 1013 68 10000 8.7 350 00:58 05.11.2020
5881 Clouds 19 1013 68 10000 9.3 350 00:26 05.11.2020
5882 Clouds 19 1013 68 10000 11.8 360 23:43 04.11.2020
5883 Clouds 19 1013 68 10000 11.8 360 23:25 04.11.2020
5884 Clouds 20 1014 68 10000 10.3 360 22:45 04.11.2020
5885 Rain 20 1014 68 10000 10.3 360 22:23 04.11.2020
5886 Clouds 19 1014 72 10000 9.8 360 21:48 04.11.2020
5887 Clouds 18 1014 72 10000 9.8 360 21:29 04.11.2020
5888 Clouds 18 1014 72 10000 9.3 360 20:56 04.11.2020
5889 Clouds 18 1014 72 10000 9.3 360 20:56 04.11.2020
5890 Clouds 18 1015 77 10000 9.3 360 20:38 04.11.2020
5891 Clouds 18 1015 77 10000 7.2 360 20:19 04.11.2020
5892 Clouds 17 1015 77 10000 7.7 350 19:44 04.11.2020
5893 Clouds 17 1015 77 10000 7.7 350 19:44 04.11.2020
5894 Clouds 17 1015 77 10000 7.7 350 19:26 04.11.2020
5895 Clouds 17 1015 72 8000 8.2 350 18:43 04.11.2020
5896 Clouds 17 1015 72 8000 8.2 350 18:25 04.11.2020
5897 Clouds 17 1015 72 10000 7.2 360 17:56 04.11.2020
5898 Clouds 17 1016 82 10000 5.1 10 17:38 04.11.2020
5899 Clouds 17 1016 82 10000 4.1 10 17:19 04.11.2020
5900 Clouds 17 1017 88 10000 5.1 10 16:38 04.11.2020
5901 Clouds 16 1017 93 10000 5.1 10 16:19 04.11.2020
5902 Clouds 16 1018 87 10000 5.7 360 15:44 04.11.2020
5903 Clouds 16 1018 87 10000 5.7 360 15:24 04.11.2020
5904 Clouds 16 1018 82 10000 7.2 360 14:47 04.11.2020
5905 Clouds 16 1018 82 10000 7.2 360 14:26 04.11.2020
5906 Clouds 17 1018 68 10000 7.2 340 13:56 04.11.2020
5907 Clouds 17 1019 68 10000 7.2 330 13:37 04.11.2020
5908 Clouds 17 1019 68 10000 7.7 320 13:19 04.11.2020
5909 Clouds 18 1019 68 10000 7.2 320 12:47 04.11.2020
5910 Clouds 18 1019 68 10000 7.2 320 12:24 04.11.2020
5911 Clouds 18 1019 68 10000 5.7 340 11:48 04.11.2020
5912 Clouds 18 1019 68 10000 5.7 340 11:30 04.11.2020
5913 Clouds 18 1020 68 10000 6.2 340 10:58 04.11.2020
5914 Clouds 18 1020 68 10000 6.7 320 10:39 04.11.2020
5915 Clouds 18 1020 68 10000 6.7 320 10:21 04.11.2020
5916 Clouds 18 1019 68 10000 5.7 330 09:44 04.11.2020
5917 Clouds 18 1019 68 10000 4.1 330 09:20 04.11.2020
5918 Clouds 19 1019 64 10000 5.1 340 08:42 04.11.2020
5919 Clouds 19 1019 68 10000 6.7 340 08:18 04.11.2020
5920 Clouds 19 1019 68 10000 6.7 340 08:18 04.11.2020
5921 Clouds 19 1019 68 10000 5.7 330 07:44 04.11.2020
5922 Clouds 19 1019 68 10000 5.7 330 07:25 04.11.2020
5923 Clouds 20 1019 64 10000 8.2 330 06:41 04.11.2020
5924 Clouds 21 1019 64 10000 8.7 330 05:54 04.11.2020
5925 Clouds 19 1022 68 10000 8.7 360 02:31 04.11.2020
5926 Clouds 21 1022 68 10000 8.2 360 01:40 04.11.2020
5927 Clouds 19 1022 72 10000 7.7 360 00:40 04.11.2020
5928 Clouds 19 1022 77 10000 8.2 360 23:34 03.11.2020
5929 Clouds 20 1022 73 10000 8.7 360 22:59 03.11.2020
5930 Clouds 19 1023 82 10000 7.7 360 22:40 03.11.2020
5931 Clouds 19 1023 77 10000 7.7 360 22:20 03.11.2020
5932 Clouds 19 1023 77 10000 7.7 360 21:55 03.11.2020
5933 Clouds 18 1023 82 10000 6.2 10 21:36 03.11.2020
5934 Clouds 18 1023 88 10000 5.7 10 21:18 03.11.2020
5935 Rain 16 1023 88 10000 4.1 20 20:41 03.11.2020
5936 Rain 16 1023 88 10000 4.6 10 20:19 03.11.2020
5937 Clouds 16 1022 88 10000 5.1 360 19:42 03.11.2020
5938 Rain 16 1022 82 10000 5.7 10 19:19 03.11.2020
5939 Clouds 16 1022 82 10000 5.1 360 18:41 03.11.2020
5940 Clouds 16 1022 82 10000 5.1 10 18:20 03.11.2020
5941 Clouds 16 1022 82 10000 5.1 10 17:54 03.11.2020
5942 Clouds 16 1022 82 10000 6.2 10 17:36 03.11.2020
5943 Clouds 16 1022 82 10000 5.1 10 16:54 03.11.2020
5944 Rain 16 1022 82 10000 5.7 20 16:31 03.11.2020
5945 Clouds 16 1022 82 10000 5.1 20 15:59 03.11.2020
5946 Clouds 16 1022 77 10000 6.2 20 15:41 03.11.2020
5947 Rain 16 1022 82 10000 5.1 30 15:21 03.11.2020
5948 Clouds 16 1023 82 10000 6.2 20 14:46 03.11.2020
5949 Rain 15 1023 82 10000 6.2 20 14:27 03.11.2020
5950 Rain 15 1023 82 10000 6.2 20 14:27 03.11.2020
5951 Clouds 15 1023 87 10000 4.6 10 13:43 03.11.2020
5952 Clouds 15 1023 87 10000 4.6 10 13:23 03.11.2020
5953 Clouds 15 1023 87 10000 4.6 20 12:48 03.11.2020
5954 Clouds 15 1023 93 10000 3.6 20 12:27 03.11.2020
5955 Rain 14 1023 93 10000 5.1 360 11:57 03.11.2020
5956 Clouds 14 1023 93 10000 5.1 350 11:39 03.11.2020
5957 Rain 14 1023 93 10000 3.6 350 11:18 03.11.2020
5958 Rain 13 1024 93 10000 2.6 360 10:39 03.11.2020
5959 Rain 13 1024 100 10000 2.1 10 10:19 03.11.2020
5960 Rain 13 1024 100 10000 2.1 10 09:48 03.11.2020
5961 Rain 13 1024 100 10000 1.5 30 09:27 03.11.2020
5962 Clouds 13 1024 93 10000 2.1 360 08:52 03.11.2020
5963 Rain 13 1023 93 10000 2.1 20 08:34 03.11.2020
5964 Rain 13 1023 93 10000 1.5 10 07:49 03.11.2020
5965 Rain 13 1024 93 10000 1 170 07:22 03.11.2020
5966 Drizzle 13 1024 93 8000 1 170 06:44 03.11.2020
5967 Clouds 13 1024 93 9000 4.6 230 04:54 03.11.2020
5968 Rain 12 1026 93 9000 2.6 200 00:53 03.11.2020
5969 Clouds 12 1026 93 10000 2.1 200 00:30 03.11.2020
5970 Rain 12 1026 93 10000 2.6 240 23:48 02.11.2020
5971 Drizzle 12 1026 93 10000 2.6 240 23:29 02.11.2020
5972 Clouds 12 1026 87 10000 2.6 210 22:48 02.11.2020
5973 Clouds 11 1026 87 10000 2.6 210 22:30 02.11.2020
5974 Clouds 11 1026 87 10000 2.6 210 22:30 02.11.2020
5975 Rain 11 1027 93 10000 2.6 230 21:58 02.11.2020
5976 Clouds 11 1027 93 10000 2.1 250 21:37 02.11.2020
5977 Drizzle 11 1027 87 10000 1.5 270 21:19 02.11.2020
5978 Drizzle 10 1027 87 10000 1.5 250 20:39 02.11.2020
5979 Rain 10 1027 87 10000 1.5 250 20:19 02.11.2020
5980 Rain 10 1027 87 10000 1 150 19:44 02.11.2020
5981 Rain 10 1027 87 10000 1 150 19:26 02.11.2020
5982 Clouds 10 1027 87 10000 1.5 170 18:55 02.11.2020
5983 Rain 10 1027 93 7000 0.5 110 18:36 02.11.2020
5984 Rain 10 1027 81 10000 0.5 330 18:18 02.11.2020
5985 Drizzle 10 1027 81 10000 1.5 140 17:40 02.11.2020
5986 Rain 10 1027 76 10000 2.6 120 17:21 02.11.2020
5987 Rain 10 1028 76 10000 3.1 110 16:49 02.11.2020
5988 Rain 10 1028 76 10000 3.1 110 16:28 02.11.2020
5989 Clouds 10 1028 76 10000 2.6 140 15:55 02.11.2020
5990 Rain 10 1028 76 10000 3.1 130 15:36 02.11.2020
5991 Rain 10 1028 81 10000 2.1 130 15:18 02.11.2020
5992 Rain 10 1028 81 10000 1.5 130 14:41 02.11.2020
5993 Rain 10 1029 87 10000 2.1 130 14:19 02.11.2020
5994 Rain 10 1029 87 10000 2.1 170 13:46 02.11.2020
5995 Rain 10 1029 87 10000 2.1 170 13:21 02.11.2020
5996 Rain 10 1029 93 10000 2.6 160 12:43 02.11.2020
5997 Rain 11 1029 93 10000 2.6 160 12:21 02.11.2020
5998 Rain 11 1028 87 10000 3.1 140 11:45 02.11.2020
5999 Clouds 11 1028 87 10000 2.6 150 11:20 02.11.2020
6000 Rain 11 1028 87 10000 1.5 150 10:46 02.11.2020
6001 Clouds 11 1028 87 10000 1.5 150 10:24 02.11.2020
6002 Clouds 11 1028 87 10000 2.6 150 09:55 02.11.2020
6003 Rain 11 1027 87 10000 3.6 130 09:27 02.11.2020
6004 Rain 11 1027 82 10000 6.2 150 08:48 02.11.2020
6005 Rain 12 1027 82 10000 6.2 150 08:29 02.11.2020
6006 Rain 12 1027 82 10000 5.7 150 07:59 02.11.2020
6007 Clouds 12 1026 76 10000 5.7 140 07:38 02.11.2020
6008 Clouds 12 1026 82 10000 6.7 150 06:44 02.11.2020
6009 Rain 12 1025 87 10000 7.2 150 04:59 02.11.2020
6010 Rain 14 1026 82 10000 5.7 180 01:27 02.11.2020
6011 Rain 14 1026 87 10000 5.1 190 00:37 02.11.2020
6012 Rain 14 1025 87 10000 6.2 190 23:57 01.11.2020
6013 Rain 14 1025 87 10000 5.7 190 23:38 01.11.2020
6014 Rain 13 1025 82 10000 5.7 200 23:19 01.11.2020
6015 Rain 13 1025 82 10000 3.1 190 22:41 01.11.2020
6016 Rain 13 1025 82 10000 3.1 190 22:21 01.11.2020
6017 Clouds 14 1024 77 10000 4.1 10 21:43 01.11.2020
6018 Clouds 14 1024 77 10000 4.1 10 21:23 01.11.2020
6019 Clouds 14 1023 82 10000 4.1 20 20:47 01.11.2020
6020 Clouds 14 1023 82 10000 4.1 20 20:26 01.11.2020
6021 Clouds 13 1023 82 10000 5.1 20 19:48 01.11.2020
6022 Clouds 13 1022 82 10000 6.7 10 19:29 01.11.2020
6023 Clouds 13 1021 82 10000 7.2 10 18:58 01.11.2020
6024 Clouds 13 1021 76 10000 8.2 10 18:38 01.11.2020
6025 Clouds 13 1021 76 10000 9.3 20 18:19 01.11.2020
6026 Clouds 13 1020 82 10000 7.7 20 17:45 01.11.2020
6027 Clouds 13 1020 82 10000 7.7 20 17:27 01.11.2020
6028 Clouds 13 1020 82 10000 8.2 20 16:45 01.11.2020
6029 Clouds 13 1020 82 10000 8.2 20 16:27 01.11.2020
6030 Clouds 13 1020 82 10000 8.7 20 15:58 01.11.2020
6031 Clouds 13 1020 82 10000 8.7 20 15:38 01.11.2020
6032 Clouds 13 1020 82 10000 8.7 20 15:19 01.11.2020
6033 Clouds 13 1020 82 10000 7.2 30 14:46 01.11.2020
6034 Clouds 13 1020 82 10000 7.2 30 14:22 01.11.2020
6035 Clouds 13 1019 82 10000 7.2 20 13:57 01.11.2020
6036 Clouds 13 1020 82 10000 9.3 20 13:39 01.11.2020
6037 Clouds 13 1020 82 10000 8.7 20 13:20 01.11.2020
6038 Clouds 13 1019 76 10000 9.3 20 12:40 01.11.2020
6039 Clouds 13 1019 76 10000 8.2 20 12:19 01.11.2020
6040 Clouds 13 1019 76 10000 6.7 10 11:48 01.11.2020
6041 Clouds 13 1019 76 10000 6.7 20 11:18 01.11.2020
6042 Clouds 13 1019 76 10000 8.2 10 10:42 01.11.2020
6043 Clouds 13 1019 76 10000 8.2 10 10:24 01.11.2020
6044 Clouds 13 1019 76 10000 8.2 20 09:49 01.11.2020
6045 Clouds 13 1019 76 10000 8.2 20 09:26 01.11.2020
6046 Clouds 13 1018 76 10000 9.3 20 08:40 01.11.2020
6047 Clouds 14 1018 72 10000 10.3 20 07:57 01.11.2020
6048 Clouds 15 1017 72 10000 11.3 10 06:52 01.11.2020
6049 Clear 18 1017 63 10000 10.8 360 02:32 01.11.2020
6050 Clear 17 1017 52 10000 9.3 340 01:42 01.11.2020
6051 Clear 17 1017 55 10000 7.2 340 23:58 31.10.2020
6052 Clear 17 1017 59 10000 8.2 340 23:24 31.10.2020
6053 Clear 16 1016 59 10000 7.7 350 22:45 31.10.2020
6054 Clear 17 1016 59 10000 7.7 350 22:24 31.10.2020
6055 Clear 16 1016 67 10000 5.7 330 21:47 31.10.2020
6056 Clear 16 1016 67 10000 5.7 330 21:23 31.10.2020
6057 Clear 16 1016 67 10000 5.7 330 21:23 31.10.2020
6058 Clear 15 1015 72 10000 5.7 350 20:46 31.10.2020
6059 Clear 15 1015 72 10000 5.7 350 20:21 31.10.2020
6060 Clear 14 1015 82 10000 5.1 360 19:58 31.10.2020
6061 Clear 14 1015 87 10000 4.6 360 19:38 31.10.2020
6062 Clouds 14 1015 87 10000 4.6 360 19:18 31.10.2020
6063 Clouds 13 1014 82 10000 4.1 340 18:43 31.10.2020
6064 Clouds 14 1013 77 10000 4.6 340 17:49 31.10.2020
6065 Clouds 14 1013 77 10000 4.1 340 17:29 31.10.2020
6066 Clouds 14 1013 77 10000 6.7 330 16:59 31.10.2020
6067 Clouds 14 1013 77 10000 6.2 330 16:40 31.10.2020
6068 Clouds 14 1009 85 10000 0.45 56 15:59 31.10.2020
6069 Clouds 14 1012 77 10000 3.6 340 15:38 31.10.2020
6070 Clouds 14 1012 77 10000 3.6 350 15:19 31.10.2020
6071 Rain 14 1012 87 10000 5.7 30 14:46 31.10.2020
6072 Rain 15 1012 87 10000 5.7 30 14:26 31.10.2020
6073 Clouds 14 1012 87 10000 6.7 30 13:50 31.10.2020
6074 Rain 14 1011 87 10000 7.2 30 13:23 31.10.2020
6075 Clouds 14 1011 87 10000 9.8 360 12:35 31.10.2020
6076 Clouds 14 1011 87 10000 8.2 350 11:48 31.10.2020
6077 Clouds 14 1011 87 10000 8.2 350 11:28 31.10.2020
6078 Clouds 14 1011 87 10000 8.2 350 10:56 31.10.2020
6079 Clouds 15 1010 82 10000 10.8 350 10:33 31.10.2020
6080 Clouds 15 1009 87 10000 8.7 340 09:42 31.10.2020
6081 Clouds 15 1009 87 10000 8.7 340 09:22 31.10.2020
6082 Clouds 16 1009 82 10000 6.7 340 08:32 31.10.2020
6083 Clouds 16 1008 88 10000 11.3 330 07:50 31.10.2020
6084 Clouds 16 1008 88 10000 10.3 330 07:27 31.10.2020
6085 Clouds 16 1008 88 10000 10.3 330 06:39 31.10.2020
6086 Rain 17 1009 88 10000 12.3 330 04:51 31.10.2020
6087 Rain 17 1009 88 10000 13.4 340 03:45 31.10.2020
6088 Rain 16 1011 88 10000 13.4 360 01:29 31.10.2020
6089 Rain 16 1012 93 7000 12.3 360 00:46 31.10.2020
6090 Rain 15 1012 93 3800 11.8 360 23:51 30.10.2020
6091 Rain 16 1012 93 6000 11.3 360 23:24 30.10.2020
6092 Rain 16 1012 77 10000 11.8 350 22:46 30.10.2020
6093 Rain 16 1012 77 10000 11.8 350 22:24 30.10.2020
6094 Rain 17 1012 77 10000 11.8 340 21:56 30.10.2020
6095 Rain 17 1013 82 10000 11.8 340 21:38 30.10.2020
6096 Rain 16 1013 82 10000 10.8 350 21:19 30.10.2020
6097 Rain 16 1014 82 10000 10.8 350 20:39 30.10.2020
6098 Rain 16 1014 82 10000 10.8 350 20:21 30.10.2020
6099 Rain 16 1014 88 10000 10.3 350 19:47 30.10.2020
6100 Rain 16 1014 88 10000 10.3 350 19:19 30.10.2020
6101 Rain 16 1014 88 10000 9.8 350 18:50 30.10.2020
6102 Rain 16 1014 82 10000 9.8 340 18:28 30.10.2020
6103 Rain 16 1014 82 10000 10.3 340 17:50 30.10.2020
6104 Rain 16 1014 82 10000 8.7 340 17:24 30.10.2020
6105 Rain 16 1014 82 10000 8.7 340 16:58 30.10.2020
6106 Rain 16 1015 88 10000 8.2 340 16:38 30.10.2020
6107 Rain 16 1015 88 10000 7.2 340 16:19 30.10.2020
6108 Rain 16 1015 88 10000 8.7 340 15:40 30.10.2020
6109 Clouds 16 1016 88 10000 8.2 340 15:20 30.10.2020
6110 Clouds 16 1016 82 10000 8.7 330 14:45 30.10.2020
6111 Clouds 16 1016 82 10000 8.7 330 14:25 30.10.2020
6112 Rain 16 1016 88 10000 8.7 330 13:47 30.10.2020
6113 Rain 16 1016 88 10000 8.7 330 13:23 30.10.2020
6114 Clouds 16 1016 88 10000 9.8 340 12:55 30.10.2020
6115 Clouds 16 1016 88 10000 9.8 340 12:23 30.10.2020
6116 Clouds 16 1016 88 10000 7.2 330 11:57 30.10.2020
6117 Clouds 16 1017 88 10000 7.2 330 11:36 30.10.2020
6118 Clouds 16 1017 88 10000 7.7 330 11:18 30.10.2020
6119 Clouds 16 1017 88 10000 8.2 330 10:40 30.10.2020
6120 Clouds 16 1017 88 10000 8.2 330 10:21 30.10.2020
6121 Clouds 16 1017 88 10000 8.7 340 09:43 30.10.2020
6122 Clouds 16 1017 88 10000 8.7 340 09:22 30.10.2020
6123 Clouds 16 1017 88 10000 9.8 340 08:39 30.10.2020
6124 Clouds 16 1017 88 10000 5.7 330 08:21 30.10.2020
6125 Clouds 16 1017 88 10000 8.7 340 07:48 30.10.2020
6126 Rain 16 1017 88 10000 8.7 340 07:30 30.10.2020
6127 Clouds 16 1017 82 10000 8.2 350 06:35 30.10.2020
6128 Clouds 17 1018 82 10000 9.8 360 04:37 30.10.2020
6129 Clouds 17 1020 88 10000 9.3 360 02:24 30.10.2020
6130 Clouds 17 1020 82 10000 9.8 10 00:39 30.10.2020
6131 Clouds 16 1021 82 10000 10.3 10 23:48 29.10.2020
6132 Clouds 16 1021 82 10000 10.3 10 23:30 29.10.2020
6133 Clouds 16 1021 88 10000 10.8 10 22:57 29.10.2020
6134 Clouds 16 1021 88 10000 9.8 10 22:38 29.10.2020
6135 Clouds 16 1021 88 10000 9.3 10 22:20 29.10.2020
6136 Clouds 16 1021 88 10000 8.2 10 21:36 29.10.2020
6137 Clouds 16 1021 87 10000 7.7 10 21:18 29.10.2020
6138 Clouds 15 1021 87 10000 6.2 20 20:40 29.10.2020
6139 Clouds 15 1021 87 10000 7.2 10 20:19 29.10.2020
6140 Clouds 15 1021 93 10000 6.7 10 19:42 29.10.2020
6141 Clouds 14 1021 93 10000 6.7 10 19:22 29.10.2020
6142 Clouds 14 1021 93 10000 6.2 10 18:49 29.10.2020
6143 Clouds 14 1021 93 10000 6.2 10 18:29 29.10.2020
6144 Clouds 14 1021 93 10000 6.7 360 17:57 29.10.2020
6145 Rain 14 1021 93 10000 6.2 360 17:38 29.10.2020
6146 Clouds 14 1021 93 10000 5.7 360 17:19 29.10.2020
6147 Clouds 14 1021 93 10000 5.7 350 16:45 29.10.2020
6148 Clouds 14 1022 93 10000 5.7 360 16:19 29.10.2020
6149 Clouds 14 1022 93 10000 5.7 360 15:56 29.10.2020
6150 Clouds 14 1022 93 10000 5.7 360 15:37 29.10.2020
6151 Clouds 14 1022 93 10000 5.7 360 15:19 29.10.2020
6152 Rain 14 1022 93 10000 5.7 360 14:44 29.10.2020
6153 Rain 14 1023 93 10000 3.6 360 14:22 29.10.2020
6154 Rain 14 1023 93 10000 2.6 20 13:47 29.10.2020
6155 Rain 14 1023 93 10000 2.6 20 13:27 29.10.2020
6156 Clouds 14 1023 93 10000 2.1 350 12:44 29.10.2020
6157 Clouds 13 1023 93 10000 2.6 360 12:20 29.10.2020
6158 Rain 13 1023 93 10000 2.6 360 11:56 29.10.2020
6159 Rain 13 1023 93 10000 2.1 30 11:38 29.10.2020
6160 Rain 13 1023 93 10000 2.1 10 11:20 29.10.2020
6161 Clouds 13 1023 93 10000 1.5 30 10:37 29.10.2020
6162 Clouds 13 1023 93 10000 1.5 30 10:37 29.10.2020
6163 Clouds 13 1023 93 10000 1.5 30 10:18 29.10.2020
6164 Clouds 13 1023 93 10000 1.5 30 09:48 29.10.2020
6165 Rain 13 1023 93 10000 1 20 09:24 29.10.2020
6166 Rain 13 1023 87 10000 0.5 120 08:44 29.10.2020
6167 Rain 13 1023 87 10000 0.5 120 08:24 29.10.2020
6168 Rain 14 1023 93 10000 2.1 190 07:49 29.10.2020
6169 Rain 14 1023 87 10000 0.5 230 07:19 29.10.2020
6170 Rain 14 1023 93 10000 2.1 200 06:30 29.10.2020
6171 Rain 15 1023 82 10000 4.1 200 04:48 29.10.2020
6172 Clouds 16 1022 79 10000 0.89 108 02:28 29.10.2020
6173 Clouds 17 1020 75 10000 2.39 178 00:45 29.10.2020
6174 Clouds 16 1025 88 10000 2.24 220 00:22 29.10.2020
6175 Clouds 16 1023 81 10000 0.45 161 23:42 28.10.2020
6176 Clouds 16 1023 82 10000 1.11 169 23:20 28.10.2020
6177 Clouds 15 1024 87 10000 2.6 170 22:43 28.10.2020
6178 Clouds 15 1024 87 10000 2.6 170 22:25 28.10.2020
6179 Clouds 14 1024 87 10000 2.1 180 21:45 28.10.2020
6180 Clouds 14 1024 87 10000 2.1 180 21:26 28.10.2020
6181 Clouds 14 1024 82 10000 1 240 20:59 28.10.2020
6182 Clouds 13 1024 87 10000 1 210 20:40 28.10.2020
6183 Clouds 13 1024 87 10000 1.5 190 20:18 28.10.2020
6184 Clouds 12 1024 87 10000 1.5 160 19:45 28.10.2020
6185 Clouds 12 1024 87 10000 1.5 160 19:26 28.10.2020
6186 Clouds 12 1024 87 10000 1.5 160 18:43 28.10.2020
6187 Clouds 12 1023 87 10000 1 150 18:20 28.10.2020
6188 Rain 12 1024 87 10000 1.5 160 17:44 28.10.2020
6189 Rain 12 1024 87 10000 1 110 17:22 28.10.2020
6190 Rain 12 1024 87 10000 1 100 16:47 28.10.2020
6191 Rain 12 1024 87 10000 1 100 16:29 28.10.2020
6192 Drizzle 12 1024 87 10000 1 160 15:45 28.10.2020
6193 Clouds 12 1019 87 10000 1.41 306 15:20 28.10.2020
6194 Clouds 12 1020 87 10000 1.41 306 14:57 28.10.2020
6195 Clouds 12 1025 87 10000 1.5 150 14:38 28.10.2020
6196 Clouds 12 1023 90 10000 0.66 46 14:18 28.10.2020
6197 Clouds 13 1024 88 10000 0.79 286 12:39 28.10.2020
6198 Clouds 13 1021 85 10000 0.79 335 12:20 28.10.2020
6199 Clouds 13 1021 84 10000 0.79 335 11:44 28.10.2020
6200 Clouds 13 1021 83 10000 1.18 18 11:23 28.10.2020
6201 Clouds 13 1021 82 10000 1.18 18 10:58 28.10.2020
6202 Clouds 13 1024 85 10000 1.18 18 10:40 28.10.2020
6203 Clouds 13 1026 76 10000 2.1 360 10:22 28.10.2020
6204 Clouds 13 1026 76 10000 2.1 360 10:22 28.10.2020
6205 Clouds 13 1025 76 10000 1.5 40 09:41 28.10.2020
6206 Clouds 13 1025 76 10000 1.5 40 09:21 28.10.2020
6207 Clouds 14 1025 72 10000 1.5 220 08:48 28.10.2020
6208 Clouds 14 1025 72 10000 1.5 220 08:27 28.10.2020
6209 Clouds 14 1026 72 10000 2.6 230 07:48 28.10.2020
6210 Clouds 15 1026 72 10000 3.1 230 07:30 28.10.2020
6211 Clouds 16 1026 67 10000 3.1 210 06:41 28.10.2020
6212 Clouds 16 1026 67 10000 3.1 210 05:52 28.10.2020
6213 Clouds 17 1026 67 10000 5.1 170 05:20 28.10.2020
6214 Clouds 17 1027 72 10000 6.2 170 04:25 28.10.2020
6215 Clouds 16 1028 72 10000 7.2 170 02:26 28.10.2020
6216 Clouds 15 1028 72 10000 8.2 170 01:50 28.10.2020
6217 Clouds 15 1030 58 10000 2.6 140 00:22 28.10.2020
6218 Clouds 14 1030 62 10000 3.6 110 23:43 27.10.2020
6219 Clouds 14 1030 67 10000 4.1 160 23:20 27.10.2020
6220 Clouds 13 1030 71 10000 2.6 150 22:44 27.10.2020
6221 Clouds 13 1030 71 10000 2.6 150 22:19 27.10.2020
6222 Clouds 13 1030 71 10000 2.6 150 22:19 27.10.2020
6223 Clouds 13 1030 71 10000 2.6 150 21:56 27.10.2020
6224 Clouds 12 1030 66 10000 3.6 160 21:37 27.10.2020
6225 Clouds 12 1030 66 10000 3.6 160 21:37 27.10.2020
6226 Clouds 12 1030 66 10000 3.6 160 21:37 27.10.2020
6227 Clouds 12 1030 76 10000 3.6 160 21:19 27.10.2020
6228 Clouds 12 1030 71 10000 1.5 160 20:44 27.10.2020
6229 Clouds 11 1030 71 10000 1.5 160 20:22 27.10.2020
6230 Clouds 10 1030 76 10000 5.1 140 19:40 27.10.2020
6231 Clouds 10 1030 76 10000 5.1 140 19:21 27.10.2020
6232 Clouds 10 1030 76 10000 5.7 140 18:59 27.10.2020
6233 Clouds 10 1030 76 10000 5.7 140 18:40 27.10.2020
6234 Clouds 10 1030 81 10000 7.2 150 18:21 27.10.2020
6235 Clouds 10 1030 76 10000 7.7 140 17:44 27.10.2020
6236 Clouds 10 1031 76 10000 7.2 140 17:22 27.10.2020
6237 Clouds 10 1031 76 10000 7.2 140 16:57 27.10.2020
6238 Clouds 10 1030 76 10000 7.7 140 16:39 27.10.2020
6239 Clouds 10 1030 71 10000 8.2 140 16:21 27.10.2020
6240 Clouds 10 1030 71 10000 7.7 150 15:41 27.10.2020
6241 Clouds 10 1030 71 10000 7.7 140 15:23 27.10.2020
6242 Clouds 10 1030 76 10000 7.7 140 14:48 27.10.2020
6243 Clouds 10 1030 76 10000 7.7 140 14:29 27.10.2020
6244 Clouds 10 1031 71 10000 8.2 140 13:58 27.10.2020
6245 Clouds 10 1031 76 10000 8.7 160 13:28 27.10.2020
6246 Clouds 10 1031 76 10000 8.7 150 12:44 27.10.2020
6247 Clouds 10 1031 76 10000 8.7 150 12:25 27.10.2020
6248 Clouds 10 1031 71 10000 8.7 150 11:58 27.10.2020
6249 Clouds 10 1031 76 10000 9.3 150 11:40 27.10.2020
6250 Clouds 10 1031 76 10000 8.7 150 11:20 27.10.2020
6251 Rain 10 1031 76 10000 9.8 160 10:39 27.10.2020
6252 Rain 10 1030 81 10000 8.7 160 10:19 27.10.2020
6253 Rain 9 1030 93 10000 6.7 140 09:28 27.10.2020
6254 Rain 9 1030 87 10000 9.8 160 08:56 27.10.2020
6255 Rain 10 1029 93 10000 9.8 170 08:29 27.10.2020
6256 Rain 10 1029 81 10000 9.3 160 07:52 27.10.2020
6257 Clouds 10 1028 76 10000 9.8 150 07:34 27.10.2020
6258 Rain 10 1028 76 10000 8.7 150 06:52 27.10.2020
6259 Rain 10 1028 76 10000 9.8 150 06:19 27.10.2020
6260 Rain 9 1027 87 10000 8.7 140 05:44 27.10.2020
6261 Rain 9 1028 81 10000 10.3 160 04:58 27.10.2020
6262 Rain 10 1027 93 5000 10.3 160 02:49 27.10.2020
6263 Rain 10 1025 100 4600 9.3 160 01:18 27.10.2020
6264 Rain 10 1025 100 4300 9.8 160 23:59 26.10.2020
6265 Rain 10 1024 100 3300 10.3 160 23:36 26.10.2020
6266 Rain 10 1024 100 5000 10.3 170 22:57 26.10.2020
6267 Rain 10 1024 100 6000 9.8 170 22:31 26.10.2020
6268 Rain 11 1023 100 8000 9.8 170 21:57 26.10.2020
6269 Rain 11 1023 100 5000 9.3 170 21:36 26.10.2020
6270 Rain 11 1023 93 6000 7.7 180 21:18 26.10.2020
6271 Rain 11 1022 100 5000 7.2 170 20:49 26.10.2020
6272 Rain 11 1022 100 5000 7.2 170 20:27 26.10.2020
6273 Rain 11 1022 100 8000 6.7 170 19:49 26.10.2020
6274 Rain 11 1021 100 7000 6.7 170 19:28 26.10.2020
6275 Rain 11 1021 93 5000 6.2 170 18:58 26.10.2020
6276 Rain 11 1021 93 5000 6.2 170 18:39 26.10.2020
6277 Mist 11 1021 93 4800 5.7 170 18:19 26.10.2020
6278 Rain 11 1021 100 7000 5.7 170 17:41 26.10.2020
6279 Rain 12 1021 100 7000 5.1 170 17:23 26.10.2020
6280 Rain 12 1021 100 10000 4.1 180 16:45 26.10.2020
6281 Rain 12 1022 100 9000 4.6 180 16:22 26.10.2020
6282 Rain 12 1022 100 9000 4.6 180 15:55 26.10.2020
6283 Rain 12 1022 93 10000 5.1 170 15:36 26.10.2020
6284 Rain 12 1022 100 8000 4.1 180 15:18 26.10.2020
6285 Rain 12 1022 100 7000 4.6 180 14:44 26.10.2020
6286 Rain 12 1022 100 9000 5.7 170 14:18 26.10.2020
6287 Rain 12 1023 100 8000 5.1 180 13:38 26.10.2020
6288 Rain 12 1023 100 7000 5.7 180 13:20 26.10.2020
6289 Rain 14 1022 100 7000 4.6 180 12:44 26.10.2020
6290 Rain 14 1022 100 7000 4.6 180 12:23 26.10.2020
6291 Rain 15 1022 93 10000 4.6 350 11:47 26.10.2020
6292 Rain 15 1022 93 10000 4.6 350 11:25 26.10.2020
6293 Rain 15 1022 93 10000 4.1 350 10:58 26.10.2020
6294 Rain 15 1022 93 10000 4.1 350 10:58 26.10.2020
6295 Rain 15 1022 93 10000 5.7 10 10:40 26.10.2020
6296 Rain 15 1022 82 10000 5.1 360 10:19 26.10.2020
6297 Clouds 16 1021 82 10000 5.1 350 09:42 26.10.2020
6298 Rain 16 1021 82 10000 6.2 350 09:19 26.10.2020
6299 Rain 16 1021 82 10000 5.1 350 08:28 26.10.2020
6300 Rain 16 1021 82 10000 6.2 360 07:52 26.10.2020
6301 Rain 15 1021 93 10000 8.7 360 07:33 26.10.2020
6302 Rain 16 1020 77 10000 9.3 350 06:19 26.10.2020
6303 Clouds 17 1020 72 10000 9.3 340 04:21 26.10.2020
6304 Clouds 18 1020 72 10000 9.8 360 03:21 26.10.2020
6305 Clouds 18 1020 72 10000 9.8 360 03:21 26.10.2020
6306 Clouds 18 1020 72 10000 11.8 340 01:37 26.10.2020
6307 Clouds 18 1020 72 10000 9.3 350 00:54 26.10.2020
6308 Clouds 17 1021 77 10000 10.3 340 00:31 26.10.2020
6309 Clouds 16 1021 88 10000 8.2 350 23:38 25.10.2020
6310 Clouds 17 1021 82 10000 10.8 360 23:19 25.10.2020
6311 Clouds 16 1021 88 10000 9.8 10 22:40 25.10.2020
6312 Clouds 16 1021 88 10000 9.8 360 22:20 25.10.2020
6313 Clouds 16 1021 88 10000 8.7 350 21:40 25.10.2020
6314 Clouds 16 1021 88 10000 8.7 350 21:21 25.10.2020
6315 Clouds 15 1020 93 10000 9.8 10 20:46 25.10.2020
6316 Clouds 15 1020 93 10000 9.8 10 20:27 25.10.2020
6317 Clouds 15 1020 87 10000 8.7 350 19:59 25.10.2020
6318 Clouds 15 1020 87 10000 8.2 10 19:41 25.10.2020
6319 Clouds 15 1020 87 10000 8.2 10 19:21 25.10.2020
6320 Clouds 15 1020 87 10000 9.3 20 18:41 25.10.2020
6321 Rain 15 1020 87 10000 9.3 20 18:23 25.10.2020
6322 Rain 15 1020 87 10000 7.7 340 17:58 25.10.2020
6323 Rain 15 1020 87 10000 7.7 360 17:38 25.10.2020
6324 Clouds 15 1020 87 10000 9.3 360 17:20 25.10.2020
6325 Clouds 15 1020 87 10000 9.3 360 16:52 25.10.2020
6326 Clouds 15 1020 87 10000 8.7 340 16:31 25.10.2020
6327 Clouds 15 1020 87 10000 9.8 350 15:52 25.10.2020
6328 Clouds 15 1020 87 10000 10.3 340 15:32 25.10.2020
6329 Clouds 15 1020 87 10000 8.7 340 14:58 25.10.2020
6330 Clouds 15 1021 82 10000 9.8 350 14:38 25.10.2020
6331 Clouds 15 1021 82 10000 10.3 340 14:19 25.10.2020
6332 Clouds 15 1021 82 10000 9.3 350 13:42 25.10.2020
6333 Clear 15 1021 87 10000 9.8 350 13:19 25.10.2020
6334 Clouds 16 1021 82 10000 10.8 340 12:46 25.10.2020
6335 Clouds 16 1021 82 10000 10.8 340 12:26 25.10.2020
6336 Clouds 16 1021 82 10000 9.3 340 11:44 25.10.2020
6337 Clouds 16 1021 82 10000 9.3 340 11:22 25.10.2020
6338 Clouds 15 1021 87 10000 9.8 350 10:57 25.10.2020
6339 Clouds 16 1021 82 10000 10.8 340 10:38 25.10.2020
6340 Clouds 16 1021 82 10000 10.8 340 10:20 25.10.2020
6341 Clouds 16 1020 82 10000 10.3 340 09:40 25.10.2020
6342 Clouds 16 1020 82 10000 9.3 330 09:19 25.10.2020
6343 Clouds 16 1020 82 10000 8.7 340 08:41 25.10.2020
6344 Clouds 16 1020 82 10000 8.7 340 08:22 25.10.2020
6345 Clouds 16 1019 82 10000 11.8 330 07:47 25.10.2020
6346 Clouds 16 1019 82 10000 11.8 330 07:25 25.10.2020
6347 Clouds 16 1020 88 10000 11.8 330 06:46 25.10.2020
6348 Clouds 16 1020 82 10000 10.8 340 05:43 25.10.2020
6349 Clouds 17 1020 82 10000 10.8 330 04:52 25.10.2020
6350 Clouds 17 1021 82 10000 10.3 350 02:58 25.10.2020
6351 Clouds 16 1022 93 10000 10.3 340 01:20 25.10.2020
6352 Clouds 15 1022 100 10000 8.7 350 00:42 25.10.2020
6353 Rain 15 1022 100 10000 8.7 350 00:18 25.10.2020
6354 Rain 15 1022 100 8000 9.8 360 23:43 24.10.2020
6355 Rain 15 1022 100 8000 9.8 360 23:24 24.10.2020
6356 Rain 15 1022 93 9000 8.7 360 22:42 24.10.2020
6357 Clouds 15 1022 93 9000 8.7 360 22:23 24.10.2020
6358 Clouds 15 1022 93 9000 9.8 360 21:57 24.10.2020
6359 Clouds 15 1022 93 10000 9.8 360 21:38 24.10.2020
6360 Clouds 15 1022 93 10000 10.3 360 21:19 24.10.2020
6361 Clouds 15 1022 93 10000 9.3 10 20:45 24.10.2020
6362 Clouds 15 1022 93 10000 9.3 10 20:22 24.10.2020
6363 Clouds 15 1021 93 10000 9.3 10 19:45 24.10.2020
6364 Clouds 15 1021 93 10000 9.3 10 19:25 24.10.2020
6365 Rain 15 1021 100 10000 9.3 10 18:55 24.10.2020
6366 Rain 15 1022 100 7000 8.2 10 18:36 24.10.2020
6367 Rain 14 1022 100 8000 8.7 10 17:56 24.10.2020
6368 Drizzle 14 1022 100 6000 9.3 10 17:27 24.10.2020
6369 Clouds 15 1022 93 10000 8.7 10 16:59 24.10.2020
6370 Clouds 15 1022 93 10000 9.8 10 16:41 24.10.2020
6371 Clouds 15 1022 93 10000 8.7 360 15:59 24.10.2020
6372 Clouds 15 1023 93 10000 8.7 360 15:38 24.10.2020
6373 Clouds 15 1023 93 10000 8.7 360 15:19 24.10.2020
6374 Clouds 15 1023 93 10000 7.7 360 14:43 24.10.2020
6375 Clouds 15 1023 93 10000 7.7 360 14:23 24.10.2020
6376 Clouds 15 1023 100 10000 7.2 360 13:44 24.10.2020
6377 Clouds 15 1023 100 10000 7.2 360 13:20 24.10.2020
6378 Clouds 15 1023 100 10000 7.2 360 13:20 24.10.2020
6379 Mist 15 1024 93 4900 7.7 10 12:41 24.10.2020
6380 Mist 15 1024 93 4900 7.7 10 12:21 24.10.2020
6381 Mist 15 1024 93 5000 8.7 10 11:51 24.10.2020
6382 Clear 15 1024 93 10000 10.3 10 11:24 24.10.2020
6383 Clear 15 1023 93 10000 10.8 360 10:52 24.10.2020
6384 Rain 15 1023 93 10000 9.8 360 10:32 24.10.2020
6385 Clear 15 1023 93 10000 10.8 360 09:50 24.10.2020
6386 Clear 15 1023 100 10000 9.8 360 09:28 24.10.2020
6387 Rain 15 1023 100 6000 9.8 360 08:58 24.10.2020
6388 Mist 15 1023 100 5000 9.8 360 08:19 24.10.2020
6389 Clouds 15 1023 87 7000 10.3 360 07:53 24.10.2020
6390 Clouds 15 1023 87 7000 10.3 360 07:53 24.10.2020
6391 Clouds 15 1023 87 7000 10.3 360 07:53 24.10.2020
6392 Clouds 15 1023 87 10000 10.3 360 07:24 24.10.2020
6393 Clouds 16 1022 87 10000 10.3 360 06:53 24.10.2020
6394 Clouds 16 1022 87 10000 10.3 360 06:53 24.10.2020
6395 Clouds 16 1023 77 10000 10.3 360 06:22 24.10.2020
6396 Clouds 19 1024 63 10000 8.7 350 02:56 24.10.2020
6397 Clouds 18 1024 63 10000 9.3 360 01:20 24.10.2020
6398 Clouds 18 1024 59 10000 9.3 360 00:40 24.10.2020
6399 Clouds 18 1024 59 10000 9.3 360 00:21 24.10.2020
6400 Clouds 17 1024 63 10000 9.3 360 23:49 23.10.2020
6401 Clouds 17 1024 63 10000 9.3 360 23:26 23.10.2020
6402 Clouds 17 1024 63 10000 9.8 360 22:57 23.10.2020
6403 Clouds 16 1024 67 10000 9.3 360 22:37 23.10.2020
6404 Clouds 16 1024 67 10000 9.8 10 22:18 23.10.2020
6405 Clouds 16 1023 63 10000 8.7 20 21:45 23.10.2020
6406 Clear 15 1023 63 10000 8.7 20 21:24 23.10.2020
6407 Clear 14 1023 67 10000 8.2 10 20:41 23.10.2020
6408 Clear 14 1023 67 10000 8.2 10 20:23 23.10.2020
6409 Clear 13 1023 67 10000 8.7 10 19:52 23.10.2020
6410 Rain 13 1023 67 10000 6.7 20 19:32 23.10.2020
6411 Rain 13 1023 67 10000 7.7 10 18:55 23.10.2020
6412 Clouds 13 1022 71 10000 8.2 10 18:34 23.10.2020
6413 Rain 13 1022 71 10000 9.8 10 17:51 23.10.2020
6414 Rain 13 1022 76 10000 10.3 360 17:26 23.10.2020
6415 Rain 13 1022 76 10000 9.3 10 16:56 23.10.2020
6416 Rain 13 1022 76 10000 9.3 10 16:56 23.10.2020
6417 Rain 13 1022 76 10000 9.8 360 16:37 23.10.2020
6418 Clear 13 1023 76 10000 8.7 10 16:19 23.10.2020
6419 Clear 13 1023 71 10000 9.3 10 15:42 23.10.2020
6420 Rain 13 1023 71 10000 9.3 10 15:23 23.10.2020
6421 Rain 13 1023 76 10000 8.2 20 14:53 23.10.2020
6422 Clear 13 1023 76 10000 6.7 10 14:34 23.10.2020
6423 Rain 13 1023 71 10000 6.2 20 13:56 23.10.2020
6424 Rain 13 1023 71 10000 7.7 20 13:37 23.10.2020
6425 Rain 13 1023 71 10000 7.7 20 13:37 23.10.2020
6426 Rain 13 1023 71 10000 8.7 10 13:18 23.10.2020
6427 Rain 13 1023 71 10000 8.7 10 12:42 23.10.2020
6428 Clouds 13 1023 71 10000 8.7 10 12:23 23.10.2020
6429 Rain 14 1023 67 10000 7.2 360 11:46 23.10.2020
6430 Clouds 14 1023 67 10000 7.2 360 11:21 23.10.2020
6431 Rain 14 1022 67 10000 10.3 360 10:43 23.10.2020
6432 Clouds 14 1022 67 10000 10.3 360 10:25 23.10.2020
6433 Rain 14 1022 76 10000 9.8 360 09:44 23.10.2020
6434 Rain 14 1022 76 10000 9.8 360 09:26 23.10.2020
6435 Clouds 14 1022 72 10000 10.3 360 08:52 23.10.2020
6436 Clouds 15 1022 63 10000 8.7 20 08:30 23.10.2020
6437 Clouds 15 1022 67 10000 8.7 10 07:30 23.10.2020
6438 Clouds 16 1022 63 10000 9.8 10 06:57 23.10.2020
6439 Clouds 16 1021 59 10000 10.8 360 06:20 23.10.2020
6440 Clouds 18 1022 63 10000 10.8 360 04:45 23.10.2020
6441 Clouds 17 1023 63 10000 10.8 360 02:32 23.10.2020
6442 Rain 17 1023 59 10000 10.3 350 01:22 23.10.2020
6443 Clouds 16 1023 72 10000 10.3 360 00:33 23.10.2020
6444 Clouds 16 1023 67 10000 9.8 360 23:40 22.10.2020
6445 Clear 16 1023 72 10000 9.3 360 23:19 22.10.2020
6446 Clear 15 1023 72 10000 9.3 360 22:47 22.10.2020
6447 Clear 15 1023 72 10000 9.3 360 22:26 22.10.2020
6448 Clear 14 1023 76 10000 8.2 360 21:58 22.10.2020
6449 Clear 14 1023 82 10000 7.2 350 21:40 22.10.2020
6450 Clouds 14 1022 82 10000 7.7 350 21:20 22.10.2020
6451 Clouds 13 1022 82 10000 7.2 350 20:44 22.10.2020
6452 Clear 13 1022 82 10000 7.2 350 20:25 22.10.2020
6453 Clear 12 1022 82 10000 7.7 360 19:44 22.10.2020
6454 Clear 12 1021 82 10000 7.2 360 19:21 22.10.2020
6455 Clear 12 1021 82 10000 7.2 360 18:59 22.10.2020
6456 Clear 12 1021 82 10000 6.7 350 18:39 22.10.2020
6457 Clear 12 1021 82 10000 6.2 350 18:19 22.10.2020
6458 Clear 12 1016 86 10000 0.45 240 17:44 22.10.2020
6459 Rain 12 1016 86 10000 0.45 154 17:21 22.10.2020
6460 Clear 12 1020 90 10000 0.89 7 16:45 22.10.2020
6461 Clear 12 1021 82 10000 7.7 350 16:25 22.10.2020
6462 Clear 12 1020 89 10000 1.34 319 15:50 22.10.2020
6463 Rain 12 1022 82 10000 9.3 10 15:27 22.10.2020
6464 Rain 12 1022 82 10000 9.3 360 14:56 22.10.2020
6465 Clear 12 1022 82 10000 9.3 360 14:37 22.10.2020
6466 Clouds 12 1022 82 10000 9.8 360 14:19 22.10.2020
6467 Clouds 12 1022 82 10000 9.3 360 13:41 22.10.2020
6468 Clouds 12 1022 82 10000 9.3 360 13:22 22.10.2020
6469 Clouds 12 1021 82 10000 9.8 360 12:41 22.10.2020
6470 Clouds 12 1021 82 10000 9.8 360 12:22 22.10.2020
6471 Clouds 12 1021 82 10000 9.3 350 11:42 22.10.2020
6472 Clouds 12 1021 82 10000 9.8 10 11:18 22.10.2020
6473 Clouds 12 1021 82 10000 8.2 360 10:47 22.10.2020
6474 Clouds 12 1021 82 10000 8.2 360 10:25 22.10.2020
6475 Clouds 13 1020 67 10000 7.7 20 09:43 22.10.2020
6476 Clear 13 1020 67 10000 7.7 20 09:21 22.10.2020
6477 Clear 14 1020 67 10000 8.7 10 08:41 22.10.2020
6478 Clear 14 1020 67 10000 8.7 10 08:23 22.10.2020
6479 Clear 15 1020 63 10000 9.3 360 07:43 22.10.2020
6480 Clear 15 1020 63 10000 8.7 360 07:18 22.10.2020
6481 Clear 16 1020 67 10000 9.3 360 06:41 22.10.2020
6482 Clear 16 1020 67 10000 9.3 360 06:23 22.10.2020
6483 Clear 17 1020 59 10000 8.7 360 05:38 22.10.2020
6484 Clear 16 1021 63 10000 8.2 360 03:25 22.10.2020
6485 Clear 16 1021 63 10000 7.2 360 00:55 22.10.2020
6486 Clear 16 1022 63 10000 6.7 360 00:22 22.10.2020
6487 Clear 15 1022 67 10000 7.7 360 23:43 21.10.2020
6488 Clear 15 1022 72 10000 6.7 350 23:19 21.10.2020
6489 Clear 14 1021 71 10000 5.7 350 22:37 21.10.2020
6490 Clear 14 1021 71 10000 6.2 10 22:19 21.10.2020
6491 Clear 13 1021 76 10000 5.1 20 21:45 21.10.2020
6492 Clear 13 1021 81 10000 5.1 20 21:20 21.10.2020
6493 Clear 12 1021 81 10000 5.1 20 20:57 21.10.2020
6494 Clear 12 1020 81 10000 5.1 30 20:39 21.10.2020
6495 Clear 12 1020 81 10000 5.1 30 20:18 21.10.2020
6496 Clear 11 1020 81 10000 4.6 20 19:40 21.10.2020
6497 Clear 11 1020 81 10000 4.6 20 19:22 21.10.2020
6498 Clear 11 1020 81 10000 4.6 30 18:52 21.10.2020
6499 Clear 11 1020 81 10000 5.1 30 18:30 21.10.2020
6500 Rain 11 1020 81 10000 6.7 20 17:50 21.10.2020
6501 Clear 12 1019 81 10000 7.2 10 17:22 21.10.2020
6502 Clear 11 1019 81 10000 7.2 10 16:59 21.10.2020
6503 Clear 12 1019 81 10000 6.2 30 16:39 21.10.2020
6504 Clear 12 1019 81 10000 6.2 30 16:20 21.10.2020
6505 Clear 12 1019 81 10000 6.2 20 15:45 21.10.2020
6506 Clear 12 1019 81 10000 6.7 20 15:22 21.10.2020
6507 Rain 11 1019 81 10000 7.2 20 14:49 21.10.2020
6508 Clouds 12 1020 81 10000 6.7 360 14:29 21.10.2020
6509 Clouds 12 1019 81 10000 7.7 360 13:57 21.10.2020
6510 Rain 12 1018 85 10000 2.24 53 13:39 21.10.2020
6511 Clouds 12 1014 82 10000 0.45 297 13:20 21.10.2020
6512 Clouds 12 1019 81 10000 8.7 360 12:38 21.10.2020
6513 Clear 12 1019 81 10000 8.7 360 12:19 21.10.2020
6514 Rain 12 1019 71 10000 9.3 360 11:41 21.10.2020
6515 Clear 12 1019 71 10000 8.7 360 11:20 21.10.2020
6516 Clear 12 1018 71 10000 9.8 360 10:47 21.10.2020
6517 Clear 12 1018 71 10000 9.3 10 10:26 21.10.2020
6518 Clear 12 1018 71 10000 9.8 10 09:57 21.10.2020
6519 Clear 12 1017 76 10000 9.8 10 09:35 21.10.2020
6520 Clear 13 1017 67 10000 10.8 360 08:57 21.10.2020
6521 Clear 13 1017 67 10000 9.8 350 08:39 21.10.2020
6522 Clear 14 1017 67 10000 9.8 350 08:21 21.10.2020
6523 Clear 14 1017 77 10000 10.8 350 07:38 21.10.2020
6524 Clear 15 1016 67 10000 11.3 350 06:55 21.10.2020
6525 Clear 15 1017 72 10000 11.3 360 06:32 21.10.2020
6526 Clear 16 1017 67 10000 10.8 360 04:47 21.10.2020
6527 Clouds 16 1018 72 10000 8.7 10 02:26 21.10.2020
6528 Clouds 15 1019 77 10000 7.2 10 23:55 20.10.2020
6529 Clouds 14 1019 76 10000 6.2 10 23:20 20.10.2020
6530 Rain 13 1019 76 10000 5.1 30 22:36 20.10.2020
6531 Rain 13 1019 76 10000 5.1 30 22:18 20.10.2020
6532 Rain 12 1019 76 10000 3.6 20 21:45 20.10.2020
6533 Clouds 12 1019 81 10000 3.6 20 21:18 20.10.2020
6534 Rain 11 1019 87 10000 3.6 10 20:42 20.10.2020
6535 Clouds 11 1019 87 10000 3.6 10 20:23 20.10.2020
6536 Clouds 10 1018 87 10000 3.6 360 19:44 20.10.2020
6537 Rain 10 1018 87 10000 3.1 360 19:22 20.10.2020
6538 Clouds 10 1018 81 10000 3.1 20 18:56 20.10.2020
6539 Rain 10 1018 87 10000 2.6 20 18:37 20.10.2020
6540 Clouds 9 1018 87 10000 2.6 40 17:50 20.10.2020
6541 Clouds 9 1018 87 10000 1 30 17:32 20.10.2020
6542 Clouds 9 1018 87 10000 2.6 30 16:56 20.10.2020
6543 Clouds 9 1018 81 10000 1.5 30 16:38 20.10.2020
6544 Clouds 10 1018 81 10000 1.5 30 16:20 20.10.2020
6545 Clouds 10 1018 81 10000 1 360 15:41 20.10.2020
6546 Clouds 10 1018 81 10000 1 360 15:22 20.10.2020
6547 Clouds 10 1018 81 10000 1 10 14:44 20.10.2020
6548 Clouds 10 1018 82 10000 0.5 50 14:24 20.10.2020
6549 Clouds 12 1018 59 10000 2.1 10 13:57 20.10.2020
6550 Clouds 11 1018 81 10000 3.1 360 13:38 20.10.2020
6551 Clouds 11 1018 81 10000 3.1 360 13:19 20.10.2020
6552 Clouds 11 1018 82 10000 1.5 10 12:46 20.10.2020
6553 Clouds 11 1018 81 10000 3.1 360 12:28 20.10.2020
6554 Clouds 11 1018 76 10000 2.1 10 11:46 20.10.2020
6555 Clouds 11 1018 76 10000 2.6 30 11:27 20.10.2020
6556 Clouds 12 1017 71 10000 4.1 20 10:40 20.10.2020
6557 Clouds 12 1017 71 10000 4.1 20 10:22 20.10.2020
6558 Clouds 12 1017 76 10000 3.6 20 09:44 20.10.2020
6559 Clouds 12 1016 76 10000 5.7 360 09:19 20.10.2020
6560 Clouds 13 1016 71 10000 6.2 10 08:39 20.10.2020
6561 Clouds 13 1015 71 10000 7.7 360 07:54 20.10.2020
6562 Clouds 14 1015 67 10000 8.7 10 07:26 20.10.2020
6563 Clouds 14 1014 72 10000 8.2 360 06:57 20.10.2020
6564 Clouds 14 1014 67 10000 8.2 360 06:19 20.10.2020
6565 Clouds 16 1014 67 10000 9.3 10 03:59 20.10.2020
6566 Clouds 16 1012 67 10000 10.3 10 02:30 20.10.2020
6567 Clouds 16 1012 63 10000 9.3 20 01:22 20.10.2020
6568 Clouds 16 1012 67 10000 8.7 20 00:50 20.10.2020
6569 Clouds 15 1011 72 10000 8.7 10 00:24 20.10.2020
6570 Clouds 15 1011 77 10000 8.2 10 23:49 19.10.2020
6571 Clouds 15 1011 77 10000 7.7 10 23:24 19.10.2020
6572 Clouds 15 1011 82 10000 7.2 10 22:54 19.10.2020
6573 Clouds 15 1011 82 10000 5.1 10 22:26 19.10.2020
6574 Clouds 14 1011 82 10000 5.7 20 21:50 19.10.2020
6575 Clouds 13 1010 87 10000 7.7 10 21:24 19.10.2020
6576 Clouds 12 1010 87 10000 5.1 10 20:59 19.10.2020
6577 Clouds 12 1010 87 10000 4.6 20 20:39 19.10.2020
6578 Clouds 12 1010 87 10000 4.6 20 20:39 19.10.2020
6579 Clouds 12 1010 87 10000 4.6 20 20:18 19.10.2020
6580 Clouds 12 1009 87 10000 5.7 10 19:42 19.10.2020
6581 Clouds 12 1009 87 10000 5.7 10 19:19 19.10.2020
6582 Clouds 12 1009 87 10000 5.1 30 18:49 19.10.2020
6583 Clouds 12 1008 87 10000 8.2 10 18:20 19.10.2020
6584 Clouds 12 1008 87 10000 6.2 10 17:47 19.10.2020
6585 Clouds 12 1008 87 10000 6.7 20 17:26 19.10.2020
6586 Clouds 12 1008 87 10000 5.7 20 16:53 19.10.2020
6587 Clouds 12 1008 87 10000 7.2 30 16:29 19.10.2020
6588 Clouds 12 1003 90 10000 7.92 324 15:47 19.10.2020
6589 Clouds 13 1003 90 10000 0.45 157 15:26 19.10.2020
6590 Clouds 13 1006 93 10000 1.79 51 14:57 19.10.2020
6591 Clouds 13 1006 93 10000 0.89 325 14:36 19.10.2020
6592 Clouds 13 1003 90 10000 0.45 108 14:18 19.10.2020
6593 Clouds 13 1003 91 10000 0.45 156 13:42 19.10.2020
6594 Clouds 13 1006 94 10000 0.45 179 13:22 19.10.2020
6595 Clouds 13 1006 95 10000 2.68 354 12:43 19.10.2020
6596 Clouds 13 1003 91 10000 0.89 298 12:25 19.10.2020
6597 Clouds 14 1003 91 10000 1.34 353 11:48 19.10.2020
6598 Clouds 14 1007 87 10000 9.3 350 11:22 19.10.2020
6599 Clouds 14 1007 87 10000 9.3 350 10:44 19.10.2020
6600 Clouds 14 1007 87 10000 9.3 350 10:23 19.10.2020
6601 Clouds 14 1005 87 10000 10.3 340 09:56 19.10.2020
6602 Rain 15 1005 82 10000 10.3 330 09:25 19.10.2020
6603 Rain 15 1005 87 10000 9.8 330 08:59 19.10.2020
6604 Rain 15 1004 87 10000 8.7 330 08:41 19.10.2020
6605 Clouds 15 1004 87 10000 8.7 330 08:20 19.10.2020
6606 Rain 15 1005 93 10000 11.3 340 07:20 19.10.2020
6607 Rain 15 1005 93 10000 13.9 340 06:36 19.10.2020
6608 Rain 15 1006 93 9000 10.8 340 04:47 19.10.2020
6609 Rain 15 1007 93 10000 12.3 340 03:45 19.10.2020
6610 Clouds 16 1009 82 10000 10.8 360 01:33 19.10.2020
6611 Clouds 15 1009 82 10000 11.3 350 00:28 19.10.2020
6612 Clouds 14 1010 82 10000 10.3 350 23:56 18.10.2020
6613 Clouds 14 1010 77 10000 9.8 350 23:37 18.10.2020
6614 Clouds 14 1010 82 10000 10.3 360 23:18 18.10.2020
6615 Clouds 13 1010 76 10000 10.3 350 22:43 18.10.2020
6616 Clouds 13 1011 87 10000 9.3 360 22:18 18.10.2020
6617 Clouds 13 1011 76 10000 10.8 350 21:38 18.10.2020
6618 Clouds 12 1011 82 10000 9.8 340 21:20 18.10.2020
6619 Clouds 12 1011 82 10000 10.3 350 20:43 18.10.2020
6620 Clouds 12 1011 82 10000 10.3 350 20:22 18.10.2020
6621 Clouds 12 1011 82 10000 12.3 360 19:49 18.10.2020
6622 Clouds 12 1011 82 10000 12.3 360 19:26 18.10.2020
6623 Rain 12 1011 82 10000 10.3 360 18:51 18.10.2020
6624 Rain 12 1011 87 10000 9.3 360 18:30 18.10.2020
6625 Clouds 12 1012 87 10000 8.7 350 17:59 18.10.2020
6626 Clouds 12 1012 82 10000 8.7 350 17:40 18.10.2020
6627 Clouds 12 1012 82 10000 8.7 350 17:21 18.10.2020
6628 Clouds 12 1012 87 10000 8.7 360 16:41 18.10.2020
6629 Clouds 12 1012 87 10000 8.7 360 16:21 18.10.2020
6630 Clouds 12 1013 87 10000 8.2 350 15:42 18.10.2020
6631 Clouds 12 1013 87 10000 8.7 360 15:19 18.10.2020
6632 Clouds 12 1013 87 10000 8.7 360 14:57 18.10.2020
6633 Clouds 12 1013 87 10000 8.2 10 14:31 18.10.2020
6634 Rain 12 1013 87 10000 8.7 10 13:58 18.10.2020
6635 Rain 12 1014 87 10000 7.2 350 13:40 18.10.2020
6636 Rain 12 1014 93 5000 7.2 20 13:21 18.10.2020
6637 Rain 12 1014 93 3700 7.2 20 12:43 18.10.2020
6638 Rain 12 1014 93 3700 7.2 20 12:22 18.10.2020
6639 Rain 12 1015 93 9000 7.2 360 11:42 18.10.2020
6640 Rain 12 1015 93 9000 7.2 360 11:23 18.10.2020
6641 Rain 12 1015 93 4500 5.7 10 10:45 18.10.2020
6642 Rain 12 1015 93 4500 5.7 10 10:21 18.10.2020
6643 Rain 12 1015 93 4500 5.7 10 10:21 18.10.2020
6644 Rain 12 1015 93 7000 5.1 10 09:58 18.10.2020
6645 Rain 12 1015 87 9000 5.1 350 09:39 18.10.2020
6646 Rain 13 1015 76 10000 6.2 350 09:19 18.10.2020
6647 Rain 13 1014 76 10000 6.7 360 08:43 18.10.2020
6648 Rain 13 1014 76 10000 6.7 360 08:25 18.10.2020
6649 Rain 13 1015 77 10000 5.7 10 07:48 18.10.2020